<?xml version="1.0" encoding="UTF-8" standalone="no" ?>
<gpx xmlns="http://www.topografix.com/GPX/1/1" xmlns:xsi="http://www.w3.org/2001/XMLSchema-instance" xsi:schemaLocation="http://www.topografix.com/GPX/1/1 http://www.topografix.com/GPX/1/1/gpx.xsd" version="1.1" creator="VisuGPX - https://www.visugpx.com">
  <metadata>
    <name>gtmc j5 chalinargues neussargues via chamalieres</name>
    <desc><![CDATA[
Distance: 53,5 km
D+ Baro = 1000m]]></desc>
  </metadata>
  <wpt lat="45.15469" lon="2.93157">
    <ele>1070.98</ele>
    <name><![CDATA[0000632]]></name>
    <type><![CDATA[Point de départ]]></type>
  </wpt>
  <wpt lat="45.12556" lon="2.97491">
    <ele>803.67</ele>
    <name><![CDATA[0000633]]></name>
    <desc><![CDATA[<p><br /><h3>Nom: Segment: 1</h3><br />Heure de départ: 09:45 23 juil. 2021<br/>Heure d'arrivée: 18:49 23 juil. 2021<br/>Distance: 53,5km (09:03)<br/>Temps déplacement: 05:03<br/>Vitesse moyenne: 5,91 km/h<br/>Vitesse moyenne mouv.: 10,53 km/h<br/>Vitesse Max.: 55,13 km/h<br/>Altitude minimale: 799 m<br/>Altitude maximale: 1414 m<br/>Vitesse de montée: 385,7 m/h<br/>Vitesse de descente: -370,2 m/h<br/>Gain d'altitude: 1567 m<br/>Perte d'altitude: -1836 m<br/>Temps de montée: 04:03<br/>Temps de descente: 04:57<br/></p>]]></desc>
    <type><![CDATA[Point d'arrivée]]></type>
  </wpt>
  <trk>
    <name><![CDATA[gtmc j5 chalinargues neussargues]]></name>
    <desc><![CDATA[<p>Heure de départ: 09:45 23 juil. 2021<br/>Heure d'arrivée: 18:49 23 juil. 2021<br/>Distance: 53,5 km (09:03)<br/>Temps déplacement: 05:03<br/>Vitesse moyenne: 5,91 km/h<br/>Vitesse moyenne mouv.: 10,56 km/h<br/>Vitesse Max.: 55,13 km/h<br/>Altitude minimale: 799 m<br/>Altitude maximale: 1414 m<br/>Vitesse de montée: 329,1 m/h<br/>Vitesse de descente: -361,6 m/h<br/>Gain d'altitude: 1423 m<br/>Perte d'altitude: -1692 m<br/>Temps de montée: 04:19<br/>Temps de descente: 04:40<br/></p><hr align="center" width="480" style="height: 2px; width: 517px"/>]]></desc>
    <trkseg>
      <trkpt lat="45.15469" lon="2.93157">
        <ele>1070.98</ele>
        <time>2021-07-23T07:45:43Z</time>
      </trkpt>
      <trkpt lat="45.15479" lon="2.9316">
        <ele>1071.35</ele>
        <time>2021-07-23T07:45:49Z</time>
      </trkpt>
      <trkpt lat="45.15489" lon="2.93163">
        <ele>1071.98</ele>
        <time>2021-07-23T07:45:55Z</time>
      </trkpt>
      <trkpt lat="45.15489" lon="2.93178">
        <ele>1071.09</ele>
        <time>2021-07-23T07:46:01Z</time>
      </trkpt>
      <trkpt lat="45.15481" lon="2.93188">
        <ele>1072.66</ele>
        <time>2021-07-23T07:46:04Z</time>
      </trkpt>
      <trkpt lat="45.15473" lon="2.93194">
        <ele>1071.41</ele>
        <time>2021-07-23T07:46:07Z</time>
      </trkpt>
      <trkpt lat="45.15464" lon="2.93202">
        <ele>1069.64</ele>
        <time>2021-07-23T07:46:12Z</time>
      </trkpt>
      <trkpt lat="45.15456" lon="2.9321">
        <ele>1067.41</ele>
        <time>2021-07-23T07:46:16Z</time>
      </trkpt>
      <trkpt lat="45.15447" lon="2.93214">
        <ele>1069.24</ele>
        <time>2021-07-23T07:46:25Z</time>
      </trkpt>
      <trkpt lat="45.15437" lon="2.93216">
        <ele>1070.77</ele>
        <time>2021-07-23T07:46:30Z</time>
      </trkpt>
      <trkpt lat="45.15428" lon="2.93218">
        <ele>1072.57</ele>
        <time>2021-07-23T07:46:34Z</time>
      </trkpt>
      <trkpt lat="45.15418" lon="2.93224">
        <ele>1074.31</ele>
        <time>2021-07-23T07:46:37Z</time>
      </trkpt>
      <trkpt lat="45.15409" lon="2.93232">
        <ele>1074.45</ele>
        <time>2021-07-23T07:46:41Z</time>
      </trkpt>
      <trkpt lat="45.15403" lon="2.93243">
        <ele>1073.9</ele>
        <time>2021-07-23T07:46:47Z</time>
      </trkpt>
      <trkpt lat="45.15404" lon="2.93256">
        <ele>1076.1</ele>
        <time>2021-07-23T07:46:52Z</time>
      </trkpt>
      <trkpt lat="45.15399" lon="2.93245">
        <ele>1075.27</ele>
        <time>2021-07-23T07:48:58Z</time>
      </trkpt>
      <trkpt lat="45.1539" lon="2.93249">
        <ele>1074.15</ele>
        <time>2021-07-23T07:49:04Z</time>
      </trkpt>
      <trkpt lat="45.1538" lon="2.93248">
        <ele>1073.19</ele>
        <time>2021-07-23T07:49:08Z</time>
      </trkpt>
      <trkpt lat="45.15371" lon="2.93241">
        <ele>1069.21</ele>
        <time>2021-07-23T07:49:13Z</time>
      </trkpt>
      <trkpt lat="45.1536" lon="2.93241">
        <ele>1070.02</ele>
        <time>2021-07-23T07:49:17Z</time>
      </trkpt>
      <trkpt lat="45.1535" lon="2.93232">
        <ele>1070.02</ele>
        <time>2021-07-23T07:49:21Z</time>
      </trkpt>
      <trkpt lat="45.15348" lon="2.93217">
        <ele>1068.6</ele>
        <time>2021-07-23T07:49:26Z</time>
      </trkpt>
      <trkpt lat="45.15354" lon="2.93207">
        <ele>1069.72</ele>
        <time>2021-07-23T07:49:31Z</time>
      </trkpt>
      <trkpt lat="45.15363" lon="2.93202">
        <ele>1068.69</ele>
        <time>2021-07-23T07:49:36Z</time>
      </trkpt>
      <trkpt lat="45.15369" lon="2.93191">
        <ele>1068.49</ele>
        <time>2021-07-23T07:49:40Z</time>
      </trkpt>
      <trkpt lat="45.15376" lon="2.93181">
        <ele>1069.03</ele>
        <time>2021-07-23T07:49:44Z</time>
      </trkpt>
      <trkpt lat="45.15384" lon="2.93171">
        <ele>1068.47</ele>
        <time>2021-07-23T07:49:49Z</time>
      </trkpt>
      <trkpt lat="45.15393" lon="2.93163">
        <ele>1065.64</ele>
        <time>2021-07-23T07:49:54Z</time>
      </trkpt>
      <trkpt lat="45.15403" lon="2.93158">
        <ele>1065.84</ele>
        <time>2021-07-23T07:49:59Z</time>
      </trkpt>
      <trkpt lat="45.15408" lon="2.93146">
        <ele>1066.06</ele>
        <time>2021-07-23T07:50:05Z</time>
      </trkpt>
      <trkpt lat="45.15404" lon="2.93134">
        <ele>1066.65</ele>
        <time>2021-07-23T07:50:10Z</time>
      </trkpt>
      <trkpt lat="45.15401" lon="2.93122">
        <ele>1067.12</ele>
        <time>2021-07-23T07:50:15Z</time>
      </trkpt>
      <trkpt lat="45.15406" lon="2.9311">
        <ele>1066.58</ele>
        <time>2021-07-23T07:50:20Z</time>
      </trkpt>
      <trkpt lat="45.1541" lon="2.93097">
        <ele>1069.62</ele>
        <time>2021-07-23T07:50:27Z</time>
      </trkpt>
      <trkpt lat="45.15413" lon="2.93085">
        <ele>1069.44</ele>
        <time>2021-07-23T07:50:35Z</time>
      </trkpt>
      <trkpt lat="45.15404" lon="2.93078">
        <ele>1072.42</ele>
        <time>2021-07-23T07:50:43Z</time>
      </trkpt>
      <trkpt lat="45.15395" lon="2.93074">
        <ele>1072.27</ele>
        <time>2021-07-23T07:50:53Z</time>
      </trkpt>
      <trkpt lat="45.15388" lon="2.93064">
        <ele>1072.37</ele>
        <time>2021-07-23T07:51:01Z</time>
      </trkpt>
      <trkpt lat="45.15388" lon="2.9305">
        <ele>1071.07</ele>
        <time>2021-07-23T07:51:11Z</time>
      </trkpt>
      <trkpt lat="45.15395" lon="2.93041">
        <ele>1072.25</ele>
        <time>2021-07-23T07:51:18Z</time>
      </trkpt>
      <trkpt lat="45.15403" lon="2.93034">
        <ele>1072.96</ele>
        <time>2021-07-23T07:51:26Z</time>
      </trkpt>
      <trkpt lat="45.15411" lon="2.93026">
        <ele>1073.71</ele>
        <time>2021-07-23T07:51:33Z</time>
      </trkpt>
      <trkpt lat="45.15417" lon="2.93015">
        <ele>1075.33</ele>
        <time>2021-07-23T07:51:40Z</time>
      </trkpt>
      <trkpt lat="45.15422" lon="2.93004">
        <ele>1075.45</ele>
        <time>2021-07-23T07:51:47Z</time>
      </trkpt>
      <trkpt lat="45.15428" lon="2.92993">
        <ele>1074.83</ele>
        <time>2021-07-23T07:51:54Z</time>
      </trkpt>
      <trkpt lat="45.15437" lon="2.92987">
        <ele>1075.93</ele>
        <time>2021-07-23T07:52:00Z</time>
      </trkpt>
      <trkpt lat="45.15445" lon="2.92979">
        <ele>1077.42</ele>
        <time>2021-07-23T07:52:07Z</time>
      </trkpt>
      <trkpt lat="45.15452" lon="2.92972">
        <ele>1078.31</ele>
        <time>2021-07-23T07:52:13Z</time>
      </trkpt>
      <trkpt lat="45.15461" lon="2.92967">
        <ele>1079.13</ele>
        <time>2021-07-23T07:52:19Z</time>
      </trkpt>
      <trkpt lat="45.1547" lon="2.92961">
        <ele>1081.05</ele>
        <time>2021-07-23T07:52:26Z</time>
      </trkpt>
      <trkpt lat="45.15477" lon="2.92952">
        <ele>1080.92</ele>
        <time>2021-07-23T07:52:32Z</time>
      </trkpt>
      <trkpt lat="45.15485" lon="2.92945">
        <ele>1079.56</ele>
        <time>2021-07-23T07:52:38Z</time>
      </trkpt>
      <trkpt lat="45.15492" lon="2.92935">
        <ele>1081.13</ele>
        <time>2021-07-23T07:52:45Z</time>
      </trkpt>
      <trkpt lat="45.15491" lon="2.92921">
        <ele>1083.13</ele>
        <time>2021-07-23T07:53:55Z</time>
      </trkpt>
      <trkpt lat="45.15491" lon="2.92904">
        <ele>1081.83</ele>
        <time>2021-07-23T07:54:00Z</time>
      </trkpt>
      <trkpt lat="45.15488" lon="2.9289">
        <ele>1081.41</ele>
        <time>2021-07-23T07:54:04Z</time>
      </trkpt>
      <trkpt lat="45.15481" lon="2.92878">
        <ele>1082.71</ele>
        <time>2021-07-23T07:54:08Z</time>
      </trkpt>
      <trkpt lat="45.15473" lon="2.92869">
        <ele>1084.7</ele>
        <time>2021-07-23T07:54:12Z</time>
      </trkpt>
      <trkpt lat="45.15465" lon="2.92858">
        <ele>1085.64</ele>
        <time>2021-07-23T07:54:17Z</time>
      </trkpt>
      <trkpt lat="45.15457" lon="2.92848">
        <ele>1086.4</ele>
        <time>2021-07-23T07:54:22Z</time>
      </trkpt>
      <trkpt lat="45.1545" lon="2.92838">
        <ele>1087.78</ele>
        <time>2021-07-23T07:54:27Z</time>
      </trkpt>
      <trkpt lat="45.15443" lon="2.92828">
        <ele>1088.32</ele>
        <time>2021-07-23T07:54:32Z</time>
      </trkpt>
      <trkpt lat="45.15439" lon="2.92814">
        <ele>1089.67</ele>
        <time>2021-07-23T07:54:37Z</time>
      </trkpt>
      <trkpt lat="45.15435" lon="2.92801">
        <ele>1088.18</ele>
        <time>2021-07-23T07:54:42Z</time>
      </trkpt>
      <trkpt lat="45.15433" lon="2.92786">
        <ele>1088.62</ele>
        <time>2021-07-23T07:54:47Z</time>
      </trkpt>
      <trkpt lat="45.1543" lon="2.92772">
        <ele>1087.03</ele>
        <time>2021-07-23T07:54:51Z</time>
      </trkpt>
      <trkpt lat="45.15428" lon="2.92757">
        <ele>1087.52</ele>
        <time>2021-07-23T07:54:55Z</time>
      </trkpt>
      <trkpt lat="45.15426" lon="2.92742">
        <ele>1088.34</ele>
        <time>2021-07-23T07:54:59Z</time>
      </trkpt>
      <trkpt lat="45.15426" lon="2.92728">
        <ele>1087.88</ele>
        <time>2021-07-23T07:55:03Z</time>
      </trkpt>
      <trkpt lat="45.15427" lon="2.92712">
        <ele>1088.51</ele>
        <time>2021-07-23T07:55:07Z</time>
      </trkpt>
      <trkpt lat="45.15429" lon="2.92699">
        <ele>1088.81</ele>
        <time>2021-07-23T07:55:10Z</time>
      </trkpt>
      <trkpt lat="45.15432" lon="2.92686">
        <ele>1088.71</ele>
        <time>2021-07-23T07:55:13Z</time>
      </trkpt>
      <trkpt lat="45.15437" lon="2.92673">
        <ele>1088.5</ele>
        <time>2021-07-23T07:55:17Z</time>
      </trkpt>
      <trkpt lat="45.15442" lon="2.92659">
        <ele>1088.55</ele>
        <time>2021-07-23T07:55:21Z</time>
      </trkpt>
      <trkpt lat="45.15449" lon="2.92646">
        <ele>1088.95</ele>
        <time>2021-07-23T07:55:25Z</time>
      </trkpt>
      <trkpt lat="45.15457" lon="2.92633">
        <ele>1088.26</ele>
        <time>2021-07-23T07:55:29Z</time>
      </trkpt>
      <trkpt lat="45.15464" lon="2.92623">
        <ele>1088.54</ele>
        <time>2021-07-23T07:55:32Z</time>
      </trkpt>
      <trkpt lat="45.15468" lon="2.9261">
        <ele>1088.33</ele>
        <time>2021-07-23T07:55:35Z</time>
      </trkpt>
      <trkpt lat="45.15471" lon="2.92595">
        <ele>1088.35</ele>
        <time>2021-07-23T07:55:39Z</time>
      </trkpt>
      <trkpt lat="45.15471" lon="2.92579">
        <ele>1088.87</ele>
        <time>2021-07-23T07:55:43Z</time>
      </trkpt>
      <trkpt lat="45.15472" lon="2.92565">
        <ele>1089.77</ele>
        <time>2021-07-23T07:55:47Z</time>
      </trkpt>
      <trkpt lat="45.15473" lon="2.92551">
        <ele>1090.76</ele>
        <time>2021-07-23T07:55:51Z</time>
      </trkpt>
      <trkpt lat="45.15475" lon="2.92537">
        <ele>1089.74</ele>
        <time>2021-07-23T07:55:55Z</time>
      </trkpt>
      <trkpt lat="45.15477" lon="2.92522">
        <ele>1090.63</ele>
        <time>2021-07-23T07:55:59Z</time>
      </trkpt>
      <trkpt lat="45.15477" lon="2.92507">
        <ele>1091.25</ele>
        <time>2021-07-23T07:56:03Z</time>
      </trkpt>
      <trkpt lat="45.15478" lon="2.92492">
        <ele>1091.97</ele>
        <time>2021-07-23T07:56:07Z</time>
      </trkpt>
      <trkpt lat="45.15478" lon="2.92478">
        <ele>1091.3</ele>
        <time>2021-07-23T07:56:11Z</time>
      </trkpt>
      <trkpt lat="45.15478" lon="2.92464">
        <ele>1091.2</ele>
        <time>2021-07-23T07:56:15Z</time>
      </trkpt>
      <trkpt lat="45.15479" lon="2.92449">
        <ele>1091.2</ele>
        <time>2021-07-23T07:56:19Z</time>
      </trkpt>
      <trkpt lat="45.15479" lon="2.92434">
        <ele>1092.05</ele>
        <time>2021-07-23T07:56:23Z</time>
      </trkpt>
      <trkpt lat="45.15479" lon="2.92419">
        <ele>1091.91</ele>
        <time>2021-07-23T07:56:27Z</time>
      </trkpt>
      <trkpt lat="45.15477" lon="2.92404">
        <ele>1092.47</ele>
        <time>2021-07-23T07:56:31Z</time>
      </trkpt>
      <trkpt lat="45.15475" lon="2.9239">
        <ele>1093.23</ele>
        <time>2021-07-23T07:56:35Z</time>
      </trkpt>
      <trkpt lat="45.15473" lon="2.92376">
        <ele>1094.49</ele>
        <time>2021-07-23T07:56:39Z</time>
      </trkpt>
      <trkpt lat="45.1547" lon="2.92361">
        <ele>1094.46</ele>
        <time>2021-07-23T07:56:43Z</time>
      </trkpt>
      <trkpt lat="45.15468" lon="2.92346">
        <ele>1094.58</ele>
        <time>2021-07-23T07:56:47Z</time>
      </trkpt>
      <trkpt lat="45.15467" lon="2.92331">
        <ele>1094.87</ele>
        <time>2021-07-23T07:56:51Z</time>
      </trkpt>
      <trkpt lat="45.15466" lon="2.92315">
        <ele>1095.43</ele>
        <time>2021-07-23T07:56:55Z</time>
      </trkpt>
      <trkpt lat="45.15466" lon="2.92299">
        <ele>1095.31</ele>
        <time>2021-07-23T07:56:59Z</time>
      </trkpt>
      <trkpt lat="45.15467" lon="2.92284">
        <ele>1095.56</ele>
        <time>2021-07-23T07:57:03Z</time>
      </trkpt>
      <trkpt lat="45.15468" lon="2.92268">
        <ele>1096.41</ele>
        <time>2021-07-23T07:57:07Z</time>
      </trkpt>
      <trkpt lat="45.15471" lon="2.92253">
        <ele>1096.61</ele>
        <time>2021-07-23T07:57:11Z</time>
      </trkpt>
      <trkpt lat="45.15475" lon="2.92238">
        <ele>1096.97</ele>
        <time>2021-07-23T07:57:15Z</time>
      </trkpt>
      <trkpt lat="45.15477" lon="2.92224">
        <ele>1098.39</ele>
        <time>2021-07-23T07:57:19Z</time>
      </trkpt>
      <trkpt lat="45.15479" lon="2.92208">
        <ele>1098.17</ele>
        <time>2021-07-23T07:57:23Z</time>
      </trkpt>
      <trkpt lat="45.15481" lon="2.92194">
        <ele>1098.15</ele>
        <time>2021-07-23T07:57:27Z</time>
      </trkpt>
      <trkpt lat="45.15481" lon="2.9218">
        <ele>1097.52</ele>
        <time>2021-07-23T07:57:31Z</time>
      </trkpt>
      <trkpt lat="45.15481" lon="2.92166">
        <ele>1096.96</ele>
        <time>2021-07-23T07:57:35Z</time>
      </trkpt>
      <trkpt lat="45.15483" lon="2.92152">
        <ele>1097.57</ele>
        <time>2021-07-23T07:57:39Z</time>
      </trkpt>
      <trkpt lat="45.15484" lon="2.92137">
        <ele>1098.97</ele>
        <time>2021-07-23T07:57:43Z</time>
      </trkpt>
      <trkpt lat="45.15485" lon="2.92123">
        <ele>1099.02</ele>
        <time>2021-07-23T07:57:47Z</time>
      </trkpt>
      <trkpt lat="45.15488" lon="2.9211">
        <ele>1098.55</ele>
        <time>2021-07-23T07:57:51Z</time>
      </trkpt>
      <trkpt lat="45.15491" lon="2.92098">
        <ele>1099.87</ele>
        <time>2021-07-23T07:57:56Z</time>
      </trkpt>
      <trkpt lat="45.15494" lon="2.92086">
        <ele>1101.59</ele>
        <time>2021-07-23T07:58:00Z</time>
      </trkpt>
      <trkpt lat="45.15497" lon="2.92069">
        <ele>1101.62</ele>
        <time>2021-07-23T07:58:04Z</time>
      </trkpt>
      <trkpt lat="45.15498" lon="2.92057">
        <ele>1103.71</ele>
        <time>2021-07-23T07:58:07Z</time>
      </trkpt>
      <trkpt lat="45.15502" lon="2.9204">
        <ele>1103.65</ele>
        <time>2021-07-23T07:58:11Z</time>
      </trkpt>
      <trkpt lat="45.15504" lon="2.92024">
        <ele>1102.59</ele>
        <time>2021-07-23T07:58:15Z</time>
      </trkpt>
      <trkpt lat="45.15508" lon="2.92012">
        <ele>1102</ele>
        <time>2021-07-23T07:58:18Z</time>
      </trkpt>
      <trkpt lat="45.1551" lon="2.91997">
        <ele>1100.71</ele>
        <time>2021-07-23T07:58:22Z</time>
      </trkpt>
      <trkpt lat="45.15513" lon="2.9198">
        <ele>1100.08</ele>
        <time>2021-07-23T07:58:26Z</time>
      </trkpt>
      <trkpt lat="45.15515" lon="2.91968">
        <ele>1099.39</ele>
        <time>2021-07-23T07:58:29Z</time>
      </trkpt>
      <trkpt lat="45.15517" lon="2.91954">
        <ele>1098.11</ele>
        <time>2021-07-23T07:58:32Z</time>
      </trkpt>
      <trkpt lat="45.1552" lon="2.9194">
        <ele>1098.9</ele>
        <time>2021-07-23T07:58:36Z</time>
      </trkpt>
      <trkpt lat="45.15524" lon="2.91927">
        <ele>1099.04</ele>
        <time>2021-07-23T07:58:41Z</time>
      </trkpt>
      <trkpt lat="45.15527" lon="2.91912">
        <ele>1098.38</ele>
        <time>2021-07-23T07:58:45Z</time>
      </trkpt>
      <trkpt lat="45.15531" lon="2.91886">
        <ele>1099.2</ele>
        <time>2021-07-23T07:58:49Z</time>
      </trkpt>
      <trkpt lat="45.15532" lon="2.91872">
        <ele>1099.52</ele>
        <time>2021-07-23T07:58:52Z</time>
      </trkpt>
      <trkpt lat="45.15531" lon="2.91858">
        <ele>1100.2</ele>
        <time>2021-07-23T07:58:55Z</time>
      </trkpt>
      <trkpt lat="45.15532" lon="2.91844">
        <ele>1101.05</ele>
        <time>2021-07-23T07:58:58Z</time>
      </trkpt>
      <trkpt lat="45.15533" lon="2.9183">
        <ele>1101.93</ele>
        <time>2021-07-23T07:59:01Z</time>
      </trkpt>
      <trkpt lat="45.15533" lon="2.91815">
        <ele>1102.46</ele>
        <time>2021-07-23T07:59:04Z</time>
      </trkpt>
      <trkpt lat="45.15533" lon="2.918">
        <ele>1102.03</ele>
        <time>2021-07-23T07:59:07Z</time>
      </trkpt>
      <trkpt lat="45.15532" lon="2.91785">
        <ele>1102.79</ele>
        <time>2021-07-23T07:59:10Z</time>
      </trkpt>
      <trkpt lat="45.15532" lon="2.9177">
        <ele>1103.08</ele>
        <time>2021-07-23T07:59:13Z</time>
      </trkpt>
      <trkpt lat="45.15533" lon="2.91755">
        <ele>1103.79</ele>
        <time>2021-07-23T07:59:16Z</time>
      </trkpt>
      <trkpt lat="45.15534" lon="2.9174">
        <ele>1103.59</ele>
        <time>2021-07-23T07:59:19Z</time>
      </trkpt>
      <trkpt lat="45.15533" lon="2.91725">
        <ele>1104.68</ele>
        <time>2021-07-23T07:59:23Z</time>
      </trkpt>
      <trkpt lat="45.15534" lon="2.91712">
        <ele>1105.8</ele>
        <time>2021-07-23T07:59:27Z</time>
      </trkpt>
      <trkpt lat="45.15534" lon="2.91696">
        <ele>1105.79</ele>
        <time>2021-07-23T07:59:29Z</time>
      </trkpt>
      <trkpt lat="45.15535" lon="2.91682">
        <ele>1106.21</ele>
        <time>2021-07-23T07:59:32Z</time>
      </trkpt>
      <trkpt lat="45.15537" lon="2.91668">
        <ele>1106.5</ele>
        <time>2021-07-23T07:59:35Z</time>
      </trkpt>
      <trkpt lat="45.15538" lon="2.91655">
        <ele>1108.14</ele>
        <time>2021-07-23T07:59:38Z</time>
      </trkpt>
      <trkpt lat="45.15538" lon="2.91641">
        <ele>1107.3</ele>
        <time>2021-07-23T07:59:41Z</time>
      </trkpt>
      <trkpt lat="45.15538" lon="2.91626">
        <ele>1106.42</ele>
        <time>2021-07-23T07:59:44Z</time>
      </trkpt>
      <trkpt lat="45.15539" lon="2.91612">
        <ele>1106.08</ele>
        <time>2021-07-23T07:59:47Z</time>
      </trkpt>
      <trkpt lat="45.1554" lon="2.91598">
        <ele>1107.02</ele>
        <time>2021-07-23T07:59:50Z</time>
      </trkpt>
      <trkpt lat="45.15541" lon="2.91583">
        <ele>1107.05</ele>
        <time>2021-07-23T07:59:53Z</time>
      </trkpt>
      <trkpt lat="45.15541" lon="2.9157">
        <ele>1107.9</ele>
        <time>2021-07-23T07:59:56Z</time>
      </trkpt>
      <trkpt lat="45.15542" lon="2.91554">
        <ele>1106.25</ele>
        <time>2021-07-23T08:00:00Z</time>
      </trkpt>
      <trkpt lat="45.15543" lon="2.91538">
        <ele>1106.26</ele>
        <time>2021-07-23T08:00:04Z</time>
      </trkpt>
      <trkpt lat="45.15543" lon="2.91525">
        <ele>1107.17</ele>
        <time>2021-07-23T08:00:07Z</time>
      </trkpt>
      <trkpt lat="45.15545" lon="2.9151">
        <ele>1105.4</ele>
        <time>2021-07-23T08:00:10Z</time>
      </trkpt>
      <trkpt lat="45.15545" lon="2.91494">
        <ele>1104.17</ele>
        <time>2021-07-23T08:00:13Z</time>
      </trkpt>
      <trkpt lat="45.15547" lon="2.91477">
        <ele>1104.82</ele>
        <time>2021-07-23T08:00:16Z</time>
      </trkpt>
      <trkpt lat="45.15552" lon="2.91463">
        <ele>1106.16</ele>
        <time>2021-07-23T08:00:19Z</time>
      </trkpt>
      <trkpt lat="45.15556" lon="2.91446">
        <ele>1104.77</ele>
        <time>2021-07-23T08:00:22Z</time>
      </trkpt>
      <trkpt lat="45.1556" lon="2.91432">
        <ele>1103.11</ele>
        <time>2021-07-23T08:00:24Z</time>
      </trkpt>
      <trkpt lat="45.15563" lon="2.91416">
        <ele>1101.82</ele>
        <time>2021-07-23T08:00:26Z</time>
      </trkpt>
      <trkpt lat="45.15566" lon="2.91397">
        <ele>1100.72</ele>
        <time>2021-07-23T08:00:28Z</time>
      </trkpt>
      <trkpt lat="45.15568" lon="2.91377">
        <ele>1100.94</ele>
        <time>2021-07-23T08:00:30Z</time>
      </trkpt>
      <trkpt lat="45.15572" lon="2.91359">
        <ele>1102.89</ele>
        <time>2021-07-23T08:00:32Z</time>
      </trkpt>
      <trkpt lat="45.15575" lon="2.9134">
        <ele>1104.14</ele>
        <time>2021-07-23T08:00:34Z</time>
      </trkpt>
      <trkpt lat="45.15579" lon="2.91323">
        <ele>1103.89</ele>
        <time>2021-07-23T08:00:36Z</time>
      </trkpt>
      <trkpt lat="45.15581" lon="2.91307">
        <ele>1105.63</ele>
        <time>2021-07-23T08:00:38Z</time>
      </trkpt>
      <trkpt lat="45.15583" lon="2.91291">
        <ele>1105.87</ele>
        <time>2021-07-23T08:00:40Z</time>
      </trkpt>
      <trkpt lat="45.15586" lon="2.91274">
        <ele>1105.58</ele>
        <time>2021-07-23T08:00:42Z</time>
      </trkpt>
      <trkpt lat="45.15587" lon="2.91256">
        <ele>1104.25</ele>
        <time>2021-07-23T08:00:44Z</time>
      </trkpt>
      <trkpt lat="45.15587" lon="2.91236">
        <ele>1102.97</ele>
        <time>2021-07-23T08:00:46Z</time>
      </trkpt>
      <trkpt lat="45.15586" lon="2.91215">
        <ele>1102.81</ele>
        <time>2021-07-23T08:00:48Z</time>
      </trkpt>
      <trkpt lat="45.15585" lon="2.91192">
        <ele>1101.59</ele>
        <time>2021-07-23T08:00:50Z</time>
      </trkpt>
      <trkpt lat="45.15585" lon="2.91172">
        <ele>1101.41</ele>
        <time>2021-07-23T08:00:52Z</time>
      </trkpt>
      <trkpt lat="45.15584" lon="2.91154">
        <ele>1099.89</ele>
        <time>2021-07-23T08:00:54Z</time>
      </trkpt>
      <trkpt lat="45.15582" lon="2.91136">
        <ele>1101.14</ele>
        <time>2021-07-23T08:00:56Z</time>
      </trkpt>
      <trkpt lat="45.1558" lon="2.91123">
        <ele>1101.21</ele>
        <time>2021-07-23T08:00:58Z</time>
      </trkpt>
      <trkpt lat="45.15579" lon="2.91109">
        <ele>1101.13</ele>
        <time>2021-07-23T08:01:00Z</time>
      </trkpt>
      <trkpt lat="45.15578" lon="2.91091">
        <ele>1101.55</ele>
        <time>2021-07-23T08:01:03Z</time>
      </trkpt>
      <trkpt lat="45.15579" lon="2.91077">
        <ele>1101.14</ele>
        <time>2021-07-23T08:01:05Z</time>
      </trkpt>
      <trkpt lat="45.15579" lon="2.91061">
        <ele>1100.35</ele>
        <time>2021-07-23T08:01:09Z</time>
      </trkpt>
      <trkpt lat="45.15578" lon="2.91045">
        <ele>1100.98</ele>
        <time>2021-07-23T08:01:12Z</time>
      </trkpt>
      <trkpt lat="45.15579" lon="2.91031">
        <ele>1101.06</ele>
        <time>2021-07-23T08:01:13Z</time>
      </trkpt>
      <trkpt lat="45.1558" lon="2.91016">
        <ele>1101.77</ele>
        <time>2021-07-23T08:01:16Z</time>
      </trkpt>
      <trkpt lat="45.15579" lon="2.91003">
        <ele>1102.6</ele>
        <time>2021-07-23T08:01:18Z</time>
      </trkpt>
      <trkpt lat="45.15579" lon="2.90987">
        <ele>1102.51</ele>
        <time>2021-07-23T08:01:22Z</time>
      </trkpt>
      <trkpt lat="45.15576" lon="2.90975">
        <ele>1102.74</ele>
        <time>2021-07-23T08:01:25Z</time>
      </trkpt>
      <trkpt lat="45.15574" lon="2.9096">
        <ele>1103.59</ele>
        <time>2021-07-23T08:01:28Z</time>
      </trkpt>
      <trkpt lat="45.15576" lon="2.90946">
        <ele>1103.93</ele>
        <time>2021-07-23T08:01:32Z</time>
      </trkpt>
      <trkpt lat="45.15579" lon="2.90933">
        <ele>1105.6</ele>
        <time>2021-07-23T08:01:37Z</time>
      </trkpt>
      <trkpt lat="45.15583" lon="2.90921">
        <ele>1105.7</ele>
        <time>2021-07-23T08:01:41Z</time>
      </trkpt>
      <trkpt lat="45.15584" lon="2.90908">
        <ele>1106.38</ele>
        <time>2021-07-23T08:01:46Z</time>
      </trkpt>
      <trkpt lat="45.15589" lon="2.90895">
        <ele>1108.52</ele>
        <time>2021-07-23T08:01:51Z</time>
      </trkpt>
      <trkpt lat="45.15596" lon="2.90882">
        <ele>1110.42</ele>
        <time>2021-07-23T08:01:56Z</time>
      </trkpt>
      <trkpt lat="45.15602" lon="2.90869">
        <ele>1113.06</ele>
        <time>2021-07-23T08:02:00Z</time>
      </trkpt>
      <trkpt lat="45.15609" lon="2.90858">
        <ele>1113.92</ele>
        <time>2021-07-23T08:02:04Z</time>
      </trkpt>
      <trkpt lat="45.15614" lon="2.90848">
        <ele>1114.32</ele>
        <time>2021-07-23T08:02:08Z</time>
      </trkpt>
      <trkpt lat="45.15619" lon="2.90836">
        <ele>1116.08</ele>
        <time>2021-07-23T08:02:13Z</time>
      </trkpt>
      <trkpt lat="45.15623" lon="2.90821">
        <ele>1115.15</ele>
        <time>2021-07-23T08:02:18Z</time>
      </trkpt>
      <trkpt lat="45.15626" lon="2.90806">
        <ele>1115.52</ele>
        <time>2021-07-23T08:02:23Z</time>
      </trkpt>
      <trkpt lat="45.15629" lon="2.90791">
        <ele>1115.53</ele>
        <time>2021-07-23T08:02:28Z</time>
      </trkpt>
      <trkpt lat="45.15632" lon="2.90779">
        <ele>1116.26</ele>
        <time>2021-07-23T08:02:32Z</time>
      </trkpt>
      <trkpt lat="45.15634" lon="2.90766">
        <ele>1116.9</ele>
        <time>2021-07-23T08:02:36Z</time>
      </trkpt>
      <trkpt lat="45.15636" lon="2.90753">
        <ele>1114.85</ele>
        <time>2021-07-23T08:02:40Z</time>
      </trkpt>
      <trkpt lat="45.15638" lon="2.9074">
        <ele>1114.4</ele>
        <time>2021-07-23T08:02:44Z</time>
      </trkpt>
      <trkpt lat="45.1564" lon="2.90725">
        <ele>1112.18</ele>
        <time>2021-07-23T08:02:49Z</time>
      </trkpt>
      <trkpt lat="45.15637" lon="2.90712">
        <ele>1113.02</ele>
        <time>2021-07-23T08:02:54Z</time>
      </trkpt>
      <trkpt lat="45.15627" lon="2.90707">
        <ele>1113.53</ele>
        <time>2021-07-23T08:03:00Z</time>
      </trkpt>
      <trkpt lat="45.15617" lon="2.90709">
        <ele>1119.49</ele>
        <time>2021-07-23T08:06:18Z</time>
      </trkpt>
      <trkpt lat="45.15607" lon="2.90708">
        <ele>1119.41</ele>
        <time>2021-07-23T08:06:22Z</time>
      </trkpt>
      <trkpt lat="45.15597" lon="2.90704">
        <ele>1120.22</ele>
        <time>2021-07-23T08:06:26Z</time>
      </trkpt>
      <trkpt lat="45.15587" lon="2.90704">
        <ele>1119.68</ele>
        <time>2021-07-23T08:06:30Z</time>
      </trkpt>
      <trkpt lat="45.15578" lon="2.90703">
        <ele>1119.18</ele>
        <time>2021-07-23T08:06:34Z</time>
      </trkpt>
      <trkpt lat="45.15567" lon="2.90701">
        <ele>1119.34</ele>
        <time>2021-07-23T08:06:39Z</time>
      </trkpt>
      <trkpt lat="45.15556" lon="2.907">
        <ele>1117.02</ele>
        <time>2021-07-23T08:06:43Z</time>
      </trkpt>
      <trkpt lat="45.15546" lon="2.90701">
        <ele>1115.75</ele>
        <time>2021-07-23T08:06:47Z</time>
      </trkpt>
      <trkpt lat="45.15536" lon="2.90705">
        <ele>1115.72</ele>
        <time>2021-07-23T08:06:51Z</time>
      </trkpt>
      <trkpt lat="45.15526" lon="2.90711">
        <ele>1115.97</ele>
        <time>2021-07-23T08:06:55Z</time>
      </trkpt>
      <trkpt lat="45.15514" lon="2.90714">
        <ele>1117.28</ele>
        <time>2021-07-23T08:06:59Z</time>
      </trkpt>
      <trkpt lat="45.15502" lon="2.90719">
        <ele>1117.6</ele>
        <time>2021-07-23T08:07:02Z</time>
      </trkpt>
      <trkpt lat="45.15492" lon="2.90722">
        <ele>1118.17</ele>
        <time>2021-07-23T08:07:04Z</time>
      </trkpt>
      <trkpt lat="45.15483" lon="2.90721">
        <ele>1117.9</ele>
        <time>2021-07-23T08:07:06Z</time>
      </trkpt>
      <trkpt lat="45.15472" lon="2.90716">
        <ele>1117.41</ele>
        <time>2021-07-23T08:07:08Z</time>
      </trkpt>
      <trkpt lat="45.15464" lon="2.90712">
        <ele>1116.87</ele>
        <time>2021-07-23T08:07:10Z</time>
      </trkpt>
      <trkpt lat="45.15451" lon="2.90706">
        <ele>1115.71</ele>
        <time>2021-07-23T08:07:13Z</time>
      </trkpt>
      <trkpt lat="45.15438" lon="2.90706">
        <ele>1114.78</ele>
        <time>2021-07-23T08:07:16Z</time>
      </trkpt>
      <trkpt lat="45.15425" lon="2.9071">
        <ele>1115.47</ele>
        <time>2021-07-23T08:07:19Z</time>
      </trkpt>
      <trkpt lat="45.15414" lon="2.90712">
        <ele>1115.38</ele>
        <time>2021-07-23T08:07:21Z</time>
      </trkpt>
      <trkpt lat="45.15402" lon="2.90714">
        <ele>1115.01</ele>
        <time>2021-07-23T08:07:23Z</time>
      </trkpt>
      <trkpt lat="45.15392" lon="2.90721">
        <ele>1112.09</ele>
        <time>2021-07-23T08:07:26Z</time>
      </trkpt>
      <trkpt lat="45.15383" lon="2.90723">
        <ele>1111.3</ele>
        <time>2021-07-23T08:07:30Z</time>
      </trkpt>
      <trkpt lat="45.15372" lon="2.90728">
        <ele>1111.86</ele>
        <time>2021-07-23T08:07:34Z</time>
      </trkpt>
      <trkpt lat="45.15355" lon="2.90739">
        <ele>1116.17</ele>
        <time>2021-07-23T08:07:37Z</time>
      </trkpt>
      <trkpt lat="45.15345" lon="2.90744">
        <ele>1118.29</ele>
        <time>2021-07-23T08:07:38Z</time>
      </trkpt>
      <trkpt lat="45.15335" lon="2.90755">
        <ele>1118.76</ele>
        <time>2021-07-23T08:07:41Z</time>
      </trkpt>
      <trkpt lat="45.15326" lon="2.9076">
        <ele>1117.8</ele>
        <time>2021-07-23T08:07:43Z</time>
      </trkpt>
      <trkpt lat="45.1532" lon="2.9077">
        <ele>1118.21</ele>
        <time>2021-07-23T08:07:46Z</time>
      </trkpt>
      <trkpt lat="45.15309" lon="2.90778">
        <ele>1117.82</ele>
        <time>2021-07-23T08:07:49Z</time>
      </trkpt>
      <trkpt lat="45.153" lon="2.90784">
        <ele>1115.2</ele>
        <time>2021-07-23T08:07:52Z</time>
      </trkpt>
      <trkpt lat="45.15289" lon="2.90794">
        <ele>1115.55</ele>
        <time>2021-07-23T08:07:55Z</time>
      </trkpt>
      <trkpt lat="45.1528" lon="2.90805">
        <ele>1113.05</ele>
        <time>2021-07-23T08:07:58Z</time>
      </trkpt>
      <trkpt lat="45.15271" lon="2.90815">
        <ele>1111.68</ele>
        <time>2021-07-23T08:08:01Z</time>
      </trkpt>
      <trkpt lat="45.15265" lon="2.90827">
        <ele>1109.86</ele>
        <time>2021-07-23T08:08:04Z</time>
      </trkpt>
      <trkpt lat="45.15256" lon="2.90838">
        <ele>1111.65</ele>
        <time>2021-07-23T08:08:07Z</time>
      </trkpt>
      <trkpt lat="45.15249" lon="2.90845">
        <ele>1113.02</ele>
        <time>2021-07-23T08:08:09Z</time>
      </trkpt>
      <trkpt lat="45.15239" lon="2.90855">
        <ele>1114.63</ele>
        <time>2021-07-23T08:08:12Z</time>
      </trkpt>
      <trkpt lat="45.15231" lon="2.90864">
        <ele>1113.95</ele>
        <time>2021-07-23T08:08:15Z</time>
      </trkpt>
      <trkpt lat="45.1522" lon="2.90871">
        <ele>1113.71</ele>
        <time>2021-07-23T08:08:18Z</time>
      </trkpt>
      <trkpt lat="45.1521" lon="2.90882">
        <ele>1114.58</ele>
        <time>2021-07-23T08:08:21Z</time>
      </trkpt>
      <trkpt lat="45.152" lon="2.90892">
        <ele>1114.33</ele>
        <time>2021-07-23T08:08:24Z</time>
      </trkpt>
      <trkpt lat="45.15189" lon="2.909">
        <ele>1112.96</ele>
        <time>2021-07-23T08:08:27Z</time>
      </trkpt>
      <trkpt lat="45.15178" lon="2.9091">
        <ele>1112.38</ele>
        <time>2021-07-23T08:08:30Z</time>
      </trkpt>
      <trkpt lat="45.15169" lon="2.90917">
        <ele>1111.74</ele>
        <time>2021-07-23T08:08:32Z</time>
      </trkpt>
      <trkpt lat="45.15158" lon="2.90928">
        <ele>1108.79</ele>
        <time>2021-07-23T08:08:35Z</time>
      </trkpt>
      <trkpt lat="45.15146" lon="2.90935">
        <ele>1107.65</ele>
        <time>2021-07-23T08:08:38Z</time>
      </trkpt>
      <trkpt lat="45.15138" lon="2.90937">
        <ele>1106.65</ele>
        <time>2021-07-23T08:08:40Z</time>
      </trkpt>
      <trkpt lat="45.15125" lon="2.90943">
        <ele>1105.06</ele>
        <time>2021-07-23T08:08:43Z</time>
      </trkpt>
      <trkpt lat="45.15117" lon="2.90948">
        <ele>1106.09</ele>
        <time>2021-07-23T08:08:45Z</time>
      </trkpt>
      <trkpt lat="45.15108" lon="2.90955">
        <ele>1106.9</ele>
        <time>2021-07-23T08:08:47Z</time>
      </trkpt>
      <trkpt lat="45.15099" lon="2.90963">
        <ele>1106.18</ele>
        <time>2021-07-23T08:08:49Z</time>
      </trkpt>
      <trkpt lat="45.15087" lon="2.90967">
        <ele>1106.61</ele>
        <time>2021-07-23T08:08:51Z</time>
      </trkpt>
      <trkpt lat="45.15076" lon="2.90975">
        <ele>1106.49</ele>
        <time>2021-07-23T08:08:53Z</time>
      </trkpt>
      <trkpt lat="45.15064" lon="2.90981">
        <ele>1105.85</ele>
        <time>2021-07-23T08:08:55Z</time>
      </trkpt>
      <trkpt lat="45.15051" lon="2.90989">
        <ele>1106.47</ele>
        <time>2021-07-23T08:08:57Z</time>
      </trkpt>
      <trkpt lat="45.1504" lon="2.90996">
        <ele>1103.63</ele>
        <time>2021-07-23T08:08:59Z</time>
      </trkpt>
      <trkpt lat="45.15027" lon="2.91006">
        <ele>1102.06</ele>
        <time>2021-07-23T08:09:01Z</time>
      </trkpt>
      <trkpt lat="45.15012" lon="2.91012">
        <ele>1102.55</ele>
        <time>2021-07-23T08:09:03Z</time>
      </trkpt>
      <trkpt lat="45.14999" lon="2.91016">
        <ele>1100.79</ele>
        <time>2021-07-23T08:09:05Z</time>
      </trkpt>
      <trkpt lat="45.14987" lon="2.91016">
        <ele>1100.19</ele>
        <time>2021-07-23T08:09:07Z</time>
      </trkpt>
      <trkpt lat="45.14976" lon="2.91015">
        <ele>1096.83</ele>
        <time>2021-07-23T08:09:09Z</time>
      </trkpt>
      <trkpt lat="45.14964" lon="2.91022">
        <ele>1096.47</ele>
        <time>2021-07-23T08:09:11Z</time>
      </trkpt>
      <trkpt lat="45.14951" lon="2.91026">
        <ele>1093.79</ele>
        <time>2021-07-23T08:09:13Z</time>
      </trkpt>
      <trkpt lat="45.14939" lon="2.9103">
        <ele>1091.33</ele>
        <time>2021-07-23T08:09:15Z</time>
      </trkpt>
      <trkpt lat="45.14926" lon="2.91037">
        <ele>1090.9</ele>
        <time>2021-07-23T08:09:17Z</time>
      </trkpt>
      <trkpt lat="45.14912" lon="2.91043">
        <ele>1089.64</ele>
        <time>2021-07-23T08:09:19Z</time>
      </trkpt>
      <trkpt lat="45.149" lon="2.91056">
        <ele>1087.14</ele>
        <time>2021-07-23T08:09:21Z</time>
      </trkpt>
      <trkpt lat="45.14892" lon="2.91063">
        <ele>1086.58</ele>
        <time>2021-07-23T08:09:22Z</time>
      </trkpt>
      <trkpt lat="45.14883" lon="2.91068">
        <ele>1085.79</ele>
        <time>2021-07-23T08:09:23Z</time>
      </trkpt>
      <trkpt lat="45.14867" lon="2.91078">
        <ele>1082.91</ele>
        <time>2021-07-23T08:09:25Z</time>
      </trkpt>
      <trkpt lat="45.14857" lon="2.9108">
        <ele>1082.85</ele>
        <time>2021-07-23T08:09:26Z</time>
      </trkpt>
      <trkpt lat="45.14847" lon="2.91081">
        <ele>1082.98</ele>
        <time>2021-07-23T08:09:27Z</time>
      </trkpt>
      <trkpt lat="45.1483" lon="2.91082">
        <ele>1082.68</ele>
        <time>2021-07-23T08:09:29Z</time>
      </trkpt>
      <trkpt lat="45.14814" lon="2.91077">
        <ele>1083.08</ele>
        <time>2021-07-23T08:09:31Z</time>
      </trkpt>
      <trkpt lat="45.14798" lon="2.91074">
        <ele>1083.48</ele>
        <time>2021-07-23T08:09:33Z</time>
      </trkpt>
      <trkpt lat="45.14783" lon="2.9107">
        <ele>1081.72</ele>
        <time>2021-07-23T08:09:35Z</time>
      </trkpt>
      <trkpt lat="45.1477" lon="2.91067">
        <ele>1081.1</ele>
        <time>2021-07-23T08:09:37Z</time>
      </trkpt>
      <trkpt lat="45.14756" lon="2.9106">
        <ele>1080.56</ele>
        <time>2021-07-23T08:09:39Z</time>
      </trkpt>
      <trkpt lat="45.14746" lon="2.9105">
        <ele>1080.12</ele>
        <time>2021-07-23T08:09:41Z</time>
      </trkpt>
      <trkpt lat="45.14737" lon="2.91042">
        <ele>1080.79</ele>
        <time>2021-07-23T08:09:43Z</time>
      </trkpt>
      <trkpt lat="45.14729" lon="2.91031">
        <ele>1081.18</ele>
        <time>2021-07-23T08:09:45Z</time>
      </trkpt>
      <trkpt lat="45.14723" lon="2.91021">
        <ele>1080.67</ele>
        <time>2021-07-23T08:09:47Z</time>
      </trkpt>
      <trkpt lat="45.14715" lon="2.91008">
        <ele>1080.69</ele>
        <time>2021-07-23T08:09:50Z</time>
      </trkpt>
      <trkpt lat="45.14706" lon="2.90997">
        <ele>1081.6</ele>
        <time>2021-07-23T08:09:53Z</time>
      </trkpt>
      <trkpt lat="45.14697" lon="2.90988">
        <ele>1082.75</ele>
        <time>2021-07-23T08:09:56Z</time>
      </trkpt>
      <trkpt lat="45.1469" lon="2.9098">
        <ele>1084.17</ele>
        <time>2021-07-23T08:09:59Z</time>
      </trkpt>
      <trkpt lat="45.14682" lon="2.90968">
        <ele>1084.36</ele>
        <time>2021-07-23T08:10:03Z</time>
      </trkpt>
      <trkpt lat="45.14675" lon="2.9096">
        <ele>1085.24</ele>
        <time>2021-07-23T08:10:07Z</time>
      </trkpt>
      <trkpt lat="45.14667" lon="2.90954">
        <ele>1086.77</ele>
        <time>2021-07-23T08:10:11Z</time>
      </trkpt>
      <trkpt lat="45.14664" lon="2.90941">
        <ele>1083.26</ele>
        <time>2021-07-23T08:10:17Z</time>
      </trkpt>
      <trkpt lat="45.14672" lon="2.90931">
        <ele>1082.44</ele>
        <time>2021-07-23T08:10:21Z</time>
      </trkpt>
      <trkpt lat="45.14677" lon="2.90921">
        <ele>1082.98</ele>
        <time>2021-07-23T08:10:25Z</time>
      </trkpt>
      <trkpt lat="45.14682" lon="2.9091">
        <ele>1083.34</ele>
        <time>2021-07-23T08:10:29Z</time>
      </trkpt>
      <trkpt lat="45.14686" lon="2.90897">
        <ele>1084.52</ele>
        <time>2021-07-23T08:10:34Z</time>
      </trkpt>
      <trkpt lat="45.14692" lon="2.90883">
        <ele>1084.12</ele>
        <time>2021-07-23T08:10:39Z</time>
      </trkpt>
      <trkpt lat="45.14698" lon="2.90872">
        <ele>1085</ele>
        <time>2021-07-23T08:10:44Z</time>
      </trkpt>
      <trkpt lat="45.14701" lon="2.90859">
        <ele>1085.25</ele>
        <time>2021-07-23T08:10:49Z</time>
      </trkpt>
      <trkpt lat="45.14699" lon="2.90846">
        <ele>1085.75</ele>
        <time>2021-07-23T08:10:54Z</time>
      </trkpt>
      <trkpt lat="45.14697" lon="2.90832">
        <ele>1085.88</ele>
        <time>2021-07-23T08:10:59Z</time>
      </trkpt>
      <trkpt lat="45.14695" lon="2.90818">
        <ele>1086.32</ele>
        <time>2021-07-23T08:11:04Z</time>
      </trkpt>
      <trkpt lat="45.14694" lon="2.90803">
        <ele>1087.82</ele>
        <time>2021-07-23T08:11:09Z</time>
      </trkpt>
      <trkpt lat="45.14693" lon="2.9079">
        <ele>1088.08</ele>
        <time>2021-07-23T08:11:14Z</time>
      </trkpt>
      <trkpt lat="45.14695" lon="2.90775">
        <ele>1087.92</ele>
        <time>2021-07-23T08:11:20Z</time>
      </trkpt>
      <trkpt lat="45.14696" lon="2.90761">
        <ele>1089.56</ele>
        <time>2021-07-23T08:11:25Z</time>
      </trkpt>
      <trkpt lat="45.14698" lon="2.90745">
        <ele>1090.75</ele>
        <time>2021-07-23T08:11:30Z</time>
      </trkpt>
      <trkpt lat="45.14699" lon="2.90732">
        <ele>1091.02</ele>
        <time>2021-07-23T08:11:34Z</time>
      </trkpt>
      <trkpt lat="45.14701" lon="2.90719">
        <ele>1090.87</ele>
        <time>2021-07-23T08:11:38Z</time>
      </trkpt>
      <trkpt lat="45.14702" lon="2.90704">
        <ele>1091.12</ele>
        <time>2021-07-23T08:11:42Z</time>
      </trkpt>
      <trkpt lat="45.14703" lon="2.9069">
        <ele>1091.81</ele>
        <time>2021-07-23T08:11:46Z</time>
      </trkpt>
      <trkpt lat="45.14704" lon="2.90674">
        <ele>1091.68</ele>
        <time>2021-07-23T08:11:50Z</time>
      </trkpt>
      <trkpt lat="45.14703" lon="2.90659">
        <ele>1090.99</ele>
        <time>2021-07-23T08:11:54Z</time>
      </trkpt>
      <trkpt lat="45.14704" lon="2.90644">
        <ele>1087.5</ele>
        <time>2021-07-23T08:11:58Z</time>
      </trkpt>
      <trkpt lat="45.14703" lon="2.90628">
        <ele>1088.27</ele>
        <time>2021-07-23T08:12:02Z</time>
      </trkpt>
      <trkpt lat="45.14704" lon="2.90612">
        <ele>1087.69</ele>
        <time>2021-07-23T08:12:06Z</time>
      </trkpt>
      <trkpt lat="45.14705" lon="2.90595">
        <ele>1086.01</ele>
        <time>2021-07-23T08:12:10Z</time>
      </trkpt>
      <trkpt lat="45.14707" lon="2.90583">
        <ele>1086.22</ele>
        <time>2021-07-23T08:12:13Z</time>
      </trkpt>
      <trkpt lat="45.14709" lon="2.9057">
        <ele>1086.22</ele>
        <time>2021-07-23T08:12:16Z</time>
      </trkpt>
      <trkpt lat="45.1471" lon="2.90555">
        <ele>1084.5</ele>
        <time>2021-07-23T08:12:19Z</time>
      </trkpt>
      <trkpt lat="45.14711" lon="2.90539">
        <ele>1085.33</ele>
        <time>2021-07-23T08:12:22Z</time>
      </trkpt>
      <trkpt lat="45.14712" lon="2.90523">
        <ele>1083.4</ele>
        <time>2021-07-23T08:12:25Z</time>
      </trkpt>
      <trkpt lat="45.14712" lon="2.90508">
        <ele>1082.4</ele>
        <time>2021-07-23T08:12:28Z</time>
      </trkpt>
      <trkpt lat="45.14712" lon="2.90492">
        <ele>1083.12</ele>
        <time>2021-07-23T08:12:32Z</time>
      </trkpt>
      <trkpt lat="45.14712" lon="2.90477">
        <ele>1084.17</ele>
        <time>2021-07-23T08:12:36Z</time>
      </trkpt>
      <trkpt lat="45.14713" lon="2.90464">
        <ele>1083.15</ele>
        <time>2021-07-23T08:12:39Z</time>
      </trkpt>
      <trkpt lat="45.14713" lon="2.90449">
        <ele>1081.14</ele>
        <time>2021-07-23T08:12:42Z</time>
      </trkpt>
      <trkpt lat="45.14713" lon="2.90436">
        <ele>1081.61</ele>
        <time>2021-07-23T08:12:45Z</time>
      </trkpt>
      <trkpt lat="45.14714" lon="2.90422">
        <ele>1082.63</ele>
        <time>2021-07-23T08:12:48Z</time>
      </trkpt>
      <trkpt lat="45.14714" lon="2.90407">
        <ele>1083.65</ele>
        <time>2021-07-23T08:12:51Z</time>
      </trkpt>
      <trkpt lat="45.14714" lon="2.90394">
        <ele>1084.05</ele>
        <time>2021-07-23T08:12:54Z</time>
      </trkpt>
      <trkpt lat="45.14715" lon="2.90381">
        <ele>1084.27</ele>
        <time>2021-07-23T08:12:57Z</time>
      </trkpt>
      <trkpt lat="45.14716" lon="2.90364">
        <ele>1084.44</ele>
        <time>2021-07-23T08:13:01Z</time>
      </trkpt>
      <trkpt lat="45.14719" lon="2.90348">
        <ele>1083.55</ele>
        <time>2021-07-23T08:13:05Z</time>
      </trkpt>
      <trkpt lat="45.1472" lon="2.90334">
        <ele>1082.26</ele>
        <time>2021-07-23T08:13:09Z</time>
      </trkpt>
      <trkpt lat="45.14721" lon="2.90321">
        <ele>1083.68</ele>
        <time>2021-07-23T08:13:13Z</time>
      </trkpt>
      <trkpt lat="45.14722" lon="2.90305">
        <ele>1084.18</ele>
        <time>2021-07-23T08:13:18Z</time>
      </trkpt>
      <trkpt lat="45.14723" lon="2.9029">
        <ele>1085.44</ele>
        <time>2021-07-23T08:13:23Z</time>
      </trkpt>
      <trkpt lat="45.14724" lon="2.90276">
        <ele>1087.58</ele>
        <time>2021-07-23T08:13:28Z</time>
      </trkpt>
      <trkpt lat="45.14725" lon="2.90262">
        <ele>1089.6</ele>
        <time>2021-07-23T08:13:33Z</time>
      </trkpt>
      <trkpt lat="45.14726" lon="2.90247">
        <ele>1090.59</ele>
        <time>2021-07-23T08:13:39Z</time>
      </trkpt>
      <trkpt lat="45.14726" lon="2.90234">
        <ele>1091.56</ele>
        <time>2021-07-23T08:13:44Z</time>
      </trkpt>
      <trkpt lat="45.14727" lon="2.9022">
        <ele>1092.04</ele>
        <time>2021-07-23T08:13:49Z</time>
      </trkpt>
      <trkpt lat="45.14727" lon="2.90206">
        <ele>1094.81</ele>
        <time>2021-07-23T08:13:54Z</time>
      </trkpt>
      <trkpt lat="45.14728" lon="2.90192">
        <ele>1096.3</ele>
        <time>2021-07-23T08:13:59Z</time>
      </trkpt>
      <trkpt lat="45.14731" lon="2.90179">
        <ele>1095.88</ele>
        <time>2021-07-23T08:14:04Z</time>
      </trkpt>
      <trkpt lat="45.14732" lon="2.90166">
        <ele>1097.71</ele>
        <time>2021-07-23T08:14:08Z</time>
      </trkpt>
      <trkpt lat="45.14734" lon="2.9015">
        <ele>1097.54</ele>
        <time>2021-07-23T08:14:12Z</time>
      </trkpt>
      <trkpt lat="45.14734" lon="2.90135">
        <ele>1097.98</ele>
        <time>2021-07-23T08:14:16Z</time>
      </trkpt>
      <trkpt lat="45.14734" lon="2.90122">
        <ele>1096.74</ele>
        <time>2021-07-23T08:14:20Z</time>
      </trkpt>
      <trkpt lat="45.14735" lon="2.90108">
        <ele>1094.11</ele>
        <time>2021-07-23T08:14:25Z</time>
      </trkpt>
      <trkpt lat="45.14739" lon="2.90096">
        <ele>1094.62</ele>
        <time>2021-07-23T08:14:29Z</time>
      </trkpt>
      <trkpt lat="45.14747" lon="2.90085">
        <ele>1094.06</ele>
        <time>2021-07-23T08:14:33Z</time>
      </trkpt>
      <trkpt lat="45.14755" lon="2.90077">
        <ele>1094.11</ele>
        <time>2021-07-23T08:14:37Z</time>
      </trkpt>
      <trkpt lat="45.14763" lon="2.90069">
        <ele>1095.65</ele>
        <time>2021-07-23T08:14:42Z</time>
      </trkpt>
      <trkpt lat="45.14772" lon="2.90059">
        <ele>1095.18</ele>
        <time>2021-07-23T08:14:46Z</time>
      </trkpt>
      <trkpt lat="45.14779" lon="2.9005">
        <ele>1094.42</ele>
        <time>2021-07-23T08:14:47Z</time>
      </trkpt>
      <trkpt lat="45.14784" lon="2.90035">
        <ele>1097.57</ele>
        <time>2021-07-23T08:14:51Z</time>
      </trkpt>
      <trkpt lat="45.14791" lon="2.90025">
        <ele>1098.15</ele>
        <time>2021-07-23T08:14:54Z</time>
      </trkpt>
      <trkpt lat="45.14796" lon="2.90013">
        <ele>1097.58</ele>
        <time>2021-07-23T08:14:57Z</time>
      </trkpt>
      <trkpt lat="45.14801" lon="2.90001">
        <ele>1097.76</ele>
        <time>2021-07-23T08:15:00Z</time>
      </trkpt>
      <trkpt lat="45.14805" lon="2.89989">
        <ele>1096.34</ele>
        <time>2021-07-23T08:15:03Z</time>
      </trkpt>
      <trkpt lat="45.14806" lon="2.89972">
        <ele>1095.78</ele>
        <time>2021-07-23T08:15:07Z</time>
      </trkpt>
      <trkpt lat="45.14805" lon="2.89958">
        <ele>1095.09</ele>
        <time>2021-07-23T08:15:10Z</time>
      </trkpt>
      <trkpt lat="45.14804" lon="2.89944">
        <ele>1094.76</ele>
        <time>2021-07-23T08:15:13Z</time>
      </trkpt>
      <trkpt lat="45.14804" lon="2.8993">
        <ele>1095.48</ele>
        <time>2021-07-23T08:15:17Z</time>
      </trkpt>
      <trkpt lat="45.14806" lon="2.89917">
        <ele>1094.89</ele>
        <time>2021-07-23T08:15:21Z</time>
      </trkpt>
      <trkpt lat="45.14812" lon="2.89904">
        <ele>1097.76</ele>
        <time>2021-07-23T08:15:25Z</time>
      </trkpt>
      <trkpt lat="45.1482" lon="2.89893">
        <ele>1097.61</ele>
        <time>2021-07-23T08:15:29Z</time>
      </trkpt>
      <trkpt lat="45.14826" lon="2.89881">
        <ele>1097.86</ele>
        <time>2021-07-23T08:15:33Z</time>
      </trkpt>
      <trkpt lat="45.14831" lon="2.89868">
        <ele>1098.53</ele>
        <time>2021-07-23T08:15:37Z</time>
      </trkpt>
      <trkpt lat="45.14835" lon="2.89855">
        <ele>1099.53</ele>
        <time>2021-07-23T08:15:41Z</time>
      </trkpt>
      <trkpt lat="45.14839" lon="2.8984">
        <ele>1100.29</ele>
        <time>2021-07-23T08:15:46Z</time>
      </trkpt>
      <trkpt lat="45.14841" lon="2.89827">
        <ele>1100.68</ele>
        <time>2021-07-23T08:15:53Z</time>
      </trkpt>
      <trkpt lat="45.14844" lon="2.89813">
        <ele>1099.22</ele>
        <time>2021-07-23T08:15:58Z</time>
      </trkpt>
      <trkpt lat="45.14848" lon="2.898">
        <ele>1099.03</ele>
        <time>2021-07-23T08:16:02Z</time>
      </trkpt>
      <trkpt lat="45.14852" lon="2.89786">
        <ele>1100.82</ele>
        <time>2021-07-23T08:16:07Z</time>
      </trkpt>
      <trkpt lat="45.14857" lon="2.89773">
        <ele>1102.01</ele>
        <time>2021-07-23T08:16:12Z</time>
      </trkpt>
      <trkpt lat="45.14864" lon="2.89761">
        <ele>1102.29</ele>
        <time>2021-07-23T08:16:17Z</time>
      </trkpt>
      <trkpt lat="45.14871" lon="2.89751">
        <ele>1102.56</ele>
        <time>2021-07-23T08:16:22Z</time>
      </trkpt>
      <trkpt lat="45.1488" lon="2.89743">
        <ele>1103.27</ele>
        <time>2021-07-23T08:16:27Z</time>
      </trkpt>
      <trkpt lat="45.14888" lon="2.89736">
        <ele>1104.22</ele>
        <time>2021-07-23T08:16:31Z</time>
      </trkpt>
      <trkpt lat="45.14896" lon="2.89729">
        <ele>1104.19</ele>
        <time>2021-07-23T08:16:34Z</time>
      </trkpt>
      <trkpt lat="45.14905" lon="2.89719">
        <ele>1104.58</ele>
        <time>2021-07-23T08:16:38Z</time>
      </trkpt>
      <trkpt lat="45.14911" lon="2.89709">
        <ele>1105.25</ele>
        <time>2021-07-23T08:16:41Z</time>
      </trkpt>
      <trkpt lat="45.14918" lon="2.89695">
        <ele>1105.64</ele>
        <time>2021-07-23T08:16:45Z</time>
      </trkpt>
      <trkpt lat="45.14924" lon="2.89684">
        <ele>1104.46</ele>
        <time>2021-07-23T08:16:48Z</time>
      </trkpt>
      <trkpt lat="45.14929" lon="2.89673">
        <ele>1103.65</ele>
        <time>2021-07-23T08:16:51Z</time>
      </trkpt>
      <trkpt lat="45.14935" lon="2.89658">
        <ele>1103.74</ele>
        <time>2021-07-23T08:16:55Z</time>
      </trkpt>
      <trkpt lat="45.14938" lon="2.89645">
        <ele>1103.88</ele>
        <time>2021-07-23T08:16:58Z</time>
      </trkpt>
      <trkpt lat="45.14943" lon="2.89628">
        <ele>1103.67</ele>
        <time>2021-07-23T08:17:01Z</time>
      </trkpt>
      <trkpt lat="45.14948" lon="2.89616">
        <ele>1103.63</ele>
        <time>2021-07-23T08:17:03Z</time>
      </trkpt>
      <trkpt lat="45.14955" lon="2.896">
        <ele>1103.87</ele>
        <time>2021-07-23T08:17:06Z</time>
      </trkpt>
      <trkpt lat="45.14961" lon="2.89588">
        <ele>1103.76</ele>
        <time>2021-07-23T08:17:08Z</time>
      </trkpt>
      <trkpt lat="45.14975" lon="2.89578">
        <ele>1102.82</ele>
        <time>2021-07-23T08:17:10Z</time>
      </trkpt>
      <trkpt lat="45.14988" lon="2.89567">
        <ele>1101.66</ele>
        <time>2021-07-23T08:17:12Z</time>
      </trkpt>
      <trkpt lat="45.14997" lon="2.89559">
        <ele>1100.78</ele>
        <time>2021-07-23T08:17:14Z</time>
      </trkpt>
      <trkpt lat="45.15005" lon="2.89547">
        <ele>1099.65</ele>
        <time>2021-07-23T08:17:17Z</time>
      </trkpt>
      <trkpt lat="45.15012" lon="2.89538">
        <ele>1099.06</ele>
        <time>2021-07-23T08:17:20Z</time>
      </trkpt>
      <trkpt lat="45.15014" lon="2.89522">
        <ele>1097.95</ele>
        <time>2021-07-23T08:17:24Z</time>
      </trkpt>
      <trkpt lat="45.15009" lon="2.89511">
        <ele>1098.2</ele>
        <time>2021-07-23T08:17:29Z</time>
      </trkpt>
      <trkpt lat="45.15012" lon="2.89523">
        <ele>1093.36</ele>
        <time>2021-07-23T08:18:32Z</time>
      </trkpt>
      <trkpt lat="45.15014" lon="2.89537">
        <ele>1093.37</ele>
        <time>2021-07-23T08:18:36Z</time>
      </trkpt>
      <trkpt lat="45.15006" lon="2.89547">
        <ele>1093.24</ele>
        <time>2021-07-23T08:18:40Z</time>
      </trkpt>
      <trkpt lat="45.14998" lon="2.89555">
        <ele>1093.68</ele>
        <time>2021-07-23T08:18:46Z</time>
      </trkpt>
      <trkpt lat="45.14991" lon="2.89564">
        <ele>1094.44</ele>
        <time>2021-07-23T08:19:03Z</time>
      </trkpt>
      <trkpt lat="45.14984" lon="2.89571">
        <ele>1094.94</ele>
        <time>2021-07-23T08:19:07Z</time>
      </trkpt>
      <trkpt lat="45.14992" lon="2.89563">
        <ele>1096.46</ele>
        <time>2021-07-23T08:19:29Z</time>
      </trkpt>
      <trkpt lat="45.15002" lon="2.89551">
        <ele>1096.18</ele>
        <time>2021-07-23T08:19:32Z</time>
      </trkpt>
      <trkpt lat="45.15011" lon="2.89541">
        <ele>1095.85</ele>
        <time>2021-07-23T08:19:35Z</time>
      </trkpt>
      <trkpt lat="45.15015" lon="2.89527">
        <ele>1095.6</ele>
        <time>2021-07-23T08:19:39Z</time>
      </trkpt>
      <trkpt lat="45.15013" lon="2.89514">
        <ele>1095.2</ele>
        <time>2021-07-23T08:19:47Z</time>
      </trkpt>
      <trkpt lat="45.15005" lon="2.89509">
        <ele>1093.88</ele>
        <time>2021-07-23T08:19:53Z</time>
      </trkpt>
      <trkpt lat="45.14994" lon="2.89503">
        <ele>1094.75</ele>
        <time>2021-07-23T08:20:14Z</time>
      </trkpt>
      <trkpt lat="45.14986" lon="2.89493">
        <ele>1094.83</ele>
        <time>2021-07-23T08:20:17Z</time>
      </trkpt>
      <trkpt lat="45.14978" lon="2.89478">
        <ele>1094.59</ele>
        <time>2021-07-23T08:20:20Z</time>
      </trkpt>
      <trkpt lat="45.14971" lon="2.89462">
        <ele>1093.84</ele>
        <time>2021-07-23T08:20:23Z</time>
      </trkpt>
      <trkpt lat="45.14965" lon="2.89452">
        <ele>1092.58</ele>
        <time>2021-07-23T08:20:25Z</time>
      </trkpt>
      <trkpt lat="45.14957" lon="2.89442">
        <ele>1091.65</ele>
        <time>2021-07-23T08:20:27Z</time>
      </trkpt>
      <trkpt lat="45.1495" lon="2.89432">
        <ele>1089.83</ele>
        <time>2021-07-23T08:20:29Z</time>
      </trkpt>
      <trkpt lat="45.14939" lon="2.89426">
        <ele>1088.65</ele>
        <time>2021-07-23T08:20:31Z</time>
      </trkpt>
      <trkpt lat="45.14929" lon="2.89419">
        <ele>1087.84</ele>
        <time>2021-07-23T08:20:33Z</time>
      </trkpt>
      <trkpt lat="45.14919" lon="2.89414">
        <ele>1085.62</ele>
        <time>2021-07-23T08:20:35Z</time>
      </trkpt>
      <trkpt lat="45.14909" lon="2.89407">
        <ele>1085.05</ele>
        <time>2021-07-23T08:20:37Z</time>
      </trkpt>
      <trkpt lat="45.14902" lon="2.89393">
        <ele>1083.49</ele>
        <time>2021-07-23T08:20:39Z</time>
      </trkpt>
      <trkpt lat="45.14897" lon="2.89375">
        <ele>1082.45</ele>
        <time>2021-07-23T08:20:41Z</time>
      </trkpt>
      <trkpt lat="45.14891" lon="2.89353">
        <ele>1080.61</ele>
        <time>2021-07-23T08:20:43Z</time>
      </trkpt>
      <trkpt lat="45.14885" lon="2.89331">
        <ele>1078.74</ele>
        <time>2021-07-23T08:20:45Z</time>
      </trkpt>
      <trkpt lat="45.14879" lon="2.89322">
        <ele>1078.4</ele>
        <time>2021-07-23T08:20:46Z</time>
      </trkpt>
      <trkpt lat="45.14863" lon="2.89308">
        <ele>1076.16</ele>
        <time>2021-07-23T08:20:48Z</time>
      </trkpt>
      <trkpt lat="45.14849" lon="2.89294">
        <ele>1075.5</ele>
        <time>2021-07-23T08:20:50Z</time>
      </trkpt>
      <trkpt lat="45.14839" lon="2.89275">
        <ele>1073.81</ele>
        <time>2021-07-23T08:20:52Z</time>
      </trkpt>
      <trkpt lat="45.14835" lon="2.89262">
        <ele>1072.52</ele>
        <time>2021-07-23T08:20:53Z</time>
      </trkpt>
      <trkpt lat="45.14827" lon="2.89239">
        <ele>1069.51</ele>
        <time>2021-07-23T08:20:55Z</time>
      </trkpt>
      <trkpt lat="45.14821" lon="2.89229">
        <ele>1069.17</ele>
        <time>2021-07-23T08:20:56Z</time>
      </trkpt>
      <trkpt lat="45.14805" lon="2.89215">
        <ele>1065.27</ele>
        <time>2021-07-23T08:20:58Z</time>
      </trkpt>
      <trkpt lat="45.14795" lon="2.89207">
        <ele>1063.21</ele>
        <time>2021-07-23T08:21:00Z</time>
      </trkpt>
      <trkpt lat="45.14789" lon="2.89218">
        <ele>1064.14</ele>
        <time>2021-07-23T08:21:01Z</time>
      </trkpt>
      <trkpt lat="45.14779" lon="2.89222">
        <ele>1064.05</ele>
        <time>2021-07-23T08:21:03Z</time>
      </trkpt>
      <trkpt lat="45.14768" lon="2.89223">
        <ele>1063.09</ele>
        <time>2021-07-23T08:21:05Z</time>
      </trkpt>
      <trkpt lat="45.14756" lon="2.89214">
        <ele>1062.11</ele>
        <time>2021-07-23T08:21:07Z</time>
      </trkpt>
      <trkpt lat="45.14746" lon="2.89204">
        <ele>1062.13</ele>
        <time>2021-07-23T08:21:09Z</time>
      </trkpt>
      <trkpt lat="45.14733" lon="2.89195">
        <ele>1062.24</ele>
        <time>2021-07-23T08:21:11Z</time>
      </trkpt>
      <trkpt lat="45.14722" lon="2.89191">
        <ele>1062.33</ele>
        <time>2021-07-23T08:21:13Z</time>
      </trkpt>
      <trkpt lat="45.14711" lon="2.89183">
        <ele>1063.11</ele>
        <time>2021-07-23T08:21:15Z</time>
      </trkpt>
      <trkpt lat="45.14701" lon="2.89175">
        <ele>1062.82</ele>
        <time>2021-07-23T08:21:17Z</time>
      </trkpt>
      <trkpt lat="45.14691" lon="2.89166">
        <ele>1062.25</ele>
        <time>2021-07-23T08:21:19Z</time>
      </trkpt>
      <trkpt lat="45.14682" lon="2.89158">
        <ele>1061.33</ele>
        <time>2021-07-23T08:21:21Z</time>
      </trkpt>
      <trkpt lat="45.14672" lon="2.89145">
        <ele>1062.08</ele>
        <time>2021-07-23T08:21:23Z</time>
      </trkpt>
      <trkpt lat="45.14661" lon="2.89132">
        <ele>1062.7</ele>
        <time>2021-07-23T08:21:25Z</time>
      </trkpt>
      <trkpt lat="45.14651" lon="2.89121">
        <ele>1062.02</ele>
        <time>2021-07-23T08:21:27Z</time>
      </trkpt>
      <trkpt lat="45.1464" lon="2.89109">
        <ele>1061.51</ele>
        <time>2021-07-23T08:21:29Z</time>
      </trkpt>
      <trkpt lat="45.1463" lon="2.89098">
        <ele>1061.96</ele>
        <time>2021-07-23T08:21:31Z</time>
      </trkpt>
      <trkpt lat="45.1462" lon="2.89085">
        <ele>1062.28</ele>
        <time>2021-07-23T08:21:33Z</time>
      </trkpt>
      <trkpt lat="45.14611" lon="2.89072">
        <ele>1062.67</ele>
        <time>2021-07-23T08:21:35Z</time>
      </trkpt>
      <trkpt lat="45.14605" lon="2.89054">
        <ele>1062.53</ele>
        <time>2021-07-23T08:21:37Z</time>
      </trkpt>
      <trkpt lat="45.146" lon="2.89039">
        <ele>1063.69</ele>
        <time>2021-07-23T08:21:39Z</time>
      </trkpt>
      <trkpt lat="45.14593" lon="2.89027">
        <ele>1063.16</ele>
        <time>2021-07-23T08:21:41Z</time>
      </trkpt>
      <trkpt lat="45.14584" lon="2.89015">
        <ele>1063.58</ele>
        <time>2021-07-23T08:21:43Z</time>
      </trkpt>
      <trkpt lat="45.14575" lon="2.89004">
        <ele>1063.83</ele>
        <time>2021-07-23T08:21:45Z</time>
      </trkpt>
      <trkpt lat="45.14567" lon="2.88993">
        <ele>1063.12</ele>
        <time>2021-07-23T08:21:47Z</time>
      </trkpt>
      <trkpt lat="45.1456" lon="2.88985">
        <ele>1065.21</ele>
        <time>2021-07-23T08:21:49Z</time>
      </trkpt>
      <trkpt lat="45.14549" lon="2.88976">
        <ele>1066</ele>
        <time>2021-07-23T08:21:52Z</time>
      </trkpt>
      <trkpt lat="45.14552" lon="2.88964">
        <ele>1069.18</ele>
        <time>2021-07-23T08:21:59Z</time>
      </trkpt>
      <trkpt lat="45.1456" lon="2.88959">
        <ele>1071.89</ele>
        <time>2021-07-23T08:22:59Z</time>
      </trkpt>
      <trkpt lat="45.14571" lon="2.88954">
        <ele>1070.95</ele>
        <time>2021-07-23T08:23:03Z</time>
      </trkpt>
      <trkpt lat="45.14581" lon="2.88951">
        <ele>1068.17</ele>
        <time>2021-07-23T08:23:08Z</time>
      </trkpt>
      <trkpt lat="45.1459" lon="2.88948">
        <ele>1068.43</ele>
        <time>2021-07-23T08:23:13Z</time>
      </trkpt>
      <trkpt lat="45.14599" lon="2.88945">
        <ele>1069.52</ele>
        <time>2021-07-23T08:23:19Z</time>
      </trkpt>
      <trkpt lat="45.14609" lon="2.88945">
        <ele>1071.06</ele>
        <time>2021-07-23T08:23:23Z</time>
      </trkpt>
      <trkpt lat="45.14619" lon="2.88942">
        <ele>1068.41</ele>
        <time>2021-07-23T08:23:28Z</time>
      </trkpt>
      <trkpt lat="45.14629" lon="2.88937">
        <ele>1070.56</ele>
        <time>2021-07-23T08:23:34Z</time>
      </trkpt>
      <trkpt lat="45.14639" lon="2.88933">
        <ele>1070.73</ele>
        <time>2021-07-23T08:23:40Z</time>
      </trkpt>
      <trkpt lat="45.14648" lon="2.88928">
        <ele>1071.2</ele>
        <time>2021-07-23T08:23:46Z</time>
      </trkpt>
      <trkpt lat="45.14654" lon="2.88918">
        <ele>1073.49</ele>
        <time>2021-07-23T08:23:52Z</time>
      </trkpt>
      <trkpt lat="45.14659" lon="2.88907">
        <ele>1075.05</ele>
        <time>2021-07-23T08:23:57Z</time>
      </trkpt>
      <trkpt lat="45.14666" lon="2.88897">
        <ele>1076.23</ele>
        <time>2021-07-23T08:24:03Z</time>
      </trkpt>
      <trkpt lat="45.1467" lon="2.88884">
        <ele>1076.24</ele>
        <time>2021-07-23T08:24:09Z</time>
      </trkpt>
      <trkpt lat="45.14674" lon="2.8887">
        <ele>1073.68</ele>
        <time>2021-07-23T08:24:15Z</time>
      </trkpt>
      <trkpt lat="45.14678" lon="2.88857">
        <ele>1074.58</ele>
        <time>2021-07-23T08:24:20Z</time>
      </trkpt>
      <trkpt lat="45.14682" lon="2.88845">
        <ele>1077.18</ele>
        <time>2021-07-23T08:24:25Z</time>
      </trkpt>
      <trkpt lat="45.14688" lon="2.88835">
        <ele>1079.63</ele>
        <time>2021-07-23T08:24:31Z</time>
      </trkpt>
      <trkpt lat="45.14693" lon="2.88823">
        <ele>1082.31</ele>
        <time>2021-07-23T08:24:38Z</time>
      </trkpt>
      <trkpt lat="45.14696" lon="2.8881">
        <ele>1084.18</ele>
        <time>2021-07-23T08:24:44Z</time>
      </trkpt>
      <trkpt lat="45.14699" lon="2.88796">
        <ele>1084.98</ele>
        <time>2021-07-23T08:24:51Z</time>
      </trkpt>
      <trkpt lat="45.14705" lon="2.88784">
        <ele>1084.42</ele>
        <time>2021-07-23T08:24:57Z</time>
      </trkpt>
      <trkpt lat="45.1471" lon="2.88771">
        <ele>1087.18</ele>
        <time>2021-07-23T08:25:04Z</time>
      </trkpt>
      <trkpt lat="45.14717" lon="2.8876">
        <ele>1084.51</ele>
        <time>2021-07-23T08:25:11Z</time>
      </trkpt>
      <trkpt lat="45.14722" lon="2.88749">
        <ele>1084.43</ele>
        <time>2021-07-23T08:25:18Z</time>
      </trkpt>
      <trkpt lat="45.14728" lon="2.88739">
        <ele>1084.08</ele>
        <time>2021-07-23T08:25:24Z</time>
      </trkpt>
      <trkpt lat="45.14735" lon="2.88728">
        <ele>1085.77</ele>
        <time>2021-07-23T08:25:31Z</time>
      </trkpt>
      <trkpt lat="45.14739" lon="2.88715">
        <ele>1089.65</ele>
        <time>2021-07-23T08:25:39Z</time>
      </trkpt>
      <trkpt lat="45.14744" lon="2.88704">
        <ele>1090.29</ele>
        <time>2021-07-23T08:25:45Z</time>
      </trkpt>
      <trkpt lat="45.1475" lon="2.88693">
        <ele>1090.69</ele>
        <time>2021-07-23T08:25:50Z</time>
      </trkpt>
      <trkpt lat="45.14755" lon="2.88681">
        <ele>1090.03</ele>
        <time>2021-07-23T08:25:56Z</time>
      </trkpt>
      <trkpt lat="45.1476" lon="2.88669">
        <ele>1091.6</ele>
        <time>2021-07-23T08:26:02Z</time>
      </trkpt>
      <trkpt lat="45.14762" lon="2.88656">
        <ele>1090.82</ele>
        <time>2021-07-23T08:26:07Z</time>
      </trkpt>
      <trkpt lat="45.14766" lon="2.88644">
        <ele>1090.37</ele>
        <time>2021-07-23T08:26:11Z</time>
      </trkpt>
      <trkpt lat="45.1477" lon="2.88633">
        <ele>1092.2</ele>
        <time>2021-07-23T08:26:16Z</time>
      </trkpt>
      <trkpt lat="45.14775" lon="2.88619">
        <ele>1092.78</ele>
        <time>2021-07-23T08:26:21Z</time>
      </trkpt>
      <trkpt lat="45.14778" lon="2.88607">
        <ele>1091.73</ele>
        <time>2021-07-23T08:26:25Z</time>
      </trkpt>
      <trkpt lat="45.14782" lon="2.88595">
        <ele>1092.62</ele>
        <time>2021-07-23T08:26:29Z</time>
      </trkpt>
      <trkpt lat="45.14787" lon="2.88582">
        <ele>1091.74</ele>
        <time>2021-07-23T08:26:33Z</time>
      </trkpt>
      <trkpt lat="45.14792" lon="2.88571">
        <ele>1090.63</ele>
        <time>2021-07-23T08:26:37Z</time>
      </trkpt>
      <trkpt lat="45.14796" lon="2.88558">
        <ele>1092.01</ele>
        <time>2021-07-23T08:26:42Z</time>
      </trkpt>
      <trkpt lat="45.148" lon="2.88545">
        <ele>1091.42</ele>
        <time>2021-07-23T08:26:47Z</time>
      </trkpt>
      <trkpt lat="45.14808" lon="2.88533">
        <ele>1089.55</ele>
        <time>2021-07-23T08:26:52Z</time>
      </trkpt>
      <trkpt lat="45.14816" lon="2.88525">
        <ele>1087.33</ele>
        <time>2021-07-23T08:26:56Z</time>
      </trkpt>
      <trkpt lat="45.14822" lon="2.88516">
        <ele>1087.15</ele>
        <time>2021-07-23T08:27:02Z</time>
      </trkpt>
      <trkpt lat="45.14829" lon="2.88507">
        <ele>1086.28</ele>
        <time>2021-07-23T08:27:09Z</time>
      </trkpt>
      <trkpt lat="45.14838" lon="2.885">
        <ele>1088.51</ele>
        <time>2021-07-23T08:29:37Z</time>
      </trkpt>
      <trkpt lat="45.14847" lon="2.88496">
        <ele>1087.34</ele>
        <time>2021-07-23T08:29:42Z</time>
      </trkpt>
      <trkpt lat="45.14857" lon="2.88491">
        <ele>1086.21</ele>
        <time>2021-07-23T08:29:46Z</time>
      </trkpt>
      <trkpt lat="45.14866" lon="2.88481">
        <ele>1084.35</ele>
        <time>2021-07-23T08:29:50Z</time>
      </trkpt>
      <trkpt lat="45.14871" lon="2.88466">
        <ele>1083.54</ele>
        <time>2021-07-23T08:29:53Z</time>
      </trkpt>
      <trkpt lat="45.14871" lon="2.88452">
        <ele>1082.49</ele>
        <time>2021-07-23T08:29:55Z</time>
      </trkpt>
      <trkpt lat="45.14876" lon="2.88441">
        <ele>1082.42</ele>
        <time>2021-07-23T08:29:57Z</time>
      </trkpt>
      <trkpt lat="45.14882" lon="2.88431">
        <ele>1081.38</ele>
        <time>2021-07-23T08:29:59Z</time>
      </trkpt>
      <trkpt lat="45.14893" lon="2.88421">
        <ele>1081.07</ele>
        <time>2021-07-23T08:30:02Z</time>
      </trkpt>
      <trkpt lat="45.14901" lon="2.88413">
        <ele>1079.83</ele>
        <time>2021-07-23T08:30:04Z</time>
      </trkpt>
      <trkpt lat="45.14913" lon="2.88406">
        <ele>1077.62</ele>
        <time>2021-07-23T08:30:06Z</time>
      </trkpt>
      <trkpt lat="45.14922" lon="2.88396">
        <ele>1075.82</ele>
        <time>2021-07-23T08:30:08Z</time>
      </trkpt>
      <trkpt lat="45.14931" lon="2.88385">
        <ele>1076.13</ele>
        <time>2021-07-23T08:30:10Z</time>
      </trkpt>
      <trkpt lat="45.14941" lon="2.88375">
        <ele>1075.54</ele>
        <time>2021-07-23T08:30:12Z</time>
      </trkpt>
      <trkpt lat="45.14953" lon="2.88367">
        <ele>1075.96</ele>
        <time>2021-07-23T08:30:14Z</time>
      </trkpt>
      <trkpt lat="45.14964" lon="2.88359">
        <ele>1076.26</ele>
        <time>2021-07-23T08:30:16Z</time>
      </trkpt>
      <trkpt lat="45.14972" lon="2.88347">
        <ele>1076.34</ele>
        <time>2021-07-23T08:30:18Z</time>
      </trkpt>
      <trkpt lat="45.14981" lon="2.88337">
        <ele>1076.09</ele>
        <time>2021-07-23T08:30:20Z</time>
      </trkpt>
      <trkpt lat="45.14987" lon="2.88326">
        <ele>1075.72</ele>
        <time>2021-07-23T08:30:22Z</time>
      </trkpt>
      <trkpt lat="45.14994" lon="2.88315">
        <ele>1075.98</ele>
        <time>2021-07-23T08:30:24Z</time>
      </trkpt>
      <trkpt lat="45.14998" lon="2.883">
        <ele>1075.42</ele>
        <time>2021-07-23T08:30:27Z</time>
      </trkpt>
      <trkpt lat="45.15002" lon="2.88283">
        <ele>1075.75</ele>
        <time>2021-07-23T08:30:30Z</time>
      </trkpt>
      <trkpt lat="45.15007" lon="2.88268">
        <ele>1075.66</ele>
        <time>2021-07-23T08:30:33Z</time>
      </trkpt>
      <trkpt lat="45.15011" lon="2.88253">
        <ele>1076.33</ele>
        <time>2021-07-23T08:30:36Z</time>
      </trkpt>
      <trkpt lat="45.15016" lon="2.88237">
        <ele>1075.37</ele>
        <time>2021-07-23T08:30:39Z</time>
      </trkpt>
      <trkpt lat="45.15019" lon="2.88221">
        <ele>1075.34</ele>
        <time>2021-07-23T08:30:42Z</time>
      </trkpt>
      <trkpt lat="45.15021" lon="2.88205">
        <ele>1075.42</ele>
        <time>2021-07-23T08:30:45Z</time>
      </trkpt>
      <trkpt lat="45.15025" lon="2.88189">
        <ele>1074.58</ele>
        <time>2021-07-23T08:30:48Z</time>
      </trkpt>
      <trkpt lat="45.15029" lon="2.88176">
        <ele>1073.79</ele>
        <time>2021-07-23T08:30:51Z</time>
      </trkpt>
      <trkpt lat="45.15034" lon="2.88165">
        <ele>1074.5</ele>
        <time>2021-07-23T08:30:54Z</time>
      </trkpt>
      <trkpt lat="45.1504" lon="2.88153">
        <ele>1076.2</ele>
        <time>2021-07-23T08:30:58Z</time>
      </trkpt>
      <trkpt lat="45.15043" lon="2.8814">
        <ele>1075.28</ele>
        <time>2021-07-23T08:32:15Z</time>
      </trkpt>
      <trkpt lat="45.15033" lon="2.88142">
        <ele>1076.7</ele>
        <time>2021-07-23T08:32:21Z</time>
      </trkpt>
      <trkpt lat="45.15024" lon="2.88146">
        <ele>1076.74</ele>
        <time>2021-07-23T08:32:25Z</time>
      </trkpt>
      <trkpt lat="45.15014" lon="2.88151">
        <ele>1077</ele>
        <time>2021-07-23T08:32:29Z</time>
      </trkpt>
      <trkpt lat="45.15005" lon="2.88157">
        <ele>1076.34</ele>
        <time>2021-07-23T08:32:33Z</time>
      </trkpt>
      <trkpt lat="45.14996" lon="2.8816">
        <ele>1075.95</ele>
        <time>2021-07-23T08:32:37Z</time>
      </trkpt>
      <trkpt lat="45.14986" lon="2.88162">
        <ele>1075.54</ele>
        <time>2021-07-23T08:32:41Z</time>
      </trkpt>
      <trkpt lat="45.14977" lon="2.88164">
        <ele>1076.13</ele>
        <time>2021-07-23T08:32:46Z</time>
      </trkpt>
      <trkpt lat="45.14967" lon="2.88166">
        <ele>1078.11</ele>
        <time>2021-07-23T08:32:51Z</time>
      </trkpt>
      <trkpt lat="45.14958" lon="2.88168">
        <ele>1080.57</ele>
        <time>2021-07-23T08:32:55Z</time>
      </trkpt>
      <trkpt lat="45.14949" lon="2.88174">
        <ele>1082.38</ele>
        <time>2021-07-23T08:33:00Z</time>
      </trkpt>
      <trkpt lat="45.14941" lon="2.88179">
        <ele>1083.82</ele>
        <time>2021-07-23T08:33:06Z</time>
      </trkpt>
      <trkpt lat="45.14933" lon="2.88186">
        <ele>1084.18</ele>
        <time>2021-07-23T08:33:12Z</time>
      </trkpt>
      <trkpt lat="45.14924" lon="2.88192">
        <ele>1083.79</ele>
        <time>2021-07-23T08:33:18Z</time>
      </trkpt>
      <trkpt lat="45.14917" lon="2.88202">
        <ele>1086.49</ele>
        <time>2021-07-23T08:33:25Z</time>
      </trkpt>
      <trkpt lat="45.1491" lon="2.88213">
        <ele>1088.03</ele>
        <time>2021-07-23T08:33:32Z</time>
      </trkpt>
      <trkpt lat="45.149" lon="2.88215">
        <ele>1087.48</ele>
        <time>2021-07-23T08:33:39Z</time>
      </trkpt>
      <trkpt lat="45.14891" lon="2.8822">
        <ele>1086.19</ele>
        <time>2021-07-23T08:33:45Z</time>
      </trkpt>
      <trkpt lat="45.14882" lon="2.88223">
        <ele>1086.08</ele>
        <time>2021-07-23T08:33:50Z</time>
      </trkpt>
      <trkpt lat="45.14872" lon="2.88224">
        <ele>1084.57</ele>
        <time>2021-07-23T08:33:56Z</time>
      </trkpt>
      <trkpt lat="45.14863" lon="2.88222">
        <ele>1081.52</ele>
        <time>2021-07-23T08:34:11Z</time>
      </trkpt>
      <trkpt lat="45.14853" lon="2.8822">
        <ele>1081.51</ele>
        <time>2021-07-23T08:34:19Z</time>
      </trkpt>
      <trkpt lat="45.14851" lon="2.88208">
        <ele>1089.33</ele>
        <time>2021-07-23T08:34:37Z</time>
      </trkpt>
      <trkpt lat="45.14855" lon="2.88195">
        <ele>1092.14</ele>
        <time>2021-07-23T08:35:07Z</time>
      </trkpt>
      <trkpt lat="45.14857" lon="2.88182">
        <ele>1094.72</ele>
        <time>2021-07-23T08:35:14Z</time>
      </trkpt>
      <trkpt lat="45.14857" lon="2.88168">
        <ele>1099.16</ele>
        <time>2021-07-23T08:35:22Z</time>
      </trkpt>
      <trkpt lat="45.14852" lon="2.88157">
        <ele>1098.44</ele>
        <time>2021-07-23T08:35:30Z</time>
      </trkpt>
      <trkpt lat="45.14845" lon="2.88149">
        <ele>1101.57</ele>
        <time>2021-07-23T08:35:38Z</time>
      </trkpt>
      <trkpt lat="45.14838" lon="2.88141">
        <ele>1103.76</ele>
        <time>2021-07-23T08:35:45Z</time>
      </trkpt>
      <trkpt lat="45.1483" lon="2.88132">
        <ele>1107</ele>
        <time>2021-07-23T08:35:52Z</time>
      </trkpt>
      <trkpt lat="45.14822" lon="2.88126">
        <ele>1108.2</ele>
        <time>2021-07-23T08:36:00Z</time>
      </trkpt>
      <trkpt lat="45.14813" lon="2.88121">
        <ele>1106.84</ele>
        <time>2021-07-23T08:36:07Z</time>
      </trkpt>
      <trkpt lat="45.14803" lon="2.88121">
        <ele>1111.63</ele>
        <time>2021-07-23T08:36:16Z</time>
      </trkpt>
      <trkpt lat="45.14793" lon="2.88118">
        <ele>1114.16</ele>
        <time>2021-07-23T08:36:23Z</time>
      </trkpt>
      <trkpt lat="45.14784" lon="2.88113">
        <ele>1115.8</ele>
        <time>2021-07-23T08:36:30Z</time>
      </trkpt>
      <trkpt lat="45.14776" lon="2.88106">
        <ele>1116.57</ele>
        <time>2021-07-23T08:36:37Z</time>
      </trkpt>
      <trkpt lat="45.14768" lon="2.88101">
        <ele>1117.22</ele>
        <time>2021-07-23T08:36:47Z</time>
      </trkpt>
      <trkpt lat="45.14762" lon="2.8809">
        <ele>1118.05</ele>
        <time>2021-07-23T08:37:11Z</time>
      </trkpt>
      <trkpt lat="45.14755" lon="2.8808">
        <ele>1119.53</ele>
        <time>2021-07-23T08:37:20Z</time>
      </trkpt>
      <trkpt lat="45.14748" lon="2.88069">
        <ele>1119.99</ele>
        <time>2021-07-23T08:37:28Z</time>
      </trkpt>
      <trkpt lat="45.14744" lon="2.88058">
        <ele>1120.38</ele>
        <time>2021-07-23T08:37:39Z</time>
      </trkpt>
      <trkpt lat="45.14741" lon="2.88045">
        <ele>1123.28</ele>
        <time>2021-07-23T08:37:51Z</time>
      </trkpt>
      <trkpt lat="45.14736" lon="2.88033">
        <ele>1123.58</ele>
        <time>2021-07-23T08:38:03Z</time>
      </trkpt>
      <trkpt lat="45.14728" lon="2.88027">
        <ele>1123.79</ele>
        <time>2021-07-23T08:38:09Z</time>
      </trkpt>
      <trkpt lat="45.14718" lon="2.88022">
        <ele>1122.43</ele>
        <time>2021-07-23T08:38:16Z</time>
      </trkpt>
      <trkpt lat="45.1471" lon="2.88017">
        <ele>1122</ele>
        <time>2021-07-23T08:38:21Z</time>
      </trkpt>
      <trkpt lat="45.14702" lon="2.8801">
        <ele>1120.81</ele>
        <time>2021-07-23T08:38:27Z</time>
      </trkpt>
      <trkpt lat="45.14694" lon="2.88001">
        <ele>1123.28</ele>
        <time>2021-07-23T08:38:34Z</time>
      </trkpt>
      <trkpt lat="45.14684" lon="2.87996">
        <ele>1125.27</ele>
        <time>2021-07-23T08:38:42Z</time>
      </trkpt>
      <trkpt lat="45.14676" lon="2.87989">
        <ele>1128.55</ele>
        <time>2021-07-23T08:38:51Z</time>
      </trkpt>
      <trkpt lat="45.14667" lon="2.87987">
        <ele>1129.34</ele>
        <time>2021-07-23T08:38:59Z</time>
      </trkpt>
      <trkpt lat="45.14657" lon="2.8798">
        <ele>1130.07</ele>
        <time>2021-07-23T08:39:07Z</time>
      </trkpt>
      <trkpt lat="45.14648" lon="2.87977">
        <ele>1129.93</ele>
        <time>2021-07-23T08:39:15Z</time>
      </trkpt>
      <trkpt lat="45.14638" lon="2.87978">
        <ele>1135.5</ele>
        <time>2021-07-23T08:39:24Z</time>
      </trkpt>
      <trkpt lat="45.14629" lon="2.87979">
        <ele>1138.25</ele>
        <time>2021-07-23T08:39:30Z</time>
      </trkpt>
      <trkpt lat="45.1462" lon="2.87984">
        <ele>1138.73</ele>
        <time>2021-07-23T08:39:37Z</time>
      </trkpt>
      <trkpt lat="45.14612" lon="2.87994">
        <ele>1140.85</ele>
        <time>2021-07-23T08:39:47Z</time>
      </trkpt>
      <trkpt lat="45.14603" lon="2.88">
        <ele>1136.65</ele>
        <time>2021-07-23T08:39:55Z</time>
      </trkpt>
      <trkpt lat="45.14595" lon="2.88007">
        <ele>1137.68</ele>
        <time>2021-07-23T08:40:03Z</time>
      </trkpt>
      <trkpt lat="45.14591" lon="2.88019">
        <ele>1138.9</ele>
        <time>2021-07-23T08:40:10Z</time>
      </trkpt>
      <trkpt lat="45.14588" lon="2.88034">
        <ele>1139.34</ele>
        <time>2021-07-23T08:40:17Z</time>
      </trkpt>
      <trkpt lat="45.14587" lon="2.88047">
        <ele>1143.55</ele>
        <time>2021-07-23T08:40:23Z</time>
      </trkpt>
      <trkpt lat="45.14582" lon="2.88059">
        <ele>1145.32</ele>
        <time>2021-07-23T08:40:30Z</time>
      </trkpt>
      <trkpt lat="45.14576" lon="2.8807">
        <ele>1149.7</ele>
        <time>2021-07-23T08:40:38Z</time>
      </trkpt>
      <trkpt lat="45.1457" lon="2.8808">
        <ele>1148.45</ele>
        <time>2021-07-23T08:40:48Z</time>
      </trkpt>
      <trkpt lat="45.1456" lon="2.88084">
        <ele>1152.55</ele>
        <time>2021-07-23T08:40:56Z</time>
      </trkpt>
      <trkpt lat="45.14551" lon="2.88086">
        <ele>1151.9</ele>
        <time>2021-07-23T08:41:03Z</time>
      </trkpt>
      <trkpt lat="45.14541" lon="2.88088">
        <ele>1153.74</ele>
        <time>2021-07-23T08:41:10Z</time>
      </trkpt>
      <trkpt lat="45.14532" lon="2.88092">
        <ele>1155.05</ele>
        <time>2021-07-23T08:41:17Z</time>
      </trkpt>
      <trkpt lat="45.14524" lon="2.88098">
        <ele>1156.24</ele>
        <time>2021-07-23T08:41:23Z</time>
      </trkpt>
      <trkpt lat="45.14515" lon="2.88104">
        <ele>1154.77</ele>
        <time>2021-07-23T08:41:30Z</time>
      </trkpt>
      <trkpt lat="45.14508" lon="2.88113">
        <ele>1156.47</ele>
        <time>2021-07-23T08:41:38Z</time>
      </trkpt>
      <trkpt lat="45.14501" lon="2.88124">
        <ele>1156.44</ele>
        <time>2021-07-23T08:41:46Z</time>
      </trkpt>
      <trkpt lat="45.145" lon="2.88138">
        <ele>1160.47</ele>
        <time>2021-07-23T08:41:52Z</time>
      </trkpt>
      <trkpt lat="45.145" lon="2.88151">
        <ele>1161.19</ele>
        <time>2021-07-23T08:41:58Z</time>
      </trkpt>
      <trkpt lat="45.14502" lon="2.88167">
        <ele>1163.04</ele>
        <time>2021-07-23T08:42:04Z</time>
      </trkpt>
      <trkpt lat="45.14503" lon="2.8818">
        <ele>1163.45</ele>
        <time>2021-07-23T08:42:09Z</time>
      </trkpt>
      <trkpt lat="45.14496" lon="2.8819">
        <ele>1163.47</ele>
        <time>2021-07-23T08:42:15Z</time>
      </trkpt>
      <trkpt lat="45.1449" lon="2.88202">
        <ele>1166.02</ele>
        <time>2021-07-23T08:42:22Z</time>
      </trkpt>
      <trkpt lat="45.14482" lon="2.88212">
        <ele>1169.95</ele>
        <time>2021-07-23T08:42:27Z</time>
      </trkpt>
      <trkpt lat="45.14475" lon="2.8822">
        <ele>1170.49</ele>
        <time>2021-07-23T08:42:34Z</time>
      </trkpt>
      <trkpt lat="45.14468" lon="2.88229">
        <ele>1171.84</ele>
        <time>2021-07-23T08:42:40Z</time>
      </trkpt>
      <trkpt lat="45.14459" lon="2.88222">
        <ele>1170.61</ele>
        <time>2021-07-23T08:42:48Z</time>
      </trkpt>
      <trkpt lat="45.14455" lon="2.8821">
        <ele>1171.82</ele>
        <time>2021-07-23T08:42:55Z</time>
      </trkpt>
      <trkpt lat="45.14451" lon="2.88198">
        <ele>1174.18</ele>
        <time>2021-07-23T08:43:02Z</time>
      </trkpt>
      <trkpt lat="45.14447" lon="2.88184">
        <ele>1175.15</ele>
        <time>2021-07-23T08:43:10Z</time>
      </trkpt>
      <trkpt lat="45.14441" lon="2.88175">
        <ele>1173.72</ele>
        <time>2021-07-23T08:43:15Z</time>
      </trkpt>
      <trkpt lat="45.14439" lon="2.88162">
        <ele>1173.68</ele>
        <time>2021-07-23T08:43:20Z</time>
      </trkpt>
      <trkpt lat="45.14437" lon="2.88148">
        <ele>1174.8</ele>
        <time>2021-07-23T08:43:25Z</time>
      </trkpt>
      <trkpt lat="45.14433" lon="2.88135">
        <ele>1175.24</ele>
        <time>2021-07-23T08:43:31Z</time>
      </trkpt>
      <trkpt lat="45.14433" lon="2.88121">
        <ele>1174.63</ele>
        <time>2021-07-23T08:43:36Z</time>
      </trkpt>
      <trkpt lat="45.14436" lon="2.88108">
        <ele>1174.5</ele>
        <time>2021-07-23T08:43:41Z</time>
      </trkpt>
      <trkpt lat="45.14435" lon="2.88094">
        <ele>1175.57</ele>
        <time>2021-07-23T08:43:47Z</time>
      </trkpt>
      <trkpt lat="45.14433" lon="2.88081">
        <ele>1176.29</ele>
        <time>2021-07-23T08:43:54Z</time>
      </trkpt>
      <trkpt lat="45.14433" lon="2.88067">
        <ele>1175.91</ele>
        <time>2021-07-23T08:44:01Z</time>
      </trkpt>
      <trkpt lat="45.14433" lon="2.88054">
        <ele>1179.19</ele>
        <time>2021-07-23T08:44:08Z</time>
      </trkpt>
      <trkpt lat="45.14431" lon="2.8804">
        <ele>1179.96</ele>
        <time>2021-07-23T08:44:15Z</time>
      </trkpt>
      <trkpt lat="45.14428" lon="2.88027">
        <ele>1182.31</ele>
        <time>2021-07-23T08:44:23Z</time>
      </trkpt>
      <trkpt lat="45.14427" lon="2.88015">
        <ele>1182.26</ele>
        <time>2021-07-23T08:44:31Z</time>
      </trkpt>
      <trkpt lat="45.14421" lon="2.88002">
        <ele>1179.95</ele>
        <time>2021-07-23T08:44:39Z</time>
      </trkpt>
      <trkpt lat="45.14416" lon="2.87991">
        <ele>1182.54</ele>
        <time>2021-07-23T08:44:47Z</time>
      </trkpt>
      <trkpt lat="45.14411" lon="2.8798">
        <ele>1185.57</ele>
        <time>2021-07-23T08:44:55Z</time>
      </trkpt>
      <trkpt lat="45.14407" lon="2.87968">
        <ele>1188.84</ele>
        <time>2021-07-23T08:45:04Z</time>
      </trkpt>
      <trkpt lat="45.14403" lon="2.87956">
        <ele>1189.42</ele>
        <time>2021-07-23T08:45:12Z</time>
      </trkpt>
      <trkpt lat="45.14397" lon="2.87946">
        <ele>1193.22</ele>
        <time>2021-07-23T08:45:20Z</time>
      </trkpt>
      <trkpt lat="45.14388" lon="2.8794">
        <ele>1192.37</ele>
        <time>2021-07-23T08:45:27Z</time>
      </trkpt>
      <trkpt lat="45.1438" lon="2.87933">
        <ele>1191.67</ele>
        <time>2021-07-23T08:51:45Z</time>
      </trkpt>
      <trkpt lat="45.14372" lon="2.87923">
        <ele>1194.6</ele>
        <time>2021-07-23T08:51:53Z</time>
      </trkpt>
      <trkpt lat="45.14364" lon="2.87914">
        <ele>1198.83</ele>
        <time>2021-07-23T08:51:59Z</time>
      </trkpt>
      <trkpt lat="45.14355" lon="2.87906">
        <ele>1199.76</ele>
        <time>2021-07-23T08:52:05Z</time>
      </trkpt>
      <trkpt lat="45.14349" lon="2.87894">
        <ele>1199.35</ele>
        <time>2021-07-23T08:52:12Z</time>
      </trkpt>
      <trkpt lat="45.14342" lon="2.87884">
        <ele>1198.82</ele>
        <time>2021-07-23T08:52:19Z</time>
      </trkpt>
      <trkpt lat="45.14336" lon="2.87872">
        <ele>1196.92</ele>
        <time>2021-07-23T08:52:25Z</time>
      </trkpt>
      <trkpt lat="45.14331" lon="2.87861">
        <ele>1197.43</ele>
        <time>2021-07-23T08:52:30Z</time>
      </trkpt>
      <trkpt lat="45.14325" lon="2.87851">
        <ele>1198.26</ele>
        <time>2021-07-23T08:52:36Z</time>
      </trkpt>
      <trkpt lat="45.14319" lon="2.8784">
        <ele>1200.04</ele>
        <time>2021-07-23T08:52:42Z</time>
      </trkpt>
      <trkpt lat="45.14312" lon="2.8783">
        <ele>1200.67</ele>
        <time>2021-07-23T08:52:48Z</time>
      </trkpt>
      <trkpt lat="45.14307" lon="2.8782">
        <ele>1195.88</ele>
        <time>2021-07-23T08:56:40Z</time>
      </trkpt>
      <trkpt lat="45.14307" lon="2.87806">
        <ele>1196.18</ele>
        <time>2021-07-23T08:56:47Z</time>
      </trkpt>
      <trkpt lat="45.14302" lon="2.87795">
        <ele>1194.72</ele>
        <time>2021-07-23T08:56:53Z</time>
      </trkpt>
      <trkpt lat="45.14295" lon="2.87784">
        <ele>1195.31</ele>
        <time>2021-07-23T08:56:59Z</time>
      </trkpt>
      <trkpt lat="45.14289" lon="2.87772">
        <ele>1196.81</ele>
        <time>2021-07-23T08:57:05Z</time>
      </trkpt>
      <trkpt lat="45.14286" lon="2.8776">
        <ele>1198.69</ele>
        <time>2021-07-23T08:57:10Z</time>
      </trkpt>
      <trkpt lat="45.14284" lon="2.87746">
        <ele>1197.99</ele>
        <time>2021-07-23T08:57:16Z</time>
      </trkpt>
      <trkpt lat="45.14287" lon="2.87734">
        <ele>1198.73</ele>
        <time>2021-07-23T08:57:22Z</time>
      </trkpt>
      <trkpt lat="45.14292" lon="2.87721">
        <ele>1198.4</ele>
        <time>2021-07-23T08:57:29Z</time>
      </trkpt>
      <trkpt lat="45.14297" lon="2.87709">
        <ele>1198.9</ele>
        <time>2021-07-23T08:57:34Z</time>
      </trkpt>
      <trkpt lat="45.143" lon="2.87696">
        <ele>1198.07</ele>
        <time>2021-07-23T08:57:38Z</time>
      </trkpt>
      <trkpt lat="45.14302" lon="2.87681">
        <ele>1196.2</ele>
        <time>2021-07-23T08:57:42Z</time>
      </trkpt>
      <trkpt lat="45.14303" lon="2.87665">
        <ele>1196.96</ele>
        <time>2021-07-23T08:57:47Z</time>
      </trkpt>
      <trkpt lat="45.14306" lon="2.8765">
        <ele>1191.98</ele>
        <time>2021-07-23T08:57:52Z</time>
      </trkpt>
      <trkpt lat="45.14308" lon="2.87637">
        <ele>1191.57</ele>
        <time>2021-07-23T08:57:56Z</time>
      </trkpt>
      <trkpt lat="45.14311" lon="2.87623">
        <ele>1192.58</ele>
        <time>2021-07-23T08:58:00Z</time>
      </trkpt>
      <trkpt lat="45.14314" lon="2.87609">
        <ele>1193.47</ele>
        <time>2021-07-23T08:58:06Z</time>
      </trkpt>
      <trkpt lat="45.14315" lon="2.87596">
        <ele>1190.96</ele>
        <time>2021-07-23T08:58:10Z</time>
      </trkpt>
      <trkpt lat="45.14317" lon="2.87583">
        <ele>1186.76</ele>
        <time>2021-07-23T08:58:15Z</time>
      </trkpt>
      <trkpt lat="45.14318" lon="2.8757">
        <ele>1188.79</ele>
        <time>2021-07-23T08:58:20Z</time>
      </trkpt>
      <trkpt lat="45.1432" lon="2.87557">
        <ele>1188.83</ele>
        <time>2021-07-23T08:58:24Z</time>
      </trkpt>
      <trkpt lat="45.14321" lon="2.87543">
        <ele>1188.95</ele>
        <time>2021-07-23T08:58:28Z</time>
      </trkpt>
      <trkpt lat="45.14321" lon="2.8753">
        <ele>1190.7</ele>
        <time>2021-07-23T08:58:33Z</time>
      </trkpt>
      <trkpt lat="45.14321" lon="2.87517">
        <ele>1191.79</ele>
        <time>2021-07-23T08:58:39Z</time>
      </trkpt>
      <trkpt lat="45.14318" lon="2.87503">
        <ele>1191</ele>
        <time>2021-07-23T08:58:44Z</time>
      </trkpt>
      <trkpt lat="45.14321" lon="2.87488">
        <ele>1187.67</ele>
        <time>2021-07-23T08:58:50Z</time>
      </trkpt>
      <trkpt lat="45.14325" lon="2.87475">
        <ele>1186.74</ele>
        <time>2021-07-23T08:58:56Z</time>
      </trkpt>
      <trkpt lat="45.14325" lon="2.87461">
        <ele>1187.32</ele>
        <time>2021-07-23T08:59:03Z</time>
      </trkpt>
      <trkpt lat="45.14326" lon="2.87447">
        <ele>1184.2</ele>
        <time>2021-07-23T08:59:10Z</time>
      </trkpt>
      <trkpt lat="45.14325" lon="2.87434">
        <ele>1185.18</ele>
        <time>2021-07-23T08:59:18Z</time>
      </trkpt>
      <trkpt lat="45.14319" lon="2.87422">
        <ele>1186.71</ele>
        <time>2021-07-23T08:59:25Z</time>
      </trkpt>
      <trkpt lat="45.14312" lon="2.87413">
        <ele>1192.91</ele>
        <time>2021-07-23T08:59:33Z</time>
      </trkpt>
      <trkpt lat="45.14306" lon="2.87403">
        <ele>1198.26</ele>
        <time>2021-07-23T08:59:40Z</time>
      </trkpt>
      <trkpt lat="45.143" lon="2.87394">
        <ele>1208.24</ele>
        <time>2021-07-23T08:59:48Z</time>
      </trkpt>
      <trkpt lat="45.14298" lon="2.8738">
        <ele>1213.18</ele>
        <time>2021-07-23T08:59:58Z</time>
      </trkpt>
      <trkpt lat="45.14293" lon="2.87369">
        <ele>1214.43</ele>
        <time>2021-07-23T09:00:05Z</time>
      </trkpt>
      <trkpt lat="45.14288" lon="2.87358">
        <ele>1214.38</ele>
        <time>2021-07-23T09:00:13Z</time>
      </trkpt>
      <trkpt lat="45.14282" lon="2.87348">
        <ele>1214.4</ele>
        <time>2021-07-23T09:00:20Z</time>
      </trkpt>
      <trkpt lat="45.14284" lon="2.87334">
        <ele>1213.29</ele>
        <time>2021-07-23T09:00:28Z</time>
      </trkpt>
      <trkpt lat="45.14286" lon="2.87321">
        <ele>1215.48</ele>
        <time>2021-07-23T09:00:36Z</time>
      </trkpt>
      <trkpt lat="45.14287" lon="2.87308">
        <ele>1210.48</ele>
        <time>2021-07-23T09:00:43Z</time>
      </trkpt>
      <trkpt lat="45.14289" lon="2.87293">
        <ele>1212.38</ele>
        <time>2021-07-23T09:00:49Z</time>
      </trkpt>
      <trkpt lat="45.14288" lon="2.8728">
        <ele>1213.96</ele>
        <time>2021-07-23T09:00:55Z</time>
      </trkpt>
      <trkpt lat="45.14287" lon="2.87266">
        <ele>1213.07</ele>
        <time>2021-07-23T09:01:00Z</time>
      </trkpt>
      <trkpt lat="45.14288" lon="2.87252">
        <ele>1211.6</ele>
        <time>2021-07-23T09:01:04Z</time>
      </trkpt>
      <trkpt lat="45.14291" lon="2.87237">
        <ele>1208.69</ele>
        <time>2021-07-23T09:01:08Z</time>
      </trkpt>
      <trkpt lat="45.14296" lon="2.87222">
        <ele>1207.91</ele>
        <time>2021-07-23T09:01:11Z</time>
      </trkpt>
      <trkpt lat="45.14301" lon="2.87209">
        <ele>1208.06</ele>
        <time>2021-07-23T09:01:14Z</time>
      </trkpt>
      <trkpt lat="45.1431" lon="2.872">
        <ele>1207.49</ele>
        <time>2021-07-23T09:01:18Z</time>
      </trkpt>
      <trkpt lat="45.14305" lon="2.87187">
        <ele>1204.97</ele>
        <time>2021-07-23T09:01:23Z</time>
      </trkpt>
      <trkpt lat="45.14304" lon="2.87174">
        <ele>1207.82</ele>
        <time>2021-07-23T09:01:29Z</time>
      </trkpt>
      <trkpt lat="45.14304" lon="2.87158">
        <ele>1212.57</ele>
        <time>2021-07-23T09:01:36Z</time>
      </trkpt>
      <trkpt lat="45.14306" lon="2.87146">
        <ele>1213.63</ele>
        <time>2021-07-23T09:01:42Z</time>
      </trkpt>
      <trkpt lat="45.14307" lon="2.87133">
        <ele>1215.7</ele>
        <time>2021-07-23T09:01:49Z</time>
      </trkpt>
      <trkpt lat="45.14308" lon="2.87118">
        <ele>1215.65</ele>
        <time>2021-07-23T09:01:54Z</time>
      </trkpt>
      <trkpt lat="45.14309" lon="2.87105">
        <ele>1211.16</ele>
        <time>2021-07-23T09:01:59Z</time>
      </trkpt>
      <trkpt lat="45.14311" lon="2.87092">
        <ele>1211.6</ele>
        <time>2021-07-23T09:02:04Z</time>
      </trkpt>
      <trkpt lat="45.14318" lon="2.87081">
        <ele>1210.89</ele>
        <time>2021-07-23T09:02:10Z</time>
      </trkpt>
      <trkpt lat="45.1432" lon="2.87066">
        <ele>1208.02</ele>
        <time>2021-07-23T09:02:15Z</time>
      </trkpt>
      <trkpt lat="45.14323" lon="2.8705">
        <ele>1209.92</ele>
        <time>2021-07-23T09:02:20Z</time>
      </trkpt>
      <trkpt lat="45.14325" lon="2.87037">
        <ele>1214.34</ele>
        <time>2021-07-23T09:02:25Z</time>
      </trkpt>
      <trkpt lat="45.14323" lon="2.87022">
        <ele>1212.48</ele>
        <time>2021-07-23T09:02:30Z</time>
      </trkpt>
      <trkpt lat="45.14318" lon="2.8701">
        <ele>1212.79</ele>
        <time>2021-07-23T09:02:34Z</time>
      </trkpt>
      <trkpt lat="45.14321" lon="2.86995">
        <ele>1211.12</ele>
        <time>2021-07-23T09:02:39Z</time>
      </trkpt>
      <trkpt lat="45.14321" lon="2.86981">
        <ele>1210.57</ele>
        <time>2021-07-23T09:02:44Z</time>
      </trkpt>
      <trkpt lat="45.14319" lon="2.86965">
        <ele>1211.05</ele>
        <time>2021-07-23T09:02:50Z</time>
      </trkpt>
      <trkpt lat="45.14325" lon="2.86955">
        <ele>1214.77</ele>
        <time>2021-07-23T09:03:04Z</time>
      </trkpt>
      <trkpt lat="45.14331" lon="2.86945">
        <ele>1215.14</ele>
        <time>2021-07-23T09:03:13Z</time>
      </trkpt>
      <trkpt lat="45.14338" lon="2.86938">
        <ele>1216.62</ele>
        <time>2021-07-23T09:03:22Z</time>
      </trkpt>
      <trkpt lat="45.14343" lon="2.86927">
        <ele>1218.3</ele>
        <time>2021-07-23T09:03:33Z</time>
      </trkpt>
      <trkpt lat="45.14341" lon="2.86913">
        <ele>1222.94</ele>
        <time>2021-07-23T09:03:42Z</time>
      </trkpt>
      <trkpt lat="45.14344" lon="2.86901">
        <ele>1221.51</ele>
        <time>2021-07-23T09:03:53Z</time>
      </trkpt>
      <trkpt lat="45.14347" lon="2.86888">
        <ele>1220.92</ele>
        <time>2021-07-23T09:04:05Z</time>
      </trkpt>
      <trkpt lat="45.14342" lon="2.86877">
        <ele>1220.16</ele>
        <time>2021-07-23T09:04:12Z</time>
      </trkpt>
      <trkpt lat="45.14335" lon="2.86869">
        <ele>1219.37</ele>
        <time>2021-07-23T09:04:21Z</time>
      </trkpt>
      <trkpt lat="45.14334" lon="2.86856">
        <ele>1220.06</ele>
        <time>2021-07-23T09:04:30Z</time>
      </trkpt>
      <trkpt lat="45.14337" lon="2.86844">
        <ele>1218.79</ele>
        <time>2021-07-23T09:04:36Z</time>
      </trkpt>
      <trkpt lat="45.14339" lon="2.8683">
        <ele>1222.35</ele>
        <time>2021-07-23T09:04:51Z</time>
      </trkpt>
      <trkpt lat="45.14339" lon="2.86816">
        <ele>1230.47</ele>
        <time>2021-07-23T09:05:06Z</time>
      </trkpt>
      <trkpt lat="45.14338" lon="2.86802">
        <ele>1229.88</ele>
        <time>2021-07-23T09:05:16Z</time>
      </trkpt>
      <trkpt lat="45.14337" lon="2.86789">
        <ele>1228.12</ele>
        <time>2021-07-23T09:05:23Z</time>
      </trkpt>
      <trkpt lat="45.14334" lon="2.86776">
        <ele>1222.48</ele>
        <time>2021-07-23T09:05:28Z</time>
      </trkpt>
      <trkpt lat="45.14331" lon="2.86763">
        <ele>1222.44</ele>
        <time>2021-07-23T09:05:35Z</time>
      </trkpt>
      <trkpt lat="45.14336" lon="2.8675">
        <ele>1222.05</ele>
        <time>2021-07-23T09:05:42Z</time>
      </trkpt>
      <trkpt lat="45.14342" lon="2.86738">
        <ele>1217.09</ele>
        <time>2021-07-23T09:05:56Z</time>
      </trkpt>
      <trkpt lat="45.1435" lon="2.86728">
        <ele>1216.26</ele>
        <time>2021-07-23T09:06:05Z</time>
      </trkpt>
      <trkpt lat="45.14352" lon="2.86716">
        <ele>1216.52</ele>
        <time>2021-07-23T09:06:16Z</time>
      </trkpt>
      <trkpt lat="45.14346" lon="2.86704">
        <ele>1219.89</ele>
        <time>2021-07-23T09:06:25Z</time>
      </trkpt>
      <trkpt lat="45.14344" lon="2.86692">
        <ele>1217.9</ele>
        <time>2021-07-23T09:06:36Z</time>
      </trkpt>
      <trkpt lat="45.14338" lon="2.86681">
        <ele>1221.36</ele>
        <time>2021-07-23T09:06:51Z</time>
      </trkpt>
      <trkpt lat="45.14328" lon="2.86678">
        <ele>1229.12</ele>
        <time>2021-07-23T09:07:04Z</time>
      </trkpt>
      <trkpt lat="45.14324" lon="2.86666">
        <ele>1234.03</ele>
        <time>2021-07-23T09:07:25Z</time>
      </trkpt>
      <trkpt lat="45.1432" lon="2.86653">
        <ele>1230.99</ele>
        <time>2021-07-23T09:07:41Z</time>
      </trkpt>
      <trkpt lat="45.14313" lon="2.86643">
        <ele>1227.48</ele>
        <time>2021-07-23T09:07:50Z</time>
      </trkpt>
      <trkpt lat="45.1431" lon="2.8663">
        <ele>1231.53</ele>
        <time>2021-07-23T09:08:00Z</time>
      </trkpt>
      <trkpt lat="45.14311" lon="2.86617">
        <ele>1231.74</ele>
        <time>2021-07-23T09:08:09Z</time>
      </trkpt>
      <trkpt lat="45.14306" lon="2.86606">
        <ele>1233.61</ele>
        <time>2021-07-23T09:09:15Z</time>
      </trkpt>
      <trkpt lat="45.14305" lon="2.86592">
        <ele>1234.75</ele>
        <time>2021-07-23T09:09:29Z</time>
      </trkpt>
      <trkpt lat="45.14303" lon="2.86578">
        <ele>1234.01</ele>
        <time>2021-07-23T09:09:36Z</time>
      </trkpt>
      <trkpt lat="45.143" lon="2.86564">
        <ele>1232.16</ele>
        <time>2021-07-23T09:09:43Z</time>
      </trkpt>
      <trkpt lat="45.14298" lon="2.8655">
        <ele>1230.14</ele>
        <time>2021-07-23T09:09:50Z</time>
      </trkpt>
      <trkpt lat="45.14298" lon="2.86537">
        <ele>1232.54</ele>
        <time>2021-07-23T09:09:58Z</time>
      </trkpt>
      <trkpt lat="45.14297" lon="2.86524">
        <ele>1234.04</ele>
        <time>2021-07-23T09:10:06Z</time>
      </trkpt>
      <trkpt lat="45.14297" lon="2.8651">
        <ele>1234</ele>
        <time>2021-07-23T09:10:15Z</time>
      </trkpt>
      <trkpt lat="45.14298" lon="2.86496">
        <ele>1236.02</ele>
        <time>2021-07-23T09:10:23Z</time>
      </trkpt>
      <trkpt lat="45.14299" lon="2.86482">
        <ele>1232.65</ele>
        <time>2021-07-23T09:10:43Z</time>
      </trkpt>
      <trkpt lat="45.143" lon="2.86469">
        <ele>1230.2</ele>
        <time>2021-07-23T09:12:24Z</time>
      </trkpt>
      <trkpt lat="45.14303" lon="2.86456">
        <ele>1230.5</ele>
        <time>2021-07-23T09:12:38Z</time>
      </trkpt>
      <trkpt lat="45.14304" lon="2.86443">
        <ele>1227.44</ele>
        <time>2021-07-23T09:12:47Z</time>
      </trkpt>
      <trkpt lat="45.14304" lon="2.86429">
        <ele>1228.82</ele>
        <time>2021-07-23T09:12:55Z</time>
      </trkpt>
      <trkpt lat="45.14301" lon="2.86414">
        <ele>1229.32</ele>
        <time>2021-07-23T09:13:01Z</time>
      </trkpt>
      <trkpt lat="45.143" lon="2.86401">
        <ele>1228.86</ele>
        <time>2021-07-23T09:13:07Z</time>
      </trkpt>
      <trkpt lat="45.14299" lon="2.86388">
        <ele>1225.46</ele>
        <time>2021-07-23T09:13:13Z</time>
      </trkpt>
      <trkpt lat="45.14297" lon="2.86373">
        <ele>1225.99</ele>
        <time>2021-07-23T09:13:19Z</time>
      </trkpt>
      <trkpt lat="45.14294" lon="2.8636">
        <ele>1225.14</ele>
        <time>2021-07-23T09:13:26Z</time>
      </trkpt>
      <trkpt lat="45.14288" lon="2.86348">
        <ele>1223.54</ele>
        <time>2021-07-23T09:13:32Z</time>
      </trkpt>
      <trkpt lat="45.14282" lon="2.86337">
        <ele>1228.33</ele>
        <time>2021-07-23T09:13:39Z</time>
      </trkpt>
      <trkpt lat="45.14277" lon="2.86324">
        <ele>1225.39</ele>
        <time>2021-07-23T09:13:45Z</time>
      </trkpt>
      <trkpt lat="45.14272" lon="2.86312">
        <ele>1228.31</ele>
        <time>2021-07-23T09:13:52Z</time>
      </trkpt>
      <trkpt lat="45.14265" lon="2.86301">
        <ele>1223.77</ele>
        <time>2021-07-23T09:14:01Z</time>
      </trkpt>
      <trkpt lat="45.14257" lon="2.86292">
        <ele>1221.85</ele>
        <time>2021-07-23T09:14:06Z</time>
      </trkpt>
      <trkpt lat="45.14248" lon="2.86283">
        <ele>1224.66</ele>
        <time>2021-07-23T09:14:10Z</time>
      </trkpt>
      <trkpt lat="45.14239" lon="2.86277">
        <ele>1225.31</ele>
        <time>2021-07-23T09:14:14Z</time>
      </trkpt>
      <trkpt lat="45.1423" lon="2.8627">
        <ele>1225.56</ele>
        <time>2021-07-23T09:14:18Z</time>
      </trkpt>
      <trkpt lat="45.14221" lon="2.86265">
        <ele>1236.59</ele>
        <time>2021-07-23T09:30:47Z</time>
      </trkpt>
      <trkpt lat="45.14212" lon="2.86258">
        <ele>1236.42</ele>
        <time>2021-07-23T09:30:54Z</time>
      </trkpt>
      <trkpt lat="45.14205" lon="2.86249">
        <ele>1236.3</ele>
        <time>2021-07-23T09:31:00Z</time>
      </trkpt>
      <trkpt lat="45.14199" lon="2.86237">
        <ele>1236.42</ele>
        <time>2021-07-23T09:31:06Z</time>
      </trkpt>
      <trkpt lat="45.14192" lon="2.86227">
        <ele>1235.3</ele>
        <time>2021-07-23T09:31:12Z</time>
      </trkpt>
      <trkpt lat="45.14186" lon="2.86215">
        <ele>1235.74</ele>
        <time>2021-07-23T09:31:17Z</time>
      </trkpt>
      <trkpt lat="45.1418" lon="2.86205">
        <ele>1235.3</ele>
        <time>2021-07-23T09:31:21Z</time>
      </trkpt>
      <trkpt lat="45.14172" lon="2.86195">
        <ele>1235.12</ele>
        <time>2021-07-23T09:31:26Z</time>
      </trkpt>
      <trkpt lat="45.14165" lon="2.86185">
        <ele>1235.2</ele>
        <time>2021-07-23T09:32:03Z</time>
      </trkpt>
      <trkpt lat="45.14159" lon="2.86175">
        <ele>1235.23</ele>
        <time>2021-07-23T09:32:09Z</time>
      </trkpt>
      <trkpt lat="45.14152" lon="2.86165">
        <ele>1235.73</ele>
        <time>2021-07-23T09:32:13Z</time>
      </trkpt>
      <trkpt lat="45.14144" lon="2.86153">
        <ele>1238.46</ele>
        <time>2021-07-23T09:32:17Z</time>
      </trkpt>
      <trkpt lat="45.14137" lon="2.86143">
        <ele>1239.05</ele>
        <time>2021-07-23T09:32:20Z</time>
      </trkpt>
      <trkpt lat="45.14129" lon="2.86133">
        <ele>1240.81</ele>
        <time>2021-07-23T09:32:23Z</time>
      </trkpt>
      <trkpt lat="45.14097" lon="2.86093">
        <ele>1237.87</ele>
        <time>2021-07-23T09:32:25Z</time>
      </trkpt>
      <trkpt lat="45.14089" lon="2.86086">
        <ele>1237.44</ele>
        <time>2021-07-23T09:32:29Z</time>
      </trkpt>
      <trkpt lat="45.14082" lon="2.86075">
        <ele>1234.59</ele>
        <time>2021-07-23T09:32:34Z</time>
      </trkpt>
      <trkpt lat="45.14074" lon="2.86065">
        <ele>1236.74</ele>
        <time>2021-07-23T09:32:38Z</time>
      </trkpt>
      <trkpt lat="45.14066" lon="2.86054">
        <ele>1236.4</ele>
        <time>2021-07-23T09:32:41Z</time>
      </trkpt>
      <trkpt lat="45.14059" lon="2.86044">
        <ele>1235.99</ele>
        <time>2021-07-23T09:32:44Z</time>
      </trkpt>
      <trkpt lat="45.14052" lon="2.86033">
        <ele>1236.8</ele>
        <time>2021-07-23T09:32:48Z</time>
      </trkpt>
      <trkpt lat="45.14048" lon="2.86021">
        <ele>1235.96</ele>
        <time>2021-07-23T09:32:53Z</time>
      </trkpt>
      <trkpt lat="45.14047" lon="2.86007">
        <ele>1234.03</ele>
        <time>2021-07-23T09:32:58Z</time>
      </trkpt>
      <trkpt lat="45.14048" lon="2.85991">
        <ele>1232.74</ele>
        <time>2021-07-23T09:33:03Z</time>
      </trkpt>
      <trkpt lat="45.1405" lon="2.85976">
        <ele>1231.18</ele>
        <time>2021-07-23T09:33:08Z</time>
      </trkpt>
      <trkpt lat="45.14053" lon="2.85961">
        <ele>1231.46</ele>
        <time>2021-07-23T09:33:12Z</time>
      </trkpt>
      <trkpt lat="45.14056" lon="2.85947">
        <ele>1229.22</ele>
        <time>2021-07-23T09:33:15Z</time>
      </trkpt>
      <trkpt lat="45.1406" lon="2.85932">
        <ele>1227.71</ele>
        <time>2021-07-23T09:33:17Z</time>
      </trkpt>
      <trkpt lat="45.14061" lon="2.85919">
        <ele>1227.11</ele>
        <time>2021-07-23T09:33:19Z</time>
      </trkpt>
      <trkpt lat="45.14064" lon="2.85906">
        <ele>1225.86</ele>
        <time>2021-07-23T09:33:21Z</time>
      </trkpt>
      <trkpt lat="45.14067" lon="2.85893">
        <ele>1225.67</ele>
        <time>2021-07-23T09:33:23Z</time>
      </trkpt>
      <trkpt lat="45.1407" lon="2.85878">
        <ele>1225.22</ele>
        <time>2021-07-23T09:33:25Z</time>
      </trkpt>
      <trkpt lat="45.14074" lon="2.85862">
        <ele>1223.3</ele>
        <time>2021-07-23T09:33:27Z</time>
      </trkpt>
      <trkpt lat="45.14078" lon="2.85846">
        <ele>1222.6</ele>
        <time>2021-07-23T09:33:29Z</time>
      </trkpt>
      <trkpt lat="45.14081" lon="2.85831">
        <ele>1222.36</ele>
        <time>2021-07-23T09:33:31Z</time>
      </trkpt>
      <trkpt lat="45.14083" lon="2.85815">
        <ele>1221.92</ele>
        <time>2021-07-23T09:33:33Z</time>
      </trkpt>
      <trkpt lat="45.14087" lon="2.85799">
        <ele>1220.18</ele>
        <time>2021-07-23T09:33:35Z</time>
      </trkpt>
      <trkpt lat="45.1409" lon="2.85785">
        <ele>1219.67</ele>
        <time>2021-07-23T09:33:37Z</time>
      </trkpt>
      <trkpt lat="45.14095" lon="2.85771">
        <ele>1218.97</ele>
        <time>2021-07-23T09:33:39Z</time>
      </trkpt>
      <trkpt lat="45.141" lon="2.8576">
        <ele>1217.23</ele>
        <time>2021-07-23T09:33:41Z</time>
      </trkpt>
      <trkpt lat="45.14107" lon="2.85747">
        <ele>1215.78</ele>
        <time>2021-07-23T09:33:44Z</time>
      </trkpt>
      <trkpt lat="45.14113" lon="2.85736">
        <ele>1215.51</ele>
        <time>2021-07-23T09:33:48Z</time>
      </trkpt>
      <trkpt lat="45.14118" lon="2.85716">
        <ele>1215.42</ele>
        <time>2021-07-23T09:33:51Z</time>
      </trkpt>
      <trkpt lat="45.14123" lon="2.85703">
        <ele>1213.97</ele>
        <time>2021-07-23T09:33:52Z</time>
      </trkpt>
      <trkpt lat="45.14125" lon="2.8569">
        <ele>1213</ele>
        <time>2021-07-23T09:33:54Z</time>
      </trkpt>
      <trkpt lat="45.14125" lon="2.85672">
        <ele>1213.18</ele>
        <time>2021-07-23T09:33:57Z</time>
      </trkpt>
      <trkpt lat="45.14128" lon="2.85657">
        <ele>1211.51</ele>
        <time>2021-07-23T09:34:00Z</time>
      </trkpt>
      <trkpt lat="45.14133" lon="2.85646">
        <ele>1211.43</ele>
        <time>2021-07-23T09:34:03Z</time>
      </trkpt>
      <trkpt lat="45.14139" lon="2.85633">
        <ele>1211.65</ele>
        <time>2021-07-23T09:34:06Z</time>
      </trkpt>
      <trkpt lat="45.14146" lon="2.85625">
        <ele>1211.72</ele>
        <time>2021-07-23T09:34:15Z</time>
      </trkpt>
      <trkpt lat="45.14148" lon="2.85612">
        <ele>1217.55</ele>
        <time>2021-07-23T09:36:05Z</time>
      </trkpt>
      <trkpt lat="45.14149" lon="2.85599">
        <ele>1217.28</ele>
        <time>2021-07-23T09:36:10Z</time>
      </trkpt>
      <trkpt lat="45.1415" lon="2.85584">
        <ele>1215.66</ele>
        <time>2021-07-23T09:36:15Z</time>
      </trkpt>
      <trkpt lat="45.14152" lon="2.85568">
        <ele>1213.93</ele>
        <time>2021-07-23T09:36:19Z</time>
      </trkpt>
      <trkpt lat="45.14154" lon="2.85555">
        <ele>1213.43</ele>
        <time>2021-07-23T09:36:23Z</time>
      </trkpt>
      <trkpt lat="45.14154" lon="2.85539">
        <ele>1213.07</ele>
        <time>2021-07-23T09:36:28Z</time>
      </trkpt>
      <trkpt lat="45.14155" lon="2.85524">
        <ele>1213.83</ele>
        <time>2021-07-23T09:36:34Z</time>
      </trkpt>
      <trkpt lat="45.14152" lon="2.85511">
        <ele>1210.12</ele>
        <time>2021-07-23T09:36:39Z</time>
      </trkpt>
      <trkpt lat="45.14149" lon="2.85496">
        <ele>1208.82</ele>
        <time>2021-07-23T09:36:44Z</time>
      </trkpt>
      <trkpt lat="45.14146" lon="2.85483">
        <ele>1209.23</ele>
        <time>2021-07-23T09:36:49Z</time>
      </trkpt>
      <trkpt lat="45.14143" lon="2.85471">
        <ele>1209.21</ele>
        <time>2021-07-23T09:36:53Z</time>
      </trkpt>
      <trkpt lat="45.1414" lon="2.85458">
        <ele>1210.13</ele>
        <time>2021-07-23T09:36:58Z</time>
      </trkpt>
      <trkpt lat="45.14136" lon="2.85444">
        <ele>1210.36</ele>
        <time>2021-07-23T09:37:03Z</time>
      </trkpt>
      <trkpt lat="45.1413" lon="2.85434">
        <ele>1210.74</ele>
        <time>2021-07-23T09:37:08Z</time>
      </trkpt>
      <trkpt lat="45.14122" lon="2.85424">
        <ele>1213.13</ele>
        <time>2021-07-23T09:37:14Z</time>
      </trkpt>
      <trkpt lat="45.14114" lon="2.85417">
        <ele>1214.89</ele>
        <time>2021-07-23T09:37:20Z</time>
      </trkpt>
      <trkpt lat="45.1411" lon="2.85404">
        <ele>1215.02</ele>
        <time>2021-07-23T09:37:26Z</time>
      </trkpt>
      <trkpt lat="45.14106" lon="2.85392">
        <ele>1214.99</ele>
        <time>2021-07-23T09:37:30Z</time>
      </trkpt>
      <trkpt lat="45.14102" lon="2.85381">
        <ele>1214.77</ele>
        <time>2021-07-23T09:37:34Z</time>
      </trkpt>
      <trkpt lat="45.14097" lon="2.85368">
        <ele>1215.21</ele>
        <time>2021-07-23T09:37:38Z</time>
      </trkpt>
      <trkpt lat="45.14091" lon="2.85356">
        <ele>1215.87</ele>
        <time>2021-07-23T09:37:42Z</time>
      </trkpt>
      <trkpt lat="45.14082" lon="2.8535">
        <ele>1215.82</ele>
        <time>2021-07-23T09:37:47Z</time>
      </trkpt>
      <trkpt lat="45.14074" lon="2.85343">
        <ele>1218.45</ele>
        <time>2021-07-23T09:38:31Z</time>
      </trkpt>
      <trkpt lat="45.14066" lon="2.85336">
        <ele>1215.63</ele>
        <time>2021-07-23T09:40:03Z</time>
      </trkpt>
      <trkpt lat="45.14056" lon="2.85329">
        <ele>1208.53</ele>
        <time>2021-07-23T09:40:08Z</time>
      </trkpt>
      <trkpt lat="45.14047" lon="2.85329">
        <ele>1207.98</ele>
        <time>2021-07-23T09:40:11Z</time>
      </trkpt>
      <trkpt lat="45.14036" lon="2.8533">
        <ele>1207.51</ele>
        <time>2021-07-23T09:40:15Z</time>
      </trkpt>
      <trkpt lat="45.14026" lon="2.85334">
        <ele>1206.16</ele>
        <time>2021-07-23T09:40:19Z</time>
      </trkpt>
      <trkpt lat="45.14016" lon="2.85339">
        <ele>1203.21</ele>
        <time>2021-07-23T09:40:22Z</time>
      </trkpt>
      <trkpt lat="45.14002" lon="2.85339">
        <ele>1202.33</ele>
        <time>2021-07-23T09:40:25Z</time>
      </trkpt>
      <trkpt lat="45.13972" lon="2.85342">
        <ele>1201.21</ele>
        <time>2021-07-23T09:40:27Z</time>
      </trkpt>
      <trkpt lat="45.13962" lon="2.85347">
        <ele>1201.71</ele>
        <time>2021-07-23T09:40:30Z</time>
      </trkpt>
      <trkpt lat="45.13963" lon="2.85334">
        <ele>1201.52</ele>
        <time>2021-07-23T09:40:34Z</time>
      </trkpt>
      <trkpt lat="45.13972" lon="2.85328">
        <ele>1200.6</ele>
        <time>2021-07-23T09:40:38Z</time>
      </trkpt>
      <trkpt lat="45.13982" lon="2.85322">
        <ele>1198.83</ele>
        <time>2021-07-23T09:40:41Z</time>
      </trkpt>
      <trkpt lat="45.1399" lon="2.85314">
        <ele>1197.62</ele>
        <time>2021-07-23T09:40:44Z</time>
      </trkpt>
      <trkpt lat="45.13997" lon="2.85304">
        <ele>1197.12</ele>
        <time>2021-07-23T09:40:47Z</time>
      </trkpt>
      <trkpt lat="45.13999" lon="2.85288">
        <ele>1195.51</ele>
        <time>2021-07-23T09:40:51Z</time>
      </trkpt>
      <trkpt lat="45.13999" lon="2.85269">
        <ele>1194.91</ele>
        <time>2021-07-23T09:40:53Z</time>
      </trkpt>
      <trkpt lat="45.14001" lon="2.85253">
        <ele>1194.3</ele>
        <time>2021-07-23T09:40:54Z</time>
      </trkpt>
      <trkpt lat="45.14003" lon="2.85239">
        <ele>1192.21</ele>
        <time>2021-07-23T09:40:56Z</time>
      </trkpt>
      <trkpt lat="45.14003" lon="2.85222">
        <ele>1191.18</ele>
        <time>2021-07-23T09:40:59Z</time>
      </trkpt>
      <trkpt lat="45.13997" lon="2.8521">
        <ele>1189.79</ele>
        <time>2021-07-23T09:41:02Z</time>
      </trkpt>
      <trkpt lat="45.13979" lon="2.85225">
        <ele>1187.7</ele>
        <time>2021-07-23T09:41:08Z</time>
      </trkpt>
      <trkpt lat="45.1397" lon="2.85234">
        <ele>1185.47</ele>
        <time>2021-07-23T09:41:10Z</time>
      </trkpt>
      <trkpt lat="45.13958" lon="2.85236">
        <ele>1182.52</ele>
        <time>2021-07-23T09:41:12Z</time>
      </trkpt>
      <trkpt lat="45.13948" lon="2.85237">
        <ele>1181.21</ele>
        <time>2021-07-23T09:41:14Z</time>
      </trkpt>
      <trkpt lat="45.13934" lon="2.85237">
        <ele>1180.16</ele>
        <time>2021-07-23T09:41:17Z</time>
      </trkpt>
      <trkpt lat="45.13924" lon="2.85241">
        <ele>1177.74</ele>
        <time>2021-07-23T09:41:19Z</time>
      </trkpt>
      <trkpt lat="45.13915" lon="2.85248">
        <ele>1175.28</ele>
        <time>2021-07-23T09:41:21Z</time>
      </trkpt>
      <trkpt lat="45.13906" lon="2.85256">
        <ele>1173.84</ele>
        <time>2021-07-23T09:41:23Z</time>
      </trkpt>
      <trkpt lat="45.13895" lon="2.85264">
        <ele>1171.47</ele>
        <time>2021-07-23T09:41:25Z</time>
      </trkpt>
      <trkpt lat="45.13885" lon="2.85271">
        <ele>1170.79</ele>
        <time>2021-07-23T09:41:27Z</time>
      </trkpt>
      <trkpt lat="45.13875" lon="2.85278">
        <ele>1170.87</ele>
        <time>2021-07-23T09:41:29Z</time>
      </trkpt>
      <trkpt lat="45.13866" lon="2.85287">
        <ele>1169.34</ele>
        <time>2021-07-23T09:41:31Z</time>
      </trkpt>
      <trkpt lat="45.13857" lon="2.85294">
        <ele>1167.64</ele>
        <time>2021-07-23T09:41:33Z</time>
      </trkpt>
      <trkpt lat="45.13849" lon="2.853">
        <ele>1167.4</ele>
        <time>2021-07-23T09:41:35Z</time>
      </trkpt>
      <trkpt lat="45.13839" lon="2.85309">
        <ele>1165.29</ele>
        <time>2021-07-23T09:41:38Z</time>
      </trkpt>
      <trkpt lat="45.1383" lon="2.85302">
        <ele>1163.99</ele>
        <time>2021-07-23T09:41:41Z</time>
      </trkpt>
      <trkpt lat="45.13827" lon="2.8529">
        <ele>1162.49</ele>
        <time>2021-07-23T09:41:43Z</time>
      </trkpt>
      <trkpt lat="45.13823" lon="2.85272">
        <ele>1160.7</ele>
        <time>2021-07-23T09:41:45Z</time>
      </trkpt>
      <trkpt lat="45.13818" lon="2.85255">
        <ele>1160.68</ele>
        <time>2021-07-23T09:41:47Z</time>
      </trkpt>
      <trkpt lat="45.13811" lon="2.85237">
        <ele>1159.56</ele>
        <time>2021-07-23T09:41:49Z</time>
      </trkpt>
      <trkpt lat="45.13801" lon="2.85221">
        <ele>1157.65</ele>
        <time>2021-07-23T09:41:51Z</time>
      </trkpt>
      <trkpt lat="45.13789" lon="2.85203">
        <ele>1155.88</ele>
        <time>2021-07-23T09:41:53Z</time>
      </trkpt>
      <trkpt lat="45.13778" lon="2.85181">
        <ele>1153.49</ele>
        <time>2021-07-23T09:41:55Z</time>
      </trkpt>
      <trkpt lat="45.13773" lon="2.8517">
        <ele>1152.46</ele>
        <time>2021-07-23T09:41:56Z</time>
      </trkpt>
      <trkpt lat="45.13769" lon="2.85157">
        <ele>1151.58</ele>
        <time>2021-07-23T09:41:57Z</time>
      </trkpt>
      <trkpt lat="45.13765" lon="2.85133">
        <ele>1148.57</ele>
        <time>2021-07-23T09:41:59Z</time>
      </trkpt>
      <trkpt lat="45.13764" lon="2.85111">
        <ele>1146.76</ele>
        <time>2021-07-23T09:42:01Z</time>
      </trkpt>
      <trkpt lat="45.13762" lon="2.8509">
        <ele>1146.82</ele>
        <time>2021-07-23T09:42:03Z</time>
      </trkpt>
      <trkpt lat="45.13762" lon="2.85073">
        <ele>1145.28</ele>
        <time>2021-07-23T09:42:05Z</time>
      </trkpt>
      <trkpt lat="45.13759" lon="2.85057">
        <ele>1146.7</ele>
        <time>2021-07-23T09:42:07Z</time>
      </trkpt>
      <trkpt lat="45.13754" lon="2.85043">
        <ele>1146.71</ele>
        <time>2021-07-23T09:42:09Z</time>
      </trkpt>
      <trkpt lat="45.13744" lon="2.85036">
        <ele>1147.92</ele>
        <time>2021-07-23T09:42:12Z</time>
      </trkpt>
      <trkpt lat="45.13734" lon="2.85035">
        <ele>1147.14</ele>
        <time>2021-07-23T09:42:16Z</time>
      </trkpt>
      <trkpt lat="45.13723" lon="2.85035">
        <ele>1148.43</ele>
        <time>2021-07-23T09:42:21Z</time>
      </trkpt>
      <trkpt lat="45.13714" lon="2.85031">
        <ele>1148.03</ele>
        <time>2021-07-23T09:42:24Z</time>
      </trkpt>
      <trkpt lat="45.13705" lon="2.85026">
        <ele>1150.06</ele>
        <time>2021-07-23T09:42:27Z</time>
      </trkpt>
      <trkpt lat="45.13691" lon="2.85018">
        <ele>1151.57</ele>
        <time>2021-07-23T09:42:30Z</time>
      </trkpt>
      <trkpt lat="45.13682" lon="2.85016">
        <ele>1150.85</ele>
        <time>2021-07-23T09:42:33Z</time>
      </trkpt>
      <trkpt lat="45.13673" lon="2.85015">
        <ele>1156.12</ele>
        <time>2021-07-23T09:42:37Z</time>
      </trkpt>
      <trkpt lat="45.13663" lon="2.85017">
        <ele>1156.6</ele>
        <time>2021-07-23T09:42:41Z</time>
      </trkpt>
      <trkpt lat="45.13654" lon="2.85018">
        <ele>1157</ele>
        <time>2021-07-23T09:42:45Z</time>
      </trkpt>
      <trkpt lat="45.13643" lon="2.8502">
        <ele>1157.13</ele>
        <time>2021-07-23T09:42:49Z</time>
      </trkpt>
      <trkpt lat="45.13632" lon="2.85022">
        <ele>1158.4</ele>
        <time>2021-07-23T09:42:52Z</time>
      </trkpt>
      <trkpt lat="45.13622" lon="2.85026">
        <ele>1159.04</ele>
        <time>2021-07-23T09:42:56Z</time>
      </trkpt>
      <trkpt lat="45.13616" lon="2.85037">
        <ele>1155.3</ele>
        <time>2021-07-23T09:43:16Z</time>
      </trkpt>
      <trkpt lat="45.13609" lon="2.85047">
        <ele>1156.08</ele>
        <time>2021-07-23T09:43:21Z</time>
      </trkpt>
      <trkpt lat="45.13598" lon="2.85043">
        <ele>1159.28</ele>
        <time>2021-07-23T09:43:27Z</time>
      </trkpt>
      <trkpt lat="45.1359" lon="2.85039">
        <ele>1158.88</ele>
        <time>2021-07-23T09:43:31Z</time>
      </trkpt>
      <trkpt lat="45.1358" lon="2.85033">
        <ele>1156.47</ele>
        <time>2021-07-23T09:43:35Z</time>
      </trkpt>
      <trkpt lat="45.1357" lon="2.85028">
        <ele>1154.1</ele>
        <time>2021-07-23T09:43:39Z</time>
      </trkpt>
      <trkpt lat="45.13559" lon="2.85024">
        <ele>1151.45</ele>
        <time>2021-07-23T09:43:43Z</time>
      </trkpt>
      <trkpt lat="45.1355" lon="2.8502">
        <ele>1150.41</ele>
        <time>2021-07-23T09:43:46Z</time>
      </trkpt>
      <trkpt lat="45.1354" lon="2.85015">
        <ele>1148.28</ele>
        <time>2021-07-23T09:43:49Z</time>
      </trkpt>
      <trkpt lat="45.13531" lon="2.85006">
        <ele>1148.05</ele>
        <time>2021-07-23T09:43:52Z</time>
      </trkpt>
      <trkpt lat="45.13522" lon="2.84998">
        <ele>1146.25</ele>
        <time>2021-07-23T09:43:55Z</time>
      </trkpt>
      <trkpt lat="45.1351" lon="2.84999">
        <ele>1146.65</ele>
        <time>2021-07-23T09:43:59Z</time>
      </trkpt>
      <trkpt lat="45.13502" lon="2.85008">
        <ele>1144.27</ele>
        <time>2021-07-23T09:44:03Z</time>
      </trkpt>
      <trkpt lat="45.13498" lon="2.85023">
        <ele>1139.78</ele>
        <time>2021-07-23T09:44:07Z</time>
      </trkpt>
      <trkpt lat="45.13494" lon="2.85037">
        <ele>1134.86</ele>
        <time>2021-07-23T09:44:10Z</time>
      </trkpt>
      <trkpt lat="45.13483" lon="2.85042">
        <ele>1132.3</ele>
        <time>2021-07-23T09:44:12Z</time>
      </trkpt>
      <trkpt lat="45.1347" lon="2.85044">
        <ele>1129.44</ele>
        <time>2021-07-23T09:44:14Z</time>
      </trkpt>
      <trkpt lat="45.13453" lon="2.85044">
        <ele>1127.92</ele>
        <time>2021-07-23T09:44:16Z</time>
      </trkpt>
      <trkpt lat="45.13443" lon="2.85043">
        <ele>1127.32</ele>
        <time>2021-07-23T09:44:17Z</time>
      </trkpt>
      <trkpt lat="45.13434" lon="2.85041">
        <ele>1126.03</ele>
        <time>2021-07-23T09:44:18Z</time>
      </trkpt>
      <trkpt lat="45.13425" lon="2.85042">
        <ele>1125.98</ele>
        <time>2021-07-23T09:44:19Z</time>
      </trkpt>
      <trkpt lat="45.13416" lon="2.85041">
        <ele>1125.14</ele>
        <time>2021-07-23T09:44:20Z</time>
      </trkpt>
      <trkpt lat="45.13397" lon="2.85042">
        <ele>1124.03</ele>
        <time>2021-07-23T09:44:22Z</time>
      </trkpt>
      <trkpt lat="45.13388" lon="2.85042">
        <ele>1123.76</ele>
        <time>2021-07-23T09:44:23Z</time>
      </trkpt>
      <trkpt lat="45.13372" lon="2.85042">
        <ele>1121.49</ele>
        <time>2021-07-23T09:44:25Z</time>
      </trkpt>
      <trkpt lat="45.13358" lon="2.85048">
        <ele>1119.94</ele>
        <time>2021-07-23T09:44:27Z</time>
      </trkpt>
      <trkpt lat="45.13345" lon="2.85051">
        <ele>1119.17</ele>
        <time>2021-07-23T09:44:29Z</time>
      </trkpt>
      <trkpt lat="45.13333" lon="2.85053">
        <ele>1119.02</ele>
        <time>2021-07-23T09:44:32Z</time>
      </trkpt>
      <trkpt lat="45.13324" lon="2.85059">
        <ele>1117.36</ele>
        <time>2021-07-23T09:44:36Z</time>
      </trkpt>
      <trkpt lat="45.13319" lon="2.8507">
        <ele>1119.62</ele>
        <time>2021-07-23T09:44:54Z</time>
      </trkpt>
      <trkpt lat="45.1331" lon="2.85075">
        <ele>1118.46</ele>
        <time>2021-07-23T09:44:57Z</time>
      </trkpt>
      <trkpt lat="45.13301" lon="2.8508">
        <ele>1119.29</ele>
        <time>2021-07-23T09:45:00Z</time>
      </trkpt>
      <trkpt lat="45.13311" lon="2.85075">
        <ele>1116.89</ele>
        <time>2021-07-23T09:45:14Z</time>
      </trkpt>
      <trkpt lat="45.13319" lon="2.85069">
        <ele>1114.05</ele>
        <time>2021-07-23T09:46:17Z</time>
      </trkpt>
      <trkpt lat="45.13328" lon="2.85064">
        <ele>1116.76</ele>
        <time>2021-07-23T09:46:21Z</time>
      </trkpt>
      <trkpt lat="45.13338" lon="2.8506">
        <ele>1116.8</ele>
        <time>2021-07-23T09:46:24Z</time>
      </trkpt>
      <trkpt lat="45.13348" lon="2.85058">
        <ele>1120.36</ele>
        <time>2021-07-23T09:46:27Z</time>
      </trkpt>
      <trkpt lat="45.13358" lon="2.85056">
        <ele>1120.93</ele>
        <time>2021-07-23T09:46:30Z</time>
      </trkpt>
      <trkpt lat="45.13367" lon="2.85055">
        <ele>1120.71</ele>
        <time>2021-07-23T09:46:33Z</time>
      </trkpt>
      <trkpt lat="45.13378" lon="2.85053">
        <ele>1120.9</ele>
        <time>2021-07-23T09:46:37Z</time>
      </trkpt>
      <trkpt lat="45.13388" lon="2.85053">
        <ele>1119.52</ele>
        <time>2021-07-23T09:46:41Z</time>
      </trkpt>
      <trkpt lat="45.13381" lon="2.85044">
        <ele>1129.85</ele>
        <time>2021-07-23T09:48:42Z</time>
      </trkpt>
      <trkpt lat="45.13371" lon="2.85048">
        <ele>1130.42</ele>
        <time>2021-07-23T09:48:46Z</time>
      </trkpt>
      <trkpt lat="45.13359" lon="2.85052">
        <ele>1129.97</ele>
        <time>2021-07-23T09:48:50Z</time>
      </trkpt>
      <trkpt lat="45.1335" lon="2.85055">
        <ele>1129.48</ele>
        <time>2021-07-23T09:48:53Z</time>
      </trkpt>
      <trkpt lat="45.1334" lon="2.85058">
        <ele>1130.02</ele>
        <time>2021-07-23T09:48:56Z</time>
      </trkpt>
      <trkpt lat="45.1333" lon="2.85063">
        <ele>1129.81</ele>
        <time>2021-07-23T09:48:59Z</time>
      </trkpt>
      <trkpt lat="45.13318" lon="2.8507">
        <ele>1128.94</ele>
        <time>2021-07-23T09:49:02Z</time>
      </trkpt>
      <trkpt lat="45.13309" lon="2.85076">
        <ele>1128.45</ele>
        <time>2021-07-23T09:49:05Z</time>
      </trkpt>
      <trkpt lat="45.13299" lon="2.8508">
        <ele>1126.74</ele>
        <time>2021-07-23T09:49:08Z</time>
      </trkpt>
      <trkpt lat="45.1329" lon="2.85084">
        <ele>1124.45</ele>
        <time>2021-07-23T09:49:11Z</time>
      </trkpt>
      <trkpt lat="45.13278" lon="2.85086">
        <ele>1123.16</ele>
        <time>2021-07-23T09:49:15Z</time>
      </trkpt>
      <trkpt lat="45.13269" lon="2.85087">
        <ele>1118.89</ele>
        <time>2021-07-23T09:49:20Z</time>
      </trkpt>
      <trkpt lat="45.13259" lon="2.8509">
        <ele>1118.31</ele>
        <time>2021-07-23T09:49:25Z</time>
      </trkpt>
      <trkpt lat="45.13249" lon="2.85093">
        <ele>1121.74</ele>
        <time>2021-07-23T09:49:30Z</time>
      </trkpt>
      <trkpt lat="45.13239" lon="2.85099">
        <ele>1122.02</ele>
        <time>2021-07-23T09:49:36Z</time>
      </trkpt>
      <trkpt lat="45.13229" lon="2.85104">
        <ele>1124.7</ele>
        <time>2021-07-23T09:49:42Z</time>
      </trkpt>
      <trkpt lat="45.1322" lon="2.85109">
        <ele>1125.53</ele>
        <time>2021-07-23T09:49:48Z</time>
      </trkpt>
      <trkpt lat="45.13209" lon="2.85108">
        <ele>1127.05</ele>
        <time>2021-07-23T09:49:54Z</time>
      </trkpt>
      <trkpt lat="45.13199" lon="2.85106">
        <ele>1127.34</ele>
        <time>2021-07-23T09:49:59Z</time>
      </trkpt>
      <trkpt lat="45.13188" lon="2.85105">
        <ele>1129.33</ele>
        <time>2021-07-23T09:50:05Z</time>
      </trkpt>
      <trkpt lat="45.13179" lon="2.85107">
        <ele>1130.24</ele>
        <time>2021-07-23T09:50:10Z</time>
      </trkpt>
      <trkpt lat="45.13171" lon="2.85116">
        <ele>1131.45</ele>
        <time>2021-07-23T09:50:17Z</time>
      </trkpt>
      <trkpt lat="45.13162" lon="2.85124">
        <ele>1136.18</ele>
        <time>2021-07-23T09:50:23Z</time>
      </trkpt>
      <trkpt lat="45.13153" lon="2.85129">
        <ele>1138.27</ele>
        <time>2021-07-23T09:50:28Z</time>
      </trkpt>
      <trkpt lat="45.13146" lon="2.85137">
        <ele>1138.63</ele>
        <time>2021-07-23T09:50:34Z</time>
      </trkpt>
      <trkpt lat="45.13141" lon="2.8515">
        <ele>1141.22</ele>
        <time>2021-07-23T09:50:40Z</time>
      </trkpt>
      <trkpt lat="45.13138" lon="2.85162">
        <ele>1143.59</ele>
        <time>2021-07-23T09:50:46Z</time>
      </trkpt>
      <trkpt lat="45.13133" lon="2.85175">
        <ele>1145.38</ele>
        <time>2021-07-23T09:50:53Z</time>
      </trkpt>
      <trkpt lat="45.13125" lon="2.85185">
        <ele>1147.94</ele>
        <time>2021-07-23T09:50:59Z</time>
      </trkpt>
      <trkpt lat="45.13118" lon="2.85196">
        <ele>1149.57</ele>
        <time>2021-07-23T09:51:05Z</time>
      </trkpt>
      <trkpt lat="45.13112" lon="2.85205">
        <ele>1148.9</ele>
        <time>2021-07-23T09:51:10Z</time>
      </trkpt>
      <trkpt lat="45.13105" lon="2.85216">
        <ele>1147.36</ele>
        <time>2021-07-23T09:51:16Z</time>
      </trkpt>
      <trkpt lat="45.13098" lon="2.85226">
        <ele>1148.17</ele>
        <time>2021-07-23T09:51:21Z</time>
      </trkpt>
      <trkpt lat="45.1309" lon="2.85236">
        <ele>1147.5</ele>
        <time>2021-07-23T09:51:26Z</time>
      </trkpt>
      <trkpt lat="45.13082" lon="2.85246">
        <ele>1148.66</ele>
        <time>2021-07-23T09:51:31Z</time>
      </trkpt>
      <trkpt lat="45.13075" lon="2.85254">
        <ele>1149.65</ele>
        <time>2021-07-23T09:51:35Z</time>
      </trkpt>
      <trkpt lat="45.13067" lon="2.85265">
        <ele>1150.24</ele>
        <time>2021-07-23T09:51:40Z</time>
      </trkpt>
      <trkpt lat="45.13059" lon="2.85274">
        <ele>1149.55</ele>
        <time>2021-07-23T09:51:44Z</time>
      </trkpt>
      <trkpt lat="45.13051" lon="2.85282">
        <ele>1147.3</ele>
        <time>2021-07-23T09:51:48Z</time>
      </trkpt>
      <trkpt lat="45.13042" lon="2.8529">
        <ele>1147.99</ele>
        <time>2021-07-23T09:51:52Z</time>
      </trkpt>
      <trkpt lat="45.13032" lon="2.85297">
        <ele>1148.27</ele>
        <time>2021-07-23T09:51:56Z</time>
      </trkpt>
      <trkpt lat="45.13024" lon="2.85308">
        <ele>1148.77</ele>
        <time>2021-07-23T09:52:00Z</time>
      </trkpt>
      <trkpt lat="45.13017" lon="2.85317">
        <ele>1147.08</ele>
        <time>2021-07-23T09:52:04Z</time>
      </trkpt>
      <trkpt lat="45.13005" lon="2.85334">
        <ele>1145.95</ele>
        <time>2021-07-23T09:52:08Z</time>
      </trkpt>
      <trkpt lat="45.12996" lon="2.85345">
        <ele>1146.52</ele>
        <time>2021-07-23T09:52:11Z</time>
      </trkpt>
      <trkpt lat="45.12988" lon="2.85355">
        <ele>1148.09</ele>
        <time>2021-07-23T09:52:14Z</time>
      </trkpt>
      <trkpt lat="45.12979" lon="2.85365">
        <ele>1149.23</ele>
        <time>2021-07-23T09:52:17Z</time>
      </trkpt>
      <trkpt lat="45.12969" lon="2.85376">
        <ele>1150.24</ele>
        <time>2021-07-23T09:52:20Z</time>
      </trkpt>
      <trkpt lat="45.12962" lon="2.85384">
        <ele>1149.05</ele>
        <time>2021-07-23T09:52:22Z</time>
      </trkpt>
      <trkpt lat="45.12951" lon="2.85394">
        <ele>1148.49</ele>
        <time>2021-07-23T09:52:25Z</time>
      </trkpt>
      <trkpt lat="45.12941" lon="2.85405">
        <ele>1148.14</ele>
        <time>2021-07-23T09:52:28Z</time>
      </trkpt>
      <trkpt lat="45.12933" lon="2.85413">
        <ele>1147.93</ele>
        <time>2021-07-23T09:52:30Z</time>
      </trkpt>
      <trkpt lat="45.12925" lon="2.85421">
        <ele>1148.02</ele>
        <time>2021-07-23T09:52:32Z</time>
      </trkpt>
      <trkpt lat="45.12917" lon="2.8543">
        <ele>1147.58</ele>
        <time>2021-07-23T09:52:34Z</time>
      </trkpt>
      <trkpt lat="45.12909" lon="2.85438">
        <ele>1147.32</ele>
        <time>2021-07-23T09:52:36Z</time>
      </trkpt>
      <trkpt lat="45.12902" lon="2.85446">
        <ele>1148.27</ele>
        <time>2021-07-23T09:52:38Z</time>
      </trkpt>
      <trkpt lat="45.12891" lon="2.85458">
        <ele>1146.77</ele>
        <time>2021-07-23T09:52:41Z</time>
      </trkpt>
      <trkpt lat="45.12884" lon="2.85465">
        <ele>1146.22</ele>
        <time>2021-07-23T09:52:43Z</time>
      </trkpt>
      <trkpt lat="45.12875" lon="2.85471">
        <ele>1146.83</ele>
        <time>2021-07-23T09:52:45Z</time>
      </trkpt>
      <trkpt lat="45.12864" lon="2.8548">
        <ele>1147.71</ele>
        <time>2021-07-23T09:52:48Z</time>
      </trkpt>
      <trkpt lat="45.12854" lon="2.85487">
        <ele>1147.15</ele>
        <time>2021-07-23T09:52:51Z</time>
      </trkpt>
      <trkpt lat="45.12844" lon="2.85495">
        <ele>1146.98</ele>
        <time>2021-07-23T09:52:54Z</time>
      </trkpt>
      <trkpt lat="45.12834" lon="2.85502">
        <ele>1148.39</ele>
        <time>2021-07-23T09:52:58Z</time>
      </trkpt>
      <trkpt lat="45.12825" lon="2.8551">
        <ele>1150.79</ele>
        <time>2021-07-23T09:53:03Z</time>
      </trkpt>
      <trkpt lat="45.12816" lon="2.85513">
        <ele>1151.93</ele>
        <time>2021-07-23T09:53:06Z</time>
      </trkpt>
      <trkpt lat="45.12808" lon="2.85522">
        <ele>1150.51</ele>
        <time>2021-07-23T09:53:10Z</time>
      </trkpt>
      <trkpt lat="45.12801" lon="2.85531">
        <ele>1150.08</ele>
        <time>2021-07-23T09:53:13Z</time>
      </trkpt>
      <trkpt lat="45.1279" lon="2.8554">
        <ele>1149.02</ele>
        <time>2021-07-23T09:53:16Z</time>
      </trkpt>
      <trkpt lat="45.12779" lon="2.8555">
        <ele>1148.1</ele>
        <time>2021-07-23T09:53:19Z</time>
      </trkpt>
      <trkpt lat="45.12771" lon="2.85557">
        <ele>1146.32</ele>
        <time>2021-07-23T09:53:22Z</time>
      </trkpt>
      <trkpt lat="45.12761" lon="2.85564">
        <ele>1141.28</ele>
        <time>2021-07-23T09:53:26Z</time>
      </trkpt>
      <trkpt lat="45.12751" lon="2.85572">
        <ele>1143.02</ele>
        <time>2021-07-23T09:53:29Z</time>
      </trkpt>
      <trkpt lat="45.12744" lon="2.85583">
        <ele>1138.55</ele>
        <time>2021-07-23T09:53:31Z</time>
      </trkpt>
      <trkpt lat="45.12737" lon="2.85597">
        <ele>1138.78</ele>
        <time>2021-07-23T09:53:33Z</time>
      </trkpt>
      <trkpt lat="45.12732" lon="2.85609">
        <ele>1139.24</ele>
        <time>2021-07-23T09:53:35Z</time>
      </trkpt>
      <trkpt lat="45.12727" lon="2.85621">
        <ele>1139.4</ele>
        <time>2021-07-23T09:53:37Z</time>
      </trkpt>
      <trkpt lat="45.12721" lon="2.85632">
        <ele>1139.39</ele>
        <time>2021-07-23T09:53:39Z</time>
      </trkpt>
      <trkpt lat="45.12712" lon="2.8564">
        <ele>1138.56</ele>
        <time>2021-07-23T09:53:41Z</time>
      </trkpt>
      <trkpt lat="45.12704" lon="2.85647">
        <ele>1137.76</ele>
        <time>2021-07-23T09:53:43Z</time>
      </trkpt>
      <trkpt lat="45.12695" lon="2.85652">
        <ele>1136.35</ele>
        <time>2021-07-23T09:53:45Z</time>
      </trkpt>
      <trkpt lat="45.12688" lon="2.85667">
        <ele>1135.54</ele>
        <time>2021-07-23T09:53:48Z</time>
      </trkpt>
      <trkpt lat="45.12685" lon="2.85684">
        <ele>1134.78</ele>
        <time>2021-07-23T09:53:51Z</time>
      </trkpt>
      <trkpt lat="45.12679" lon="2.85696">
        <ele>1132.53</ele>
        <time>2021-07-23T09:53:53Z</time>
      </trkpt>
      <trkpt lat="45.12671" lon="2.85708">
        <ele>1132.3</ele>
        <time>2021-07-23T09:53:55Z</time>
      </trkpt>
      <trkpt lat="45.12664" lon="2.85718">
        <ele>1130.65</ele>
        <time>2021-07-23T09:53:57Z</time>
      </trkpt>
      <trkpt lat="45.12655" lon="2.85731">
        <ele>1129.57</ele>
        <time>2021-07-23T09:53:58Z</time>
      </trkpt>
      <trkpt lat="45.12644" lon="2.85745">
        <ele>1127.75</ele>
        <time>2021-07-23T09:54:00Z</time>
      </trkpt>
      <trkpt lat="45.12635" lon="2.85757">
        <ele>1126.71</ele>
        <time>2021-07-23T09:54:02Z</time>
      </trkpt>
      <trkpt lat="45.12627" lon="2.8577">
        <ele>1128.56</ele>
        <time>2021-07-23T09:54:04Z</time>
      </trkpt>
      <trkpt lat="45.12622" lon="2.85781">
        <ele>1129.45</ele>
        <time>2021-07-23T09:54:06Z</time>
      </trkpt>
      <trkpt lat="45.12621" lon="2.85795">
        <ele>1128.74</ele>
        <time>2021-07-23T09:54:08Z</time>
      </trkpt>
      <trkpt lat="45.12611" lon="2.85793">
        <ele>1129.47</ele>
        <time>2021-07-23T09:54:11Z</time>
      </trkpt>
      <trkpt lat="45.126" lon="2.85794">
        <ele>1129.16</ele>
        <time>2021-07-23T09:54:14Z</time>
      </trkpt>
      <trkpt lat="45.1259" lon="2.85795">
        <ele>1129.27</ele>
        <time>2021-07-23T09:54:16Z</time>
      </trkpt>
      <trkpt lat="45.12576" lon="2.85795">
        <ele>1127.86</ele>
        <time>2021-07-23T09:54:18Z</time>
      </trkpt>
      <trkpt lat="45.12552" lon="2.85788">
        <ele>1127.66</ele>
        <time>2021-07-23T09:54:20Z</time>
      </trkpt>
      <trkpt lat="45.1254" lon="2.85789">
        <ele>1125.91</ele>
        <time>2021-07-23T09:54:21Z</time>
      </trkpt>
      <trkpt lat="45.12528" lon="2.85787">
        <ele>1124.77</ele>
        <time>2021-07-23T09:54:23Z</time>
      </trkpt>
      <trkpt lat="45.12517" lon="2.85788">
        <ele>1123.52</ele>
        <time>2021-07-23T09:54:25Z</time>
      </trkpt>
      <trkpt lat="45.12507" lon="2.85786">
        <ele>1120.11</ele>
        <time>2021-07-23T09:54:30Z</time>
      </trkpt>
      <trkpt lat="45.12502" lon="2.85772">
        <ele>1118.2</ele>
        <time>2021-07-23T09:54:35Z</time>
      </trkpt>
      <trkpt lat="45.12497" lon="2.85755">
        <ele>1116.36</ele>
        <time>2021-07-23T09:54:38Z</time>
      </trkpt>
      <trkpt lat="45.12492" lon="2.85742">
        <ele>1115.77</ele>
        <time>2021-07-23T09:54:40Z</time>
      </trkpt>
      <trkpt lat="45.12485" lon="2.85727">
        <ele>1112.55</ele>
        <time>2021-07-23T09:54:43Z</time>
      </trkpt>
      <trkpt lat="45.12478" lon="2.85715">
        <ele>1110.18</ele>
        <time>2021-07-23T09:54:46Z</time>
      </trkpt>
      <trkpt lat="45.12469" lon="2.85719">
        <ele>1114.91</ele>
        <time>2021-07-23T09:55:14Z</time>
      </trkpt>
      <trkpt lat="45.12462" lon="2.85728">
        <ele>1117.35</ele>
        <time>2021-07-23T09:56:38Z</time>
      </trkpt>
      <trkpt lat="45.12452" lon="2.85735">
        <ele>1116.26</ele>
        <time>2021-07-23T09:56:42Z</time>
      </trkpt>
      <trkpt lat="45.12445" lon="2.85746">
        <ele>1115.13</ele>
        <time>2021-07-23T09:56:45Z</time>
      </trkpt>
      <trkpt lat="45.12438" lon="2.8576">
        <ele>1114.64</ele>
        <time>2021-07-23T09:56:48Z</time>
      </trkpt>
      <trkpt lat="45.12433" lon="2.85773">
        <ele>1114.17</ele>
        <time>2021-07-23T09:56:51Z</time>
      </trkpt>
      <trkpt lat="45.12426" lon="2.85783">
        <ele>1113.6</ele>
        <time>2021-07-23T09:56:54Z</time>
      </trkpt>
      <trkpt lat="45.12419" lon="2.85791">
        <ele>1112.42</ele>
        <time>2021-07-23T09:56:58Z</time>
      </trkpt>
      <trkpt lat="45.12409" lon="2.85794">
        <ele>1109.46</ele>
        <time>2021-07-23T09:57:02Z</time>
      </trkpt>
      <trkpt lat="45.12402" lon="2.85783">
        <ele>1107.49</ele>
        <time>2021-07-23T09:57:08Z</time>
      </trkpt>
      <trkpt lat="45.12397" lon="2.85768">
        <ele>1107.45</ele>
        <time>2021-07-23T09:57:11Z</time>
      </trkpt>
      <trkpt lat="45.1239" lon="2.85756">
        <ele>1106.72</ele>
        <time>2021-07-23T09:57:15Z</time>
      </trkpt>
      <trkpt lat="45.12379" lon="2.8575">
        <ele>1107.1</ele>
        <time>2021-07-23T09:57:19Z</time>
      </trkpt>
      <trkpt lat="45.1237" lon="2.85746">
        <ele>1108.27</ele>
        <time>2021-07-23T09:57:22Z</time>
      </trkpt>
      <trkpt lat="45.12361" lon="2.8574">
        <ele>1109.39</ele>
        <time>2021-07-23T09:57:26Z</time>
      </trkpt>
      <trkpt lat="45.12352" lon="2.85733">
        <ele>1107.41</ele>
        <time>2021-07-23T09:57:30Z</time>
      </trkpt>
      <trkpt lat="45.12343" lon="2.85726">
        <ele>1107.53</ele>
        <time>2021-07-23T09:57:34Z</time>
      </trkpt>
      <trkpt lat="45.12334" lon="2.85721">
        <ele>1106.57</ele>
        <time>2021-07-23T09:57:38Z</time>
      </trkpt>
      <trkpt lat="45.12326" lon="2.85715">
        <ele>1105.67</ele>
        <time>2021-07-23T09:57:42Z</time>
      </trkpt>
      <trkpt lat="45.12317" lon="2.85711">
        <ele>1104.26</ele>
        <time>2021-07-23T09:57:46Z</time>
      </trkpt>
      <trkpt lat="45.12308" lon="2.85704">
        <ele>1103.84</ele>
        <time>2021-07-23T09:57:49Z</time>
      </trkpt>
      <trkpt lat="45.12298" lon="2.85696">
        <ele>1102.98</ele>
        <time>2021-07-23T09:57:52Z</time>
      </trkpt>
      <trkpt lat="45.1229" lon="2.85688">
        <ele>1101.31</ele>
        <time>2021-07-23T09:57:55Z</time>
      </trkpt>
      <trkpt lat="45.12282" lon="2.85679">
        <ele>1100.66</ele>
        <time>2021-07-23T09:57:59Z</time>
      </trkpt>
      <trkpt lat="45.12271" lon="2.85673">
        <ele>1099.77</ele>
        <time>2021-07-23T09:59:02Z</time>
      </trkpt>
      <trkpt lat="45.12261" lon="2.85667">
        <ele>1099.37</ele>
        <time>2021-07-23T09:59:05Z</time>
      </trkpt>
      <trkpt lat="45.12252" lon="2.8566">
        <ele>1097.91</ele>
        <time>2021-07-23T09:59:08Z</time>
      </trkpt>
      <trkpt lat="45.12241" lon="2.85655">
        <ele>1097.06</ele>
        <time>2021-07-23T09:59:11Z</time>
      </trkpt>
      <trkpt lat="45.12229" lon="2.85651">
        <ele>1096.11</ele>
        <time>2021-07-23T09:59:14Z</time>
      </trkpt>
      <trkpt lat="45.12216" lon="2.85646">
        <ele>1095.65</ele>
        <time>2021-07-23T09:59:17Z</time>
      </trkpt>
      <trkpt lat="45.12207" lon="2.85644">
        <ele>1094.34</ele>
        <time>2021-07-23T09:59:20Z</time>
      </trkpt>
      <trkpt lat="45.12196" lon="2.85643">
        <ele>1091.89</ele>
        <time>2021-07-23T09:59:24Z</time>
      </trkpt>
      <trkpt lat="45.12187" lon="2.85642">
        <ele>1092.36</ele>
        <time>2021-07-23T09:59:28Z</time>
      </trkpt>
      <trkpt lat="45.12176" lon="2.85641">
        <ele>1093.85</ele>
        <time>2021-07-23T09:59:31Z</time>
      </trkpt>
      <trkpt lat="45.12163" lon="2.8564">
        <ele>1095.16</ele>
        <time>2021-07-23T09:59:34Z</time>
      </trkpt>
      <trkpt lat="45.12154" lon="2.85636">
        <ele>1093.86</ele>
        <time>2021-07-23T09:59:36Z</time>
      </trkpt>
      <trkpt lat="45.12144" lon="2.8563">
        <ele>1092.93</ele>
        <time>2021-07-23T09:59:38Z</time>
      </trkpt>
      <trkpt lat="45.12134" lon="2.85621">
        <ele>1091.23</ele>
        <time>2021-07-23T09:59:40Z</time>
      </trkpt>
      <trkpt lat="45.12126" lon="2.8561">
        <ele>1090.86</ele>
        <time>2021-07-23T09:59:42Z</time>
      </trkpt>
      <trkpt lat="45.12118" lon="2.85597">
        <ele>1089.96</ele>
        <time>2021-07-23T09:59:44Z</time>
      </trkpt>
      <trkpt lat="45.12109" lon="2.85583">
        <ele>1088.76</ele>
        <time>2021-07-23T09:59:46Z</time>
      </trkpt>
      <trkpt lat="45.12102" lon="2.85573">
        <ele>1088.12</ele>
        <time>2021-07-23T09:59:47Z</time>
      </trkpt>
      <trkpt lat="45.12095" lon="2.8556">
        <ele>1086.26</ele>
        <time>2021-07-23T09:59:49Z</time>
      </trkpt>
      <trkpt lat="45.1209" lon="2.85548">
        <ele>1084.22</ele>
        <time>2021-07-23T09:59:56Z</time>
      </trkpt>
      <trkpt lat="45.12084" lon="2.85538">
        <ele>1084.83</ele>
        <time>2021-07-23T10:00:32Z</time>
      </trkpt>
      <trkpt lat="45.12078" lon="2.85551">
        <ele>1082.73</ele>
        <time>2021-07-23T10:01:34Z</time>
      </trkpt>
      <trkpt lat="45.12075" lon="2.85563">
        <ele>1082.83</ele>
        <time>2021-07-23T10:01:38Z</time>
      </trkpt>
      <trkpt lat="45.1207" lon="2.85581">
        <ele>1080.49</ele>
        <time>2021-07-23T10:01:40Z</time>
      </trkpt>
      <trkpt lat="45.12063" lon="2.85596">
        <ele>1078.93</ele>
        <time>2021-07-23T10:01:43Z</time>
      </trkpt>
      <trkpt lat="45.12061" lon="2.8561">
        <ele>1078.63</ele>
        <time>2021-07-23T10:01:46Z</time>
      </trkpt>
      <trkpt lat="45.12058" lon="2.85625">
        <ele>1077.52</ele>
        <time>2021-07-23T10:01:51Z</time>
      </trkpt>
      <trkpt lat="45.12054" lon="2.85639">
        <ele>1076.75</ele>
        <time>2021-07-23T10:01:52Z</time>
      </trkpt>
      <trkpt lat="45.1205" lon="2.85658">
        <ele>1076.46</ele>
        <time>2021-07-23T10:01:54Z</time>
      </trkpt>
      <trkpt lat="45.12047" lon="2.85672">
        <ele>1076.37</ele>
        <time>2021-07-23T10:01:56Z</time>
      </trkpt>
      <trkpt lat="45.1204" lon="2.85689">
        <ele>1076.66</ele>
        <time>2021-07-23T10:01:59Z</time>
      </trkpt>
      <trkpt lat="45.12035" lon="2.85702">
        <ele>1074.6</ele>
        <time>2021-07-23T10:02:03Z</time>
      </trkpt>
      <trkpt lat="45.1203" lon="2.85713">
        <ele>1073.87</ele>
        <time>2021-07-23T10:02:05Z</time>
      </trkpt>
      <trkpt lat="45.12023" lon="2.85728">
        <ele>1073.15</ele>
        <time>2021-07-23T10:02:07Z</time>
      </trkpt>
      <trkpt lat="45.12018" lon="2.85742">
        <ele>1071.51</ele>
        <time>2021-07-23T10:02:10Z</time>
      </trkpt>
      <trkpt lat="45.12014" lon="2.85756">
        <ele>1070.35</ele>
        <time>2021-07-23T10:02:15Z</time>
      </trkpt>
      <trkpt lat="45.12005" lon="2.85777">
        <ele>1067.92</ele>
        <time>2021-07-23T10:02:18Z</time>
      </trkpt>
      <trkpt lat="45.11998" lon="2.85788">
        <ele>1067.7</ele>
        <time>2021-07-23T10:02:21Z</time>
      </trkpt>
      <trkpt lat="45.11992" lon="2.85798">
        <ele>1066.81</ele>
        <time>2021-07-23T10:02:24Z</time>
      </trkpt>
      <trkpt lat="45.11985" lon="2.8581">
        <ele>1068.23</ele>
        <time>2021-07-23T10:02:29Z</time>
      </trkpt>
      <trkpt lat="45.11978" lon="2.85822">
        <ele>1068.86</ele>
        <time>2021-07-23T10:02:32Z</time>
      </trkpt>
      <trkpt lat="45.11967" lon="2.85834">
        <ele>1069.05</ele>
        <time>2021-07-23T10:02:35Z</time>
      </trkpt>
      <trkpt lat="45.11961" lon="2.85844">
        <ele>1067.59</ele>
        <time>2021-07-23T10:02:37Z</time>
      </trkpt>
      <trkpt lat="45.11955" lon="2.85855">
        <ele>1066.43</ele>
        <time>2021-07-23T10:02:40Z</time>
      </trkpt>
      <trkpt lat="45.1195" lon="2.85866">
        <ele>1065.66</ele>
        <time>2021-07-23T10:02:43Z</time>
      </trkpt>
      <trkpt lat="45.11946" lon="2.85878">
        <ele>1067.1</ele>
        <time>2021-07-23T10:02:48Z</time>
      </trkpt>
      <trkpt lat="45.11939" lon="2.8589">
        <ele>1068.7</ele>
        <time>2021-07-23T10:02:52Z</time>
      </trkpt>
      <trkpt lat="45.11937" lon="2.85903">
        <ele>1068.63</ele>
        <time>2021-07-23T10:02:55Z</time>
      </trkpt>
      <trkpt lat="45.11932" lon="2.85914">
        <ele>1068.87</ele>
        <time>2021-07-23T10:03:00Z</time>
      </trkpt>
      <trkpt lat="45.11924" lon="2.85905">
        <ele>1067.59</ele>
        <time>2021-07-23T10:03:14Z</time>
      </trkpt>
      <trkpt lat="45.11915" lon="2.8591">
        <ele>1065.65</ele>
        <time>2021-07-23T10:03:36Z</time>
      </trkpt>
      <trkpt lat="45.11903" lon="2.85914">
        <ele>1064.48</ele>
        <time>2021-07-23T10:03:40Z</time>
      </trkpt>
      <trkpt lat="45.11892" lon="2.85922">
        <ele>1063.66</ele>
        <time>2021-07-23T10:03:43Z</time>
      </trkpt>
      <trkpt lat="45.11883" lon="2.8593">
        <ele>1063.11</ele>
        <time>2021-07-23T10:03:45Z</time>
      </trkpt>
      <trkpt lat="45.11872" lon="2.85941">
        <ele>1061.59</ele>
        <time>2021-07-23T10:03:48Z</time>
      </trkpt>
      <trkpt lat="45.11864" lon="2.85946">
        <ele>1060.69</ele>
        <time>2021-07-23T10:03:50Z</time>
      </trkpt>
      <trkpt lat="45.11855" lon="2.85952">
        <ele>1062.32</ele>
        <time>2021-07-23T10:03:54Z</time>
      </trkpt>
      <trkpt lat="45.11843" lon="2.85955">
        <ele>1061.5</ele>
        <time>2021-07-23T10:03:56Z</time>
      </trkpt>
      <trkpt lat="45.11833" lon="2.85955">
        <ele>1060.02</ele>
        <time>2021-07-23T10:03:57Z</time>
      </trkpt>
      <trkpt lat="45.11822" lon="2.85955">
        <ele>1057.28</ele>
        <time>2021-07-23T10:04:00Z</time>
      </trkpt>
      <trkpt lat="45.11815" lon="2.85965">
        <ele>1056.78</ele>
        <time>2021-07-23T10:04:03Z</time>
      </trkpt>
      <trkpt lat="45.11809" lon="2.85978">
        <ele>1056.23</ele>
        <time>2021-07-23T10:04:06Z</time>
      </trkpt>
      <trkpt lat="45.11801" lon="2.85988">
        <ele>1053.96</ele>
        <time>2021-07-23T10:04:09Z</time>
      </trkpt>
      <trkpt lat="45.11794" lon="2.86001">
        <ele>1052.26</ele>
        <time>2021-07-23T10:04:12Z</time>
      </trkpt>
      <trkpt lat="45.11787" lon="2.86012">
        <ele>1052.25</ele>
        <time>2021-07-23T10:04:15Z</time>
      </trkpt>
      <trkpt lat="45.11777" lon="2.86019">
        <ele>1052.55</ele>
        <time>2021-07-23T10:04:20Z</time>
      </trkpt>
      <trkpt lat="45.11768" lon="2.86015">
        <ele>1051.86</ele>
        <time>2021-07-23T10:04:27Z</time>
      </trkpt>
      <trkpt lat="45.11761" lon="2.86007">
        <ele>1050.98</ele>
        <time>2021-07-23T10:04:32Z</time>
      </trkpt>
      <trkpt lat="45.11753" lon="2.86002">
        <ele>1050.84</ele>
        <time>2021-07-23T10:04:35Z</time>
      </trkpt>
      <trkpt lat="45.11744" lon="2.85995">
        <ele>1048.71</ele>
        <time>2021-07-23T10:04:38Z</time>
      </trkpt>
      <trkpt lat="45.11739" lon="2.85983">
        <ele>1047.21</ele>
        <time>2021-07-23T10:04:42Z</time>
      </trkpt>
      <trkpt lat="45.11741" lon="2.8597">
        <ele>1045.04</ele>
        <time>2021-07-23T10:05:00Z</time>
      </trkpt>
      <trkpt lat="45.11746" lon="2.85953">
        <ele>1043.38</ele>
        <time>2021-07-23T10:05:04Z</time>
      </trkpt>
      <trkpt lat="45.11749" lon="2.85936">
        <ele>1041.65</ele>
        <time>2021-07-23T10:05:06Z</time>
      </trkpt>
      <trkpt lat="45.11752" lon="2.85922">
        <ele>1039.84</ele>
        <time>2021-07-23T10:05:07Z</time>
      </trkpt>
      <trkpt lat="45.11757" lon="2.85902">
        <ele>1036.18</ele>
        <time>2021-07-23T10:05:09Z</time>
      </trkpt>
      <trkpt lat="45.11761" lon="2.85888">
        <ele>1034.25</ele>
        <time>2021-07-23T10:05:11Z</time>
      </trkpt>
      <trkpt lat="45.11763" lon="2.85872">
        <ele>1033.21</ele>
        <time>2021-07-23T10:05:14Z</time>
      </trkpt>
      <trkpt lat="45.11766" lon="2.85855">
        <ele>1031.25</ele>
        <time>2021-07-23T10:05:17Z</time>
      </trkpt>
      <trkpt lat="45.11763" lon="2.85842">
        <ele>1030.39</ele>
        <time>2021-07-23T10:05:22Z</time>
      </trkpt>
      <trkpt lat="45.11753" lon="2.85846">
        <ele>1029.11</ele>
        <time>2021-07-23T10:05:35Z</time>
      </trkpt>
      <trkpt lat="45.11744" lon="2.85847">
        <ele>1028.44</ele>
        <time>2021-07-23T10:05:42Z</time>
      </trkpt>
      <trkpt lat="45.11737" lon="2.8586">
        <ele>1026.33</ele>
        <time>2021-07-23T10:05:47Z</time>
      </trkpt>
      <trkpt lat="45.1173" lon="2.85871">
        <ele>1024.2</ele>
        <time>2021-07-23T10:05:51Z</time>
      </trkpt>
      <trkpt lat="45.11721" lon="2.85877">
        <ele>1023.06</ele>
        <time>2021-07-23T10:05:54Z</time>
      </trkpt>
      <trkpt lat="45.11712" lon="2.85885">
        <ele>1020.53</ele>
        <time>2021-07-23T10:05:58Z</time>
      </trkpt>
      <trkpt lat="45.11704" lon="2.85892">
        <ele>1019.01</ele>
        <time>2021-07-23T10:06:01Z</time>
      </trkpt>
      <trkpt lat="45.11694" lon="2.85897">
        <ele>1018.33</ele>
        <time>2021-07-23T10:06:17Z</time>
      </trkpt>
      <trkpt lat="45.11686" lon="2.85906">
        <ele>1017.41</ele>
        <time>2021-07-23T10:06:31Z</time>
      </trkpt>
      <trkpt lat="45.11675" lon="2.85902">
        <ele>1017.75</ele>
        <time>2021-07-23T10:06:35Z</time>
      </trkpt>
      <trkpt lat="45.11667" lon="2.85895">
        <ele>1017.8</ele>
        <time>2021-07-23T10:06:39Z</time>
      </trkpt>
      <trkpt lat="45.11663" lon="2.85883">
        <ele>1011.9</ele>
        <time>2021-07-23T10:06:47Z</time>
      </trkpt>
      <trkpt lat="45.11656" lon="2.85896">
        <ele>1010.24</ele>
        <time>2021-07-23T10:06:51Z</time>
      </trkpt>
      <trkpt lat="45.11652" lon="2.85911">
        <ele>1008.01</ele>
        <time>2021-07-23T10:06:54Z</time>
      </trkpt>
      <trkpt lat="45.1165" lon="2.85896">
        <ele>1008.19</ele>
        <time>2021-07-23T10:07:59Z</time>
      </trkpt>
      <trkpt lat="45.11642" lon="2.85884">
        <ele>1007.58</ele>
        <time>2021-07-23T10:08:03Z</time>
      </trkpt>
      <trkpt lat="45.1163" lon="2.85887">
        <ele>1006.59</ele>
        <time>2021-07-23T10:08:07Z</time>
      </trkpt>
      <trkpt lat="45.11625" lon="2.85903">
        <ele>1005.83</ele>
        <time>2021-07-23T10:08:10Z</time>
      </trkpt>
      <trkpt lat="45.11621" lon="2.85916">
        <ele>1004.56</ele>
        <time>2021-07-23T10:08:12Z</time>
      </trkpt>
      <trkpt lat="45.11618" lon="2.85929">
        <ele>1003.75</ele>
        <time>2021-07-23T10:08:14Z</time>
      </trkpt>
      <trkpt lat="45.11612" lon="2.85944">
        <ele>1002.26</ele>
        <time>2021-07-23T10:08:17Z</time>
      </trkpt>
      <trkpt lat="45.11606" lon="2.85956">
        <ele>1000.58</ele>
        <time>2021-07-23T10:08:20Z</time>
      </trkpt>
      <trkpt lat="45.11598" lon="2.85966">
        <ele>995.07</ele>
        <time>2021-07-23T10:08:24Z</time>
      </trkpt>
      <trkpt lat="45.11587" lon="2.85968">
        <ele>992.34</ele>
        <time>2021-07-23T10:08:28Z</time>
      </trkpt>
      <trkpt lat="45.11577" lon="2.85966">
        <ele>990.5</ele>
        <time>2021-07-23T10:08:30Z</time>
      </trkpt>
      <trkpt lat="45.11566" lon="2.85966">
        <ele>989.64</ele>
        <time>2021-07-23T10:08:32Z</time>
      </trkpt>
      <trkpt lat="45.11554" lon="2.85967">
        <ele>989.19</ele>
        <time>2021-07-23T10:08:34Z</time>
      </trkpt>
      <trkpt lat="45.1154" lon="2.85966">
        <ele>988.62</ele>
        <time>2021-07-23T10:08:35Z</time>
      </trkpt>
      <trkpt lat="45.11528" lon="2.85961">
        <ele>986.82</ele>
        <time>2021-07-23T10:08:38Z</time>
      </trkpt>
      <trkpt lat="45.11518" lon="2.85957">
        <ele>983.28</ele>
        <time>2021-07-23T10:08:40Z</time>
      </trkpt>
      <trkpt lat="45.11506" lon="2.85956">
        <ele>980.96</ele>
        <time>2021-07-23T10:08:42Z</time>
      </trkpt>
      <trkpt lat="45.11495" lon="2.85958">
        <ele>979.15</ele>
        <time>2021-07-23T10:08:44Z</time>
      </trkpt>
      <trkpt lat="45.11485" lon="2.85966">
        <ele>979.11</ele>
        <time>2021-07-23T10:08:46Z</time>
      </trkpt>
      <trkpt lat="45.11481" lon="2.85979">
        <ele>980.52</ele>
        <time>2021-07-23T10:08:49Z</time>
      </trkpt>
      <trkpt lat="45.11478" lon="2.85992">
        <ele>981.04</ele>
        <time>2021-07-23T10:08:53Z</time>
      </trkpt>
      <trkpt lat="45.11476" lon="2.86006">
        <ele>982.96</ele>
        <time>2021-07-23T10:08:58Z</time>
      </trkpt>
      <trkpt lat="45.11473" lon="2.8602">
        <ele>983.47</ele>
        <time>2021-07-23T10:09:02Z</time>
      </trkpt>
      <trkpt lat="45.11467" lon="2.86035">
        <ele>983.93</ele>
        <time>2021-07-23T10:09:06Z</time>
      </trkpt>
      <trkpt lat="45.11459" lon="2.86043">
        <ele>983.98</ele>
        <time>2021-07-23T10:09:09Z</time>
      </trkpt>
      <trkpt lat="45.11451" lon="2.86052">
        <ele>983.82</ele>
        <time>2021-07-23T10:09:12Z</time>
      </trkpt>
      <trkpt lat="45.11444" lon="2.8606">
        <ele>984.12</ele>
        <time>2021-07-23T10:09:15Z</time>
      </trkpt>
      <trkpt lat="45.11436" lon="2.86071">
        <ele>984.35</ele>
        <time>2021-07-23T10:09:20Z</time>
      </trkpt>
      <trkpt lat="45.11429" lon="2.86082">
        <ele>983.78</ele>
        <time>2021-07-23T10:09:24Z</time>
      </trkpt>
      <trkpt lat="45.11424" lon="2.86094">
        <ele>983.25</ele>
        <time>2021-07-23T10:09:26Z</time>
      </trkpt>
      <trkpt lat="45.1142" lon="2.86107">
        <ele>982.85</ele>
        <time>2021-07-23T10:09:28Z</time>
      </trkpt>
      <trkpt lat="45.1142" lon="2.86123">
        <ele>982.22</ele>
        <time>2021-07-23T10:09:32Z</time>
      </trkpt>
      <trkpt lat="45.11422" lon="2.86139">
        <ele>980.88</ele>
        <time>2021-07-23T10:09:36Z</time>
      </trkpt>
      <trkpt lat="45.11422" lon="2.86152">
        <ele>982.07</ele>
        <time>2021-07-23T10:09:40Z</time>
      </trkpt>
      <trkpt lat="45.11423" lon="2.86166">
        <ele>981.91</ele>
        <time>2021-07-23T10:09:44Z</time>
      </trkpt>
      <trkpt lat="45.11425" lon="2.86179">
        <ele>981.48</ele>
        <time>2021-07-23T10:09:48Z</time>
      </trkpt>
      <trkpt lat="45.11427" lon="2.86193">
        <ele>980.73</ele>
        <time>2021-07-23T10:09:52Z</time>
      </trkpt>
      <trkpt lat="45.1143" lon="2.86207">
        <ele>979.33</ele>
        <time>2021-07-23T10:09:56Z</time>
      </trkpt>
      <trkpt lat="45.11434" lon="2.8622">
        <ele>979.48</ele>
        <time>2021-07-23T10:10:00Z</time>
      </trkpt>
      <trkpt lat="45.11439" lon="2.86231">
        <ele>980.21</ele>
        <time>2021-07-23T10:10:04Z</time>
      </trkpt>
      <trkpt lat="45.11441" lon="2.86246">
        <ele>980.81</ele>
        <time>2021-07-23T10:10:09Z</time>
      </trkpt>
      <trkpt lat="45.11434" lon="2.86255">
        <ele>981.24</ele>
        <time>2021-07-23T10:10:13Z</time>
      </trkpt>
      <trkpt lat="45.11425" lon="2.86264">
        <ele>981.92</ele>
        <time>2021-07-23T10:10:18Z</time>
      </trkpt>
      <trkpt lat="45.11417" lon="2.8627">
        <ele>982.51</ele>
        <time>2021-07-23T10:10:21Z</time>
      </trkpt>
      <trkpt lat="45.11408" lon="2.86278">
        <ele>982.84</ele>
        <time>2021-07-23T10:10:26Z</time>
      </trkpt>
      <trkpt lat="45.11404" lon="2.86291">
        <ele>983.17</ele>
        <time>2021-07-23T10:10:32Z</time>
      </trkpt>
      <trkpt lat="45.114" lon="2.86305">
        <ele>984.23</ele>
        <time>2021-07-23T10:10:37Z</time>
      </trkpt>
      <trkpt lat="45.11388" lon="2.86303">
        <ele>984.4</ele>
        <time>2021-07-23T10:10:43Z</time>
      </trkpt>
      <trkpt lat="45.11379" lon="2.86302">
        <ele>985.26</ele>
        <time>2021-07-23T10:10:47Z</time>
      </trkpt>
      <trkpt lat="45.11381" lon="2.86315">
        <ele>983.97</ele>
        <time>2021-07-23T10:11:43Z</time>
      </trkpt>
      <trkpt lat="45.11386" lon="2.86326">
        <ele>982.37</ele>
        <time>2021-07-23T10:11:46Z</time>
      </trkpt>
      <trkpt lat="45.11391" lon="2.8634">
        <ele>980.21</ele>
        <time>2021-07-23T10:11:49Z</time>
      </trkpt>
      <trkpt lat="45.11391" lon="2.86355">
        <ele>978.63</ele>
        <time>2021-07-23T10:11:51Z</time>
      </trkpt>
      <trkpt lat="45.11392" lon="2.8637">
        <ele>977.38</ele>
        <time>2021-07-23T10:11:53Z</time>
      </trkpt>
      <trkpt lat="45.11393" lon="2.86382">
        <ele>977.44</ele>
        <time>2021-07-23T10:11:55Z</time>
      </trkpt>
      <trkpt lat="45.11399" lon="2.86395">
        <ele>977.34</ele>
        <time>2021-07-23T10:11:59Z</time>
      </trkpt>
      <trkpt lat="45.114" lon="2.8641">
        <ele>970.61</ele>
        <time>2021-07-23T10:12:03Z</time>
      </trkpt>
      <trkpt lat="45.114" lon="2.86429">
        <ele>970.15</ele>
        <time>2021-07-23T10:12:05Z</time>
      </trkpt>
      <trkpt lat="45.11401" lon="2.8645">
        <ele>966.78</ele>
        <time>2021-07-23T10:12:07Z</time>
      </trkpt>
      <trkpt lat="45.11401" lon="2.86471">
        <ele>966.42</ele>
        <time>2021-07-23T10:12:08Z</time>
      </trkpt>
      <trkpt lat="45.114" lon="2.86488">
        <ele>968.93</ele>
        <time>2021-07-23T10:12:09Z</time>
      </trkpt>
      <trkpt lat="45.11398" lon="2.86502">
        <ele>969.47</ele>
        <time>2021-07-23T10:12:11Z</time>
      </trkpt>
      <trkpt lat="45.11394" lon="2.86516">
        <ele>969.79</ele>
        <time>2021-07-23T10:12:13Z</time>
      </trkpt>
      <trkpt lat="45.1139" lon="2.8653">
        <ele>969.22</ele>
        <time>2021-07-23T10:12:16Z</time>
      </trkpt>
      <trkpt lat="45.11385" lon="2.86548">
        <ele>967.88</ele>
        <time>2021-07-23T10:12:20Z</time>
      </trkpt>
      <trkpt lat="45.11381" lon="2.86561">
        <ele>968.51</ele>
        <time>2021-07-23T10:12:21Z</time>
      </trkpt>
      <trkpt lat="45.11379" lon="2.86575">
        <ele>967.35</ele>
        <time>2021-07-23T10:12:24Z</time>
      </trkpt>
      <trkpt lat="45.11374" lon="2.8659">
        <ele>966.87</ele>
        <time>2021-07-23T10:12:27Z</time>
      </trkpt>
      <trkpt lat="45.11371" lon="2.86605">
        <ele>965.12</ele>
        <time>2021-07-23T10:12:30Z</time>
      </trkpt>
      <trkpt lat="45.11367" lon="2.86621">
        <ele>965.38</ele>
        <time>2021-07-23T10:12:33Z</time>
      </trkpt>
      <trkpt lat="45.11363" lon="2.86634">
        <ele>966.59</ele>
        <time>2021-07-23T10:12:37Z</time>
      </trkpt>
      <trkpt lat="45.11357" lon="2.86647">
        <ele>960.51</ele>
        <time>2021-07-23T10:15:45Z</time>
      </trkpt>
      <trkpt lat="45.11351" lon="2.86657">
        <ele>959.53</ele>
        <time>2021-07-23T10:15:49Z</time>
      </trkpt>
      <trkpt lat="45.11342" lon="2.86666">
        <ele>959.76</ele>
        <time>2021-07-23T10:15:53Z</time>
      </trkpt>
      <trkpt lat="45.11334" lon="2.86674">
        <ele>958.57</ele>
        <time>2021-07-23T10:15:56Z</time>
      </trkpt>
      <trkpt lat="45.11327" lon="2.86682">
        <ele>958.72</ele>
        <time>2021-07-23T10:15:59Z</time>
      </trkpt>
      <trkpt lat="45.11319" lon="2.86689">
        <ele>958.64</ele>
        <time>2021-07-23T10:16:02Z</time>
      </trkpt>
      <trkpt lat="45.11308" lon="2.86693">
        <ele>958.07</ele>
        <time>2021-07-23T10:16:06Z</time>
      </trkpt>
      <trkpt lat="45.11298" lon="2.86695">
        <ele>957.31</ele>
        <time>2021-07-23T10:16:09Z</time>
      </trkpt>
      <trkpt lat="45.11288" lon="2.86696">
        <ele>955.68</ele>
        <time>2021-07-23T10:16:12Z</time>
      </trkpt>
      <trkpt lat="45.11279" lon="2.86697">
        <ele>951.84</ele>
        <time>2021-07-23T10:16:15Z</time>
      </trkpt>
      <trkpt lat="45.11271" lon="2.86704">
        <ele>952.2</ele>
        <time>2021-07-23T10:16:19Z</time>
      </trkpt>
      <trkpt lat="45.11269" lon="2.86717">
        <ele>953.23</ele>
        <time>2021-07-23T10:16:24Z</time>
      </trkpt>
      <trkpt lat="45.11275" lon="2.86729">
        <ele>953.08</ele>
        <time>2021-07-23T10:16:28Z</time>
      </trkpt>
      <trkpt lat="45.11274" lon="2.86742">
        <ele>948.83</ele>
        <time>2021-07-23T10:16:34Z</time>
      </trkpt>
      <trkpt lat="45.11266" lon="2.8675">
        <ele>948.11</ele>
        <time>2021-07-23T10:16:38Z</time>
      </trkpt>
      <trkpt lat="45.11258" lon="2.86757">
        <ele>948.16</ele>
        <time>2021-07-23T10:16:43Z</time>
      </trkpt>
      <trkpt lat="45.11249" lon="2.86749">
        <ele>942.12</ele>
        <time>2021-07-23T10:16:48Z</time>
      </trkpt>
      <trkpt lat="45.11241" lon="2.86742">
        <ele>941.25</ele>
        <time>2021-07-23T10:16:53Z</time>
      </trkpt>
      <trkpt lat="45.11231" lon="2.86748">
        <ele>942.12</ele>
        <time>2021-07-23T10:17:01Z</time>
      </trkpt>
      <trkpt lat="45.11222" lon="2.86756">
        <ele>939.36</ele>
        <time>2021-07-23T10:17:05Z</time>
      </trkpt>
      <trkpt lat="45.11214" lon="2.86764">
        <ele>939.38</ele>
        <time>2021-07-23T10:17:10Z</time>
      </trkpt>
      <trkpt lat="45.11209" lon="2.86776">
        <ele>937.83</ele>
        <time>2021-07-23T10:17:15Z</time>
      </trkpt>
      <trkpt lat="45.11201" lon="2.86786">
        <ele>936.65</ele>
        <time>2021-07-23T10:17:22Z</time>
      </trkpt>
      <trkpt lat="45.11194" lon="2.86795">
        <ele>939.75</ele>
        <time>2021-07-23T10:17:36Z</time>
      </trkpt>
      <trkpt lat="45.11194" lon="2.86808">
        <ele>937.62</ele>
        <time>2021-07-23T10:17:54Z</time>
      </trkpt>
      <trkpt lat="45.11185" lon="2.86802">
        <ele>933.58</ele>
        <time>2021-07-23T10:19:10Z</time>
      </trkpt>
      <trkpt lat="45.11177" lon="2.86796">
        <ele>928.5</ele>
        <time>2021-07-23T10:20:09Z</time>
      </trkpt>
      <trkpt lat="45.11171" lon="2.86787">
        <ele>927.76</ele>
        <time>2021-07-23T10:20:19Z</time>
      </trkpt>
      <trkpt lat="45.11162" lon="2.86788">
        <ele>927.93</ele>
        <time>2021-07-23T10:20:37Z</time>
      </trkpt>
      <trkpt lat="45.11161" lon="2.86801">
        <ele>922.78</ele>
        <time>2021-07-23T10:21:28Z</time>
      </trkpt>
      <trkpt lat="45.11164" lon="2.86788">
        <ele>931.67</ele>
        <time>2021-07-23T10:22:54Z</time>
      </trkpt>
      <trkpt lat="45.11165" lon="2.86774">
        <ele>924.2</ele>
        <time>2021-07-23T10:23:04Z</time>
      </trkpt>
      <trkpt lat="45.11161" lon="2.8676">
        <ele>924.42</ele>
        <time>2021-07-23T10:23:12Z</time>
      </trkpt>
      <trkpt lat="45.11153" lon="2.86751">
        <ele>928.77</ele>
        <time>2021-07-23T10:23:27Z</time>
      </trkpt>
      <trkpt lat="45.11146" lon="2.86739">
        <ele>930.01</ele>
        <time>2021-07-23T10:23:31Z</time>
      </trkpt>
      <trkpt lat="45.11141" lon="2.86727">
        <ele>929.25</ele>
        <time>2021-07-23T10:23:35Z</time>
      </trkpt>
      <trkpt lat="45.11137" lon="2.86715">
        <ele>928.22</ele>
        <time>2021-07-23T10:23:41Z</time>
      </trkpt>
      <trkpt lat="45.11132" lon="2.86702">
        <ele>932.68</ele>
        <time>2021-07-23T10:24:05Z</time>
      </trkpt>
      <trkpt lat="45.11127" lon="2.8669">
        <ele>931.57</ele>
        <time>2021-07-23T10:24:09Z</time>
      </trkpt>
      <trkpt lat="45.11123" lon="2.86678">
        <ele>932.79</ele>
        <time>2021-07-23T10:24:13Z</time>
      </trkpt>
      <trkpt lat="45.11116" lon="2.86668">
        <ele>934.29</ele>
        <time>2021-07-23T10:24:18Z</time>
      </trkpt>
      <trkpt lat="45.1112" lon="2.86656">
        <ele>927.35</ele>
        <time>2021-07-23T10:25:02Z</time>
      </trkpt>
      <trkpt lat="45.11114" lon="2.86666">
        <ele>940.23</ele>
        <time>2021-07-23T10:27:48Z</time>
      </trkpt>
      <trkpt lat="45.11122" lon="2.86673">
        <ele>933.65</ele>
        <time>2021-07-23T10:33:36Z</time>
      </trkpt>
      <trkpt lat="45.11127" lon="2.86687">
        <ele>933.23</ele>
        <time>2021-07-23T10:33:52Z</time>
      </trkpt>
      <trkpt lat="45.1113" lon="2.86703">
        <ele>934.27</ele>
        <time>2021-07-23T10:33:56Z</time>
      </trkpt>
      <trkpt lat="45.11136" lon="2.86716">
        <ele>933.13</ele>
        <time>2021-07-23T10:33:59Z</time>
      </trkpt>
      <trkpt lat="45.1114" lon="2.86731">
        <ele>932.92</ele>
        <time>2021-07-23T10:34:02Z</time>
      </trkpt>
      <trkpt lat="45.11145" lon="2.86744">
        <ele>932.33</ele>
        <time>2021-07-23T10:34:06Z</time>
      </trkpt>
      <trkpt lat="45.11144" lon="2.86759">
        <ele>932.92</ele>
        <time>2021-07-23T10:34:14Z</time>
      </trkpt>
      <trkpt lat="45.11135" lon="2.86769">
        <ele>931.85</ele>
        <time>2021-07-23T10:34:19Z</time>
      </trkpt>
      <trkpt lat="45.11129" lon="2.86782">
        <ele>930.9</ele>
        <time>2021-07-23T10:34:23Z</time>
      </trkpt>
      <trkpt lat="45.11125" lon="2.86795">
        <ele>928.85</ele>
        <time>2021-07-23T10:34:27Z</time>
      </trkpt>
      <trkpt lat="45.11121" lon="2.86808">
        <ele>929.49</ele>
        <time>2021-07-23T10:34:30Z</time>
      </trkpt>
      <trkpt lat="45.11118" lon="2.86821">
        <ele>929.52</ele>
        <time>2021-07-23T10:34:33Z</time>
      </trkpt>
      <trkpt lat="45.11113" lon="2.86835">
        <ele>928.5</ele>
        <time>2021-07-23T10:34:37Z</time>
      </trkpt>
      <trkpt lat="45.11108" lon="2.86847">
        <ele>926.62</ele>
        <time>2021-07-23T10:34:40Z</time>
      </trkpt>
      <trkpt lat="45.11104" lon="2.86858">
        <ele>925.17</ele>
        <time>2021-07-23T10:34:43Z</time>
      </trkpt>
      <trkpt lat="45.111" lon="2.86871">
        <ele>922.46</ele>
        <time>2021-07-23T10:34:48Z</time>
      </trkpt>
      <trkpt lat="45.11097" lon="2.86884">
        <ele>922.31</ele>
        <time>2021-07-23T10:34:56Z</time>
      </trkpt>
      <trkpt lat="45.11095" lon="2.869">
        <ele>922.65</ele>
        <time>2021-07-23T10:35:01Z</time>
      </trkpt>
      <trkpt lat="45.11092" lon="2.86914">
        <ele>920.19</ele>
        <time>2021-07-23T10:35:05Z</time>
      </trkpt>
      <trkpt lat="45.11082" lon="2.8692">
        <ele>920.53</ele>
        <time>2021-07-23T10:35:22Z</time>
      </trkpt>
      <trkpt lat="45.11071" lon="2.86919">
        <ele>918.78</ele>
        <time>2021-07-23T10:35:27Z</time>
      </trkpt>
      <trkpt lat="45.11062" lon="2.86918">
        <ele>920.17</ele>
        <time>2021-07-23T10:35:31Z</time>
      </trkpt>
      <trkpt lat="45.11053" lon="2.86917">
        <ele>917.76</ele>
        <time>2021-07-23T10:38:31Z</time>
      </trkpt>
      <trkpt lat="45.11045" lon="2.86912">
        <ele>921.81</ele>
        <time>2021-07-23T10:46:06Z</time>
      </trkpt>
      <trkpt lat="45.11032" lon="2.86911">
        <ele>922.43</ele>
        <time>2021-07-23T10:46:09Z</time>
      </trkpt>
      <trkpt lat="45.11021" lon="2.86918">
        <ele>921.47</ele>
        <time>2021-07-23T10:46:11Z</time>
      </trkpt>
      <trkpt lat="45.11012" lon="2.86918">
        <ele>921.84</ele>
        <time>2021-07-23T10:46:13Z</time>
      </trkpt>
      <trkpt lat="45.10999" lon="2.86921">
        <ele>920.64</ele>
        <time>2021-07-23T10:46:16Z</time>
      </trkpt>
      <trkpt lat="45.10989" lon="2.86922">
        <ele>919.42</ele>
        <time>2021-07-23T10:46:18Z</time>
      </trkpt>
      <trkpt lat="45.10979" lon="2.86924">
        <ele>917.33</ele>
        <time>2021-07-23T10:46:20Z</time>
      </trkpt>
      <trkpt lat="45.10968" lon="2.86925">
        <ele>911.59</ele>
        <time>2021-07-23T10:46:25Z</time>
      </trkpt>
      <trkpt lat="45.10958" lon="2.86927">
        <ele>910.51</ele>
        <time>2021-07-23T10:46:30Z</time>
      </trkpt>
      <trkpt lat="45.10954" lon="2.86939">
        <ele>907.05</ele>
        <time>2021-07-23T10:46:34Z</time>
      </trkpt>
      <trkpt lat="45.10955" lon="2.86952">
        <ele>908.38</ele>
        <time>2021-07-23T10:46:37Z</time>
      </trkpt>
      <trkpt lat="45.10955" lon="2.86966">
        <ele>907.72</ele>
        <time>2021-07-23T10:46:40Z</time>
      </trkpt>
      <trkpt lat="45.10952" lon="2.86981">
        <ele>905.97</ele>
        <time>2021-07-23T10:46:43Z</time>
      </trkpt>
      <trkpt lat="45.10947" lon="2.86998">
        <ele>904.93</ele>
        <time>2021-07-23T10:46:46Z</time>
      </trkpt>
      <trkpt lat="45.10941" lon="2.87015">
        <ele>903.99</ele>
        <time>2021-07-23T10:46:49Z</time>
      </trkpt>
      <trkpt lat="45.10937" lon="2.87028">
        <ele>904.36</ele>
        <time>2021-07-23T10:46:51Z</time>
      </trkpt>
      <trkpt lat="45.10933" lon="2.87041">
        <ele>903.95</ele>
        <time>2021-07-23T10:46:53Z</time>
      </trkpt>
      <trkpt lat="45.1093" lon="2.87054">
        <ele>903.7</ele>
        <time>2021-07-23T10:46:55Z</time>
      </trkpt>
      <trkpt lat="45.10929" lon="2.87068">
        <ele>903.43</ele>
        <time>2021-07-23T10:46:57Z</time>
      </trkpt>
      <trkpt lat="45.10929" lon="2.87086">
        <ele>904.19</ele>
        <time>2021-07-23T10:47:00Z</time>
      </trkpt>
      <trkpt lat="45.10931" lon="2.87104">
        <ele>903.82</ele>
        <time>2021-07-23T10:47:03Z</time>
      </trkpt>
      <trkpt lat="45.10932" lon="2.87118">
        <ele>905.06</ele>
        <time>2021-07-23T10:47:06Z</time>
      </trkpt>
      <trkpt lat="45.10933" lon="2.87133">
        <ele>905.64</ele>
        <time>2021-07-23T10:47:09Z</time>
      </trkpt>
      <trkpt lat="45.10935" lon="2.8715">
        <ele>906.52</ele>
        <time>2021-07-23T10:47:13Z</time>
      </trkpt>
      <trkpt lat="45.10936" lon="2.87164">
        <ele>907.45</ele>
        <time>2021-07-23T10:47:17Z</time>
      </trkpt>
      <trkpt lat="45.10937" lon="2.87178">
        <ele>907.96</ele>
        <time>2021-07-23T10:47:22Z</time>
      </trkpt>
      <trkpt lat="45.10931" lon="2.87189">
        <ele>908.53</ele>
        <time>2021-07-23T10:47:26Z</time>
      </trkpt>
      <trkpt lat="45.10923" lon="2.87201">
        <ele>907.08</ele>
        <time>2021-07-23T10:47:30Z</time>
      </trkpt>
      <trkpt lat="45.10914" lon="2.87208">
        <ele>906.2</ele>
        <time>2021-07-23T10:47:33Z</time>
      </trkpt>
      <trkpt lat="45.10911" lon="2.87194">
        <ele>905.76</ele>
        <time>2021-07-23T10:48:08Z</time>
      </trkpt>
      <trkpt lat="45.10909" lon="2.87181">
        <ele>905.21</ele>
        <time>2021-07-23T10:48:12Z</time>
      </trkpt>
      <trkpt lat="45.10907" lon="2.87167">
        <ele>904.87</ele>
        <time>2021-07-23T10:48:15Z</time>
      </trkpt>
      <trkpt lat="45.10902" lon="2.87149">
        <ele>905.09</ele>
        <time>2021-07-23T10:48:18Z</time>
      </trkpt>
      <trkpt lat="45.109" lon="2.87133">
        <ele>904.09</ele>
        <time>2021-07-23T10:48:21Z</time>
      </trkpt>
      <trkpt lat="45.10896" lon="2.87117">
        <ele>901.8</ele>
        <time>2021-07-23T10:48:24Z</time>
      </trkpt>
      <trkpt lat="45.10893" lon="2.87098">
        <ele>900.44</ele>
        <time>2021-07-23T10:48:27Z</time>
      </trkpt>
      <trkpt lat="45.10887" lon="2.8708">
        <ele>899.83</ele>
        <time>2021-07-23T10:48:30Z</time>
      </trkpt>
      <trkpt lat="45.10883" lon="2.87068">
        <ele>898.43</ele>
        <time>2021-07-23T10:48:32Z</time>
      </trkpt>
      <trkpt lat="45.10881" lon="2.87056">
        <ele>898.18</ele>
        <time>2021-07-23T10:48:34Z</time>
      </trkpt>
      <trkpt lat="45.10878" lon="2.87042">
        <ele>897.92</ele>
        <time>2021-07-23T10:48:36Z</time>
      </trkpt>
      <trkpt lat="45.10876" lon="2.87028">
        <ele>898.02</ele>
        <time>2021-07-23T10:48:38Z</time>
      </trkpt>
      <trkpt lat="45.10873" lon="2.87015">
        <ele>897.42</ele>
        <time>2021-07-23T10:48:40Z</time>
      </trkpt>
      <trkpt lat="45.1087" lon="2.87003">
        <ele>896.47</ele>
        <time>2021-07-23T10:48:42Z</time>
      </trkpt>
      <trkpt lat="45.10866" lon="2.86987">
        <ele>895.51</ele>
        <time>2021-07-23T10:48:45Z</time>
      </trkpt>
      <trkpt lat="45.10863" lon="2.86972">
        <ele>895.59</ele>
        <time>2021-07-23T10:48:48Z</time>
      </trkpt>
      <trkpt lat="45.10858" lon="2.86958">
        <ele>895.36</ele>
        <time>2021-07-23T10:48:51Z</time>
      </trkpt>
      <trkpt lat="45.10849" lon="2.86948">
        <ele>895.4</ele>
        <time>2021-07-23T10:48:54Z</time>
      </trkpt>
      <trkpt lat="45.10838" lon="2.86939">
        <ele>895.79</ele>
        <time>2021-07-23T10:48:57Z</time>
      </trkpt>
      <trkpt lat="45.10827" lon="2.86932">
        <ele>891.41</ele>
        <time>2021-07-23T10:49:00Z</time>
      </trkpt>
      <trkpt lat="45.10818" lon="2.86922">
        <ele>891.92</ele>
        <time>2021-07-23T10:49:03Z</time>
      </trkpt>
      <trkpt lat="45.10811" lon="2.86908">
        <ele>893.56</ele>
        <time>2021-07-23T10:49:06Z</time>
      </trkpt>
      <trkpt lat="45.10806" lon="2.86896">
        <ele>892.57</ele>
        <time>2021-07-23T10:49:08Z</time>
      </trkpt>
      <trkpt lat="45.10802" lon="2.86884">
        <ele>889.78</ele>
        <time>2021-07-23T10:49:10Z</time>
      </trkpt>
      <trkpt lat="45.10803" lon="2.86869">
        <ele>887.61</ele>
        <time>2021-07-23T10:49:12Z</time>
      </trkpt>
      <trkpt lat="45.10801" lon="2.86851">
        <ele>886.79</ele>
        <time>2021-07-23T10:49:14Z</time>
      </trkpt>
      <trkpt lat="45.10801" lon="2.86834">
        <ele>886.91</ele>
        <time>2021-07-23T10:49:16Z</time>
      </trkpt>
      <trkpt lat="45.10799" lon="2.86817">
        <ele>887.72</ele>
        <time>2021-07-23T10:49:18Z</time>
      </trkpt>
      <trkpt lat="45.10796" lon="2.86798">
        <ele>888.66</ele>
        <time>2021-07-23T10:49:20Z</time>
      </trkpt>
      <trkpt lat="45.10791" lon="2.86782">
        <ele>889.72</ele>
        <time>2021-07-23T10:49:22Z</time>
      </trkpt>
      <trkpt lat="45.10781" lon="2.86771">
        <ele>890.63</ele>
        <time>2021-07-23T10:49:24Z</time>
      </trkpt>
      <trkpt lat="45.10772" lon="2.86762">
        <ele>890.57</ele>
        <time>2021-07-23T10:49:26Z</time>
      </trkpt>
      <trkpt lat="45.10763" lon="2.86752">
        <ele>890.15</ele>
        <time>2021-07-23T10:49:29Z</time>
      </trkpt>
      <trkpt lat="45.10753" lon="2.86747">
        <ele>889.94</ele>
        <time>2021-07-23T10:49:32Z</time>
      </trkpt>
      <trkpt lat="45.10742" lon="2.86742">
        <ele>889.73</ele>
        <time>2021-07-23T10:49:35Z</time>
      </trkpt>
      <trkpt lat="45.1073" lon="2.86738">
        <ele>890.36</ele>
        <time>2021-07-23T10:49:38Z</time>
      </trkpt>
      <trkpt lat="45.1072" lon="2.86738">
        <ele>890.85</ele>
        <time>2021-07-23T10:49:40Z</time>
      </trkpt>
      <trkpt lat="45.1071" lon="2.86736">
        <ele>891.21</ele>
        <time>2021-07-23T10:49:42Z</time>
      </trkpt>
      <trkpt lat="45.10698" lon="2.86733">
        <ele>890.49</ele>
        <time>2021-07-23T10:49:44Z</time>
      </trkpt>
      <trkpt lat="45.10686" lon="2.86732">
        <ele>888.98</ele>
        <time>2021-07-23T10:49:46Z</time>
      </trkpt>
      <trkpt lat="45.10675" lon="2.86728">
        <ele>887.34</ele>
        <time>2021-07-23T10:49:48Z</time>
      </trkpt>
      <trkpt lat="45.10665" lon="2.86725">
        <ele>885.73</ele>
        <time>2021-07-23T10:49:50Z</time>
      </trkpt>
      <trkpt lat="45.10656" lon="2.86714">
        <ele>884.41</ele>
        <time>2021-07-23T10:49:52Z</time>
      </trkpt>
      <trkpt lat="45.10649" lon="2.86702">
        <ele>884.86</ele>
        <time>2021-07-23T10:49:54Z</time>
      </trkpt>
      <trkpt lat="45.10643" lon="2.86691">
        <ele>884.89</ele>
        <time>2021-07-23T10:49:56Z</time>
      </trkpt>
      <trkpt lat="45.10631" lon="2.86687">
        <ele>885.28</ele>
        <time>2021-07-23T10:49:59Z</time>
      </trkpt>
      <trkpt lat="45.10621" lon="2.867">
        <ele>883.91</ele>
        <time>2021-07-23T10:50:02Z</time>
      </trkpt>
      <trkpt lat="45.10615" lon="2.86713">
        <ele>884.12</ele>
        <time>2021-07-23T10:50:04Z</time>
      </trkpt>
      <trkpt lat="45.1061" lon="2.86728">
        <ele>882.56</ele>
        <time>2021-07-23T10:50:06Z</time>
      </trkpt>
      <trkpt lat="45.10601" lon="2.86742">
        <ele>882.64</ele>
        <time>2021-07-23T10:50:08Z</time>
      </trkpt>
      <trkpt lat="45.10589" lon="2.86752">
        <ele>882.77</ele>
        <time>2021-07-23T10:50:10Z</time>
      </trkpt>
      <trkpt lat="45.10576" lon="2.86751">
        <ele>882.15</ele>
        <time>2021-07-23T10:50:12Z</time>
      </trkpt>
      <trkpt lat="45.10564" lon="2.86748">
        <ele>882.12</ele>
        <time>2021-07-23T10:50:14Z</time>
      </trkpt>
      <trkpt lat="45.10552" lon="2.86745">
        <ele>881.72</ele>
        <time>2021-07-23T10:50:16Z</time>
      </trkpt>
      <trkpt lat="45.1054" lon="2.86742">
        <ele>881.13</ele>
        <time>2021-07-23T10:50:18Z</time>
      </trkpt>
      <trkpt lat="45.1053" lon="2.86741">
        <ele>881.46</ele>
        <time>2021-07-23T10:50:20Z</time>
      </trkpt>
      <trkpt lat="45.10519" lon="2.86739">
        <ele>881.47</ele>
        <time>2021-07-23T10:50:22Z</time>
      </trkpt>
      <trkpt lat="45.10509" lon="2.86736">
        <ele>881.54</ele>
        <time>2021-07-23T10:50:24Z</time>
      </trkpt>
      <trkpt lat="45.10498" lon="2.86733">
        <ele>880.9</ele>
        <time>2021-07-23T10:50:26Z</time>
      </trkpt>
      <trkpt lat="45.10489" lon="2.86729">
        <ele>881.04</ele>
        <time>2021-07-23T10:50:28Z</time>
      </trkpt>
      <trkpt lat="45.10479" lon="2.86722">
        <ele>880.75</ele>
        <time>2021-07-23T10:50:31Z</time>
      </trkpt>
      <trkpt lat="45.10472" lon="2.86713">
        <ele>879.46</ele>
        <time>2021-07-23T10:50:33Z</time>
      </trkpt>
      <trkpt lat="45.10465" lon="2.86703">
        <ele>878.94</ele>
        <time>2021-07-23T10:50:35Z</time>
      </trkpt>
      <trkpt lat="45.10457" lon="2.86689">
        <ele>878.43</ele>
        <time>2021-07-23T10:50:38Z</time>
      </trkpt>
      <trkpt lat="45.1045" lon="2.86676">
        <ele>875.99</ele>
        <time>2021-07-23T10:50:40Z</time>
      </trkpt>
      <trkpt lat="45.10443" lon="2.86668">
        <ele>875.03</ele>
        <time>2021-07-23T10:50:42Z</time>
      </trkpt>
      <trkpt lat="45.10436" lon="2.86656">
        <ele>875.53</ele>
        <time>2021-07-23T10:50:45Z</time>
      </trkpt>
      <trkpt lat="45.10426" lon="2.86647">
        <ele>876.36</ele>
        <time>2021-07-23T10:50:48Z</time>
      </trkpt>
      <trkpt lat="45.10418" lon="2.86636">
        <ele>876.65</ele>
        <time>2021-07-23T10:50:51Z</time>
      </trkpt>
      <trkpt lat="45.10409" lon="2.86629">
        <ele>878.61</ele>
        <time>2021-07-23T10:50:54Z</time>
      </trkpt>
      <trkpt lat="45.10398" lon="2.86627">
        <ele>879.16</ele>
        <time>2021-07-23T10:50:56Z</time>
      </trkpt>
      <trkpt lat="45.10388" lon="2.86626">
        <ele>879.91</ele>
        <time>2021-07-23T10:50:58Z</time>
      </trkpt>
      <trkpt lat="45.10379" lon="2.86623">
        <ele>880.21</ele>
        <time>2021-07-23T10:51:00Z</time>
      </trkpt>
      <trkpt lat="45.10366" lon="2.86624">
        <ele>879.97</ele>
        <time>2021-07-23T10:51:03Z</time>
      </trkpt>
      <trkpt lat="45.10353" lon="2.86625">
        <ele>879.38</ele>
        <time>2021-07-23T10:51:06Z</time>
      </trkpt>
      <trkpt lat="45.1034" lon="2.86626">
        <ele>879.63</ele>
        <time>2021-07-23T10:51:09Z</time>
      </trkpt>
      <trkpt lat="45.1033" lon="2.86626">
        <ele>878.2</ele>
        <time>2021-07-23T10:51:11Z</time>
      </trkpt>
      <trkpt lat="45.10317" lon="2.86628">
        <ele>878.68</ele>
        <time>2021-07-23T10:51:14Z</time>
      </trkpt>
      <trkpt lat="45.10306" lon="2.86626">
        <ele>877.81</ele>
        <time>2021-07-23T10:51:17Z</time>
      </trkpt>
      <trkpt lat="45.10298" lon="2.86615">
        <ele>877.39</ele>
        <time>2021-07-23T10:51:20Z</time>
      </trkpt>
      <trkpt lat="45.10297" lon="2.86598">
        <ele>876.57</ele>
        <time>2021-07-23T10:51:23Z</time>
      </trkpt>
      <trkpt lat="45.10296" lon="2.86583">
        <ele>876.73</ele>
        <time>2021-07-23T10:51:26Z</time>
      </trkpt>
      <trkpt lat="45.10296" lon="2.86569">
        <ele>875.06</ele>
        <time>2021-07-23T10:51:29Z</time>
      </trkpt>
      <trkpt lat="45.10295" lon="2.86552">
        <ele>876.76</ele>
        <time>2021-07-23T10:51:33Z</time>
      </trkpt>
      <trkpt lat="45.10295" lon="2.86539">
        <ele>875.95</ele>
        <time>2021-07-23T10:51:36Z</time>
      </trkpt>
      <trkpt lat="45.10294" lon="2.86526">
        <ele>875.27</ele>
        <time>2021-07-23T10:51:39Z</time>
      </trkpt>
      <trkpt lat="45.10294" lon="2.86513">
        <ele>874.33</ele>
        <time>2021-07-23T10:51:42Z</time>
      </trkpt>
      <trkpt lat="45.10293" lon="2.865">
        <ele>873.47</ele>
        <time>2021-07-23T10:51:45Z</time>
      </trkpt>
      <trkpt lat="45.10292" lon="2.86484">
        <ele>872.87</ele>
        <time>2021-07-23T10:51:49Z</time>
      </trkpt>
      <trkpt lat="45.10289" lon="2.8647">
        <ele>873.39</ele>
        <time>2021-07-23T10:51:53Z</time>
      </trkpt>
      <trkpt lat="45.10283" lon="2.86456">
        <ele>872.75</ele>
        <time>2021-07-23T10:51:57Z</time>
      </trkpt>
      <trkpt lat="45.10276" lon="2.86445">
        <ele>872.69</ele>
        <time>2021-07-23T10:52:01Z</time>
      </trkpt>
      <trkpt lat="45.1027" lon="2.86432">
        <ele>871.98</ele>
        <time>2021-07-23T10:52:06Z</time>
      </trkpt>
      <trkpt lat="45.10267" lon="2.8642">
        <ele>872.46</ele>
        <time>2021-07-23T10:52:12Z</time>
      </trkpt>
      <trkpt lat="45.10263" lon="2.86407">
        <ele>871.93</ele>
        <time>2021-07-23T10:52:18Z</time>
      </trkpt>
      <trkpt lat="45.10261" lon="2.86394">
        <ele>872.93</ele>
        <time>2021-07-23T10:52:24Z</time>
      </trkpt>
      <trkpt lat="45.10259" lon="2.86379">
        <ele>873.45</ele>
        <time>2021-07-23T10:52:31Z</time>
      </trkpt>
      <trkpt lat="45.10258" lon="2.86366">
        <ele>875.96</ele>
        <time>2021-07-23T10:52:37Z</time>
      </trkpt>
      <trkpt lat="45.10256" lon="2.86352">
        <ele>879.05</ele>
        <time>2021-07-23T10:52:42Z</time>
      </trkpt>
      <trkpt lat="45.10254" lon="2.86339">
        <ele>879.67</ele>
        <time>2021-07-23T10:52:46Z</time>
      </trkpt>
      <trkpt lat="45.10254" lon="2.86325">
        <ele>881.13</ele>
        <time>2021-07-23T10:52:50Z</time>
      </trkpt>
      <trkpt lat="45.10258" lon="2.86311">
        <ele>880.83</ele>
        <time>2021-07-23T10:52:54Z</time>
      </trkpt>
      <trkpt lat="45.10265" lon="2.863">
        <ele>880.76</ele>
        <time>2021-07-23T10:52:57Z</time>
      </trkpt>
      <trkpt lat="45.10272" lon="2.86288">
        <ele>880.62</ele>
        <time>2021-07-23T10:53:00Z</time>
      </trkpt>
      <trkpt lat="45.1028" lon="2.86272">
        <ele>879.51</ele>
        <time>2021-07-23T10:53:03Z</time>
      </trkpt>
      <trkpt lat="45.10284" lon="2.86255">
        <ele>879.8</ele>
        <time>2021-07-23T10:53:06Z</time>
      </trkpt>
      <trkpt lat="45.10286" lon="2.86235">
        <ele>878.9</ele>
        <time>2021-07-23T10:53:09Z</time>
      </trkpt>
      <trkpt lat="45.10287" lon="2.86216">
        <ele>879.81</ele>
        <time>2021-07-23T10:53:12Z</time>
      </trkpt>
      <trkpt lat="45.10289" lon="2.862">
        <ele>881.04</ele>
        <time>2021-07-23T10:53:15Z</time>
      </trkpt>
      <trkpt lat="45.10289" lon="2.86186">
        <ele>881.76</ele>
        <time>2021-07-23T10:53:18Z</time>
      </trkpt>
      <trkpt lat="45.1029" lon="2.86172">
        <ele>881.71</ele>
        <time>2021-07-23T10:53:21Z</time>
      </trkpt>
      <trkpt lat="45.10291" lon="2.86158">
        <ele>882.16</ele>
        <time>2021-07-23T10:53:24Z</time>
      </trkpt>
      <trkpt lat="45.10292" lon="2.86144">
        <ele>882.07</ele>
        <time>2021-07-23T10:53:27Z</time>
      </trkpt>
      <trkpt lat="45.10294" lon="2.8613">
        <ele>881.94</ele>
        <time>2021-07-23T10:53:30Z</time>
      </trkpt>
      <trkpt lat="45.10296" lon="2.86117">
        <ele>882.43</ele>
        <time>2021-07-23T10:53:33Z</time>
      </trkpt>
      <trkpt lat="45.10298" lon="2.86101">
        <ele>882.86</ele>
        <time>2021-07-23T10:53:37Z</time>
      </trkpt>
      <trkpt lat="45.103" lon="2.86085">
        <ele>882.28</ele>
        <time>2021-07-23T10:53:41Z</time>
      </trkpt>
      <trkpt lat="45.10303" lon="2.86071">
        <ele>882.53</ele>
        <time>2021-07-23T10:53:44Z</time>
      </trkpt>
      <trkpt lat="45.10304" lon="2.86058">
        <ele>882</ele>
        <time>2021-07-23T10:53:47Z</time>
      </trkpt>
      <trkpt lat="45.10306" lon="2.86041">
        <ele>882.05</ele>
        <time>2021-07-23T10:53:51Z</time>
      </trkpt>
      <trkpt lat="45.10309" lon="2.86025">
        <ele>882.25</ele>
        <time>2021-07-23T10:53:55Z</time>
      </trkpt>
      <trkpt lat="45.10311" lon="2.86012">
        <ele>882.61</ele>
        <time>2021-07-23T10:53:58Z</time>
      </trkpt>
      <trkpt lat="45.10314" lon="2.85996">
        <ele>882.18</ele>
        <time>2021-07-23T10:54:02Z</time>
      </trkpt>
      <trkpt lat="45.10316" lon="2.85982">
        <ele>882.27</ele>
        <time>2021-07-23T10:54:07Z</time>
      </trkpt>
      <trkpt lat="45.1032" lon="2.85966">
        <ele>881.29</ele>
        <time>2021-07-23T10:54:09Z</time>
      </trkpt>
      <trkpt lat="45.10321" lon="2.85952">
        <ele>881.81</ele>
        <time>2021-07-23T10:54:14Z</time>
      </trkpt>
      <trkpt lat="45.10314" lon="2.85942">
        <ele>880.86</ele>
        <time>2021-07-23T10:54:19Z</time>
      </trkpt>
      <trkpt lat="45.10309" lon="2.8593">
        <ele>881.55</ele>
        <time>2021-07-23T10:54:23Z</time>
      </trkpt>
      <trkpt lat="45.10317" lon="2.85916">
        <ele>882.91</ele>
        <time>2021-07-23T10:54:27Z</time>
      </trkpt>
      <trkpt lat="45.10323" lon="2.85906">
        <ele>883.01</ele>
        <time>2021-07-23T10:54:30Z</time>
      </trkpt>
      <trkpt lat="45.10328" lon="2.85894">
        <ele>884.52</ele>
        <time>2021-07-23T10:54:33Z</time>
      </trkpt>
      <trkpt lat="45.10331" lon="2.85878">
        <ele>886.13</ele>
        <time>2021-07-23T10:54:37Z</time>
      </trkpt>
      <trkpt lat="45.10333" lon="2.85863">
        <ele>886.08</ele>
        <time>2021-07-23T10:54:41Z</time>
      </trkpt>
      <trkpt lat="45.10332" lon="2.85849">
        <ele>885.11</ele>
        <time>2021-07-23T10:54:45Z</time>
      </trkpt>
      <trkpt lat="45.1033" lon="2.85835">
        <ele>886.1</ele>
        <time>2021-07-23T10:54:49Z</time>
      </trkpt>
      <trkpt lat="45.10327" lon="2.85823">
        <ele>885.34</ele>
        <time>2021-07-23T10:54:53Z</time>
      </trkpt>
      <trkpt lat="45.10326" lon="2.85807">
        <ele>887.89</ele>
        <time>2021-07-23T10:54:57Z</time>
      </trkpt>
      <trkpt lat="45.10331" lon="2.85795">
        <ele>889.45</ele>
        <time>2021-07-23T10:55:02Z</time>
      </trkpt>
      <trkpt lat="45.10334" lon="2.85781">
        <ele>889.58</ele>
        <time>2021-07-23T10:55:07Z</time>
      </trkpt>
      <trkpt lat="45.10334" lon="2.85768">
        <ele>889.96</ele>
        <time>2021-07-23T10:55:13Z</time>
      </trkpt>
      <trkpt lat="45.10336" lon="2.85754">
        <ele>890.85</ele>
        <time>2021-07-23T10:55:20Z</time>
      </trkpt>
      <trkpt lat="45.10338" lon="2.85742">
        <ele>886.73</ele>
        <time>2021-07-23T10:56:12Z</time>
      </trkpt>
      <trkpt lat="45.10329" lon="2.85738">
        <ele>887.65</ele>
        <time>2021-07-23T10:56:16Z</time>
      </trkpt>
      <trkpt lat="45.10319" lon="2.85737">
        <ele>888.09</ele>
        <time>2021-07-23T10:56:20Z</time>
      </trkpt>
      <trkpt lat="45.10309" lon="2.85738">
        <ele>889.41</ele>
        <time>2021-07-23T10:56:24Z</time>
      </trkpt>
      <trkpt lat="45.10299" lon="2.85736">
        <ele>886.7</ele>
        <time>2021-07-23T10:56:28Z</time>
      </trkpt>
      <trkpt lat="45.1029" lon="2.85727">
        <ele>884.59</ele>
        <time>2021-07-23T10:56:31Z</time>
      </trkpt>
      <trkpt lat="45.10283" lon="2.85715">
        <ele>883.42</ele>
        <time>2021-07-23T10:56:33Z</time>
      </trkpt>
      <trkpt lat="45.10279" lon="2.85703">
        <ele>882.34</ele>
        <time>2021-07-23T10:56:35Z</time>
      </trkpt>
      <trkpt lat="45.10274" lon="2.85689">
        <ele>881.54</ele>
        <time>2021-07-23T10:56:37Z</time>
      </trkpt>
      <trkpt lat="45.10266" lon="2.85674">
        <ele>880.24</ele>
        <time>2021-07-23T10:56:39Z</time>
      </trkpt>
      <trkpt lat="45.1026" lon="2.8566">
        <ele>879.84</ele>
        <time>2021-07-23T10:56:41Z</time>
      </trkpt>
      <trkpt lat="45.10254" lon="2.85647">
        <ele>880.83</ele>
        <time>2021-07-23T10:56:43Z</time>
      </trkpt>
      <trkpt lat="45.10248" lon="2.85633">
        <ele>880.65</ele>
        <time>2021-07-23T10:56:45Z</time>
      </trkpt>
      <trkpt lat="45.10241" lon="2.85622">
        <ele>880.87</ele>
        <time>2021-07-23T10:56:47Z</time>
      </trkpt>
      <trkpt lat="45.10231" lon="2.8561">
        <ele>881.96</ele>
        <time>2021-07-23T10:56:50Z</time>
      </trkpt>
      <trkpt lat="45.10222" lon="2.85598">
        <ele>881.08</ele>
        <time>2021-07-23T10:56:53Z</time>
      </trkpt>
      <trkpt lat="45.10214" lon="2.85589">
        <ele>879.64</ele>
        <time>2021-07-23T10:56:56Z</time>
      </trkpt>
      <trkpt lat="45.10208" lon="2.8558">
        <ele>879.12</ele>
        <time>2021-07-23T10:56:58Z</time>
      </trkpt>
      <trkpt lat="45.10197" lon="2.85568">
        <ele>878.37</ele>
        <time>2021-07-23T10:57:01Z</time>
      </trkpt>
      <trkpt lat="45.10187" lon="2.85557">
        <ele>879.05</ele>
        <time>2021-07-23T10:57:04Z</time>
      </trkpt>
      <trkpt lat="45.10178" lon="2.85546">
        <ele>879.36</ele>
        <time>2021-07-23T10:57:07Z</time>
      </trkpt>
      <trkpt lat="45.10168" lon="2.85535">
        <ele>879.31</ele>
        <time>2021-07-23T10:57:10Z</time>
      </trkpt>
      <trkpt lat="45.10158" lon="2.85524">
        <ele>879.45</ele>
        <time>2021-07-23T10:57:13Z</time>
      </trkpt>
      <trkpt lat="45.10148" lon="2.85514">
        <ele>879.64</ele>
        <time>2021-07-23T10:57:16Z</time>
      </trkpt>
      <trkpt lat="45.10138" lon="2.85503">
        <ele>880.39</ele>
        <time>2021-07-23T10:57:19Z</time>
      </trkpt>
      <trkpt lat="45.10128" lon="2.85493">
        <ele>881.03</ele>
        <time>2021-07-23T10:57:22Z</time>
      </trkpt>
      <trkpt lat="45.10119" lon="2.85483">
        <ele>882.25</ele>
        <time>2021-07-23T10:57:25Z</time>
      </trkpt>
      <trkpt lat="45.10111" lon="2.85474">
        <ele>881.78</ele>
        <time>2021-07-23T10:57:28Z</time>
      </trkpt>
      <trkpt lat="45.10103" lon="2.85466">
        <ele>882.37</ele>
        <time>2021-07-23T10:57:31Z</time>
      </trkpt>
      <trkpt lat="45.10095" lon="2.85458">
        <ele>883.16</ele>
        <time>2021-07-23T10:57:35Z</time>
      </trkpt>
      <trkpt lat="45.10088" lon="2.8545">
        <ele>882.88</ele>
        <time>2021-07-23T10:57:40Z</time>
      </trkpt>
      <trkpt lat="45.10079" lon="2.85441">
        <ele>884.1</ele>
        <time>2021-07-23T10:57:45Z</time>
      </trkpt>
      <trkpt lat="45.10071" lon="2.85435">
        <ele>884.74</ele>
        <time>2021-07-23T10:57:50Z</time>
      </trkpt>
      <trkpt lat="45.10061" lon="2.85428">
        <ele>885.56</ele>
        <time>2021-07-23T10:57:55Z</time>
      </trkpt>
      <trkpt lat="45.1005" lon="2.85424">
        <ele>885.58</ele>
        <time>2021-07-23T10:58:00Z</time>
      </trkpt>
      <trkpt lat="45.10041" lon="2.85421">
        <ele>886.76</ele>
        <time>2021-07-23T10:58:06Z</time>
      </trkpt>
      <trkpt lat="45.10032" lon="2.85416">
        <ele>887.93</ele>
        <time>2021-07-23T10:58:15Z</time>
      </trkpt>
      <trkpt lat="45.10023" lon="2.85421">
        <ele>888.62</ele>
        <time>2021-07-23T10:58:57Z</time>
      </trkpt>
      <trkpt lat="45.10013" lon="2.85422">
        <ele>888.89</ele>
        <time>2021-07-23T10:59:02Z</time>
      </trkpt>
      <trkpt lat="45.10003" lon="2.85425">
        <ele>890.55</ele>
        <time>2021-07-23T10:59:09Z</time>
      </trkpt>
      <trkpt lat="45.09993" lon="2.85427">
        <ele>895.34</ele>
        <time>2021-07-23T10:59:16Z</time>
      </trkpt>
      <trkpt lat="45.09984" lon="2.85429">
        <ele>895.61</ele>
        <time>2021-07-23T10:59:23Z</time>
      </trkpt>
      <trkpt lat="45.09975" lon="2.8543">
        <ele>893.34</ele>
        <time>2021-07-23T10:59:28Z</time>
      </trkpt>
      <trkpt lat="45.09964" lon="2.85432">
        <ele>894.05</ele>
        <time>2021-07-23T10:59:34Z</time>
      </trkpt>
      <trkpt lat="45.09955" lon="2.85434">
        <ele>892.34</ele>
        <time>2021-07-23T10:59:39Z</time>
      </trkpt>
      <trkpt lat="45.09944" lon="2.85431">
        <ele>895.14</ele>
        <time>2021-07-23T10:59:45Z</time>
      </trkpt>
      <trkpt lat="45.09934" lon="2.85425">
        <ele>894.27</ele>
        <time>2021-07-23T10:59:50Z</time>
      </trkpt>
      <trkpt lat="45.09927" lon="2.85415">
        <ele>894.97</ele>
        <time>2021-07-23T10:59:55Z</time>
      </trkpt>
      <trkpt lat="45.09921" lon="2.85403">
        <ele>896.46</ele>
        <time>2021-07-23T11:00:00Z</time>
      </trkpt>
      <trkpt lat="45.09915" lon="2.85391">
        <ele>897.19</ele>
        <time>2021-07-23T11:00:05Z</time>
      </trkpt>
      <trkpt lat="45.09911" lon="2.85379">
        <ele>896.34</ele>
        <time>2021-07-23T11:00:09Z</time>
      </trkpt>
      <trkpt lat="45.09908" lon="2.85366">
        <ele>895.31</ele>
        <time>2021-07-23T11:00:15Z</time>
      </trkpt>
      <trkpt lat="45.09906" lon="2.85352">
        <ele>898.04</ele>
        <time>2021-07-23T11:00:23Z</time>
      </trkpt>
      <trkpt lat="45.09904" lon="2.85339">
        <ele>898.73</ele>
        <time>2021-07-23T11:00:29Z</time>
      </trkpt>
      <trkpt lat="45.09902" lon="2.85326">
        <ele>899.6</ele>
        <time>2021-07-23T11:00:35Z</time>
      </trkpt>
      <trkpt lat="45.09897" lon="2.85315">
        <ele>900.16</ele>
        <time>2021-07-23T11:00:41Z</time>
      </trkpt>
      <trkpt lat="45.09892" lon="2.85302">
        <ele>902.12</ele>
        <time>2021-07-23T11:00:49Z</time>
      </trkpt>
      <trkpt lat="45.09888" lon="2.8529">
        <ele>903.07</ele>
        <time>2021-07-23T11:00:56Z</time>
      </trkpt>
      <trkpt lat="45.09882" lon="2.85279">
        <ele>906.2</ele>
        <time>2021-07-23T11:01:03Z</time>
      </trkpt>
      <trkpt lat="45.09876" lon="2.85267">
        <ele>910.35</ele>
        <time>2021-07-23T11:01:11Z</time>
      </trkpt>
      <trkpt lat="45.09871" lon="2.85256">
        <ele>914</ele>
        <time>2021-07-23T11:01:19Z</time>
      </trkpt>
      <trkpt lat="45.09867" lon="2.85244">
        <ele>911.79</ele>
        <time>2021-07-23T11:01:25Z</time>
      </trkpt>
      <trkpt lat="45.09864" lon="2.85231">
        <ele>912</ele>
        <time>2021-07-23T11:01:31Z</time>
      </trkpt>
      <trkpt lat="45.0986" lon="2.85219">
        <ele>912.4</ele>
        <time>2021-07-23T11:01:37Z</time>
      </trkpt>
      <trkpt lat="45.09854" lon="2.85208">
        <ele>913.19</ele>
        <time>2021-07-23T11:01:46Z</time>
      </trkpt>
      <trkpt lat="45.09847" lon="2.852">
        <ele>912.12</ele>
        <time>2021-07-23T11:01:52Z</time>
      </trkpt>
      <trkpt lat="45.09839" lon="2.85192">
        <ele>910.53</ele>
        <time>2021-07-23T11:01:57Z</time>
      </trkpt>
      <trkpt lat="45.09832" lon="2.85182">
        <ele>910.82</ele>
        <time>2021-07-23T11:02:03Z</time>
      </trkpt>
      <trkpt lat="45.09825" lon="2.85174">
        <ele>911.79</ele>
        <time>2021-07-23T11:02:09Z</time>
      </trkpt>
      <trkpt lat="45.09817" lon="2.85166">
        <ele>910.81</ele>
        <time>2021-07-23T11:02:16Z</time>
      </trkpt>
      <trkpt lat="45.0981" lon="2.85157">
        <ele>910.74</ele>
        <time>2021-07-23T11:02:22Z</time>
      </trkpt>
      <trkpt lat="45.09808" lon="2.85143">
        <ele>912.69</ele>
        <time>2021-07-23T11:02:29Z</time>
      </trkpt>
      <trkpt lat="45.09807" lon="2.85129">
        <ele>915.01</ele>
        <time>2021-07-23T11:02:35Z</time>
      </trkpt>
      <trkpt lat="45.09811" lon="2.85117">
        <ele>916.84</ele>
        <time>2021-07-23T11:02:40Z</time>
      </trkpt>
      <trkpt lat="45.09818" lon="2.85106">
        <ele>917.13</ele>
        <time>2021-07-23T11:02:46Z</time>
      </trkpt>
      <trkpt lat="45.09827" lon="2.85101">
        <ele>916.1</ele>
        <time>2021-07-23T11:02:51Z</time>
      </trkpt>
      <trkpt lat="45.09836" lon="2.85102">
        <ele>916.48</ele>
        <time>2021-07-23T11:02:57Z</time>
      </trkpt>
      <trkpt lat="45.09845" lon="2.85108">
        <ele>914.19</ele>
        <time>2021-07-23T11:03:05Z</time>
      </trkpt>
      <trkpt lat="45.09855" lon="2.85108">
        <ele>918.48</ele>
        <time>2021-07-23T11:03:15Z</time>
      </trkpt>
      <trkpt lat="45.09865" lon="2.85106">
        <ele>920.26</ele>
        <time>2021-07-23T11:03:22Z</time>
      </trkpt>
      <trkpt lat="45.09872" lon="2.85098">
        <ele>925.53</ele>
        <time>2021-07-23T11:04:10Z</time>
      </trkpt>
      <trkpt lat="45.09879" lon="2.85089">
        <ele>923.89</ele>
        <time>2021-07-23T11:04:16Z</time>
      </trkpt>
      <trkpt lat="45.09887" lon="2.85083">
        <ele>925.17</ele>
        <time>2021-07-23T11:04:24Z</time>
      </trkpt>
      <trkpt lat="45.09895" lon="2.85074">
        <ele>925.25</ele>
        <time>2021-07-23T11:04:31Z</time>
      </trkpt>
      <trkpt lat="45.09903" lon="2.85066">
        <ele>927.56</ele>
        <time>2021-07-23T11:04:39Z</time>
      </trkpt>
      <trkpt lat="45.09908" lon="2.85053">
        <ele>930.06</ele>
        <time>2021-07-23T11:04:46Z</time>
      </trkpt>
      <trkpt lat="45.09909" lon="2.8504">
        <ele>934.89</ele>
        <time>2021-07-23T11:04:53Z</time>
      </trkpt>
      <trkpt lat="45.09911" lon="2.85026">
        <ele>938.4</ele>
        <time>2021-07-23T11:05:01Z</time>
      </trkpt>
      <trkpt lat="45.09913" lon="2.85013">
        <ele>939.95</ele>
        <time>2021-07-23T11:05:10Z</time>
      </trkpt>
      <trkpt lat="45.09916" lon="2.84999">
        <ele>941.11</ele>
        <time>2021-07-23T11:05:17Z</time>
      </trkpt>
      <trkpt lat="45.09917" lon="2.84985">
        <ele>942.56</ele>
        <time>2021-07-23T11:05:25Z</time>
      </trkpt>
      <trkpt lat="45.09921" lon="2.84972">
        <ele>942.94</ele>
        <time>2021-07-23T11:05:32Z</time>
      </trkpt>
      <trkpt lat="45.09925" lon="2.84961">
        <ele>944.83</ele>
        <time>2021-07-23T11:05:38Z</time>
      </trkpt>
      <trkpt lat="45.09927" lon="2.84946">
        <ele>944.17</ele>
        <time>2021-07-23T11:05:46Z</time>
      </trkpt>
      <trkpt lat="45.0993" lon="2.84934">
        <ele>942.4</ele>
        <time>2021-07-23T11:05:53Z</time>
      </trkpt>
      <trkpt lat="45.09932" lon="2.8492">
        <ele>944.27</ele>
        <time>2021-07-23T11:06:00Z</time>
      </trkpt>
      <trkpt lat="45.09937" lon="2.84909">
        <ele>944.9</ele>
        <time>2021-07-23T11:06:07Z</time>
      </trkpt>
      <trkpt lat="45.0994" lon="2.84896">
        <ele>948.6</ele>
        <time>2021-07-23T11:06:15Z</time>
      </trkpt>
      <trkpt lat="45.09945" lon="2.84883">
        <ele>950.09</ele>
        <time>2021-07-23T11:06:22Z</time>
      </trkpt>
      <trkpt lat="45.09948" lon="2.84871">
        <ele>950.46</ele>
        <time>2021-07-23T11:06:28Z</time>
      </trkpt>
      <trkpt lat="45.09954" lon="2.84861">
        <ele>953.95</ele>
        <time>2021-07-23T11:06:35Z</time>
      </trkpt>
      <trkpt lat="45.09959" lon="2.84848">
        <ele>956.62</ele>
        <time>2021-07-23T11:06:43Z</time>
      </trkpt>
      <trkpt lat="45.09961" lon="2.84835">
        <ele>959.85</ele>
        <time>2021-07-23T11:06:50Z</time>
      </trkpt>
      <trkpt lat="45.09966" lon="2.84825">
        <ele>963.32</ele>
        <time>2021-07-23T11:06:58Z</time>
      </trkpt>
      <trkpt lat="45.09975" lon="2.84818">
        <ele>964.08</ele>
        <time>2021-07-23T11:07:05Z</time>
      </trkpt>
      <trkpt lat="45.09983" lon="2.84813">
        <ele>964.07</ele>
        <time>2021-07-23T11:07:14Z</time>
      </trkpt>
      <trkpt lat="45.09992" lon="2.8481">
        <ele>963.5</ele>
        <time>2021-07-23T11:07:20Z</time>
      </trkpt>
      <trkpt lat="45.10001" lon="2.84805">
        <ele>962.88</ele>
        <time>2021-07-23T11:07:28Z</time>
      </trkpt>
      <trkpt lat="45.10009" lon="2.84795">
        <ele>962.22</ele>
        <time>2021-07-23T11:07:37Z</time>
      </trkpt>
      <trkpt lat="45.10016" lon="2.84785">
        <ele>964.69</ele>
        <time>2021-07-23T11:07:44Z</time>
      </trkpt>
      <trkpt lat="45.10022" lon="2.84774">
        <ele>965.89</ele>
        <time>2021-07-23T11:07:54Z</time>
      </trkpt>
      <trkpt lat="45.10024" lon="2.84761">
        <ele>964.37</ele>
        <time>2021-07-23T11:08:00Z</time>
      </trkpt>
      <trkpt lat="45.10026" lon="2.84746">
        <ele>967.91</ele>
        <time>2021-07-23T11:08:07Z</time>
      </trkpt>
      <trkpt lat="45.10026" lon="2.84733">
        <ele>966.96</ele>
        <time>2021-07-23T11:08:16Z</time>
      </trkpt>
      <trkpt lat="45.10027" lon="2.84719">
        <ele>965.86</ele>
        <time>2021-07-23T11:08:24Z</time>
      </trkpt>
      <trkpt lat="45.10028" lon="2.84706">
        <ele>967.81</ele>
        <time>2021-07-23T11:08:31Z</time>
      </trkpt>
      <trkpt lat="45.10029" lon="2.84692">
        <ele>970.03</ele>
        <time>2021-07-23T11:08:39Z</time>
      </trkpt>
      <trkpt lat="45.1003" lon="2.84679">
        <ele>972.53</ele>
        <time>2021-07-23T11:08:47Z</time>
      </trkpt>
      <trkpt lat="45.10032" lon="2.84667">
        <ele>974.16</ele>
        <time>2021-07-23T11:08:54Z</time>
      </trkpt>
      <trkpt lat="45.10037" lon="2.84654">
        <ele>976.69</ele>
        <time>2021-07-23T11:09:01Z</time>
      </trkpt>
      <trkpt lat="45.10042" lon="2.84642">
        <ele>975.84</ele>
        <time>2021-07-23T11:09:09Z</time>
      </trkpt>
      <trkpt lat="45.10047" lon="2.84629">
        <ele>977.4</ele>
        <time>2021-07-23T11:09:17Z</time>
      </trkpt>
      <trkpt lat="45.1005" lon="2.84615">
        <ele>975.21</ele>
        <time>2021-07-23T11:09:25Z</time>
      </trkpt>
      <trkpt lat="45.10052" lon="2.84602">
        <ele>977.79</ele>
        <time>2021-07-23T11:09:33Z</time>
      </trkpt>
      <trkpt lat="45.1006" lon="2.84593">
        <ele>980.65</ele>
        <time>2021-07-23T11:09:40Z</time>
      </trkpt>
      <trkpt lat="45.10064" lon="2.8458">
        <ele>983.9</ele>
        <time>2021-07-23T11:09:49Z</time>
      </trkpt>
      <trkpt lat="45.10067" lon="2.84567">
        <ele>982.94</ele>
        <time>2021-07-23T11:09:56Z</time>
      </trkpt>
      <trkpt lat="45.10066" lon="2.84554">
        <ele>983.29</ele>
        <time>2021-07-23T11:10:03Z</time>
      </trkpt>
      <trkpt lat="45.10066" lon="2.84541">
        <ele>985.07</ele>
        <time>2021-07-23T11:10:10Z</time>
      </trkpt>
      <trkpt lat="45.10065" lon="2.84527">
        <ele>985.34</ele>
        <time>2021-07-23T11:10:18Z</time>
      </trkpt>
      <trkpt lat="45.10063" lon="2.84514">
        <ele>987.53</ele>
        <time>2021-07-23T11:10:24Z</time>
      </trkpt>
      <trkpt lat="45.10062" lon="2.84501">
        <ele>987.58</ele>
        <time>2021-07-23T11:10:33Z</time>
      </trkpt>
      <trkpt lat="45.10058" lon="2.84488">
        <ele>988.37</ele>
        <time>2021-07-23T11:10:41Z</time>
      </trkpt>
      <trkpt lat="45.10058" lon="2.84475">
        <ele>990.64</ele>
        <time>2021-07-23T11:10:48Z</time>
      </trkpt>
      <trkpt lat="45.10059" lon="2.8446">
        <ele>992.61</ele>
        <time>2021-07-23T11:10:56Z</time>
      </trkpt>
      <trkpt lat="45.10057" lon="2.84448">
        <ele>993.79</ele>
        <time>2021-07-23T11:11:03Z</time>
      </trkpt>
      <trkpt lat="45.10059" lon="2.84433">
        <ele>998.07</ele>
        <time>2021-07-23T11:11:11Z</time>
      </trkpt>
      <trkpt lat="45.1006" lon="2.84421">
        <ele>1000.8</ele>
        <time>2021-07-23T11:11:18Z</time>
      </trkpt>
      <trkpt lat="45.1006" lon="2.84407">
        <ele>1001.98</ele>
        <time>2021-07-23T11:11:25Z</time>
      </trkpt>
      <trkpt lat="45.10059" lon="2.84394">
        <ele>1000.8</ele>
        <time>2021-07-23T11:11:31Z</time>
      </trkpt>
      <trkpt lat="45.1006" lon="2.8438">
        <ele>1000.44</ele>
        <time>2021-07-23T11:11:39Z</time>
      </trkpt>
      <trkpt lat="45.10059" lon="2.84366">
        <ele>999.72</ele>
        <time>2021-07-23T11:11:47Z</time>
      </trkpt>
      <trkpt lat="45.10059" lon="2.84351">
        <ele>999.62</ele>
        <time>2021-07-23T11:11:54Z</time>
      </trkpt>
      <trkpt lat="45.1006" lon="2.84337">
        <ele>997.76</ele>
        <time>2021-07-23T11:12:01Z</time>
      </trkpt>
      <trkpt lat="45.10061" lon="2.84323">
        <ele>999.43</ele>
        <time>2021-07-23T11:12:09Z</time>
      </trkpt>
      <trkpt lat="45.1006" lon="2.84309">
        <ele>1003.16</ele>
        <time>2021-07-23T11:12:16Z</time>
      </trkpt>
      <trkpt lat="45.10062" lon="2.84296">
        <ele>1005.53</ele>
        <time>2021-07-23T11:12:25Z</time>
      </trkpt>
      <trkpt lat="45.10065" lon="2.84284">
        <ele>1008.66</ele>
        <time>2021-07-23T11:12:34Z</time>
      </trkpt>
      <trkpt lat="45.10065" lon="2.84271">
        <ele>1008.85</ele>
        <time>2021-07-23T11:12:42Z</time>
      </trkpt>
      <trkpt lat="45.10068" lon="2.84258">
        <ele>1008.84</ele>
        <time>2021-07-23T11:12:50Z</time>
      </trkpt>
      <trkpt lat="45.10067" lon="2.84245">
        <ele>1012.22</ele>
        <time>2021-07-23T11:12:58Z</time>
      </trkpt>
      <trkpt lat="45.10067" lon="2.84231">
        <ele>1010.54</ele>
        <time>2021-07-23T11:13:06Z</time>
      </trkpt>
      <trkpt lat="45.10066" lon="2.84217">
        <ele>1009.85</ele>
        <time>2021-07-23T11:13:14Z</time>
      </trkpt>
      <trkpt lat="45.10067" lon="2.84204">
        <ele>1009.76</ele>
        <time>2021-07-23T11:13:22Z</time>
      </trkpt>
      <trkpt lat="45.10067" lon="2.8419">
        <ele>1012.01</ele>
        <time>2021-07-23T11:13:30Z</time>
      </trkpt>
      <trkpt lat="45.10067" lon="2.84175">
        <ele>1010.7</ele>
        <time>2021-07-23T11:13:38Z</time>
      </trkpt>
      <trkpt lat="45.1007" lon="2.84161">
        <ele>1014.01</ele>
        <time>2021-07-23T11:13:46Z</time>
      </trkpt>
      <trkpt lat="45.10073" lon="2.84148">
        <ele>1015.24</ele>
        <time>2021-07-23T11:13:52Z</time>
      </trkpt>
      <trkpt lat="45.10074" lon="2.84135">
        <ele>1016.21</ele>
        <time>2021-07-23T11:13:59Z</time>
      </trkpt>
      <trkpt lat="45.10076" lon="2.84122">
        <ele>1018.09</ele>
        <time>2021-07-23T11:14:08Z</time>
      </trkpt>
      <trkpt lat="45.10074" lon="2.84109">
        <ele>1021.94</ele>
        <time>2021-07-23T11:14:15Z</time>
      </trkpt>
      <trkpt lat="45.10073" lon="2.84096">
        <ele>1021.02</ele>
        <time>2021-07-23T11:14:23Z</time>
      </trkpt>
      <trkpt lat="45.10072" lon="2.84083">
        <ele>1020.86</ele>
        <time>2021-07-23T11:14:30Z</time>
      </trkpt>
      <trkpt lat="45.10074" lon="2.8407">
        <ele>1021.31</ele>
        <time>2021-07-23T11:14:38Z</time>
      </trkpt>
      <trkpt lat="45.10075" lon="2.84057">
        <ele>1024.47</ele>
        <time>2021-07-23T11:14:45Z</time>
      </trkpt>
      <trkpt lat="45.10077" lon="2.84043">
        <ele>1025.81</ele>
        <time>2021-07-23T11:14:53Z</time>
      </trkpt>
      <trkpt lat="45.10081" lon="2.84031">
        <ele>1028.2</ele>
        <time>2021-07-23T11:15:01Z</time>
      </trkpt>
      <trkpt lat="45.10086" lon="2.84019">
        <ele>1030.71</ele>
        <time>2021-07-23T11:15:10Z</time>
      </trkpt>
      <trkpt lat="45.10093" lon="2.84009">
        <ele>1031.22</ele>
        <time>2021-07-23T11:15:18Z</time>
      </trkpt>
      <trkpt lat="45.10095" lon="2.83995">
        <ele>1032.56</ele>
        <time>2021-07-23T11:15:26Z</time>
      </trkpt>
      <trkpt lat="45.10097" lon="2.83981">
        <ele>1029.02</ele>
        <time>2021-07-23T11:15:33Z</time>
      </trkpt>
      <trkpt lat="45.10102" lon="2.83971">
        <ele>1033.53</ele>
        <time>2021-07-23T11:15:40Z</time>
      </trkpt>
      <trkpt lat="45.10108" lon="2.8396">
        <ele>1033.87</ele>
        <time>2021-07-23T11:15:47Z</time>
      </trkpt>
      <trkpt lat="45.10113" lon="2.83949">
        <ele>1036.12</ele>
        <time>2021-07-23T11:15:55Z</time>
      </trkpt>
      <trkpt lat="45.1012" lon="2.8394">
        <ele>1034.83</ele>
        <time>2021-07-23T11:16:04Z</time>
      </trkpt>
      <trkpt lat="45.10125" lon="2.83928">
        <ele>1036.66</ele>
        <time>2021-07-23T11:16:11Z</time>
      </trkpt>
      <trkpt lat="45.10128" lon="2.83916">
        <ele>1037.35</ele>
        <time>2021-07-23T11:16:18Z</time>
      </trkpt>
      <trkpt lat="45.10127" lon="2.83902">
        <ele>1038.08</ele>
        <time>2021-07-23T11:16:25Z</time>
      </trkpt>
      <trkpt lat="45.10127" lon="2.83887">
        <ele>1036.73</ele>
        <time>2021-07-23T11:16:33Z</time>
      </trkpt>
      <trkpt lat="45.10128" lon="2.83873">
        <ele>1038.13</ele>
        <time>2021-07-23T11:16:42Z</time>
      </trkpt>
      <trkpt lat="45.10128" lon="2.8386">
        <ele>1036.15</ele>
        <time>2021-07-23T11:16:49Z</time>
      </trkpt>
      <trkpt lat="45.10128" lon="2.83847">
        <ele>1037.52</ele>
        <time>2021-07-23T11:16:56Z</time>
      </trkpt>
      <trkpt lat="45.1013" lon="2.83833">
        <ele>1038.82</ele>
        <time>2021-07-23T11:17:03Z</time>
      </trkpt>
      <trkpt lat="45.10131" lon="2.8382">
        <ele>1037.87</ele>
        <time>2021-07-23T11:26:06Z</time>
      </trkpt>
      <trkpt lat="45.10136" lon="2.83809">
        <ele>1039.18</ele>
        <time>2021-07-23T11:26:15Z</time>
      </trkpt>
      <trkpt lat="45.10139" lon="2.83795">
        <ele>1040.29</ele>
        <time>2021-07-23T11:26:24Z</time>
      </trkpt>
      <trkpt lat="45.10141" lon="2.83781">
        <ele>1039.34</ele>
        <time>2021-07-23T11:26:30Z</time>
      </trkpt>
      <trkpt lat="45.10143" lon="2.83768">
        <ele>1041.67</ele>
        <time>2021-07-23T11:26:36Z</time>
      </trkpt>
      <trkpt lat="45.10145" lon="2.83754">
        <ele>1041.88</ele>
        <time>2021-07-23T11:26:41Z</time>
      </trkpt>
      <trkpt lat="45.10148" lon="2.83741">
        <ele>1043.3</ele>
        <time>2021-07-23T11:26:46Z</time>
      </trkpt>
      <trkpt lat="45.10151" lon="2.83728">
        <ele>1044.66</ele>
        <time>2021-07-23T11:26:52Z</time>
      </trkpt>
      <trkpt lat="45.10152" lon="2.83713">
        <ele>1047.31</ele>
        <time>2021-07-23T11:26:59Z</time>
      </trkpt>
      <trkpt lat="45.1015" lon="2.837">
        <ele>1049.35</ele>
        <time>2021-07-23T11:27:05Z</time>
      </trkpt>
      <trkpt lat="45.10151" lon="2.83687">
        <ele>1048.95</ele>
        <time>2021-07-23T11:27:11Z</time>
      </trkpt>
      <trkpt lat="45.10152" lon="2.83673">
        <ele>1049.19</ele>
        <time>2021-07-23T11:27:17Z</time>
      </trkpt>
      <trkpt lat="45.10154" lon="2.83659">
        <ele>1050.58</ele>
        <time>2021-07-23T11:27:24Z</time>
      </trkpt>
      <trkpt lat="45.10156" lon="2.83645">
        <ele>1051.75</ele>
        <time>2021-07-23T11:27:29Z</time>
      </trkpt>
      <trkpt lat="45.10157" lon="2.83631">
        <ele>1052.84</ele>
        <time>2021-07-23T11:27:36Z</time>
      </trkpt>
      <trkpt lat="45.10155" lon="2.83618">
        <ele>1052.94</ele>
        <time>2021-07-23T11:27:42Z</time>
      </trkpt>
      <trkpt lat="45.10153" lon="2.83604">
        <ele>1053.01</ele>
        <time>2021-07-23T11:27:48Z</time>
      </trkpt>
      <trkpt lat="45.1015" lon="2.8359">
        <ele>1052.98</ele>
        <time>2021-07-23T11:27:54Z</time>
      </trkpt>
      <trkpt lat="45.10145" lon="2.83578">
        <ele>1053.6</ele>
        <time>2021-07-23T11:28:00Z</time>
      </trkpt>
      <trkpt lat="45.1014" lon="2.83564">
        <ele>1054.38</ele>
        <time>2021-07-23T11:28:06Z</time>
      </trkpt>
      <trkpt lat="45.10137" lon="2.83552">
        <ele>1054.26</ele>
        <time>2021-07-23T11:28:11Z</time>
      </trkpt>
      <trkpt lat="45.10133" lon="2.8354">
        <ele>1056.54</ele>
        <time>2021-07-23T11:28:17Z</time>
      </trkpt>
      <trkpt lat="45.1013" lon="2.83526">
        <ele>1055.37</ele>
        <time>2021-07-23T11:28:23Z</time>
      </trkpt>
      <trkpt lat="45.10127" lon="2.83513">
        <ele>1056.73</ele>
        <time>2021-07-23T11:28:29Z</time>
      </trkpt>
      <trkpt lat="45.10124" lon="2.83501">
        <ele>1058.22</ele>
        <time>2021-07-23T11:28:36Z</time>
      </trkpt>
      <trkpt lat="45.1012" lon="2.83489">
        <ele>1060.31</ele>
        <time>2021-07-23T11:28:43Z</time>
      </trkpt>
      <trkpt lat="45.10117" lon="2.83476">
        <ele>1060.94</ele>
        <time>2021-07-23T11:28:49Z</time>
      </trkpt>
      <trkpt lat="45.10114" lon="2.83463">
        <ele>1062.22</ele>
        <time>2021-07-23T11:28:56Z</time>
      </trkpt>
      <trkpt lat="45.1011" lon="2.83451">
        <ele>1064.69</ele>
        <time>2021-07-23T11:29:02Z</time>
      </trkpt>
      <trkpt lat="45.10106" lon="2.83438">
        <ele>1063.9</ele>
        <time>2021-07-23T11:29:08Z</time>
      </trkpt>
      <trkpt lat="45.10101" lon="2.83426">
        <ele>1064.38</ele>
        <time>2021-07-23T11:29:14Z</time>
      </trkpt>
      <trkpt lat="45.10096" lon="2.83413">
        <ele>1068.38</ele>
        <time>2021-07-23T11:29:21Z</time>
      </trkpt>
      <trkpt lat="45.10093" lon="2.83399">
        <ele>1068.7</ele>
        <time>2021-07-23T11:29:27Z</time>
      </trkpt>
      <trkpt lat="45.10089" lon="2.83387">
        <ele>1071.24</ele>
        <time>2021-07-23T11:29:34Z</time>
      </trkpt>
      <trkpt lat="45.10085" lon="2.83375">
        <ele>1070.44</ele>
        <time>2021-07-23T11:29:40Z</time>
      </trkpt>
      <trkpt lat="45.10081" lon="2.83363">
        <ele>1068.8</ele>
        <time>2021-07-23T11:29:46Z</time>
      </trkpt>
      <trkpt lat="45.10077" lon="2.83351">
        <ele>1069.12</ele>
        <time>2021-07-23T11:29:52Z</time>
      </trkpt>
      <trkpt lat="45.10072" lon="2.83339">
        <ele>1068.96</ele>
        <time>2021-07-23T11:29:58Z</time>
      </trkpt>
      <trkpt lat="45.10069" lon="2.83327">
        <ele>1070.03</ele>
        <time>2021-07-23T11:30:04Z</time>
      </trkpt>
      <trkpt lat="45.10066" lon="2.83315">
        <ele>1070.99</ele>
        <time>2021-07-23T11:30:10Z</time>
      </trkpt>
      <trkpt lat="45.10061" lon="2.83302">
        <ele>1071.9</ele>
        <time>2021-07-23T11:30:16Z</time>
      </trkpt>
      <trkpt lat="45.10057" lon="2.83288">
        <ele>1071.7</ele>
        <time>2021-07-23T11:30:22Z</time>
      </trkpt>
      <trkpt lat="45.10054" lon="2.83272">
        <ele>1073.39</ele>
        <time>2021-07-23T11:30:27Z</time>
      </trkpt>
      <trkpt lat="45.1005" lon="2.83258">
        <ele>1073.1</ele>
        <time>2021-07-23T11:30:30Z</time>
      </trkpt>
      <trkpt lat="45.10046" lon="2.83243">
        <ele>1073.93</ele>
        <time>2021-07-23T11:30:33Z</time>
      </trkpt>
      <trkpt lat="45.10043" lon="2.83228">
        <ele>1074.31</ele>
        <time>2021-07-23T11:30:36Z</time>
      </trkpt>
      <trkpt lat="45.1004" lon="2.83214">
        <ele>1073.66</ele>
        <time>2021-07-23T11:30:39Z</time>
      </trkpt>
      <trkpt lat="45.10037" lon="2.83201">
        <ele>1072.92</ele>
        <time>2021-07-23T11:30:42Z</time>
      </trkpt>
      <trkpt lat="45.10034" lon="2.83189">
        <ele>1072.56</ele>
        <time>2021-07-23T11:30:45Z</time>
      </trkpt>
      <trkpt lat="45.10032" lon="2.83174">
        <ele>1072.1</ele>
        <time>2021-07-23T11:30:49Z</time>
      </trkpt>
      <trkpt lat="45.10029" lon="2.83162">
        <ele>1072.9</ele>
        <time>2021-07-23T11:30:52Z</time>
      </trkpt>
      <trkpt lat="45.10026" lon="2.83148">
        <ele>1072.84</ele>
        <time>2021-07-23T11:30:55Z</time>
      </trkpt>
      <trkpt lat="45.10022" lon="2.83134">
        <ele>1073.47</ele>
        <time>2021-07-23T11:30:58Z</time>
      </trkpt>
      <trkpt lat="45.10018" lon="2.83119">
        <ele>1072.66</ele>
        <time>2021-07-23T11:31:01Z</time>
      </trkpt>
      <trkpt lat="45.10015" lon="2.83103">
        <ele>1072.55</ele>
        <time>2021-07-23T11:31:04Z</time>
      </trkpt>
      <trkpt lat="45.1001" lon="2.83088">
        <ele>1071.88</ele>
        <time>2021-07-23T11:31:07Z</time>
      </trkpt>
      <trkpt lat="45.10006" lon="2.83073">
        <ele>1072.81</ele>
        <time>2021-07-23T11:31:10Z</time>
      </trkpt>
      <trkpt lat="45.10001" lon="2.8306">
        <ele>1073.24</ele>
        <time>2021-07-23T11:31:13Z</time>
      </trkpt>
      <trkpt lat="45.09998" lon="2.83045">
        <ele>1070.62</ele>
        <time>2021-07-23T11:31:16Z</time>
      </trkpt>
      <trkpt lat="45.09995" lon="2.83032">
        <ele>1068.97</ele>
        <time>2021-07-23T11:31:19Z</time>
      </trkpt>
      <trkpt lat="45.0999" lon="2.83018">
        <ele>1067.48</ele>
        <time>2021-07-23T11:31:23Z</time>
      </trkpt>
      <trkpt lat="45.09985" lon="2.83005">
        <ele>1068.04</ele>
        <time>2021-07-23T11:31:26Z</time>
      </trkpt>
      <trkpt lat="45.09979" lon="2.82989">
        <ele>1068.81</ele>
        <time>2021-07-23T11:31:29Z</time>
      </trkpt>
      <trkpt lat="45.09975" lon="2.82973">
        <ele>1068.62</ele>
        <time>2021-07-23T11:31:32Z</time>
      </trkpt>
      <trkpt lat="45.09969" lon="2.82957">
        <ele>1069.73</ele>
        <time>2021-07-23T11:31:35Z</time>
      </trkpt>
      <trkpt lat="45.09966" lon="2.82944">
        <ele>1070.4</ele>
        <time>2021-07-23T11:31:38Z</time>
      </trkpt>
      <trkpt lat="45.09963" lon="2.8293">
        <ele>1071.27</ele>
        <time>2021-07-23T11:31:41Z</time>
      </trkpt>
      <trkpt lat="45.0996" lon="2.82915">
        <ele>1072.51</ele>
        <time>2021-07-23T11:31:44Z</time>
      </trkpt>
      <trkpt lat="45.09956" lon="2.82902">
        <ele>1075.16</ele>
        <time>2021-07-23T11:31:47Z</time>
      </trkpt>
      <trkpt lat="45.09952" lon="2.82886">
        <ele>1075.65</ele>
        <time>2021-07-23T11:31:50Z</time>
      </trkpt>
      <trkpt lat="45.09949" lon="2.8287">
        <ele>1076.34</ele>
        <time>2021-07-23T11:31:53Z</time>
      </trkpt>
      <trkpt lat="45.09948" lon="2.82853">
        <ele>1074.17</ele>
        <time>2021-07-23T11:31:56Z</time>
      </trkpt>
      <trkpt lat="45.09945" lon="2.82836">
        <ele>1073.01</ele>
        <time>2021-07-23T11:31:59Z</time>
      </trkpt>
      <trkpt lat="45.09941" lon="2.82819">
        <ele>1072.92</ele>
        <time>2021-07-23T11:32:02Z</time>
      </trkpt>
      <trkpt lat="45.09938" lon="2.82801">
        <ele>1073.18</ele>
        <time>2021-07-23T11:32:07Z</time>
      </trkpt>
      <trkpt lat="45.09933" lon="2.82782">
        <ele>1073.62</ele>
        <time>2021-07-23T11:32:09Z</time>
      </trkpt>
      <trkpt lat="45.0993" lon="2.82769">
        <ele>1074.11</ele>
        <time>2021-07-23T11:32:12Z</time>
      </trkpt>
      <trkpt lat="45.09927" lon="2.82754">
        <ele>1074.11</ele>
        <time>2021-07-23T11:32:15Z</time>
      </trkpt>
      <trkpt lat="45.09925" lon="2.82737">
        <ele>1074.8</ele>
        <time>2021-07-23T11:32:18Z</time>
      </trkpt>
      <trkpt lat="45.09922" lon="2.82721">
        <ele>1074.94</ele>
        <time>2021-07-23T11:32:21Z</time>
      </trkpt>
      <trkpt lat="45.09919" lon="2.82705">
        <ele>1076.77</ele>
        <time>2021-07-23T11:32:24Z</time>
      </trkpt>
      <trkpt lat="45.09915" lon="2.82689">
        <ele>1076.61</ele>
        <time>2021-07-23T11:32:27Z</time>
      </trkpt>
      <trkpt lat="45.09912" lon="2.82674">
        <ele>1076.67</ele>
        <time>2021-07-23T11:32:30Z</time>
      </trkpt>
      <trkpt lat="45.09909" lon="2.82658">
        <ele>1075.71</ele>
        <time>2021-07-23T11:32:33Z</time>
      </trkpt>
      <trkpt lat="45.09906" lon="2.82643">
        <ele>1075.9</ele>
        <time>2021-07-23T11:32:36Z</time>
      </trkpt>
      <trkpt lat="45.09902" lon="2.82628">
        <ele>1075.5</ele>
        <time>2021-07-23T11:32:39Z</time>
      </trkpt>
      <trkpt lat="45.09897" lon="2.82613">
        <ele>1074.96</ele>
        <time>2021-07-23T11:32:42Z</time>
      </trkpt>
      <trkpt lat="45.09891" lon="2.82599">
        <ele>1075.11</ele>
        <time>2021-07-23T11:32:45Z</time>
      </trkpt>
      <trkpt lat="45.09884" lon="2.82585">
        <ele>1074.08</ele>
        <time>2021-07-23T11:32:48Z</time>
      </trkpt>
      <trkpt lat="45.09877" lon="2.82571">
        <ele>1073.19</ele>
        <time>2021-07-23T11:32:51Z</time>
      </trkpt>
      <trkpt lat="45.09873" lon="2.82558">
        <ele>1073.95</ele>
        <time>2021-07-23T11:32:54Z</time>
      </trkpt>
      <trkpt lat="45.09866" lon="2.82543">
        <ele>1074.06</ele>
        <time>2021-07-23T11:32:57Z</time>
      </trkpt>
      <trkpt lat="45.09861" lon="2.82528">
        <ele>1074.03</ele>
        <time>2021-07-23T11:33:00Z</time>
      </trkpt>
      <trkpt lat="45.09856" lon="2.82514">
        <ele>1073.53</ele>
        <time>2021-07-23T11:33:03Z</time>
      </trkpt>
      <trkpt lat="45.0985" lon="2.82501">
        <ele>1072.83</ele>
        <time>2021-07-23T11:33:06Z</time>
      </trkpt>
      <trkpt lat="45.09844" lon="2.82489">
        <ele>1073.74</ele>
        <time>2021-07-23T11:33:09Z</time>
      </trkpt>
      <trkpt lat="45.09839" lon="2.82478">
        <ele>1076.4</ele>
        <time>2021-07-23T11:33:12Z</time>
      </trkpt>
      <trkpt lat="45.0983" lon="2.82466">
        <ele>1077.76</ele>
        <time>2021-07-23T11:33:16Z</time>
      </trkpt>
      <trkpt lat="45.09824" lon="2.82457">
        <ele>1079.14</ele>
        <time>2021-07-23T11:33:19Z</time>
      </trkpt>
      <trkpt lat="45.09817" lon="2.82446">
        <ele>1074.12</ele>
        <time>2021-07-23T11:33:22Z</time>
      </trkpt>
      <trkpt lat="45.0981" lon="2.82435">
        <ele>1074.37</ele>
        <time>2021-07-23T11:33:25Z</time>
      </trkpt>
      <trkpt lat="45.09805" lon="2.82423">
        <ele>1072.69</ele>
        <time>2021-07-23T11:33:28Z</time>
      </trkpt>
      <trkpt lat="45.09798" lon="2.82409">
        <ele>1070.51</ele>
        <time>2021-07-23T11:33:32Z</time>
      </trkpt>
      <trkpt lat="45.09792" lon="2.82396">
        <ele>1072.71</ele>
        <time>2021-07-23T11:33:36Z</time>
      </trkpt>
      <trkpt lat="45.09788" lon="2.82382">
        <ele>1074.73</ele>
        <time>2021-07-23T11:33:40Z</time>
      </trkpt>
      <trkpt lat="45.09782" lon="2.82371">
        <ele>1079.75</ele>
        <time>2021-07-23T11:33:44Z</time>
      </trkpt>
      <trkpt lat="45.09779" lon="2.82357">
        <ele>1086.14</ele>
        <time>2021-07-23T11:33:49Z</time>
      </trkpt>
      <trkpt lat="45.09775" lon="2.82342">
        <ele>1081.56</ele>
        <time>2021-07-23T11:33:54Z</time>
      </trkpt>
      <trkpt lat="45.09768" lon="2.82329">
        <ele>1082.88</ele>
        <time>2021-07-23T11:33:58Z</time>
      </trkpt>
      <trkpt lat="45.09761" lon="2.82316">
        <ele>1082.51</ele>
        <time>2021-07-23T11:34:02Z</time>
      </trkpt>
      <trkpt lat="45.0976" lon="2.82302">
        <ele>1084.29</ele>
        <time>2021-07-23T11:34:06Z</time>
      </trkpt>
      <trkpt lat="45.09756" lon="2.82288">
        <ele>1084.29</ele>
        <time>2021-07-23T11:34:10Z</time>
      </trkpt>
      <trkpt lat="45.0975" lon="2.82277">
        <ele>1083.54</ele>
        <time>2021-07-23T11:34:13Z</time>
      </trkpt>
      <trkpt lat="45.09744" lon="2.82267">
        <ele>1085.63</ele>
        <time>2021-07-23T11:34:16Z</time>
      </trkpt>
      <trkpt lat="45.09738" lon="2.82254">
        <ele>1084.86</ele>
        <time>2021-07-23T11:34:20Z</time>
      </trkpt>
      <trkpt lat="45.09733" lon="2.82243">
        <ele>1086.62</ele>
        <time>2021-07-23T11:34:23Z</time>
      </trkpt>
      <trkpt lat="45.09728" lon="2.82231">
        <ele>1085.99</ele>
        <time>2021-07-23T11:34:26Z</time>
      </trkpt>
      <trkpt lat="45.09725" lon="2.82215">
        <ele>1088.38</ele>
        <time>2021-07-23T11:34:30Z</time>
      </trkpt>
      <trkpt lat="45.09719" lon="2.822">
        <ele>1089.07</ele>
        <time>2021-07-23T11:34:34Z</time>
      </trkpt>
      <trkpt lat="45.09716" lon="2.82185">
        <ele>1088.06</ele>
        <time>2021-07-23T11:34:38Z</time>
      </trkpt>
      <trkpt lat="45.09711" lon="2.8217">
        <ele>1089.41</ele>
        <time>2021-07-23T11:34:42Z</time>
      </trkpt>
      <trkpt lat="45.09708" lon="2.82156">
        <ele>1089.97</ele>
        <time>2021-07-23T11:34:46Z</time>
      </trkpt>
      <trkpt lat="45.09702" lon="2.82142">
        <ele>1091.39</ele>
        <time>2021-07-23T11:34:50Z</time>
      </trkpt>
      <trkpt lat="45.09695" lon="2.82128">
        <ele>1091.88</ele>
        <time>2021-07-23T11:34:54Z</time>
      </trkpt>
      <trkpt lat="45.09689" lon="2.82115">
        <ele>1091</ele>
        <time>2021-07-23T11:34:58Z</time>
      </trkpt>
      <trkpt lat="45.09683" lon="2.82103">
        <ele>1090.88</ele>
        <time>2021-07-23T11:35:02Z</time>
      </trkpt>
      <trkpt lat="45.09676" lon="2.8209">
        <ele>1091.34</ele>
        <time>2021-07-23T11:35:06Z</time>
      </trkpt>
      <trkpt lat="45.09667" lon="2.82078">
        <ele>1091.14</ele>
        <time>2021-07-23T11:35:10Z</time>
      </trkpt>
      <trkpt lat="45.0966" lon="2.82066">
        <ele>1091.28</ele>
        <time>2021-07-23T11:35:14Z</time>
      </trkpt>
      <trkpt lat="45.09653" lon="2.82058">
        <ele>1091.98</ele>
        <time>2021-07-23T11:35:17Z</time>
      </trkpt>
      <trkpt lat="45.09645" lon="2.82047">
        <ele>1093.12</ele>
        <time>2021-07-23T11:35:21Z</time>
      </trkpt>
      <trkpt lat="45.09638" lon="2.82035">
        <ele>1093.23</ele>
        <time>2021-07-23T11:35:25Z</time>
      </trkpt>
      <trkpt lat="45.09633" lon="2.82022">
        <ele>1093.82</ele>
        <time>2021-07-23T11:35:29Z</time>
      </trkpt>
      <trkpt lat="45.09627" lon="2.82008">
        <ele>1094.54</ele>
        <time>2021-07-23T11:35:33Z</time>
      </trkpt>
      <trkpt lat="45.09623" lon="2.81996">
        <ele>1094.11</ele>
        <time>2021-07-23T11:35:37Z</time>
      </trkpt>
      <trkpt lat="45.0962" lon="2.81983">
        <ele>1093.27</ele>
        <time>2021-07-23T11:35:41Z</time>
      </trkpt>
      <trkpt lat="45.09616" lon="2.8197">
        <ele>1095.26</ele>
        <time>2021-07-23T11:35:45Z</time>
      </trkpt>
      <trkpt lat="45.09613" lon="2.81957">
        <ele>1096.08</ele>
        <time>2021-07-23T11:35:49Z</time>
      </trkpt>
      <trkpt lat="45.0961" lon="2.81943">
        <ele>1096.59</ele>
        <time>2021-07-23T11:35:53Z</time>
      </trkpt>
      <trkpt lat="45.09606" lon="2.8193">
        <ele>1096.93</ele>
        <time>2021-07-23T11:35:57Z</time>
      </trkpt>
      <trkpt lat="45.09601" lon="2.81916">
        <ele>1096.75</ele>
        <time>2021-07-23T11:36:02Z</time>
      </trkpt>
      <trkpt lat="45.09594" lon="2.81905">
        <ele>1099.42</ele>
        <time>2021-07-23T11:36:08Z</time>
      </trkpt>
      <trkpt lat="45.09587" lon="2.81896">
        <ele>1101</ele>
        <time>2021-07-23T11:36:13Z</time>
      </trkpt>
      <trkpt lat="45.0958" lon="2.81888">
        <ele>1103.01</ele>
        <time>2021-07-23T11:36:19Z</time>
      </trkpt>
      <trkpt lat="45.09576" lon="2.81876">
        <ele>1104.58</ele>
        <time>2021-07-23T11:36:25Z</time>
      </trkpt>
      <trkpt lat="45.0957" lon="2.81864">
        <ele>1107.43</ele>
        <time>2021-07-23T11:36:31Z</time>
      </trkpt>
      <trkpt lat="45.09565" lon="2.81852">
        <ele>1109.21</ele>
        <time>2021-07-23T11:36:36Z</time>
      </trkpt>
      <trkpt lat="45.09559" lon="2.81841">
        <ele>1112.11</ele>
        <time>2021-07-23T11:36:41Z</time>
      </trkpt>
      <trkpt lat="45.09553" lon="2.81831">
        <ele>1110.12</ele>
        <time>2021-07-23T11:36:46Z</time>
      </trkpt>
      <trkpt lat="45.09544" lon="2.81823">
        <ele>1109.98</ele>
        <time>2021-07-23T11:36:51Z</time>
      </trkpt>
      <trkpt lat="45.09537" lon="2.81813">
        <ele>1111.6</ele>
        <time>2021-07-23T11:36:56Z</time>
      </trkpt>
      <trkpt lat="45.09531" lon="2.81804">
        <ele>1111.95</ele>
        <time>2021-07-23T11:37:02Z</time>
      </trkpt>
      <trkpt lat="45.09524" lon="2.81792">
        <ele>1109.93</ele>
        <time>2021-07-23T11:37:09Z</time>
      </trkpt>
      <trkpt lat="45.09517" lon="2.81785">
        <ele>1115.59</ele>
        <time>2021-07-23T11:37:15Z</time>
      </trkpt>
      <trkpt lat="45.09511" lon="2.81774">
        <ele>1119.12</ele>
        <time>2021-07-23T11:37:21Z</time>
      </trkpt>
      <trkpt lat="45.09503" lon="2.81767">
        <ele>1118.28</ele>
        <time>2021-07-23T11:37:27Z</time>
      </trkpt>
      <trkpt lat="45.09495" lon="2.81761">
        <ele>1120.71</ele>
        <time>2021-07-23T11:37:33Z</time>
      </trkpt>
      <trkpt lat="45.09486" lon="2.81753">
        <ele>1119.76</ele>
        <time>2021-07-23T11:37:39Z</time>
      </trkpt>
      <trkpt lat="45.0948" lon="2.8174">
        <ele>1115.81</ele>
        <time>2021-07-23T11:37:45Z</time>
      </trkpt>
      <trkpt lat="45.09475" lon="2.81727">
        <ele>1115.06</ele>
        <time>2021-07-23T11:37:51Z</time>
      </trkpt>
      <trkpt lat="45.09469" lon="2.81717">
        <ele>1112.73</ele>
        <time>2021-07-23T11:37:57Z</time>
      </trkpt>
      <trkpt lat="45.09461" lon="2.81707">
        <ele>1115.88</ele>
        <time>2021-07-23T11:38:04Z</time>
      </trkpt>
      <trkpt lat="45.09453" lon="2.81699">
        <ele>1118.69</ele>
        <time>2021-07-23T11:38:09Z</time>
      </trkpt>
      <trkpt lat="45.09447" lon="2.81689">
        <ele>1119.91</ele>
        <time>2021-07-23T11:38:14Z</time>
      </trkpt>
      <trkpt lat="45.0944" lon="2.81681">
        <ele>1122.42</ele>
        <time>2021-07-23T11:38:19Z</time>
      </trkpt>
      <trkpt lat="45.09432" lon="2.8167">
        <ele>1126.45</ele>
        <time>2021-07-23T11:38:25Z</time>
      </trkpt>
      <trkpt lat="45.09424" lon="2.8166">
        <ele>1123.87</ele>
        <time>2021-07-23T11:38:31Z</time>
      </trkpt>
      <trkpt lat="45.09418" lon="2.8165">
        <ele>1124.13</ele>
        <time>2021-07-23T11:38:36Z</time>
      </trkpt>
      <trkpt lat="45.09411" lon="2.81641">
        <ele>1126.62</ele>
        <time>2021-07-23T11:38:43Z</time>
      </trkpt>
      <trkpt lat="45.09403" lon="2.81632">
        <ele>1129.13</ele>
        <time>2021-07-23T11:38:49Z</time>
      </trkpt>
      <trkpt lat="45.09397" lon="2.81621">
        <ele>1130.58</ele>
        <time>2021-07-23T11:38:54Z</time>
      </trkpt>
      <trkpt lat="45.09388" lon="2.81615">
        <ele>1128.8</ele>
        <time>2021-07-23T11:38:58Z</time>
      </trkpt>
      <trkpt lat="45.09379" lon="2.81609">
        <ele>1128.74</ele>
        <time>2021-07-23T11:39:03Z</time>
      </trkpt>
      <trkpt lat="45.09374" lon="2.81599">
        <ele>1128.1</ele>
        <time>2021-07-23T11:39:09Z</time>
      </trkpt>
      <trkpt lat="45.09366" lon="2.81588">
        <ele>1125.84</ele>
        <time>2021-07-23T11:39:15Z</time>
      </trkpt>
      <trkpt lat="45.09358" lon="2.81579">
        <ele>1123.13</ele>
        <time>2021-07-23T11:39:21Z</time>
      </trkpt>
      <trkpt lat="45.09351" lon="2.81571">
        <ele>1122.98</ele>
        <time>2021-07-23T11:39:26Z</time>
      </trkpt>
      <trkpt lat="45.09343" lon="2.81563">
        <ele>1123.07</ele>
        <time>2021-07-23T11:39:31Z</time>
      </trkpt>
      <trkpt lat="45.09333" lon="2.81557">
        <ele>1123.09</ele>
        <time>2021-07-23T11:39:37Z</time>
      </trkpt>
      <trkpt lat="45.09325" lon="2.8155">
        <ele>1124.36</ele>
        <time>2021-07-23T11:39:42Z</time>
      </trkpt>
      <trkpt lat="45.09317" lon="2.81544">
        <ele>1124</ele>
        <time>2021-07-23T11:39:46Z</time>
      </trkpt>
      <trkpt lat="45.09309" lon="2.81535">
        <ele>1124.96</ele>
        <time>2021-07-23T11:39:51Z</time>
      </trkpt>
      <trkpt lat="45.09304" lon="2.81524">
        <ele>1129.47</ele>
        <time>2021-07-23T11:39:58Z</time>
      </trkpt>
      <trkpt lat="45.09298" lon="2.8151">
        <ele>1130.79</ele>
        <time>2021-07-23T11:40:03Z</time>
      </trkpt>
      <trkpt lat="45.09295" lon="2.81495">
        <ele>1131.29</ele>
        <time>2021-07-23T11:40:08Z</time>
      </trkpt>
      <trkpt lat="45.09295" lon="2.8148">
        <ele>1133.99</ele>
        <time>2021-07-23T11:40:14Z</time>
      </trkpt>
      <trkpt lat="45.09297" lon="2.81466">
        <ele>1137.02</ele>
        <time>2021-07-23T11:40:19Z</time>
      </trkpt>
      <trkpt lat="45.09297" lon="2.81452">
        <ele>1138.58</ele>
        <time>2021-07-23T11:40:24Z</time>
      </trkpt>
      <trkpt lat="45.09295" lon="2.81437">
        <ele>1140.21</ele>
        <time>2021-07-23T11:40:30Z</time>
      </trkpt>
      <trkpt lat="45.09289" lon="2.81427">
        <ele>1140.36</ele>
        <time>2021-07-23T11:40:35Z</time>
      </trkpt>
      <trkpt lat="45.09283" lon="2.81416">
        <ele>1138.72</ele>
        <time>2021-07-23T11:40:41Z</time>
      </trkpt>
      <trkpt lat="45.09276" lon="2.81409">
        <ele>1142.68</ele>
        <time>2021-07-23T11:40:50Z</time>
      </trkpt>
      <trkpt lat="45.09265" lon="2.81411">
        <ele>1144.77</ele>
        <time>2021-07-23T11:40:58Z</time>
      </trkpt>
      <trkpt lat="45.09258" lon="2.8142">
        <ele>1144.65</ele>
        <time>2021-07-23T11:41:04Z</time>
      </trkpt>
      <trkpt lat="45.09255" lon="2.81432">
        <ele>1149.51</ele>
        <time>2021-07-23T11:41:11Z</time>
      </trkpt>
      <trkpt lat="45.0925" lon="2.81444">
        <ele>1154.65</ele>
        <time>2021-07-23T11:41:17Z</time>
      </trkpt>
      <trkpt lat="45.09251" lon="2.81457">
        <ele>1158.34</ele>
        <time>2021-07-23T11:41:24Z</time>
      </trkpt>
      <trkpt lat="45.09247" lon="2.81469">
        <ele>1158.46</ele>
        <time>2021-07-23T11:41:31Z</time>
      </trkpt>
      <trkpt lat="45.09247" lon="2.81483">
        <ele>1160.8</ele>
        <time>2021-07-23T11:41:39Z</time>
      </trkpt>
      <trkpt lat="45.09246" lon="2.81497">
        <ele>1160.34</ele>
        <time>2021-07-23T11:41:47Z</time>
      </trkpt>
      <trkpt lat="45.0924" lon="2.81508">
        <ele>1161.64</ele>
        <time>2021-07-23T11:41:55Z</time>
      </trkpt>
      <trkpt lat="45.09238" lon="2.81522">
        <ele>1159.55</ele>
        <time>2021-07-23T11:42:04Z</time>
      </trkpt>
      <trkpt lat="45.09235" lon="2.81535">
        <ele>1160.56</ele>
        <time>2021-07-23T11:42:12Z</time>
      </trkpt>
      <trkpt lat="45.09227" lon="2.8154">
        <ele>1158.3</ele>
        <time>2021-07-23T11:42:22Z</time>
      </trkpt>
      <trkpt lat="45.09221" lon="2.81529">
        <ele>1158.82</ele>
        <time>2021-07-23T11:42:28Z</time>
      </trkpt>
      <trkpt lat="45.09219" lon="2.81516">
        <ele>1161.1</ele>
        <time>2021-07-23T11:42:35Z</time>
      </trkpt>
      <trkpt lat="45.0922" lon="2.81502">
        <ele>1163.94</ele>
        <time>2021-07-23T11:42:45Z</time>
      </trkpt>
      <trkpt lat="45.09217" lon="2.8149">
        <ele>1165.89</ele>
        <time>2021-07-23T11:42:53Z</time>
      </trkpt>
      <trkpt lat="45.09212" lon="2.81478">
        <ele>1164.79</ele>
        <time>2021-07-23T11:43:01Z</time>
      </trkpt>
      <trkpt lat="45.09207" lon="2.81467">
        <ele>1167.26</ele>
        <time>2021-07-23T11:43:07Z</time>
      </trkpt>
      <trkpt lat="45.09203" lon="2.81455">
        <ele>1170.28</ele>
        <time>2021-07-23T11:43:15Z</time>
      </trkpt>
      <trkpt lat="45.09197" lon="2.81445">
        <ele>1170.93</ele>
        <time>2021-07-23T11:43:23Z</time>
      </trkpt>
      <trkpt lat="45.09193" lon="2.81433">
        <ele>1173.39</ele>
        <time>2021-07-23T11:43:31Z</time>
      </trkpt>
      <trkpt lat="45.09191" lon="2.8142">
        <ele>1172.74</ele>
        <time>2021-07-23T11:43:38Z</time>
      </trkpt>
      <trkpt lat="45.09192" lon="2.81405">
        <ele>1175.33</ele>
        <time>2021-07-23T11:43:46Z</time>
      </trkpt>
      <trkpt lat="45.09196" lon="2.81392">
        <ele>1177.8</ele>
        <time>2021-07-23T11:43:54Z</time>
      </trkpt>
      <trkpt lat="45.09198" lon="2.81379">
        <ele>1178.36</ele>
        <time>2021-07-23T11:44:01Z</time>
      </trkpt>
      <trkpt lat="45.09195" lon="2.81365">
        <ele>1174.7</ele>
        <time>2021-07-23T11:44:08Z</time>
      </trkpt>
      <trkpt lat="45.09191" lon="2.81354">
        <ele>1175.92</ele>
        <time>2021-07-23T11:44:15Z</time>
      </trkpt>
      <trkpt lat="45.09187" lon="2.81342">
        <ele>1175.15</ele>
        <time>2021-07-23T11:44:22Z</time>
      </trkpt>
      <trkpt lat="45.09183" lon="2.81329">
        <ele>1176.22</ele>
        <time>2021-07-23T11:44:30Z</time>
      </trkpt>
      <trkpt lat="45.09179" lon="2.81316">
        <ele>1177.88</ele>
        <time>2021-07-23T11:44:38Z</time>
      </trkpt>
      <trkpt lat="45.09177" lon="2.81303">
        <ele>1177.86</ele>
        <time>2021-07-23T11:44:45Z</time>
      </trkpt>
      <trkpt lat="45.09172" lon="2.81292">
        <ele>1179.53</ele>
        <time>2021-07-23T11:44:54Z</time>
      </trkpt>
      <trkpt lat="45.09167" lon="2.8128">
        <ele>1178.25</ele>
        <time>2021-07-23T11:45:02Z</time>
      </trkpt>
      <trkpt lat="45.09166" lon="2.81267">
        <ele>1180.37</ele>
        <time>2021-07-23T11:45:10Z</time>
      </trkpt>
      <trkpt lat="45.09162" lon="2.81254">
        <ele>1184.72</ele>
        <time>2021-07-23T11:45:19Z</time>
      </trkpt>
      <trkpt lat="45.09157" lon="2.81243">
        <ele>1184.99</ele>
        <time>2021-07-23T11:45:26Z</time>
      </trkpt>
      <trkpt lat="45.09152" lon="2.81231">
        <ele>1185.92</ele>
        <time>2021-07-23T11:45:33Z</time>
      </trkpt>
      <trkpt lat="45.09145" lon="2.8122">
        <ele>1182.33</ele>
        <time>2021-07-23T11:45:39Z</time>
      </trkpt>
      <trkpt lat="45.09139" lon="2.8121">
        <ele>1184.35</ele>
        <time>2021-07-23T11:45:48Z</time>
      </trkpt>
      <trkpt lat="45.09133" lon="2.81199">
        <ele>1184.08</ele>
        <time>2021-07-23T11:45:56Z</time>
      </trkpt>
      <trkpt lat="45.09126" lon="2.8119">
        <ele>1185.62</ele>
        <time>2021-07-23T11:46:04Z</time>
      </trkpt>
      <trkpt lat="45.09121" lon="2.81178">
        <ele>1186.27</ele>
        <time>2021-07-23T11:46:12Z</time>
      </trkpt>
      <trkpt lat="45.09116" lon="2.81167">
        <ele>1188.14</ele>
        <time>2021-07-23T11:46:20Z</time>
      </trkpt>
      <trkpt lat="45.09109" lon="2.81156">
        <ele>1191.78</ele>
        <time>2021-07-23T11:46:27Z</time>
      </trkpt>
      <trkpt lat="45.09106" lon="2.81144">
        <ele>1197.58</ele>
        <time>2021-07-23T11:46:35Z</time>
      </trkpt>
      <trkpt lat="45.09099" lon="2.81135">
        <ele>1197.71</ele>
        <time>2021-07-23T11:46:41Z</time>
      </trkpt>
      <trkpt lat="45.09095" lon="2.81124">
        <ele>1199.06</ele>
        <time>2021-07-23T11:46:48Z</time>
      </trkpt>
      <trkpt lat="45.0909" lon="2.81111">
        <ele>1200.62</ele>
        <time>2021-07-23T11:46:57Z</time>
      </trkpt>
      <trkpt lat="45.09083" lon="2.81102">
        <ele>1200.91</ele>
        <time>2021-07-23T11:47:04Z</time>
      </trkpt>
      <trkpt lat="45.09077" lon="2.81091">
        <ele>1203.5</ele>
        <time>2021-07-23T11:47:13Z</time>
      </trkpt>
      <trkpt lat="45.0907" lon="2.81081">
        <ele>1202.49</ele>
        <time>2021-07-23T11:47:20Z</time>
      </trkpt>
      <trkpt lat="45.09065" lon="2.8107">
        <ele>1201.76</ele>
        <time>2021-07-23T11:47:27Z</time>
      </trkpt>
      <trkpt lat="45.09058" lon="2.8106">
        <ele>1202.59</ele>
        <time>2021-07-23T11:47:35Z</time>
      </trkpt>
      <trkpt lat="45.09052" lon="2.81049">
        <ele>1200.39</ele>
        <time>2021-07-23T11:47:42Z</time>
      </trkpt>
      <trkpt lat="45.09046" lon="2.81039">
        <ele>1197.58</ele>
        <time>2021-07-23T11:47:48Z</time>
      </trkpt>
      <trkpt lat="45.09038" lon="2.81031">
        <ele>1198.08</ele>
        <time>2021-07-23T11:47:55Z</time>
      </trkpt>
      <trkpt lat="45.09027" lon="2.8103">
        <ele>1197.61</ele>
        <time>2021-07-23T11:48:02Z</time>
      </trkpt>
      <trkpt lat="45.0902" lon="2.81038">
        <ele>1200.56</ele>
        <time>2021-07-23T11:48:09Z</time>
      </trkpt>
      <trkpt lat="45.09012" lon="2.81046">
        <ele>1202.77</ele>
        <time>2021-07-23T11:48:16Z</time>
      </trkpt>
      <trkpt lat="45.09004" lon="2.81053">
        <ele>1204.26</ele>
        <time>2021-07-23T11:48:23Z</time>
      </trkpt>
      <trkpt lat="45.08998" lon="2.81064">
        <ele>1204.47</ele>
        <time>2021-07-23T11:48:31Z</time>
      </trkpt>
      <trkpt lat="45.08989" lon="2.81069">
        <ele>1202.81</ele>
        <time>2021-07-23T11:48:44Z</time>
      </trkpt>
      <trkpt lat="45.08983" lon="2.81079">
        <ele>1203.42</ele>
        <time>2021-07-23T11:48:50Z</time>
      </trkpt>
      <trkpt lat="45.08977" lon="2.8109">
        <ele>1209.93</ele>
        <time>2021-07-23T11:48:57Z</time>
      </trkpt>
      <trkpt lat="45.08972" lon="2.81101">
        <ele>1210.33</ele>
        <time>2021-07-23T11:49:05Z</time>
      </trkpt>
      <trkpt lat="45.08972" lon="2.81114">
        <ele>1214.06</ele>
        <time>2021-07-23T11:49:11Z</time>
      </trkpt>
      <trkpt lat="45.08973" lon="2.81128">
        <ele>1219.13</ele>
        <time>2021-07-23T11:49:18Z</time>
      </trkpt>
      <trkpt lat="45.08973" lon="2.81143">
        <ele>1220.83</ele>
        <time>2021-07-23T11:49:24Z</time>
      </trkpt>
      <trkpt lat="45.08978" lon="2.81156">
        <ele>1221.73</ele>
        <time>2021-07-23T11:49:32Z</time>
      </trkpt>
      <trkpt lat="45.08983" lon="2.81168">
        <ele>1222.11</ele>
        <time>2021-07-23T11:49:40Z</time>
      </trkpt>
      <trkpt lat="45.08987" lon="2.8118">
        <ele>1222.19</ele>
        <time>2021-07-23T11:49:48Z</time>
      </trkpt>
      <trkpt lat="45.08991" lon="2.81191">
        <ele>1222.03</ele>
        <time>2021-07-23T11:49:55Z</time>
      </trkpt>
      <trkpt lat="45.08994" lon="2.81204">
        <ele>1222.37</ele>
        <time>2021-07-23T11:50:02Z</time>
      </trkpt>
      <trkpt lat="45.08992" lon="2.81216">
        <ele>1224.36</ele>
        <time>2021-07-23T11:50:10Z</time>
      </trkpt>
      <trkpt lat="45.08982" lon="2.81218">
        <ele>1225.51</ele>
        <time>2021-07-23T11:50:17Z</time>
      </trkpt>
      <trkpt lat="45.08974" lon="2.81212">
        <ele>1225.41</ele>
        <time>2021-07-23T11:50:24Z</time>
      </trkpt>
      <trkpt lat="45.08967" lon="2.81201">
        <ele>1227.88</ele>
        <time>2021-07-23T11:50:32Z</time>
      </trkpt>
      <trkpt lat="45.08962" lon="2.81189">
        <ele>1228.14</ele>
        <time>2021-07-23T11:50:41Z</time>
      </trkpt>
      <trkpt lat="45.08956" lon="2.8118">
        <ele>1227.24</ele>
        <time>2021-07-23T11:52:50Z</time>
      </trkpt>
      <trkpt lat="45.08949" lon="2.8117">
        <ele>1229.15</ele>
        <time>2021-07-23T11:52:57Z</time>
      </trkpt>
      <trkpt lat="45.08945" lon="2.81159">
        <ele>1229.63</ele>
        <time>2021-07-23T11:53:05Z</time>
      </trkpt>
      <trkpt lat="45.08937" lon="2.8115">
        <ele>1230.57</ele>
        <time>2021-07-23T11:53:12Z</time>
      </trkpt>
      <trkpt lat="45.08929" lon="2.81142">
        <ele>1232.92</ele>
        <time>2021-07-23T11:53:19Z</time>
      </trkpt>
      <trkpt lat="45.08923" lon="2.81133">
        <ele>1231.33</ele>
        <time>2021-07-23T11:53:27Z</time>
      </trkpt>
      <trkpt lat="45.08918" lon="2.81121">
        <ele>1235.44</ele>
        <time>2021-07-23T11:53:36Z</time>
      </trkpt>
      <trkpt lat="45.08912" lon="2.8111">
        <ele>1236.72</ele>
        <time>2021-07-23T11:53:44Z</time>
      </trkpt>
      <trkpt lat="45.08905" lon="2.81099">
        <ele>1236.31</ele>
        <time>2021-07-23T11:53:52Z</time>
      </trkpt>
      <trkpt lat="45.08898" lon="2.81089">
        <ele>1236.74</ele>
        <time>2021-07-23T11:53:59Z</time>
      </trkpt>
      <trkpt lat="45.08894" lon="2.81077">
        <ele>1236.71</ele>
        <time>2021-07-23T11:54:06Z</time>
      </trkpt>
      <trkpt lat="45.08886" lon="2.81069">
        <ele>1237.92</ele>
        <time>2021-07-23T11:54:12Z</time>
      </trkpt>
      <trkpt lat="45.08882" lon="2.81057">
        <ele>1238.51</ele>
        <time>2021-07-23T11:54:21Z</time>
      </trkpt>
      <trkpt lat="45.08875" lon="2.81048">
        <ele>1238.03</ele>
        <time>2021-07-23T11:54:28Z</time>
      </trkpt>
      <trkpt lat="45.08871" lon="2.81036">
        <ele>1238.38</ele>
        <time>2021-07-23T11:54:35Z</time>
      </trkpt>
      <trkpt lat="45.08869" lon="2.81022">
        <ele>1238.14</ele>
        <time>2021-07-23T11:54:43Z</time>
      </trkpt>
      <trkpt lat="45.08864" lon="2.81011">
        <ele>1239.88</ele>
        <time>2021-07-23T11:54:50Z</time>
      </trkpt>
      <trkpt lat="45.08861" lon="2.80998">
        <ele>1242.37</ele>
        <time>2021-07-23T11:54:57Z</time>
      </trkpt>
      <trkpt lat="45.08857" lon="2.80986">
        <ele>1245.35</ele>
        <time>2021-07-23T11:55:04Z</time>
      </trkpt>
      <trkpt lat="45.08852" lon="2.80975">
        <ele>1244.96</ele>
        <time>2021-07-23T11:55:11Z</time>
      </trkpt>
      <trkpt lat="45.08848" lon="2.80962">
        <ele>1247.5</ele>
        <time>2021-07-23T11:55:20Z</time>
      </trkpt>
      <trkpt lat="45.08846" lon="2.80948">
        <ele>1250.53</ele>
        <time>2021-07-23T11:55:29Z</time>
      </trkpt>
      <trkpt lat="45.08843" lon="2.80935">
        <ele>1250.9</ele>
        <time>2021-07-23T11:55:36Z</time>
      </trkpt>
      <trkpt lat="45.08839" lon="2.80922">
        <ele>1252.56</ele>
        <time>2021-07-23T11:55:43Z</time>
      </trkpt>
      <trkpt lat="45.08837" lon="2.80908">
        <ele>1252.2</ele>
        <time>2021-07-23T11:55:50Z</time>
      </trkpt>
      <trkpt lat="45.08837" lon="2.80895">
        <ele>1254.16</ele>
        <time>2021-07-23T11:55:58Z</time>
      </trkpt>
      <trkpt lat="45.08838" lon="2.80881">
        <ele>1253.95</ele>
        <time>2021-07-23T11:56:05Z</time>
      </trkpt>
      <trkpt lat="45.08843" lon="2.80868">
        <ele>1253.55</ele>
        <time>2021-07-23T11:56:13Z</time>
      </trkpt>
      <trkpt lat="45.0884" lon="2.80855">
        <ele>1254.29</ele>
        <time>2021-07-23T11:56:20Z</time>
      </trkpt>
      <trkpt lat="45.08838" lon="2.80842">
        <ele>1253.9</ele>
        <time>2021-07-23T11:56:26Z</time>
      </trkpt>
      <trkpt lat="45.08838" lon="2.80828">
        <ele>1257.85</ele>
        <time>2021-07-23T11:56:33Z</time>
      </trkpt>
      <trkpt lat="45.08839" lon="2.80814">
        <ele>1261.1</ele>
        <time>2021-07-23T11:56:40Z</time>
      </trkpt>
      <trkpt lat="45.08843" lon="2.80802">
        <ele>1262.87</ele>
        <time>2021-07-23T11:56:47Z</time>
      </trkpt>
      <trkpt lat="45.08848" lon="2.80791">
        <ele>1264.04</ele>
        <time>2021-07-23T11:56:54Z</time>
      </trkpt>
      <trkpt lat="45.08853" lon="2.80779">
        <ele>1263.45</ele>
        <time>2021-07-23T11:57:01Z</time>
      </trkpt>
      <trkpt lat="45.08857" lon="2.80768">
        <ele>1265.14</ele>
        <time>2021-07-23T11:57:08Z</time>
      </trkpt>
      <trkpt lat="45.08863" lon="2.80758">
        <ele>1265.39</ele>
        <time>2021-07-23T11:57:14Z</time>
      </trkpt>
      <trkpt lat="45.08869" lon="2.80748">
        <ele>1263.23</ele>
        <time>2021-07-23T11:57:20Z</time>
      </trkpt>
      <trkpt lat="45.08871" lon="2.80735">
        <ele>1263.35</ele>
        <time>2021-07-23T11:57:27Z</time>
      </trkpt>
      <trkpt lat="45.08872" lon="2.8072">
        <ele>1263.77</ele>
        <time>2021-07-23T11:57:34Z</time>
      </trkpt>
      <trkpt lat="45.08874" lon="2.80706">
        <ele>1265.05</ele>
        <time>2021-07-23T11:57:41Z</time>
      </trkpt>
      <trkpt lat="45.08877" lon="2.80693">
        <ele>1266.15</ele>
        <time>2021-07-23T11:57:48Z</time>
      </trkpt>
      <trkpt lat="45.08883" lon="2.80682">
        <ele>1267.58</ele>
        <time>2021-07-23T11:57:55Z</time>
      </trkpt>
      <trkpt lat="45.0889" lon="2.80671">
        <ele>1271.83</ele>
        <time>2021-07-23T11:58:02Z</time>
      </trkpt>
      <trkpt lat="45.08892" lon="2.80658">
        <ele>1273.91</ele>
        <time>2021-07-23T11:58:09Z</time>
      </trkpt>
      <trkpt lat="45.08893" lon="2.80644">
        <ele>1274.02</ele>
        <time>2021-07-23T11:58:16Z</time>
      </trkpt>
      <trkpt lat="45.08891" lon="2.8063">
        <ele>1273.85</ele>
        <time>2021-07-23T11:58:23Z</time>
      </trkpt>
      <trkpt lat="45.08892" lon="2.80616">
        <ele>1273.55</ele>
        <time>2021-07-23T11:58:31Z</time>
      </trkpt>
      <trkpt lat="45.08893" lon="2.80602">
        <ele>1275.76</ele>
        <time>2021-07-23T11:58:38Z</time>
      </trkpt>
      <trkpt lat="45.08894" lon="2.80589">
        <ele>1275.33</ele>
        <time>2021-07-23T11:58:45Z</time>
      </trkpt>
      <trkpt lat="45.08897" lon="2.80576">
        <ele>1276.8</ele>
        <time>2021-07-23T11:58:52Z</time>
      </trkpt>
      <trkpt lat="45.08899" lon="2.80562">
        <ele>1279.27</ele>
        <time>2021-07-23T11:59:00Z</time>
      </trkpt>
      <trkpt lat="45.08902" lon="2.80549">
        <ele>1282.86</ele>
        <time>2021-07-23T11:59:08Z</time>
      </trkpt>
      <trkpt lat="45.08902" lon="2.80535">
        <ele>1283.93</ele>
        <time>2021-07-23T11:59:17Z</time>
      </trkpt>
      <trkpt lat="45.08901" lon="2.80521">
        <ele>1280.96</ele>
        <time>2021-07-23T11:59:24Z</time>
      </trkpt>
      <trkpt lat="45.08897" lon="2.80507">
        <ele>1280.56</ele>
        <time>2021-07-23T11:59:31Z</time>
      </trkpt>
      <trkpt lat="45.08896" lon="2.80493">
        <ele>1283.64</ele>
        <time>2021-07-23T11:59:39Z</time>
      </trkpt>
      <trkpt lat="45.08894" lon="2.80479">
        <ele>1284.32</ele>
        <time>2021-07-23T11:59:48Z</time>
      </trkpt>
      <trkpt lat="45.08891" lon="2.80467">
        <ele>1285.48</ele>
        <time>2021-07-23T11:59:55Z</time>
      </trkpt>
      <trkpt lat="45.08886" lon="2.80455">
        <ele>1286.15</ele>
        <time>2021-07-23T12:00:02Z</time>
      </trkpt>
      <trkpt lat="45.08883" lon="2.80443">
        <ele>1288.16</ele>
        <time>2021-07-23T12:00:09Z</time>
      </trkpt>
      <trkpt lat="45.0888" lon="2.8043">
        <ele>1290.37</ele>
        <time>2021-07-23T12:00:16Z</time>
      </trkpt>
      <trkpt lat="45.08875" lon="2.80417">
        <ele>1291.17</ele>
        <time>2021-07-23T12:00:24Z</time>
      </trkpt>
      <trkpt lat="45.08871" lon="2.80405">
        <ele>1291.91</ele>
        <time>2021-07-23T12:00:30Z</time>
      </trkpt>
      <trkpt lat="45.08866" lon="2.80393">
        <ele>1293.4</ele>
        <time>2021-07-23T12:00:38Z</time>
      </trkpt>
      <trkpt lat="45.08861" lon="2.80382">
        <ele>1295.21</ele>
        <time>2021-07-23T12:00:45Z</time>
      </trkpt>
      <trkpt lat="45.08864" lon="2.80369">
        <ele>1300.08</ele>
        <time>2021-07-23T12:00:52Z</time>
      </trkpt>
      <trkpt lat="45.08863" lon="2.80355">
        <ele>1298.1</ele>
        <time>2021-07-23T12:00:59Z</time>
      </trkpt>
      <trkpt lat="45.08864" lon="2.80342">
        <ele>1296.78</ele>
        <time>2021-07-23T12:01:06Z</time>
      </trkpt>
      <trkpt lat="45.08865" lon="2.80328">
        <ele>1296.33</ele>
        <time>2021-07-23T12:01:15Z</time>
      </trkpt>
      <trkpt lat="45.08862" lon="2.80315">
        <ele>1297.06</ele>
        <time>2021-07-23T12:01:22Z</time>
      </trkpt>
      <trkpt lat="45.0886" lon="2.80303">
        <ele>1297.72</ele>
        <time>2021-07-23T12:01:29Z</time>
      </trkpt>
      <trkpt lat="45.08858" lon="2.8029">
        <ele>1299.49</ele>
        <time>2021-07-23T12:01:36Z</time>
      </trkpt>
      <trkpt lat="45.08853" lon="2.80278">
        <ele>1301.56</ele>
        <time>2021-07-23T12:01:43Z</time>
      </trkpt>
      <trkpt lat="45.08845" lon="2.80271">
        <ele>1301.43</ele>
        <time>2021-07-23T12:01:50Z</time>
      </trkpt>
      <trkpt lat="45.08836" lon="2.80275">
        <ele>1302.3</ele>
        <time>2021-07-23T12:01:56Z</time>
      </trkpt>
      <trkpt lat="45.08829" lon="2.80285">
        <ele>1305.22</ele>
        <time>2021-07-23T12:02:02Z</time>
      </trkpt>
      <trkpt lat="45.08822" lon="2.80296">
        <ele>1309.57</ele>
        <time>2021-07-23T12:02:07Z</time>
      </trkpt>
      <trkpt lat="45.08816" lon="2.80306">
        <ele>1311.58</ele>
        <time>2021-07-23T12:02:11Z</time>
      </trkpt>
      <trkpt lat="45.0881" lon="2.80316">
        <ele>1309.11</ele>
        <time>2021-07-23T12:02:15Z</time>
      </trkpt>
      <trkpt lat="45.08804" lon="2.80327">
        <ele>1308.79</ele>
        <time>2021-07-23T12:02:19Z</time>
      </trkpt>
      <trkpt lat="45.08799" lon="2.80338">
        <ele>1308.49</ele>
        <time>2021-07-23T12:02:23Z</time>
      </trkpt>
      <trkpt lat="45.08793" lon="2.80352">
        <ele>1308.48</ele>
        <time>2021-07-23T12:02:27Z</time>
      </trkpt>
      <trkpt lat="45.08788" lon="2.80366">
        <ele>1309.65</ele>
        <time>2021-07-23T12:02:31Z</time>
      </trkpt>
      <trkpt lat="45.08783" lon="2.80377">
        <ele>1309.78</ele>
        <time>2021-07-23T12:02:35Z</time>
      </trkpt>
      <trkpt lat="45.08778" lon="2.80388">
        <ele>1310.99</ele>
        <time>2021-07-23T12:02:39Z</time>
      </trkpt>
      <trkpt lat="45.08772" lon="2.80399">
        <ele>1313.71</ele>
        <time>2021-07-23T12:02:43Z</time>
      </trkpt>
      <trkpt lat="45.08764" lon="2.80408">
        <ele>1313.66</ele>
        <time>2021-07-23T12:02:47Z</time>
      </trkpt>
      <trkpt lat="45.08757" lon="2.8042">
        <ele>1313.38</ele>
        <time>2021-07-23T12:02:53Z</time>
      </trkpt>
      <trkpt lat="45.08751" lon="2.80432">
        <ele>1316.54</ele>
        <time>2021-07-23T12:02:59Z</time>
      </trkpt>
      <trkpt lat="45.08744" lon="2.80443">
        <ele>1317.46</ele>
        <time>2021-07-23T12:03:05Z</time>
      </trkpt>
      <trkpt lat="45.08741" lon="2.80456">
        <ele>1319.25</ele>
        <time>2021-07-23T12:03:11Z</time>
      </trkpt>
      <trkpt lat="45.08738" lon="2.80471">
        <ele>1319.35</ele>
        <time>2021-07-23T12:03:17Z</time>
      </trkpt>
      <trkpt lat="45.08734" lon="2.80484">
        <ele>1313.71</ele>
        <time>2021-07-23T12:03:23Z</time>
      </trkpt>
      <trkpt lat="45.08729" lon="2.80496">
        <ele>1312.49</ele>
        <time>2021-07-23T12:03:28Z</time>
      </trkpt>
      <trkpt lat="45.08725" lon="2.80507">
        <ele>1310.9</ele>
        <time>2021-07-23T12:03:33Z</time>
      </trkpt>
      <trkpt lat="45.08718" lon="2.80518">
        <ele>1313.31</ele>
        <time>2021-07-23T12:03:39Z</time>
      </trkpt>
      <trkpt lat="45.08713" lon="2.80531">
        <ele>1313.19</ele>
        <time>2021-07-23T12:03:45Z</time>
      </trkpt>
      <trkpt lat="45.0871" lon="2.80545">
        <ele>1315.2</ele>
        <time>2021-07-23T12:03:51Z</time>
      </trkpt>
      <trkpt lat="45.08705" lon="2.80557">
        <ele>1317.41</ele>
        <time>2021-07-23T12:03:58Z</time>
      </trkpt>
      <trkpt lat="45.08701" lon="2.80569">
        <ele>1316.46</ele>
        <time>2021-07-23T12:04:04Z</time>
      </trkpt>
      <trkpt lat="45.08696" lon="2.80579">
        <ele>1317.36</ele>
        <time>2021-07-23T12:04:10Z</time>
      </trkpt>
      <trkpt lat="45.0869" lon="2.8059">
        <ele>1319.19</ele>
        <time>2021-07-23T12:04:16Z</time>
      </trkpt>
      <trkpt lat="45.08685" lon="2.80601">
        <ele>1321.2</ele>
        <time>2021-07-23T12:04:23Z</time>
      </trkpt>
      <trkpt lat="45.08682" lon="2.80615">
        <ele>1323.05</ele>
        <time>2021-07-23T12:04:29Z</time>
      </trkpt>
      <trkpt lat="45.08676" lon="2.80625">
        <ele>1326.39</ele>
        <time>2021-07-23T12:04:36Z</time>
      </trkpt>
      <trkpt lat="45.08669" lon="2.80635">
        <ele>1326.35</ele>
        <time>2021-07-23T12:04:44Z</time>
      </trkpt>
      <trkpt lat="45.08665" lon="2.80648">
        <ele>1326.85</ele>
        <time>2021-07-23T12:04:52Z</time>
      </trkpt>
      <trkpt lat="45.0866" lon="2.8066">
        <ele>1329.47</ele>
        <time>2021-07-23T12:05:00Z</time>
      </trkpt>
      <trkpt lat="45.08656" lon="2.80674">
        <ele>1332.58</ele>
        <time>2021-07-23T12:05:07Z</time>
      </trkpt>
      <trkpt lat="45.08651" lon="2.80686">
        <ele>1335.46</ele>
        <time>2021-07-23T12:05:13Z</time>
      </trkpt>
      <trkpt lat="45.08644" lon="2.80695">
        <ele>1332.86</ele>
        <time>2021-07-23T12:05:20Z</time>
      </trkpt>
      <trkpt lat="45.08636" lon="2.80705">
        <ele>1335.47</ele>
        <time>2021-07-23T12:05:28Z</time>
      </trkpt>
      <trkpt lat="45.0863" lon="2.80715">
        <ele>1336.66</ele>
        <time>2021-07-23T12:05:34Z</time>
      </trkpt>
      <trkpt lat="45.08625" lon="2.80726">
        <ele>1337.39</ele>
        <time>2021-07-23T12:05:39Z</time>
      </trkpt>
      <trkpt lat="45.08621" lon="2.8074">
        <ele>1339.77</ele>
        <time>2021-07-23T12:05:44Z</time>
      </trkpt>
      <trkpt lat="45.08617" lon="2.80756">
        <ele>1340.35</ele>
        <time>2021-07-23T12:05:49Z</time>
      </trkpt>
      <trkpt lat="45.08615" lon="2.8077">
        <ele>1340.37</ele>
        <time>2021-07-23T12:05:53Z</time>
      </trkpt>
      <trkpt lat="45.08613" lon="2.80782">
        <ele>1340.12</ele>
        <time>2021-07-23T12:05:56Z</time>
      </trkpt>
      <trkpt lat="45.08611" lon="2.80798">
        <ele>1339.41</ele>
        <time>2021-07-23T12:05:59Z</time>
      </trkpt>
      <trkpt lat="45.08608" lon="2.8081">
        <ele>1338.1</ele>
        <time>2021-07-23T12:06:02Z</time>
      </trkpt>
      <trkpt lat="45.08606" lon="2.80825">
        <ele>1336.68</ele>
        <time>2021-07-23T12:06:05Z</time>
      </trkpt>
      <trkpt lat="45.08603" lon="2.80842">
        <ele>1336.17</ele>
        <time>2021-07-23T12:06:08Z</time>
      </trkpt>
      <trkpt lat="45.08601" lon="2.80859">
        <ele>1336.41</ele>
        <time>2021-07-23T12:06:11Z</time>
      </trkpt>
      <trkpt lat="45.08601" lon="2.80877">
        <ele>1336.85</ele>
        <time>2021-07-23T12:06:14Z</time>
      </trkpt>
      <trkpt lat="45.08603" lon="2.80897">
        <ele>1337.92</ele>
        <time>2021-07-23T12:06:17Z</time>
      </trkpt>
      <trkpt lat="45.08608" lon="2.80915">
        <ele>1338.82</ele>
        <time>2021-07-23T12:06:19Z</time>
      </trkpt>
      <trkpt lat="45.08606" lon="2.80929">
        <ele>1337.9</ele>
        <time>2021-07-23T12:06:21Z</time>
      </trkpt>
      <trkpt lat="45.08609" lon="2.8095">
        <ele>1337.1</ele>
        <time>2021-07-23T12:06:23Z</time>
      </trkpt>
      <trkpt lat="45.08613" lon="2.80969">
        <ele>1337.23</ele>
        <time>2021-07-23T12:06:25Z</time>
      </trkpt>
      <trkpt lat="45.08614" lon="2.80985">
        <ele>1336.16</ele>
        <time>2021-07-23T12:06:27Z</time>
      </trkpt>
      <trkpt lat="45.08613" lon="2.81001">
        <ele>1333.8</ele>
        <time>2021-07-23T12:06:29Z</time>
      </trkpt>
      <trkpt lat="45.08614" lon="2.81015">
        <ele>1331.88</ele>
        <time>2021-07-23T12:06:30Z</time>
      </trkpt>
      <trkpt lat="45.08615" lon="2.81028">
        <ele>1329.49</ele>
        <time>2021-07-23T12:06:31Z</time>
      </trkpt>
      <trkpt lat="45.08618" lon="2.81051">
        <ele>1327.91</ele>
        <time>2021-07-23T12:06:33Z</time>
      </trkpt>
      <trkpt lat="45.08616" lon="2.81073">
        <ele>1326.63</ele>
        <time>2021-07-23T12:06:35Z</time>
      </trkpt>
      <trkpt lat="45.08613" lon="2.81095">
        <ele>1324.93</ele>
        <time>2021-07-23T12:06:37Z</time>
      </trkpt>
      <trkpt lat="45.0861" lon="2.81118">
        <ele>1323.6</ele>
        <time>2021-07-23T12:06:39Z</time>
      </trkpt>
      <trkpt lat="45.08604" lon="2.81138">
        <ele>1324.75</ele>
        <time>2021-07-23T12:06:41Z</time>
      </trkpt>
      <trkpt lat="45.08596" lon="2.81154">
        <ele>1324.67</ele>
        <time>2021-07-23T12:06:43Z</time>
      </trkpt>
      <trkpt lat="45.08588" lon="2.81167">
        <ele>1325.25</ele>
        <time>2021-07-23T12:06:45Z</time>
      </trkpt>
      <trkpt lat="45.08582" lon="2.81179">
        <ele>1325.45</ele>
        <time>2021-07-23T12:06:47Z</time>
      </trkpt>
      <trkpt lat="45.08577" lon="2.81189">
        <ele>1325.68</ele>
        <time>2021-07-23T12:06:49Z</time>
      </trkpt>
      <trkpt lat="45.0857" lon="2.81204">
        <ele>1326.89</ele>
        <time>2021-07-23T12:06:52Z</time>
      </trkpt>
      <trkpt lat="45.08563" lon="2.81219">
        <ele>1326.57</ele>
        <time>2021-07-23T12:06:55Z</time>
      </trkpt>
      <trkpt lat="45.0856" lon="2.81231">
        <ele>1327.76</ele>
        <time>2021-07-23T12:06:57Z</time>
      </trkpt>
      <trkpt lat="45.08559" lon="2.81249">
        <ele>1328.65</ele>
        <time>2021-07-23T12:07:00Z</time>
      </trkpt>
      <trkpt lat="45.08559" lon="2.81265">
        <ele>1325.25</ele>
        <time>2021-07-23T12:07:03Z</time>
      </trkpt>
      <trkpt lat="45.08555" lon="2.81279">
        <ele>1326.45</ele>
        <time>2021-07-23T12:07:06Z</time>
      </trkpt>
      <trkpt lat="45.08551" lon="2.81294">
        <ele>1326.9</ele>
        <time>2021-07-23T12:07:09Z</time>
      </trkpt>
      <trkpt lat="45.08546" lon="2.81307">
        <ele>1324.82</ele>
        <time>2021-07-23T12:07:12Z</time>
      </trkpt>
      <trkpt lat="45.08541" lon="2.81321">
        <ele>1325.7</ele>
        <time>2021-07-23T12:07:16Z</time>
      </trkpt>
      <trkpt lat="45.08536" lon="2.81336">
        <ele>1328.25</ele>
        <time>2021-07-23T12:07:20Z</time>
      </trkpt>
      <trkpt lat="45.08531" lon="2.81348">
        <ele>1327.9</ele>
        <time>2021-07-23T12:07:24Z</time>
      </trkpt>
      <trkpt lat="45.08528" lon="2.81362">
        <ele>1330.32</ele>
        <time>2021-07-23T12:07:28Z</time>
      </trkpt>
      <trkpt lat="45.08524" lon="2.81374">
        <ele>1328.92</ele>
        <time>2021-07-23T12:07:32Z</time>
      </trkpt>
      <trkpt lat="45.0852" lon="2.81386">
        <ele>1327.59</ele>
        <time>2021-07-23T12:07:37Z</time>
      </trkpt>
      <trkpt lat="45.08513" lon="2.81398">
        <ele>1327.42</ele>
        <time>2021-07-23T12:08:55Z</time>
      </trkpt>
      <trkpt lat="45.08509" lon="2.81409">
        <ele>1326.82</ele>
        <time>2021-07-23T12:08:59Z</time>
      </trkpt>
      <trkpt lat="45.08502" lon="2.81419">
        <ele>1328.52</ele>
        <time>2021-07-23T12:09:03Z</time>
      </trkpt>
      <trkpt lat="45.08494" lon="2.8143">
        <ele>1331.25</ele>
        <time>2021-07-23T12:09:07Z</time>
      </trkpt>
      <trkpt lat="45.08485" lon="2.81438">
        <ele>1330.84</ele>
        <time>2021-07-23T12:09:11Z</time>
      </trkpt>
      <trkpt lat="45.08476" lon="2.8144">
        <ele>1331.15</ele>
        <time>2021-07-23T12:09:15Z</time>
      </trkpt>
      <trkpt lat="45.08467" lon="2.81442">
        <ele>1330.3</ele>
        <time>2021-07-23T12:09:19Z</time>
      </trkpt>
      <trkpt lat="45.08458" lon="2.81446">
        <ele>1330.01</ele>
        <time>2021-07-23T12:09:23Z</time>
      </trkpt>
      <trkpt lat="45.0845" lon="2.81453">
        <ele>1329.94</ele>
        <time>2021-07-23T12:09:27Z</time>
      </trkpt>
      <trkpt lat="45.08443" lon="2.81464">
        <ele>1329.26</ele>
        <time>2021-07-23T12:09:31Z</time>
      </trkpt>
      <trkpt lat="45.08436" lon="2.81472">
        <ele>1329.25</ele>
        <time>2021-07-23T12:09:35Z</time>
      </trkpt>
      <trkpt lat="45.08426" lon="2.81474">
        <ele>1330.08</ele>
        <time>2021-07-23T12:09:40Z</time>
      </trkpt>
      <trkpt lat="45.08417" lon="2.81468">
        <ele>1325.17</ele>
        <time>2021-07-23T12:10:40Z</time>
      </trkpt>
      <trkpt lat="45.08408" lon="2.8147">
        <ele>1327.26</ele>
        <time>2021-07-23T12:10:47Z</time>
      </trkpt>
      <trkpt lat="45.08399" lon="2.81471">
        <ele>1329.84</ele>
        <time>2021-07-23T12:10:57Z</time>
      </trkpt>
      <trkpt lat="45.08408" lon="2.81474">
        <ele>1332.18</ele>
        <time>2021-07-23T12:11:20Z</time>
      </trkpt>
      <trkpt lat="45.08417" lon="2.8147">
        <ele>1327.38</ele>
        <time>2021-07-23T12:11:33Z</time>
      </trkpt>
      <trkpt lat="45.08426" lon="2.81467">
        <ele>1325.49</ele>
        <time>2021-07-23T13:09:58Z</time>
      </trkpt>
      <trkpt lat="45.08436" lon="2.81467">
        <ele>1324.89</ele>
        <time>2021-07-23T13:10:10Z</time>
      </trkpt>
      <trkpt lat="45.08443" lon="2.81459">
        <ele>1325.65</ele>
        <time>2021-07-23T13:10:22Z</time>
      </trkpt>
      <trkpt lat="45.08451" lon="2.81451">
        <ele>1325.99</ele>
        <time>2021-07-23T13:10:29Z</time>
      </trkpt>
      <trkpt lat="45.08459" lon="2.81441">
        <ele>1324.16</ele>
        <time>2021-07-23T13:10:37Z</time>
      </trkpt>
      <trkpt lat="45.0846" lon="2.81428">
        <ele>1324.55</ele>
        <time>2021-07-23T13:10:46Z</time>
      </trkpt>
      <trkpt lat="45.08458" lon="2.81415">
        <ele>1326.79</ele>
        <time>2021-07-23T13:10:54Z</time>
      </trkpt>
      <trkpt lat="45.08465" lon="2.81408">
        <ele>1326.73</ele>
        <time>2021-07-23T13:11:01Z</time>
      </trkpt>
      <trkpt lat="45.0847" lon="2.81397">
        <ele>1325.99</ele>
        <time>2021-07-23T13:11:07Z</time>
      </trkpt>
      <trkpt lat="45.08468" lon="2.81383">
        <ele>1326.76</ele>
        <time>2021-07-23T13:11:16Z</time>
      </trkpt>
      <trkpt lat="45.08466" lon="2.8137">
        <ele>1331.56</ele>
        <time>2021-07-23T13:11:25Z</time>
      </trkpt>
      <trkpt lat="45.08463" lon="2.81356">
        <ele>1328.46</ele>
        <time>2021-07-23T13:11:34Z</time>
      </trkpt>
      <trkpt lat="45.0846" lon="2.81344">
        <ele>1329.61</ele>
        <time>2021-07-23T13:11:42Z</time>
      </trkpt>
      <trkpt lat="45.08458" lon="2.81331">
        <ele>1324.47</ele>
        <time>2021-07-23T13:11:54Z</time>
      </trkpt>
      <trkpt lat="45.08454" lon="2.81319">
        <ele>1326.75</ele>
        <time>2021-07-23T13:12:03Z</time>
      </trkpt>
      <trkpt lat="45.08449" lon="2.81308">
        <ele>1333.48</ele>
        <time>2021-07-23T13:12:12Z</time>
      </trkpt>
      <trkpt lat="45.08444" lon="2.81297">
        <ele>1333.04</ele>
        <time>2021-07-23T13:12:23Z</time>
      </trkpt>
      <trkpt lat="45.08436" lon="2.81288">
        <ele>1336.38</ele>
        <time>2021-07-23T13:12:32Z</time>
      </trkpt>
      <trkpt lat="45.08433" lon="2.81275">
        <ele>1338.4</ele>
        <time>2021-07-23T13:12:42Z</time>
      </trkpt>
      <trkpt lat="45.08428" lon="2.81264">
        <ele>1340.3</ele>
        <time>2021-07-23T13:12:51Z</time>
      </trkpt>
      <trkpt lat="45.08424" lon="2.81251">
        <ele>1338.82</ele>
        <time>2021-07-23T13:12:59Z</time>
      </trkpt>
      <trkpt lat="45.08419" lon="2.81239">
        <ele>1338.87</ele>
        <time>2021-07-23T13:13:06Z</time>
      </trkpt>
      <trkpt lat="45.08414" lon="2.81229">
        <ele>1336.44</ele>
        <time>2021-07-23T13:13:12Z</time>
      </trkpt>
      <trkpt lat="45.08408" lon="2.81218">
        <ele>1336.9</ele>
        <time>2021-07-23T13:13:19Z</time>
      </trkpt>
      <trkpt lat="45.08402" lon="2.81208">
        <ele>1339.31</ele>
        <time>2021-07-23T13:13:25Z</time>
      </trkpt>
      <trkpt lat="45.08398" lon="2.81197">
        <ele>1340.88</ele>
        <time>2021-07-23T13:13:31Z</time>
      </trkpt>
      <trkpt lat="45.08395" lon="2.81182">
        <ele>1342.85</ele>
        <time>2021-07-23T13:13:38Z</time>
      </trkpt>
      <trkpt lat="45.08392" lon="2.81169">
        <ele>1342.48</ele>
        <time>2021-07-23T13:13:45Z</time>
      </trkpt>
      <trkpt lat="45.08389" lon="2.81155">
        <ele>1340.61</ele>
        <time>2021-07-23T13:13:53Z</time>
      </trkpt>
      <trkpt lat="45.08387" lon="2.81141">
        <ele>1339.16</ele>
        <time>2021-07-23T13:14:00Z</time>
      </trkpt>
      <trkpt lat="45.08383" lon="2.81129">
        <ele>1341.42</ele>
        <time>2021-07-23T13:14:09Z</time>
      </trkpt>
      <trkpt lat="45.08383" lon="2.81115">
        <ele>1343.97</ele>
        <time>2021-07-23T13:14:17Z</time>
      </trkpt>
      <trkpt lat="45.08379" lon="2.81103">
        <ele>1344.57</ele>
        <time>2021-07-23T13:14:23Z</time>
      </trkpt>
      <trkpt lat="45.08373" lon="2.81093">
        <ele>1344.98</ele>
        <time>2021-07-23T13:14:29Z</time>
      </trkpt>
      <trkpt lat="45.08368" lon="2.81082">
        <ele>1346.15</ele>
        <time>2021-07-23T13:14:35Z</time>
      </trkpt>
      <trkpt lat="45.08364" lon="2.81069">
        <ele>1347.41</ele>
        <time>2021-07-23T13:14:41Z</time>
      </trkpt>
      <trkpt lat="45.08358" lon="2.81058">
        <ele>1349.49</ele>
        <time>2021-07-23T13:14:47Z</time>
      </trkpt>
      <trkpt lat="45.08352" lon="2.81047">
        <ele>1349.26</ele>
        <time>2021-07-23T13:14:52Z</time>
      </trkpt>
      <trkpt lat="45.08344" lon="2.81039">
        <ele>1349.37</ele>
        <time>2021-07-23T13:14:57Z</time>
      </trkpt>
      <trkpt lat="45.08339" lon="2.81027">
        <ele>1349.47</ele>
        <time>2021-07-23T13:15:01Z</time>
      </trkpt>
      <trkpt lat="45.08333" lon="2.81016">
        <ele>1347.95</ele>
        <time>2021-07-23T13:15:05Z</time>
      </trkpt>
      <trkpt lat="45.08328" lon="2.81005">
        <ele>1346.59</ele>
        <time>2021-07-23T13:15:09Z</time>
      </trkpt>
      <trkpt lat="45.08322" lon="2.80994">
        <ele>1349.35</ele>
        <time>2021-07-23T13:15:13Z</time>
      </trkpt>
      <trkpt lat="45.08317" lon="2.80983">
        <ele>1350.19</ele>
        <time>2021-07-23T13:15:17Z</time>
      </trkpt>
      <trkpt lat="45.08313" lon="2.80972">
        <ele>1350.35</ele>
        <time>2021-07-23T13:15:21Z</time>
      </trkpt>
      <trkpt lat="45.08306" lon="2.80961">
        <ele>1350.5</ele>
        <time>2021-07-23T13:15:25Z</time>
      </trkpt>
      <trkpt lat="45.083" lon="2.80951">
        <ele>1350.04</ele>
        <time>2021-07-23T13:15:28Z</time>
      </trkpt>
      <trkpt lat="45.08293" lon="2.80939">
        <ele>1350.24</ele>
        <time>2021-07-23T13:15:31Z</time>
      </trkpt>
      <trkpt lat="45.08286" lon="2.80926">
        <ele>1349.37</ele>
        <time>2021-07-23T13:15:35Z</time>
      </trkpt>
      <trkpt lat="45.08278" lon="2.80915">
        <ele>1348.99</ele>
        <time>2021-07-23T13:15:39Z</time>
      </trkpt>
      <trkpt lat="45.08271" lon="2.80903">
        <ele>1349.19</ele>
        <time>2021-07-23T13:15:44Z</time>
      </trkpt>
      <trkpt lat="45.08264" lon="2.80891">
        <ele>1348.01</ele>
        <time>2021-07-23T13:15:48Z</time>
      </trkpt>
      <trkpt lat="45.08259" lon="2.80878">
        <ele>1348.32</ele>
        <time>2021-07-23T13:15:52Z</time>
      </trkpt>
      <trkpt lat="45.08252" lon="2.80866">
        <ele>1348.86</ele>
        <time>2021-07-23T13:15:56Z</time>
      </trkpt>
      <trkpt lat="45.08247" lon="2.80854">
        <ele>1345.81</ele>
        <time>2021-07-23T13:16:00Z</time>
      </trkpt>
      <trkpt lat="45.08243" lon="2.80841">
        <ele>1344.91</ele>
        <time>2021-07-23T13:16:04Z</time>
      </trkpt>
      <trkpt lat="45.0824" lon="2.80825">
        <ele>1344.04</ele>
        <time>2021-07-23T13:16:09Z</time>
      </trkpt>
      <trkpt lat="45.08235" lon="2.80811">
        <ele>1343.81</ele>
        <time>2021-07-23T13:16:14Z</time>
      </trkpt>
      <trkpt lat="45.08229" lon="2.80799">
        <ele>1345.11</ele>
        <time>2021-07-23T13:16:18Z</time>
      </trkpt>
      <trkpt lat="45.08223" lon="2.80787">
        <ele>1346.29</ele>
        <time>2021-07-23T13:16:22Z</time>
      </trkpt>
      <trkpt lat="45.08215" lon="2.80778">
        <ele>1345.88</ele>
        <time>2021-07-23T13:16:26Z</time>
      </trkpt>
      <trkpt lat="45.08206" lon="2.8077">
        <ele>1345.12</ele>
        <time>2021-07-23T13:16:29Z</time>
      </trkpt>
      <trkpt lat="45.08196" lon="2.80762">
        <ele>1344.19</ele>
        <time>2021-07-23T13:16:32Z</time>
      </trkpt>
      <trkpt lat="45.08188" lon="2.80754">
        <ele>1342.68</ele>
        <time>2021-07-23T13:16:34Z</time>
      </trkpt>
      <trkpt lat="45.08179" lon="2.80748">
        <ele>1342.3</ele>
        <time>2021-07-23T13:16:36Z</time>
      </trkpt>
      <trkpt lat="45.08171" lon="2.80739">
        <ele>1343.84</ele>
        <time>2021-07-23T13:16:38Z</time>
      </trkpt>
      <trkpt lat="45.08159" lon="2.80731">
        <ele>1345.96</ele>
        <time>2021-07-23T13:16:40Z</time>
      </trkpt>
      <trkpt lat="45.08149" lon="2.8072">
        <ele>1346.38</ele>
        <time>2021-07-23T13:16:42Z</time>
      </trkpt>
      <trkpt lat="45.08141" lon="2.80706">
        <ele>1347.9</ele>
        <time>2021-07-23T13:16:44Z</time>
      </trkpt>
      <trkpt lat="45.08133" lon="2.80694">
        <ele>1349.01</ele>
        <time>2021-07-23T13:16:46Z</time>
      </trkpt>
      <trkpt lat="45.08127" lon="2.80681">
        <ele>1349.51</ele>
        <time>2021-07-23T13:16:48Z</time>
      </trkpt>
      <trkpt lat="45.08122" lon="2.80663">
        <ele>1350.98</ele>
        <time>2021-07-23T13:16:51Z</time>
      </trkpt>
      <trkpt lat="45.0812" lon="2.80651">
        <ele>1351.16</ele>
        <time>2021-07-23T13:16:54Z</time>
      </trkpt>
      <trkpt lat="45.0812" lon="2.80636">
        <ele>1354.72</ele>
        <time>2021-07-23T13:16:58Z</time>
      </trkpt>
      <trkpt lat="45.08118" lon="2.80621">
        <ele>1354.45</ele>
        <time>2021-07-23T13:17:03Z</time>
      </trkpt>
      <trkpt lat="45.08115" lon="2.80607">
        <ele>1354.65</ele>
        <time>2021-07-23T13:17:10Z</time>
      </trkpt>
      <trkpt lat="45.08116" lon="2.80593">
        <ele>1350.6</ele>
        <time>2021-07-23T13:17:16Z</time>
      </trkpt>
      <trkpt lat="45.08114" lon="2.80579">
        <ele>1352.36</ele>
        <time>2021-07-23T13:17:23Z</time>
      </trkpt>
      <trkpt lat="45.08112" lon="2.80566">
        <ele>1356.14</ele>
        <time>2021-07-23T13:17:30Z</time>
      </trkpt>
      <trkpt lat="45.0811" lon="2.80553">
        <ele>1354.44</ele>
        <time>2021-07-23T13:17:39Z</time>
      </trkpt>
      <trkpt lat="45.08111" lon="2.80539">
        <ele>1359.91</ele>
        <time>2021-07-23T13:17:49Z</time>
      </trkpt>
      <trkpt lat="45.08109" lon="2.80526">
        <ele>1361.16</ele>
        <time>2021-07-23T13:17:59Z</time>
      </trkpt>
      <trkpt lat="45.08109" lon="2.80513">
        <ele>1365.53</ele>
        <time>2021-07-23T13:18:06Z</time>
      </trkpt>
      <trkpt lat="45.08109" lon="2.805">
        <ele>1369.49</ele>
        <time>2021-07-23T13:18:15Z</time>
      </trkpt>
      <trkpt lat="45.08108" lon="2.80487">
        <ele>1370.52</ele>
        <time>2021-07-23T13:18:23Z</time>
      </trkpt>
      <trkpt lat="45.08107" lon="2.80473">
        <ele>1374.71</ele>
        <time>2021-07-23T13:18:30Z</time>
      </trkpt>
      <trkpt lat="45.08105" lon="2.80458">
        <ele>1376.18</ele>
        <time>2021-07-23T13:18:36Z</time>
      </trkpt>
      <trkpt lat="45.08103" lon="2.80445">
        <ele>1377.08</ele>
        <time>2021-07-23T13:18:42Z</time>
      </trkpt>
      <trkpt lat="45.081" lon="2.80432">
        <ele>1376.92</ele>
        <time>2021-07-23T13:18:48Z</time>
      </trkpt>
      <trkpt lat="45.08098" lon="2.80419">
        <ele>1377.43</ele>
        <time>2021-07-23T13:18:53Z</time>
      </trkpt>
      <trkpt lat="45.08096" lon="2.80405">
        <ele>1375.49</ele>
        <time>2021-07-23T13:18:58Z</time>
      </trkpt>
      <trkpt lat="45.08093" lon="2.80389">
        <ele>1376.28</ele>
        <time>2021-07-23T13:19:03Z</time>
      </trkpt>
      <trkpt lat="45.08089" lon="2.80373">
        <ele>1377.07</ele>
        <time>2021-07-23T13:19:07Z</time>
      </trkpt>
      <trkpt lat="45.08086" lon="2.80358">
        <ele>1378.24</ele>
        <time>2021-07-23T13:19:11Z</time>
      </trkpt>
      <trkpt lat="45.08081" lon="2.80344">
        <ele>1378.35</ele>
        <time>2021-07-23T13:19:15Z</time>
      </trkpt>
      <trkpt lat="45.08076" lon="2.80333">
        <ele>1376.5</ele>
        <time>2021-07-23T13:19:18Z</time>
      </trkpt>
      <trkpt lat="45.08066" lon="2.80324">
        <ele>1375.09</ele>
        <time>2021-07-23T13:19:22Z</time>
      </trkpt>
      <trkpt lat="45.08055" lon="2.80319">
        <ele>1373.66</ele>
        <time>2021-07-23T13:19:26Z</time>
      </trkpt>
      <trkpt lat="45.08044" lon="2.80315">
        <ele>1373.53</ele>
        <time>2021-07-23T13:19:30Z</time>
      </trkpt>
      <trkpt lat="45.08033" lon="2.80312">
        <ele>1374.78</ele>
        <time>2021-07-23T13:19:34Z</time>
      </trkpt>
      <trkpt lat="45.08025" lon="2.80308">
        <ele>1374.64</ele>
        <time>2021-07-23T13:19:37Z</time>
      </trkpt>
      <trkpt lat="45.08015" lon="2.80302">
        <ele>1374.9</ele>
        <time>2021-07-23T13:19:41Z</time>
      </trkpt>
      <trkpt lat="45.08006" lon="2.80297">
        <ele>1375.22</ele>
        <time>2021-07-23T13:19:45Z</time>
      </trkpt>
      <trkpt lat="45.07999" lon="2.80289">
        <ele>1373.08</ele>
        <time>2021-07-23T13:22:22Z</time>
      </trkpt>
      <trkpt lat="45.07988" lon="2.80281">
        <ele>1373.05</ele>
        <time>2021-07-23T13:22:27Z</time>
      </trkpt>
      <trkpt lat="45.0798" lon="2.80272">
        <ele>1371.72</ele>
        <time>2021-07-23T13:22:30Z</time>
      </trkpt>
      <trkpt lat="45.07971" lon="2.80259">
        <ele>1369.57</ele>
        <time>2021-07-23T13:22:33Z</time>
      </trkpt>
      <trkpt lat="45.07964" lon="2.80249">
        <ele>1368.42</ele>
        <time>2021-07-23T13:22:35Z</time>
      </trkpt>
      <trkpt lat="45.07957" lon="2.80239">
        <ele>1367.68</ele>
        <time>2021-07-23T13:22:37Z</time>
      </trkpt>
      <trkpt lat="45.0795" lon="2.80227">
        <ele>1366.95</ele>
        <time>2021-07-23T13:22:39Z</time>
      </trkpt>
      <trkpt lat="45.07942" lon="2.80216">
        <ele>1366.12</ele>
        <time>2021-07-23T13:22:41Z</time>
      </trkpt>
      <trkpt lat="45.07934" lon="2.80206">
        <ele>1363.5</ele>
        <time>2021-07-23T13:22:43Z</time>
      </trkpt>
      <trkpt lat="45.07926" lon="2.80196">
        <ele>1363.15</ele>
        <time>2021-07-23T13:22:45Z</time>
      </trkpt>
      <trkpt lat="45.07918" lon="2.80183">
        <ele>1361.53</ele>
        <time>2021-07-23T13:22:48Z</time>
      </trkpt>
      <trkpt lat="45.07908" lon="2.80172">
        <ele>1361.68</ele>
        <time>2021-07-23T13:22:51Z</time>
      </trkpt>
      <trkpt lat="45.07899" lon="2.80163">
        <ele>1361.21</ele>
        <time>2021-07-23T13:22:54Z</time>
      </trkpt>
      <trkpt lat="45.07888" lon="2.80155">
        <ele>1359.52</ele>
        <time>2021-07-23T13:22:56Z</time>
      </trkpt>
      <trkpt lat="45.07878" lon="2.80141">
        <ele>1355.79</ele>
        <time>2021-07-23T13:22:59Z</time>
      </trkpt>
      <trkpt lat="45.07873" lon="2.8013">
        <ele>1355.77</ele>
        <time>2021-07-23T13:23:01Z</time>
      </trkpt>
      <trkpt lat="45.07868" lon="2.80116">
        <ele>1355.09</ele>
        <time>2021-07-23T13:23:03Z</time>
      </trkpt>
      <trkpt lat="45.07862" lon="2.80106">
        <ele>1356.45</ele>
        <time>2021-07-23T13:23:05Z</time>
      </trkpt>
      <trkpt lat="45.07858" lon="2.80092">
        <ele>1356.22</ele>
        <time>2021-07-23T13:23:07Z</time>
      </trkpt>
      <trkpt lat="45.07854" lon="2.8008">
        <ele>1354.45</ele>
        <time>2021-07-23T13:23:09Z</time>
      </trkpt>
      <trkpt lat="45.07849" lon="2.80067">
        <ele>1353.1</ele>
        <time>2021-07-23T13:23:11Z</time>
      </trkpt>
      <trkpt lat="45.07844" lon="2.80053">
        <ele>1352.72</ele>
        <time>2021-07-23T13:23:13Z</time>
      </trkpt>
      <trkpt lat="45.0784" lon="2.80036">
        <ele>1351.15</ele>
        <time>2021-07-23T13:23:15Z</time>
      </trkpt>
      <trkpt lat="45.07834" lon="2.80021">
        <ele>1350.22</ele>
        <time>2021-07-23T13:23:17Z</time>
      </trkpt>
      <trkpt lat="45.07826" lon="2.80004">
        <ele>1350.68</ele>
        <time>2021-07-23T13:23:19Z</time>
      </trkpt>
      <trkpt lat="45.07817" lon="2.79985">
        <ele>1351.17</ele>
        <time>2021-07-23T13:23:21Z</time>
      </trkpt>
      <trkpt lat="45.07806" lon="2.7997">
        <ele>1355.72</ele>
        <time>2021-07-23T13:23:23Z</time>
      </trkpt>
      <trkpt lat="45.07797" lon="2.79953">
        <ele>1359.52</ele>
        <time>2021-07-23T13:23:25Z</time>
      </trkpt>
      <trkpt lat="45.07787" lon="2.79935">
        <ele>1358.72</ele>
        <time>2021-07-23T13:23:27Z</time>
      </trkpt>
      <trkpt lat="45.0778" lon="2.79917">
        <ele>1357.21</ele>
        <time>2021-07-23T13:23:29Z</time>
      </trkpt>
      <trkpt lat="45.07775" lon="2.799">
        <ele>1357.8</ele>
        <time>2021-07-23T13:23:31Z</time>
      </trkpt>
      <trkpt lat="45.07771" lon="2.79882">
        <ele>1356.68</ele>
        <time>2021-07-23T13:23:33Z</time>
      </trkpt>
      <trkpt lat="45.07769" lon="2.79867">
        <ele>1356.26</ele>
        <time>2021-07-23T13:23:35Z</time>
      </trkpt>
      <trkpt lat="45.07766" lon="2.79852">
        <ele>1357.19</ele>
        <time>2021-07-23T13:23:37Z</time>
      </trkpt>
      <trkpt lat="45.07764" lon="2.79838">
        <ele>1358.14</ele>
        <time>2021-07-23T13:23:39Z</time>
      </trkpt>
      <trkpt lat="45.07762" lon="2.79824">
        <ele>1359</ele>
        <time>2021-07-23T13:23:41Z</time>
      </trkpt>
      <trkpt lat="45.07761" lon="2.79811">
        <ele>1360.87</ele>
        <time>2021-07-23T13:23:43Z</time>
      </trkpt>
      <trkpt lat="45.07762" lon="2.79796">
        <ele>1361.19</ele>
        <time>2021-07-23T13:23:45Z</time>
      </trkpt>
      <trkpt lat="45.07763" lon="2.79783">
        <ele>1361.56</ele>
        <time>2021-07-23T13:23:47Z</time>
      </trkpt>
      <trkpt lat="45.07765" lon="2.79767">
        <ele>1361.59</ele>
        <time>2021-07-23T13:23:50Z</time>
      </trkpt>
      <trkpt lat="45.07767" lon="2.79753">
        <ele>1363.31</ele>
        <time>2021-07-23T13:23:55Z</time>
      </trkpt>
      <trkpt lat="45.0777" lon="2.7974">
        <ele>1363.5</ele>
        <time>2021-07-23T13:23:58Z</time>
      </trkpt>
      <trkpt lat="45.07772" lon="2.79724">
        <ele>1364.82</ele>
        <time>2021-07-23T13:24:02Z</time>
      </trkpt>
      <trkpt lat="45.07773" lon="2.79711">
        <ele>1365.42</ele>
        <time>2021-07-23T13:24:06Z</time>
      </trkpt>
      <trkpt lat="45.07776" lon="2.79696">
        <ele>1366.85</ele>
        <time>2021-07-23T13:24:11Z</time>
      </trkpt>
      <trkpt lat="45.07776" lon="2.79682">
        <ele>1369.13</ele>
        <time>2021-07-23T13:24:17Z</time>
      </trkpt>
      <trkpt lat="45.07778" lon="2.79669">
        <ele>1369.25</ele>
        <time>2021-07-23T13:24:22Z</time>
      </trkpt>
      <trkpt lat="45.07779" lon="2.79656">
        <ele>1370.34</ele>
        <time>2021-07-23T13:24:27Z</time>
      </trkpt>
      <trkpt lat="45.0778" lon="2.79643">
        <ele>1371.37</ele>
        <time>2021-07-23T13:24:32Z</time>
      </trkpt>
      <trkpt lat="45.07782" lon="2.7963">
        <ele>1372.24</ele>
        <time>2021-07-23T13:24:37Z</time>
      </trkpt>
      <trkpt lat="45.07784" lon="2.79617">
        <ele>1374.96</ele>
        <time>2021-07-23T13:24:43Z</time>
      </trkpt>
      <trkpt lat="45.07786" lon="2.79603">
        <ele>1377.37</ele>
        <time>2021-07-23T13:24:49Z</time>
      </trkpt>
      <trkpt lat="45.07787" lon="2.79589">
        <ele>1376.24</ele>
        <time>2021-07-23T13:24:55Z</time>
      </trkpt>
      <trkpt lat="45.07789" lon="2.79575">
        <ele>1377.38</ele>
        <time>2021-07-23T13:25:01Z</time>
      </trkpt>
      <trkpt lat="45.0779" lon="2.79561">
        <ele>1378.28</ele>
        <time>2021-07-23T13:25:08Z</time>
      </trkpt>
      <trkpt lat="45.07794" lon="2.79547">
        <ele>1378.98</ele>
        <time>2021-07-23T13:25:14Z</time>
      </trkpt>
      <trkpt lat="45.07798" lon="2.79534">
        <ele>1377.94</ele>
        <time>2021-07-23T13:25:20Z</time>
      </trkpt>
      <trkpt lat="45.07802" lon="2.79521">
        <ele>1375.84</ele>
        <time>2021-07-23T13:25:26Z</time>
      </trkpt>
      <trkpt lat="45.07804" lon="2.79509">
        <ele>1374.69</ele>
        <time>2021-07-23T13:25:31Z</time>
      </trkpt>
      <trkpt lat="45.07806" lon="2.79495">
        <ele>1376.42</ele>
        <time>2021-07-23T13:25:37Z</time>
      </trkpt>
      <trkpt lat="45.07807" lon="2.79482">
        <ele>1378.18</ele>
        <time>2021-07-23T13:25:42Z</time>
      </trkpt>
      <trkpt lat="45.07809" lon="2.79469">
        <ele>1376.09</ele>
        <time>2021-07-23T13:25:47Z</time>
      </trkpt>
      <trkpt lat="45.07811" lon="2.79454">
        <ele>1375.71</ele>
        <time>2021-07-23T13:25:53Z</time>
      </trkpt>
      <trkpt lat="45.07813" lon="2.79441">
        <ele>1378.46</ele>
        <time>2021-07-23T13:25:59Z</time>
      </trkpt>
      <trkpt lat="45.07815" lon="2.79428">
        <ele>1379.83</ele>
        <time>2021-07-23T13:26:04Z</time>
      </trkpt>
      <trkpt lat="45.07819" lon="2.79415">
        <ele>1382.46</ele>
        <time>2021-07-23T13:26:10Z</time>
      </trkpt>
      <trkpt lat="45.07823" lon="2.79402">
        <ele>1384.14</ele>
        <time>2021-07-23T13:26:16Z</time>
      </trkpt>
      <trkpt lat="45.07827" lon="2.7939">
        <ele>1382.72</ele>
        <time>2021-07-23T13:26:22Z</time>
      </trkpt>
      <trkpt lat="45.07831" lon="2.79377">
        <ele>1383.09</ele>
        <time>2021-07-23T13:26:28Z</time>
      </trkpt>
      <trkpt lat="45.07836" lon="2.79364">
        <ele>1378.84</ele>
        <time>2021-07-23T13:26:32Z</time>
      </trkpt>
      <trkpt lat="45.07841" lon="2.79352">
        <ele>1375.16</ele>
        <time>2021-07-23T13:26:36Z</time>
      </trkpt>
      <trkpt lat="45.07845" lon="2.79338">
        <ele>1375.59</ele>
        <time>2021-07-23T13:26:40Z</time>
      </trkpt>
      <trkpt lat="45.07848" lon="2.79324">
        <ele>1376.21</ele>
        <time>2021-07-23T13:26:44Z</time>
      </trkpt>
      <trkpt lat="45.07852" lon="2.79312">
        <ele>1380.12</ele>
        <time>2021-07-23T13:26:48Z</time>
      </trkpt>
      <trkpt lat="45.07856" lon="2.793">
        <ele>1380.74</ele>
        <time>2021-07-23T13:26:52Z</time>
      </trkpt>
      <trkpt lat="45.07862" lon="2.79289">
        <ele>1381.25</ele>
        <time>2021-07-23T13:26:56Z</time>
      </trkpt>
      <trkpt lat="45.07867" lon="2.79278">
        <ele>1380.82</ele>
        <time>2021-07-23T13:27:00Z</time>
      </trkpt>
      <trkpt lat="45.07873" lon="2.79266">
        <ele>1381.84</ele>
        <time>2021-07-23T13:27:04Z</time>
      </trkpt>
      <trkpt lat="45.07878" lon="2.79255">
        <ele>1384.56</ele>
        <time>2021-07-23T13:27:08Z</time>
      </trkpt>
      <trkpt lat="45.07883" lon="2.79242">
        <ele>1385.98</ele>
        <time>2021-07-23T13:27:13Z</time>
      </trkpt>
      <trkpt lat="45.07888" lon="2.79229">
        <ele>1386.1</ele>
        <time>2021-07-23T13:27:18Z</time>
      </trkpt>
      <trkpt lat="45.07893" lon="2.79217">
        <ele>1388.7</ele>
        <time>2021-07-23T13:27:23Z</time>
      </trkpt>
      <trkpt lat="45.07897" lon="2.79206">
        <ele>1390.01</ele>
        <time>2021-07-23T13:27:28Z</time>
      </trkpt>
      <trkpt lat="45.07903" lon="2.79195">
        <ele>1391.32</ele>
        <time>2021-07-23T13:27:33Z</time>
      </trkpt>
      <trkpt lat="45.07909" lon="2.79185">
        <ele>1392.24</ele>
        <time>2021-07-23T13:27:37Z</time>
      </trkpt>
      <trkpt lat="45.07914" lon="2.79173">
        <ele>1392.42</ele>
        <time>2021-07-23T13:27:41Z</time>
      </trkpt>
      <trkpt lat="45.07921" lon="2.79158">
        <ele>1392.33</ele>
        <time>2021-07-23T13:27:45Z</time>
      </trkpt>
      <trkpt lat="45.07927" lon="2.79139">
        <ele>1392.53</ele>
        <time>2021-07-23T13:27:48Z</time>
      </trkpt>
      <trkpt lat="45.07929" lon="2.79124">
        <ele>1391.79</ele>
        <time>2021-07-23T13:27:50Z</time>
      </trkpt>
      <trkpt lat="45.07927" lon="2.79108">
        <ele>1390.25</ele>
        <time>2021-07-23T13:27:52Z</time>
      </trkpt>
      <trkpt lat="45.07924" lon="2.79093">
        <ele>1390.79</ele>
        <time>2021-07-23T13:27:54Z</time>
      </trkpt>
      <trkpt lat="45.07917" lon="2.79076">
        <ele>1391.96</ele>
        <time>2021-07-23T13:27:56Z</time>
      </trkpt>
      <trkpt lat="45.07913" lon="2.79058">
        <ele>1391.28</ele>
        <time>2021-07-23T13:27:58Z</time>
      </trkpt>
      <trkpt lat="45.07907" lon="2.79039">
        <ele>1391.24</ele>
        <time>2021-07-23T13:28:00Z</time>
      </trkpt>
      <trkpt lat="45.07902" lon="2.79018">
        <ele>1391.39</ele>
        <time>2021-07-23T13:28:02Z</time>
      </trkpt>
      <trkpt lat="45.07903" lon="2.78998">
        <ele>1387.99</ele>
        <time>2021-07-23T13:28:04Z</time>
      </trkpt>
      <trkpt lat="45.07903" lon="2.78977">
        <ele>1386.81</ele>
        <time>2021-07-23T13:28:06Z</time>
      </trkpt>
      <trkpt lat="45.07901" lon="2.78961">
        <ele>1387.34</ele>
        <time>2021-07-23T13:28:08Z</time>
      </trkpt>
      <trkpt lat="45.07902" lon="2.78942">
        <ele>1385.86</ele>
        <time>2021-07-23T13:28:10Z</time>
      </trkpt>
      <trkpt lat="45.079" lon="2.78926">
        <ele>1382.95</ele>
        <time>2021-07-23T13:28:12Z</time>
      </trkpt>
      <trkpt lat="45.07899" lon="2.7891">
        <ele>1381.39</ele>
        <time>2021-07-23T13:28:14Z</time>
      </trkpt>
      <trkpt lat="45.07897" lon="2.78894">
        <ele>1379.46</ele>
        <time>2021-07-23T13:28:16Z</time>
      </trkpt>
      <trkpt lat="45.07895" lon="2.78878">
        <ele>1376.16</ele>
        <time>2021-07-23T13:28:18Z</time>
      </trkpt>
      <trkpt lat="45.07892" lon="2.78863">
        <ele>1373.04</ele>
        <time>2021-07-23T13:28:20Z</time>
      </trkpt>
      <trkpt lat="45.07892" lon="2.78845">
        <ele>1371.44</ele>
        <time>2021-07-23T13:28:22Z</time>
      </trkpt>
      <trkpt lat="45.07891" lon="2.78828">
        <ele>1370.58</ele>
        <time>2021-07-23T13:28:24Z</time>
      </trkpt>
      <trkpt lat="45.07892" lon="2.7881">
        <ele>1370.14</ele>
        <time>2021-07-23T13:28:26Z</time>
      </trkpt>
      <trkpt lat="45.0789" lon="2.78794">
        <ele>1369.79</ele>
        <time>2021-07-23T13:28:28Z</time>
      </trkpt>
      <trkpt lat="45.07889" lon="2.78769">
        <ele>1369.8</ele>
        <time>2021-07-23T13:28:34Z</time>
      </trkpt>
      <trkpt lat="45.07889" lon="2.78744">
        <ele>1368.31</ele>
        <time>2021-07-23T13:28:35Z</time>
      </trkpt>
      <trkpt lat="45.07888" lon="2.78728">
        <ele>1368.95</ele>
        <time>2021-07-23T13:28:37Z</time>
      </trkpt>
      <trkpt lat="45.07888" lon="2.78715">
        <ele>1367.25</ele>
        <time>2021-07-23T13:28:39Z</time>
      </trkpt>
      <trkpt lat="45.07887" lon="2.78701">
        <ele>1367.76</ele>
        <time>2021-07-23T13:28:41Z</time>
      </trkpt>
      <trkpt lat="45.07887" lon="2.78685">
        <ele>1367.36</ele>
        <time>2021-07-23T13:28:43Z</time>
      </trkpt>
      <trkpt lat="45.07887" lon="2.78666">
        <ele>1365.95</ele>
        <time>2021-07-23T13:28:45Z</time>
      </trkpt>
      <trkpt lat="45.07884" lon="2.78647">
        <ele>1367.49</ele>
        <time>2021-07-23T13:28:47Z</time>
      </trkpt>
      <trkpt lat="45.07881" lon="2.78627">
        <ele>1368.87</ele>
        <time>2021-07-23T13:28:49Z</time>
      </trkpt>
      <trkpt lat="45.0788" lon="2.78606">
        <ele>1366.89</ele>
        <time>2021-07-23T13:28:51Z</time>
      </trkpt>
      <trkpt lat="45.07876" lon="2.78583">
        <ele>1367.89</ele>
        <time>2021-07-23T13:28:53Z</time>
      </trkpt>
      <trkpt lat="45.07875" lon="2.78558">
        <ele>1366.48</ele>
        <time>2021-07-23T13:28:55Z</time>
      </trkpt>
      <trkpt lat="45.07872" lon="2.78535">
        <ele>1366.4</ele>
        <time>2021-07-23T13:28:57Z</time>
      </trkpt>
      <trkpt lat="45.07867" lon="2.78513">
        <ele>1366.77</ele>
        <time>2021-07-23T13:28:59Z</time>
      </trkpt>
      <trkpt lat="45.07862" lon="2.78492">
        <ele>1366.87</ele>
        <time>2021-07-23T13:29:01Z</time>
      </trkpt>
      <trkpt lat="45.07851" lon="2.78475">
        <ele>1367.65</ele>
        <time>2021-07-23T13:29:03Z</time>
      </trkpt>
      <trkpt lat="45.07842" lon="2.78457">
        <ele>1366.83</ele>
        <time>2021-07-23T13:29:05Z</time>
      </trkpt>
      <trkpt lat="45.0783" lon="2.78437">
        <ele>1364.75</ele>
        <time>2021-07-23T13:29:07Z</time>
      </trkpt>
      <trkpt lat="45.07824" lon="2.78426">
        <ele>1364.16</ele>
        <time>2021-07-23T13:29:08Z</time>
      </trkpt>
      <trkpt lat="45.07817" lon="2.78414">
        <ele>1363.71</ele>
        <time>2021-07-23T13:29:09Z</time>
      </trkpt>
      <trkpt lat="45.07811" lon="2.78403">
        <ele>1362.44</ele>
        <time>2021-07-23T13:29:10Z</time>
      </trkpt>
      <trkpt lat="45.07803" lon="2.78392">
        <ele>1361.27</ele>
        <time>2021-07-23T13:29:11Z</time>
      </trkpt>
      <trkpt lat="45.07798" lon="2.78379">
        <ele>1360.17</ele>
        <time>2021-07-23T13:29:12Z</time>
      </trkpt>
      <trkpt lat="45.07794" lon="2.78367">
        <ele>1359.61</ele>
        <time>2021-07-23T13:29:13Z</time>
      </trkpt>
      <trkpt lat="45.07788" lon="2.78357">
        <ele>1359.2</ele>
        <time>2021-07-23T13:29:14Z</time>
      </trkpt>
      <trkpt lat="45.07783" lon="2.78346">
        <ele>1358.9</ele>
        <time>2021-07-23T13:29:15Z</time>
      </trkpt>
      <trkpt lat="45.07775" lon="2.78327">
        <ele>1358.38</ele>
        <time>2021-07-23T13:29:17Z</time>
      </trkpt>
      <trkpt lat="45.07765" lon="2.78312">
        <ele>1357.68</ele>
        <time>2021-07-23T13:29:19Z</time>
      </trkpt>
      <trkpt lat="45.07754" lon="2.78298">
        <ele>1356.71</ele>
        <time>2021-07-23T13:29:21Z</time>
      </trkpt>
      <trkpt lat="45.07745" lon="2.78283">
        <ele>1354.4</ele>
        <time>2021-07-23T13:29:23Z</time>
      </trkpt>
      <trkpt lat="45.07738" lon="2.7827">
        <ele>1350.43</ele>
        <time>2021-07-23T13:29:25Z</time>
      </trkpt>
      <trkpt lat="45.07728" lon="2.78254">
        <ele>1347.94</ele>
        <time>2021-07-23T13:29:27Z</time>
      </trkpt>
      <trkpt lat="45.0772" lon="2.78242">
        <ele>1345.41</ele>
        <time>2021-07-23T13:29:29Z</time>
      </trkpt>
      <trkpt lat="45.07711" lon="2.78228">
        <ele>1345.03</ele>
        <time>2021-07-23T13:29:31Z</time>
      </trkpt>
      <trkpt lat="45.07703" lon="2.78218">
        <ele>1344.16</ele>
        <time>2021-07-23T13:29:33Z</time>
      </trkpt>
      <trkpt lat="45.07697" lon="2.78205">
        <ele>1340.32</ele>
        <time>2021-07-23T13:30:57Z</time>
      </trkpt>
      <trkpt lat="45.07691" lon="2.78196">
        <ele>1340.17</ele>
        <time>2021-07-23T13:31:05Z</time>
      </trkpt>
      <trkpt lat="45.0769" lon="2.78183">
        <ele>1348.54</ele>
        <time>2021-07-23T13:31:32Z</time>
      </trkpt>
      <trkpt lat="45.07686" lon="2.78171">
        <ele>1359.36</ele>
        <time>2021-07-23T13:31:54Z</time>
      </trkpt>
      <trkpt lat="45.07686" lon="2.78157">
        <ele>1361.95</ele>
        <time>2021-07-23T13:32:05Z</time>
      </trkpt>
      <trkpt lat="45.07683" lon="2.78145">
        <ele>1366.71</ele>
        <time>2021-07-23T13:32:32Z</time>
      </trkpt>
      <trkpt lat="45.0768" lon="2.78133">
        <ele>1376.62</ele>
        <time>2021-07-23T13:32:58Z</time>
      </trkpt>
      <trkpt lat="45.07679" lon="2.78119">
        <ele>1374.44</ele>
        <time>2021-07-23T13:33:19Z</time>
      </trkpt>
      <trkpt lat="45.07681" lon="2.78106">
        <ele>1373.32</ele>
        <time>2021-07-23T13:33:33Z</time>
      </trkpt>
      <trkpt lat="45.07678" lon="2.78093">
        <ele>1369.29</ele>
        <time>2021-07-23T13:33:51Z</time>
      </trkpt>
      <trkpt lat="45.07672" lon="2.78081">
        <ele>1372.23</ele>
        <time>2021-07-23T13:34:09Z</time>
      </trkpt>
      <trkpt lat="45.07675" lon="2.78069">
        <ele>1375.14</ele>
        <time>2021-07-23T13:35:27Z</time>
      </trkpt>
      <trkpt lat="45.07671" lon="2.78057">
        <ele>1380.16</ele>
        <time>2021-07-23T13:35:37Z</time>
      </trkpt>
      <trkpt lat="45.07667" lon="2.78045">
        <ele>1385.22</ele>
        <time>2021-07-23T13:35:48Z</time>
      </trkpt>
      <trkpt lat="45.07666" lon="2.78033">
        <ele>1382.82</ele>
        <time>2021-07-23T13:36:10Z</time>
      </trkpt>
      <trkpt lat="45.0766" lon="2.78023">
        <ele>1383.77</ele>
        <time>2021-07-23T13:36:24Z</time>
      </trkpt>
      <trkpt lat="45.07657" lon="2.7801">
        <ele>1383.44</ele>
        <time>2021-07-23T13:36:39Z</time>
      </trkpt>
      <trkpt lat="45.07651" lon="2.78">
        <ele>1386.33</ele>
        <time>2021-07-23T13:36:54Z</time>
      </trkpt>
      <trkpt lat="45.07646" lon="2.77989">
        <ele>1390.26</ele>
        <time>2021-07-23T13:37:08Z</time>
      </trkpt>
      <trkpt lat="45.07638" lon="2.77982">
        <ele>1389.56</ele>
        <time>2021-07-23T13:37:21Z</time>
      </trkpt>
      <trkpt lat="45.0763" lon="2.77975">
        <ele>1392.03</ele>
        <time>2021-07-23T13:37:36Z</time>
      </trkpt>
      <trkpt lat="45.07625" lon="2.77964">
        <ele>1394.86</ele>
        <time>2021-07-23T13:37:50Z</time>
      </trkpt>
      <trkpt lat="45.07617" lon="2.77955">
        <ele>1397.62</ele>
        <time>2021-07-23T13:38:04Z</time>
      </trkpt>
      <trkpt lat="45.07609" lon="2.77948">
        <ele>1397.95</ele>
        <time>2021-07-23T13:38:16Z</time>
      </trkpt>
      <trkpt lat="45.07601" lon="2.77943">
        <ele>1396.29</ele>
        <time>2021-07-23T13:38:28Z</time>
      </trkpt>
      <trkpt lat="45.07592" lon="2.77936">
        <ele>1396.21</ele>
        <time>2021-07-23T13:38:39Z</time>
      </trkpt>
      <trkpt lat="45.07584" lon="2.77931">
        <ele>1396.19</ele>
        <time>2021-07-23T13:38:55Z</time>
      </trkpt>
      <trkpt lat="45.07575" lon="2.7793">
        <ele>1395.42</ele>
        <time>2021-07-23T13:39:11Z</time>
      </trkpt>
      <trkpt lat="45.07566" lon="2.77924">
        <ele>1397.54</ele>
        <time>2021-07-23T13:39:34Z</time>
      </trkpt>
      <trkpt lat="45.07558" lon="2.77918">
        <ele>1401.01</ele>
        <time>2021-07-23T13:39:48Z</time>
      </trkpt>
      <trkpt lat="45.07553" lon="2.77907">
        <ele>1399.18</ele>
        <time>2021-07-23T13:40:04Z</time>
      </trkpt>
      <trkpt lat="45.07548" lon="2.77896">
        <ele>1395.99</ele>
        <time>2021-07-23T13:40:14Z</time>
      </trkpt>
      <trkpt lat="45.07539" lon="2.77892">
        <ele>1405.15</ele>
        <time>2021-07-23T13:42:05Z</time>
      </trkpt>
      <trkpt lat="45.07532" lon="2.77901">
        <ele>1406.16</ele>
        <time>2021-07-23T13:42:32Z</time>
      </trkpt>
      <trkpt lat="45.07524" lon="2.77907">
        <ele>1405.62</ele>
        <time>2021-07-23T13:42:42Z</time>
      </trkpt>
      <trkpt lat="45.07531" lon="2.77899">
        <ele>1412.24</ele>
        <time>2021-07-23T13:43:52Z</time>
      </trkpt>
      <trkpt lat="45.07539" lon="2.77892">
        <ele>1414.49</ele>
        <time>2021-07-23T13:44:02Z</time>
      </trkpt>
      <trkpt lat="45.07548" lon="2.77901">
        <ele>1405.84</ele>
        <time>2021-07-23T13:50:47Z</time>
      </trkpt>
      <trkpt lat="45.07551" lon="2.77914">
        <ele>1402.65</ele>
        <time>2021-07-23T13:50:53Z</time>
      </trkpt>
      <trkpt lat="45.07561" lon="2.77931">
        <ele>1404.28</ele>
        <time>2021-07-23T13:50:55Z</time>
      </trkpt>
      <trkpt lat="45.0757" lon="2.77933">
        <ele>1402.65</ele>
        <time>2021-07-23T13:51:00Z</time>
      </trkpt>
      <trkpt lat="45.07581" lon="2.77933">
        <ele>1401.74</ele>
        <time>2021-07-23T13:51:06Z</time>
      </trkpt>
      <trkpt lat="45.0759" lon="2.77943">
        <ele>1400.13</ele>
        <time>2021-07-23T13:51:10Z</time>
      </trkpt>
      <trkpt lat="45.07597" lon="2.77953">
        <ele>1399.22</ele>
        <time>2021-07-23T13:51:14Z</time>
      </trkpt>
      <trkpt lat="45.07604" lon="2.77965">
        <ele>1397.51</ele>
        <time>2021-07-23T13:51:18Z</time>
      </trkpt>
      <trkpt lat="45.07611" lon="2.77974">
        <ele>1397.94</ele>
        <time>2021-07-23T13:51:22Z</time>
      </trkpt>
      <trkpt lat="45.07618" lon="2.77985">
        <ele>1395.39</ele>
        <time>2021-07-23T13:51:26Z</time>
      </trkpt>
      <trkpt lat="45.07629" lon="2.7799">
        <ele>1395.52</ele>
        <time>2021-07-23T13:51:30Z</time>
      </trkpt>
      <trkpt lat="45.07637" lon="2.77999">
        <ele>1396.03</ele>
        <time>2021-07-23T13:51:34Z</time>
      </trkpt>
      <trkpt lat="45.07642" lon="2.78009">
        <ele>1399.01</ele>
        <time>2021-07-23T13:51:37Z</time>
      </trkpt>
      <trkpt lat="45.07647" lon="2.7802">
        <ele>1401.6</ele>
        <time>2021-07-23T13:51:40Z</time>
      </trkpt>
      <trkpt lat="45.07656" lon="2.7803">
        <ele>1398.55</ele>
        <time>2021-07-23T13:51:44Z</time>
      </trkpt>
      <trkpt lat="45.07662" lon="2.78041">
        <ele>1394.21</ele>
        <time>2021-07-23T13:51:48Z</time>
      </trkpt>
      <trkpt lat="45.07663" lon="2.78056">
        <ele>1391.95</ele>
        <time>2021-07-23T13:51:54Z</time>
      </trkpt>
      <trkpt lat="45.07665" lon="2.78069">
        <ele>1389.8</ele>
        <time>2021-07-23T13:51:57Z</time>
      </trkpt>
      <trkpt lat="45.07668" lon="2.78086">
        <ele>1389.62</ele>
        <time>2021-07-23T13:52:00Z</time>
      </trkpt>
      <trkpt lat="45.07674" lon="2.78106">
        <ele>1389.78</ele>
        <time>2021-07-23T13:52:03Z</time>
      </trkpt>
      <trkpt lat="45.07679" lon="2.78117">
        <ele>1387.51</ele>
        <time>2021-07-23T13:52:07Z</time>
      </trkpt>
      <trkpt lat="45.07678" lon="2.7813">
        <ele>1385.22</ele>
        <time>2021-07-23T13:52:09Z</time>
      </trkpt>
      <trkpt lat="45.07679" lon="2.78144">
        <ele>1382.54</ele>
        <time>2021-07-23T13:52:12Z</time>
      </trkpt>
      <trkpt lat="45.07679" lon="2.78158">
        <ele>1382.37</ele>
        <time>2021-07-23T13:52:15Z</time>
      </trkpt>
      <trkpt lat="45.0768" lon="2.78174">
        <ele>1373.52</ele>
        <time>2021-07-23T13:52:19Z</time>
      </trkpt>
      <trkpt lat="45.0768" lon="2.7819">
        <ele>1372.95</ele>
        <time>2021-07-23T13:52:22Z</time>
      </trkpt>
      <trkpt lat="45.07686" lon="2.78201">
        <ele>1369.62</ele>
        <time>2021-07-23T13:52:26Z</time>
      </trkpt>
      <trkpt lat="45.07691" lon="2.78214">
        <ele>1364.5</ele>
        <time>2021-07-23T13:55:20Z</time>
      </trkpt>
      <trkpt lat="45.07697" lon="2.78226">
        <ele>1361.76</ele>
        <time>2021-07-23T13:55:25Z</time>
      </trkpt>
      <trkpt lat="45.07688" lon="2.78227">
        <ele>1357.88</ele>
        <time>2021-07-23T13:55:30Z</time>
      </trkpt>
      <trkpt lat="45.07675" lon="2.7822">
        <ele>1353.17</ele>
        <time>2021-07-23T13:55:33Z</time>
      </trkpt>
      <trkpt lat="45.07666" lon="2.782">
        <ele>1351.21</ele>
        <time>2021-07-23T13:55:35Z</time>
      </trkpt>
      <trkpt lat="45.07657" lon="2.78185">
        <ele>1348.52</ele>
        <time>2021-07-23T13:55:37Z</time>
      </trkpt>
      <trkpt lat="45.07649" lon="2.78178">
        <ele>1348.64</ele>
        <time>2021-07-23T13:55:39Z</time>
      </trkpt>
      <trkpt lat="45.07639" lon="2.78176">
        <ele>1348.15</ele>
        <time>2021-07-23T13:55:42Z</time>
      </trkpt>
      <trkpt lat="45.07628" lon="2.78181">
        <ele>1351.94</ele>
        <time>2021-07-23T13:56:31Z</time>
      </trkpt>
      <trkpt lat="45.07635" lon="2.78189">
        <ele>1355.84</ele>
        <time>2021-07-23T13:58:01Z</time>
      </trkpt>
      <trkpt lat="45.07635" lon="2.78204">
        <ele>1354.49</ele>
        <time>2021-07-23T13:58:07Z</time>
      </trkpt>
      <trkpt lat="45.07636" lon="2.78221">
        <ele>1353.46</ele>
        <time>2021-07-23T13:58:11Z</time>
      </trkpt>
      <trkpt lat="45.07638" lon="2.78235">
        <ele>1350.37</ele>
        <time>2021-07-23T13:58:13Z</time>
      </trkpt>
      <trkpt lat="45.0764" lon="2.78249">
        <ele>1348.88</ele>
        <time>2021-07-23T13:58:15Z</time>
      </trkpt>
      <trkpt lat="45.07638" lon="2.78266">
        <ele>1347.08</ele>
        <time>2021-07-23T13:58:18Z</time>
      </trkpt>
      <trkpt lat="45.0763" lon="2.7828">
        <ele>1345.93</ele>
        <time>2021-07-23T13:58:21Z</time>
      </trkpt>
      <trkpt lat="45.07619" lon="2.78288">
        <ele>1344.65</ele>
        <time>2021-07-23T13:58:23Z</time>
      </trkpt>
      <trkpt lat="45.07612" lon="2.78298">
        <ele>1344.43</ele>
        <time>2021-07-23T13:58:25Z</time>
      </trkpt>
      <trkpt lat="45.07608" lon="2.7831">
        <ele>1345.06</ele>
        <time>2021-07-23T13:58:27Z</time>
      </trkpt>
      <trkpt lat="45.07604" lon="2.78328">
        <ele>1346.18</ele>
        <time>2021-07-23T13:58:30Z</time>
      </trkpt>
      <trkpt lat="45.07603" lon="2.78345">
        <ele>1343.16</ele>
        <time>2021-07-23T13:58:34Z</time>
      </trkpt>
      <trkpt lat="45.07602" lon="2.78362">
        <ele>1341.64</ele>
        <time>2021-07-23T13:58:36Z</time>
      </trkpt>
      <trkpt lat="45.07599" lon="2.78377">
        <ele>1341.19</ele>
        <time>2021-07-23T13:58:37Z</time>
      </trkpt>
      <trkpt lat="45.076" lon="2.78393">
        <ele>1339.88</ele>
        <time>2021-07-23T13:58:39Z</time>
      </trkpt>
      <trkpt lat="45.07594" lon="2.78413">
        <ele>1338.62</ele>
        <time>2021-07-23T13:58:41Z</time>
      </trkpt>
      <trkpt lat="45.07592" lon="2.78429">
        <ele>1333.84</ele>
        <time>2021-07-23T13:58:43Z</time>
      </trkpt>
      <trkpt lat="45.07591" lon="2.78448">
        <ele>1331.28</ele>
        <time>2021-07-23T13:58:45Z</time>
      </trkpt>
      <trkpt lat="45.07586" lon="2.78466">
        <ele>1326.9</ele>
        <time>2021-07-23T13:58:47Z</time>
      </trkpt>
      <trkpt lat="45.07586" lon="2.78486">
        <ele>1323.51</ele>
        <time>2021-07-23T13:58:49Z</time>
      </trkpt>
      <trkpt lat="45.07587" lon="2.78507">
        <ele>1323.35</ele>
        <time>2021-07-23T13:58:51Z</time>
      </trkpt>
      <trkpt lat="45.07586" lon="2.78527">
        <ele>1322.4</ele>
        <time>2021-07-23T13:58:53Z</time>
      </trkpt>
      <trkpt lat="45.07582" lon="2.78548">
        <ele>1321.06</ele>
        <time>2021-07-23T13:58:55Z</time>
      </trkpt>
      <trkpt lat="45.07578" lon="2.78573">
        <ele>1316.39</ele>
        <time>2021-07-23T13:58:57Z</time>
      </trkpt>
      <trkpt lat="45.07574" lon="2.78597">
        <ele>1313.59</ele>
        <time>2021-07-23T13:58:59Z</time>
      </trkpt>
      <trkpt lat="45.07571" lon="2.78618">
        <ele>1312.34</ele>
        <time>2021-07-23T13:59:01Z</time>
      </trkpt>
      <trkpt lat="45.07569" lon="2.78642">
        <ele>1312.22</ele>
        <time>2021-07-23T13:59:03Z</time>
      </trkpt>
      <trkpt lat="45.07565" lon="2.78667">
        <ele>1309.7</ele>
        <time>2021-07-23T13:59:05Z</time>
      </trkpt>
      <trkpt lat="45.07563" lon="2.78679">
        <ele>1308.8</ele>
        <time>2021-07-23T13:59:06Z</time>
      </trkpt>
      <trkpt lat="45.0756" lon="2.78705">
        <ele>1308.02</ele>
        <time>2021-07-23T13:59:08Z</time>
      </trkpt>
      <trkpt lat="45.07562" lon="2.78726">
        <ele>1304.96</ele>
        <time>2021-07-23T13:59:10Z</time>
      </trkpt>
      <trkpt lat="45.07561" lon="2.78739">
        <ele>1304.42</ele>
        <time>2021-07-23T13:59:11Z</time>
      </trkpt>
      <trkpt lat="45.07559" lon="2.78762">
        <ele>1301.66</ele>
        <time>2021-07-23T13:59:13Z</time>
      </trkpt>
      <trkpt lat="45.07557" lon="2.78783">
        <ele>1297.33</ele>
        <time>2021-07-23T13:59:15Z</time>
      </trkpt>
      <trkpt lat="45.07559" lon="2.78796">
        <ele>1297.1</ele>
        <time>2021-07-23T13:59:16Z</time>
      </trkpt>
      <trkpt lat="45.07557" lon="2.78809">
        <ele>1296.67</ele>
        <time>2021-07-23T13:59:17Z</time>
      </trkpt>
      <trkpt lat="45.07554" lon="2.78833">
        <ele>1294.49</ele>
        <time>2021-07-23T13:59:19Z</time>
      </trkpt>
      <trkpt lat="45.07552" lon="2.78846">
        <ele>1293.52</ele>
        <time>2021-07-23T13:59:20Z</time>
      </trkpt>
      <trkpt lat="45.0755" lon="2.78859">
        <ele>1291.36</ele>
        <time>2021-07-23T13:59:21Z</time>
      </trkpt>
      <trkpt lat="45.07546" lon="2.7888">
        <ele>1287.79</ele>
        <time>2021-07-23T13:59:23Z</time>
      </trkpt>
      <trkpt lat="45.07541" lon="2.78898">
        <ele>1285.46</ele>
        <time>2021-07-23T13:59:25Z</time>
      </trkpt>
      <trkpt lat="45.07533" lon="2.78913">
        <ele>1281.07</ele>
        <time>2021-07-23T13:59:27Z</time>
      </trkpt>
      <trkpt lat="45.07521" lon="2.78929">
        <ele>1279.08</ele>
        <time>2021-07-23T13:59:29Z</time>
      </trkpt>
      <trkpt lat="45.07513" lon="2.78937">
        <ele>1277.31</ele>
        <time>2021-07-23T13:59:30Z</time>
      </trkpt>
      <trkpt lat="45.07496" lon="2.78946">
        <ele>1273.69</ele>
        <time>2021-07-23T13:59:32Z</time>
      </trkpt>
      <trkpt lat="45.07481" lon="2.78957">
        <ele>1268.56</ele>
        <time>2021-07-23T13:59:34Z</time>
      </trkpt>
      <trkpt lat="45.07473" lon="2.78965">
        <ele>1267.02</ele>
        <time>2021-07-23T13:59:35Z</time>
      </trkpt>
      <trkpt lat="45.07465" lon="2.78974">
        <ele>1265.92</ele>
        <time>2021-07-23T13:59:36Z</time>
      </trkpt>
      <trkpt lat="45.07455" lon="2.7899">
        <ele>1265.22</ele>
        <time>2021-07-23T13:59:38Z</time>
      </trkpt>
      <trkpt lat="45.0745" lon="2.79007">
        <ele>1265.26</ele>
        <time>2021-07-23T13:59:40Z</time>
      </trkpt>
      <trkpt lat="45.07444" lon="2.79021">
        <ele>1263.76</ele>
        <time>2021-07-23T13:59:42Z</time>
      </trkpt>
      <trkpt lat="45.07441" lon="2.79037">
        <ele>1263.1</ele>
        <time>2021-07-23T13:59:44Z</time>
      </trkpt>
      <trkpt lat="45.07435" lon="2.79053">
        <ele>1264.31</ele>
        <time>2021-07-23T13:59:46Z</time>
      </trkpt>
      <trkpt lat="45.0743" lon="2.79072">
        <ele>1263.23</ele>
        <time>2021-07-23T13:59:48Z</time>
      </trkpt>
      <trkpt lat="45.07422" lon="2.79081">
        <ele>1261.28</ele>
        <time>2021-07-23T13:59:49Z</time>
      </trkpt>
      <trkpt lat="45.07409" lon="2.79101">
        <ele>1258.17</ele>
        <time>2021-07-23T13:59:51Z</time>
      </trkpt>
      <trkpt lat="45.07398" lon="2.79116">
        <ele>1255.89</ele>
        <time>2021-07-23T13:59:53Z</time>
      </trkpt>
      <trkpt lat="45.07385" lon="2.79131">
        <ele>1253.64</ele>
        <time>2021-07-23T13:59:55Z</time>
      </trkpt>
      <trkpt lat="45.07376" lon="2.79145">
        <ele>1252.54</ele>
        <time>2021-07-23T13:59:57Z</time>
      </trkpt>
      <trkpt lat="45.07367" lon="2.79151">
        <ele>1252.76</ele>
        <time>2021-07-23T13:59:58Z</time>
      </trkpt>
      <trkpt lat="45.07355" lon="2.7917">
        <ele>1255.43</ele>
        <time>2021-07-23T14:00:00Z</time>
      </trkpt>
      <trkpt lat="45.07347" lon="2.79178">
        <ele>1255.11</ele>
        <time>2021-07-23T14:00:01Z</time>
      </trkpt>
      <trkpt lat="45.07334" lon="2.79193">
        <ele>1254.45</ele>
        <time>2021-07-23T14:00:03Z</time>
      </trkpt>
      <trkpt lat="45.07326" lon="2.79203">
        <ele>1255.42</ele>
        <time>2021-07-23T14:00:05Z</time>
      </trkpt>
      <trkpt lat="45.07316" lon="2.79214">
        <ele>1255.98</ele>
        <time>2021-07-23T14:00:07Z</time>
      </trkpt>
      <trkpt lat="45.07311" lon="2.79226">
        <ele>1254.51</ele>
        <time>2021-07-23T14:00:10Z</time>
      </trkpt>
      <trkpt lat="45.07314" lon="2.79215">
        <ele>1254.39</ele>
        <time>2021-07-23T14:01:49Z</time>
      </trkpt>
      <trkpt lat="45.07309" lon="2.79203">
        <ele>1255.35</ele>
        <time>2021-07-23T14:01:54Z</time>
      </trkpt>
      <trkpt lat="45.07302" lon="2.79196">
        <ele>1254.9</ele>
        <time>2021-07-23T14:02:01Z</time>
      </trkpt>
      <trkpt lat="45.07292" lon="2.79202">
        <ele>1256.4</ele>
        <time>2021-07-23T14:02:07Z</time>
      </trkpt>
      <trkpt lat="45.07283" lon="2.79207">
        <ele>1259.39</ele>
        <time>2021-07-23T14:02:13Z</time>
      </trkpt>
      <trkpt lat="45.07273" lon="2.7921">
        <ele>1259.52</ele>
        <time>2021-07-23T14:02:22Z</time>
      </trkpt>
      <trkpt lat="45.07264" lon="2.79213">
        <ele>1265.39</ele>
        <time>2021-07-23T14:02:31Z</time>
      </trkpt>
      <trkpt lat="45.07257" lon="2.79222">
        <ele>1272.2</ele>
        <time>2021-07-23T14:02:40Z</time>
      </trkpt>
      <trkpt lat="45.07248" lon="2.7923">
        <ele>1272.89</ele>
        <time>2021-07-23T14:02:46Z</time>
      </trkpt>
      <trkpt lat="45.07239" lon="2.79236">
        <ele>1275.42</ele>
        <time>2021-07-23T14:02:54Z</time>
      </trkpt>
      <trkpt lat="45.07229" lon="2.79241">
        <ele>1275.55</ele>
        <time>2021-07-23T14:03:07Z</time>
      </trkpt>
      <trkpt lat="45.07219" lon="2.79246">
        <ele>1273.51</ele>
        <time>2021-07-23T14:03:15Z</time>
      </trkpt>
      <trkpt lat="45.0721" lon="2.79251">
        <ele>1274</ele>
        <time>2021-07-23T14:03:19Z</time>
      </trkpt>
      <trkpt lat="45.07202" lon="2.79259">
        <ele>1274.4</ele>
        <time>2021-07-23T14:03:22Z</time>
      </trkpt>
      <trkpt lat="45.07195" lon="2.79267">
        <ele>1273.71</ele>
        <time>2021-07-23T14:03:27Z</time>
      </trkpt>
      <trkpt lat="45.07188" lon="2.79278">
        <ele>1275.31</ele>
        <time>2021-07-23T14:03:32Z</time>
      </trkpt>
      <trkpt lat="45.07183" lon="2.79288">
        <ele>1275.84</ele>
        <time>2021-07-23T14:03:38Z</time>
      </trkpt>
      <trkpt lat="45.07176" lon="2.79297">
        <ele>1278.64</ele>
        <time>2021-07-23T14:03:43Z</time>
      </trkpt>
      <trkpt lat="45.07167" lon="2.79305">
        <ele>1280.54</ele>
        <time>2021-07-23T14:03:47Z</time>
      </trkpt>
      <trkpt lat="45.07159" lon="2.79313">
        <ele>1281.73</ele>
        <time>2021-07-23T14:03:51Z</time>
      </trkpt>
      <trkpt lat="45.0715" lon="2.79323">
        <ele>1282.91</ele>
        <time>2021-07-23T14:03:56Z</time>
      </trkpt>
      <trkpt lat="45.07139" lon="2.7933">
        <ele>1283.73</ele>
        <time>2021-07-23T14:04:01Z</time>
      </trkpt>
      <trkpt lat="45.07131" lon="2.79337">
        <ele>1284.99</ele>
        <time>2021-07-23T14:04:04Z</time>
      </trkpt>
      <trkpt lat="45.07123" lon="2.79344">
        <ele>1281.07</ele>
        <time>2021-07-23T14:04:09Z</time>
      </trkpt>
      <trkpt lat="45.07115" lon="2.79352">
        <ele>1281.56</ele>
        <time>2021-07-23T14:04:12Z</time>
      </trkpt>
      <trkpt lat="45.07108" lon="2.7936">
        <ele>1280.83</ele>
        <time>2021-07-23T14:04:16Z</time>
      </trkpt>
      <trkpt lat="45.07098" lon="2.79367">
        <ele>1281.17</ele>
        <time>2021-07-23T14:04:22Z</time>
      </trkpt>
      <trkpt lat="45.07091" lon="2.79377">
        <ele>1283.67</ele>
        <time>2021-07-23T14:04:27Z</time>
      </trkpt>
      <trkpt lat="45.07084" lon="2.79388">
        <ele>1286.57</ele>
        <time>2021-07-23T14:04:32Z</time>
      </trkpt>
      <trkpt lat="45.07078" lon="2.79399">
        <ele>1288.05</ele>
        <time>2021-07-23T14:04:37Z</time>
      </trkpt>
      <trkpt lat="45.07074" lon="2.7941">
        <ele>1288.48</ele>
        <time>2021-07-23T14:04:40Z</time>
      </trkpt>
      <trkpt lat="45.07068" lon="2.79423">
        <ele>1287.14</ele>
        <time>2021-07-23T14:04:43Z</time>
      </trkpt>
      <trkpt lat="45.07061" lon="2.79433">
        <ele>1287.42</ele>
        <time>2021-07-23T14:04:45Z</time>
      </trkpt>
      <trkpt lat="45.07051" lon="2.7944">
        <ele>1285.34</ele>
        <time>2021-07-23T14:04:49Z</time>
      </trkpt>
      <trkpt lat="45.07044" lon="2.79448">
        <ele>1283.71</ele>
        <time>2021-07-23T14:04:53Z</time>
      </trkpt>
      <trkpt lat="45.07037" lon="2.79457">
        <ele>1282.89</ele>
        <time>2021-07-23T14:04:57Z</time>
      </trkpt>
      <trkpt lat="45.07028" lon="2.79467">
        <ele>1283.1</ele>
        <time>2021-07-23T14:05:01Z</time>
      </trkpt>
      <trkpt lat="45.07019" lon="2.79475">
        <ele>1282.17</ele>
        <time>2021-07-23T14:05:05Z</time>
      </trkpt>
      <trkpt lat="45.07009" lon="2.79482">
        <ele>1281.06</ele>
        <time>2021-07-23T14:05:09Z</time>
      </trkpt>
      <trkpt lat="45.07001" lon="2.79489">
        <ele>1283.02</ele>
        <time>2021-07-23T14:05:12Z</time>
      </trkpt>
      <trkpt lat="45.06992" lon="2.79495">
        <ele>1282.83</ele>
        <time>2021-07-23T14:05:16Z</time>
      </trkpt>
      <trkpt lat="45.06982" lon="2.795">
        <ele>1281.35</ele>
        <time>2021-07-23T14:05:21Z</time>
      </trkpt>
      <trkpt lat="45.06971" lon="2.79505">
        <ele>1281.55</ele>
        <time>2021-07-23T14:05:25Z</time>
      </trkpt>
      <trkpt lat="45.06961" lon="2.79499">
        <ele>1280.96</ele>
        <time>2021-07-23T14:05:30Z</time>
      </trkpt>
      <trkpt lat="45.06952" lon="2.79502">
        <ele>1283.27</ele>
        <time>2021-07-23T14:05:38Z</time>
      </trkpt>
      <trkpt lat="45.06942" lon="2.79509">
        <ele>1286.25</ele>
        <time>2021-07-23T14:05:45Z</time>
      </trkpt>
      <trkpt lat="45.06933" lon="2.79511">
        <ele>1286.29</ele>
        <time>2021-07-23T14:05:50Z</time>
      </trkpt>
      <trkpt lat="45.06924" lon="2.7951">
        <ele>1289.27</ele>
        <time>2021-07-23T14:05:59Z</time>
      </trkpt>
      <trkpt lat="45.06915" lon="2.79514">
        <ele>1291.99</ele>
        <time>2021-07-23T14:06:05Z</time>
      </trkpt>
      <trkpt lat="45.06905" lon="2.79515">
        <ele>1291.68</ele>
        <time>2021-07-23T14:06:10Z</time>
      </trkpt>
      <trkpt lat="45.06896" lon="2.79518">
        <ele>1296.52</ele>
        <time>2021-07-23T14:06:20Z</time>
      </trkpt>
      <trkpt lat="45.06888" lon="2.79526">
        <ele>1298.68</ele>
        <time>2021-07-23T14:06:26Z</time>
      </trkpt>
      <trkpt lat="45.06879" lon="2.79533">
        <ele>1299.57</ele>
        <time>2021-07-23T14:06:34Z</time>
      </trkpt>
      <trkpt lat="45.0687" lon="2.79537">
        <ele>1300.5</ele>
        <time>2021-07-23T14:06:43Z</time>
      </trkpt>
      <trkpt lat="45.06859" lon="2.7954">
        <ele>1299.06</ele>
        <time>2021-07-23T14:06:52Z</time>
      </trkpt>
      <trkpt lat="45.06851" lon="2.79546">
        <ele>1298.98</ele>
        <time>2021-07-23T14:06:58Z</time>
      </trkpt>
      <trkpt lat="45.06843" lon="2.79553">
        <ele>1297.81</ele>
        <time>2021-07-23T14:07:04Z</time>
      </trkpt>
      <trkpt lat="45.06836" lon="2.79561">
        <ele>1296.65</ele>
        <time>2021-07-23T14:07:10Z</time>
      </trkpt>
      <trkpt lat="45.0683" lon="2.79571">
        <ele>1301.13</ele>
        <time>2021-07-23T14:07:39Z</time>
      </trkpt>
      <trkpt lat="45.06827" lon="2.79586">
        <ele>1300.09</ele>
        <time>2021-07-23T14:11:03Z</time>
      </trkpt>
      <trkpt lat="45.06821" lon="2.79597">
        <ele>1300.5</ele>
        <time>2021-07-23T14:11:07Z</time>
      </trkpt>
      <trkpt lat="45.06816" lon="2.7961">
        <ele>1298.8</ele>
        <time>2021-07-23T14:11:12Z</time>
      </trkpt>
      <trkpt lat="45.06811" lon="2.79621">
        <ele>1297.32</ele>
        <time>2021-07-23T14:11:16Z</time>
      </trkpt>
      <trkpt lat="45.06806" lon="2.79633">
        <ele>1293.05</ele>
        <time>2021-07-23T14:11:21Z</time>
      </trkpt>
      <trkpt lat="45.06802" lon="2.79647">
        <ele>1291.85</ele>
        <time>2021-07-23T14:11:27Z</time>
      </trkpt>
      <trkpt lat="45.06794" lon="2.79658">
        <ele>1294.37</ele>
        <time>2021-07-23T14:11:32Z</time>
      </trkpt>
      <trkpt lat="45.06787" lon="2.79667">
        <ele>1294.01</ele>
        <time>2021-07-23T14:11:37Z</time>
      </trkpt>
      <trkpt lat="45.06785" lon="2.79681">
        <ele>1295.7</ele>
        <time>2021-07-23T14:11:45Z</time>
      </trkpt>
      <trkpt lat="45.06782" lon="2.79694">
        <ele>1296.17</ele>
        <time>2021-07-23T14:11:52Z</time>
      </trkpt>
      <trkpt lat="45.06781" lon="2.79709">
        <ele>1297.51</ele>
        <time>2021-07-23T14:11:59Z</time>
      </trkpt>
      <trkpt lat="45.0678" lon="2.79722">
        <ele>1300.09</ele>
        <time>2021-07-23T14:12:05Z</time>
      </trkpt>
      <trkpt lat="45.06776" lon="2.79735">
        <ele>1305.19</ele>
        <time>2021-07-23T14:12:12Z</time>
      </trkpt>
      <trkpt lat="45.06773" lon="2.79747">
        <ele>1303.34</ele>
        <time>2021-07-23T14:12:19Z</time>
      </trkpt>
      <trkpt lat="45.06769" lon="2.7976">
        <ele>1302.98</ele>
        <time>2021-07-23T14:12:27Z</time>
      </trkpt>
      <trkpt lat="45.06768" lon="2.79776">
        <ele>1298</ele>
        <time>2021-07-23T14:12:35Z</time>
      </trkpt>
      <trkpt lat="45.06763" lon="2.79787">
        <ele>1298.86</ele>
        <time>2021-07-23T14:12:40Z</time>
      </trkpt>
      <trkpt lat="45.06759" lon="2.798">
        <ele>1299.9</ele>
        <time>2021-07-23T14:12:45Z</time>
      </trkpt>
      <trkpt lat="45.06754" lon="2.79812">
        <ele>1298.58</ele>
        <time>2021-07-23T14:12:49Z</time>
      </trkpt>
      <trkpt lat="45.06753" lon="2.79826">
        <ele>1298.9</ele>
        <time>2021-07-23T14:12:54Z</time>
      </trkpt>
      <trkpt lat="45.06753" lon="2.79839">
        <ele>1297.23</ele>
        <time>2021-07-23T14:12:59Z</time>
      </trkpt>
      <trkpt lat="45.06751" lon="2.79854">
        <ele>1299.37</ele>
        <time>2021-07-23T14:13:05Z</time>
      </trkpt>
      <trkpt lat="45.0675" lon="2.79867">
        <ele>1298.32</ele>
        <time>2021-07-23T14:13:10Z</time>
      </trkpt>
      <trkpt lat="45.06748" lon="2.79881">
        <ele>1297.92</ele>
        <time>2021-07-23T14:13:14Z</time>
      </trkpt>
      <trkpt lat="45.06747" lon="2.79895">
        <ele>1300.25</ele>
        <time>2021-07-23T14:13:17Z</time>
      </trkpt>
      <trkpt lat="45.06748" lon="2.79911">
        <ele>1307.18</ele>
        <time>2021-07-23T14:13:21Z</time>
      </trkpt>
      <trkpt lat="45.06748" lon="2.79925">
        <ele>1304.92</ele>
        <time>2021-07-23T14:13:25Z</time>
      </trkpt>
      <trkpt lat="45.06748" lon="2.79938">
        <ele>1303.55</ele>
        <time>2021-07-23T14:13:29Z</time>
      </trkpt>
      <trkpt lat="45.06744" lon="2.79952">
        <ele>1302.45</ele>
        <time>2021-07-23T14:13:33Z</time>
      </trkpt>
      <trkpt lat="45.06736" lon="2.79961">
        <ele>1303.43</ele>
        <time>2021-07-23T14:13:38Z</time>
      </trkpt>
      <trkpt lat="45.06729" lon="2.79969">
        <ele>1303.68</ele>
        <time>2021-07-23T14:13:45Z</time>
      </trkpt>
      <trkpt lat="45.06721" lon="2.79976">
        <ele>1302.91</ele>
        <time>2021-07-23T14:13:53Z</time>
      </trkpt>
      <trkpt lat="45.06714" lon="2.79985">
        <ele>1301.89</ele>
        <time>2021-07-23T14:14:02Z</time>
      </trkpt>
      <trkpt lat="45.06707" lon="2.79994">
        <ele>1297.39</ele>
        <time>2021-07-23T14:14:11Z</time>
      </trkpt>
      <trkpt lat="45.06701" lon="2.80004">
        <ele>1303.38</ele>
        <time>2021-07-23T14:14:22Z</time>
      </trkpt>
      <trkpt lat="45.06694" lon="2.80014">
        <ele>1304.54</ele>
        <time>2021-07-23T14:14:32Z</time>
      </trkpt>
      <trkpt lat="45.06687" lon="2.80024">
        <ele>1303.53</ele>
        <time>2021-07-23T14:14:40Z</time>
      </trkpt>
      <trkpt lat="45.0668" lon="2.80032">
        <ele>1303.09</ele>
        <time>2021-07-23T14:14:46Z</time>
      </trkpt>
      <trkpt lat="45.06673" lon="2.80041">
        <ele>1304.56</ele>
        <time>2021-07-23T14:14:56Z</time>
      </trkpt>
      <trkpt lat="45.06665" lon="2.80049">
        <ele>1300.52</ele>
        <time>2021-07-23T14:15:06Z</time>
      </trkpt>
      <trkpt lat="45.06656" lon="2.80059">
        <ele>1297.74</ele>
        <time>2021-07-23T14:15:10Z</time>
      </trkpt>
      <trkpt lat="45.06648" lon="2.80069">
        <ele>1297.49</ele>
        <time>2021-07-23T14:15:13Z</time>
      </trkpt>
      <trkpt lat="45.06641" lon="2.80078">
        <ele>1297.7</ele>
        <time>2021-07-23T14:15:15Z</time>
      </trkpt>
      <trkpt lat="45.06635" lon="2.80088">
        <ele>1296.62</ele>
        <time>2021-07-23T14:15:18Z</time>
      </trkpt>
      <trkpt lat="45.06629" lon="2.80099">
        <ele>1296.57</ele>
        <time>2021-07-23T14:15:22Z</time>
      </trkpt>
      <trkpt lat="45.0662" lon="2.80109">
        <ele>1296.93</ele>
        <time>2021-07-23T14:15:27Z</time>
      </trkpt>
      <trkpt lat="45.06613" lon="2.80121">
        <ele>1297.77</ele>
        <time>2021-07-23T14:15:31Z</time>
      </trkpt>
      <trkpt lat="45.06606" lon="2.80131">
        <ele>1295.32</ele>
        <time>2021-07-23T14:15:35Z</time>
      </trkpt>
      <trkpt lat="45.066" lon="2.80143">
        <ele>1295.88</ele>
        <time>2021-07-23T14:15:39Z</time>
      </trkpt>
      <trkpt lat="45.06593" lon="2.80153">
        <ele>1295.29</ele>
        <time>2021-07-23T14:15:43Z</time>
      </trkpt>
      <trkpt lat="45.06586" lon="2.80162">
        <ele>1295.47</ele>
        <time>2021-07-23T14:15:48Z</time>
      </trkpt>
      <trkpt lat="45.06582" lon="2.80176">
        <ele>1298.79</ele>
        <time>2021-07-23T14:15:53Z</time>
      </trkpt>
      <trkpt lat="45.06577" lon="2.80186">
        <ele>1302.07</ele>
        <time>2021-07-23T14:15:59Z</time>
      </trkpt>
      <trkpt lat="45.06568" lon="2.80195">
        <ele>1303.24</ele>
        <time>2021-07-23T14:16:04Z</time>
      </trkpt>
      <trkpt lat="45.0656" lon="2.80205">
        <ele>1305.19</ele>
        <time>2021-07-23T14:16:09Z</time>
      </trkpt>
      <trkpt lat="45.0655" lon="2.80209">
        <ele>1306.98</ele>
        <time>2021-07-23T14:16:16Z</time>
      </trkpt>
      <trkpt lat="45.0654" lon="2.80209">
        <ele>1307.98</ele>
        <time>2021-07-23T14:16:23Z</time>
      </trkpt>
      <trkpt lat="45.06531" lon="2.80209">
        <ele>1312.16</ele>
        <time>2021-07-23T14:16:30Z</time>
      </trkpt>
      <trkpt lat="45.06521" lon="2.80206">
        <ele>1312.1</ele>
        <time>2021-07-23T14:16:36Z</time>
      </trkpt>
      <trkpt lat="45.06511" lon="2.80209">
        <ele>1312.57</ele>
        <time>2021-07-23T14:16:41Z</time>
      </trkpt>
      <trkpt lat="45.06501" lon="2.80214">
        <ele>1312.74</ele>
        <time>2021-07-23T14:16:46Z</time>
      </trkpt>
      <trkpt lat="45.06492" lon="2.80221">
        <ele>1311.96</ele>
        <time>2021-07-23T14:16:52Z</time>
      </trkpt>
      <trkpt lat="45.06484" lon="2.80227">
        <ele>1310.02</ele>
        <time>2021-07-23T14:16:59Z</time>
      </trkpt>
      <trkpt lat="45.06482" lon="2.80239">
        <ele>1309.16</ele>
        <time>2021-07-23T14:17:04Z</time>
      </trkpt>
      <trkpt lat="45.06475" lon="2.80252">
        <ele>1301.82</ele>
        <time>2021-07-23T14:20:46Z</time>
      </trkpt>
      <trkpt lat="45.06468" lon="2.80265">
        <ele>1302.2</ele>
        <time>2021-07-23T14:20:50Z</time>
      </trkpt>
      <trkpt lat="45.06461" lon="2.80275">
        <ele>1299.55</ele>
        <time>2021-07-23T14:20:53Z</time>
      </trkpt>
      <trkpt lat="45.06456" lon="2.80286">
        <ele>1299.92</ele>
        <time>2021-07-23T14:20:56Z</time>
      </trkpt>
      <trkpt lat="45.06448" lon="2.80297">
        <ele>1299.2</ele>
        <time>2021-07-23T14:20:59Z</time>
      </trkpt>
      <trkpt lat="45.0644" lon="2.80308">
        <ele>1299.37</ele>
        <time>2021-07-23T14:21:03Z</time>
      </trkpt>
      <trkpt lat="45.06432" lon="2.80322">
        <ele>1297.77</ele>
        <time>2021-07-23T14:21:07Z</time>
      </trkpt>
      <trkpt lat="45.06424" lon="2.80336">
        <ele>1296.33</ele>
        <time>2021-07-23T14:21:09Z</time>
      </trkpt>
      <trkpt lat="45.06415" lon="2.80349">
        <ele>1294.27</ele>
        <time>2021-07-23T14:21:12Z</time>
      </trkpt>
      <trkpt lat="45.06407" lon="2.80356">
        <ele>1294.07</ele>
        <time>2021-07-23T14:21:15Z</time>
      </trkpt>
      <trkpt lat="45.06394" lon="2.80353">
        <ele>1291.03</ele>
        <time>2021-07-23T14:21:19Z</time>
      </trkpt>
      <trkpt lat="45.06376" lon="2.80349">
        <ele>1289.41</ele>
        <time>2021-07-23T14:21:20Z</time>
      </trkpt>
      <trkpt lat="45.06365" lon="2.80345">
        <ele>1288.81</ele>
        <time>2021-07-23T14:21:22Z</time>
      </trkpt>
      <trkpt lat="45.06353" lon="2.80344">
        <ele>1288.53</ele>
        <time>2021-07-23T14:21:24Z</time>
      </trkpt>
      <trkpt lat="45.06342" lon="2.80344">
        <ele>1284.98</ele>
        <time>2021-07-23T14:21:26Z</time>
      </trkpt>
      <trkpt lat="45.06331" lon="2.80342">
        <ele>1282.7</ele>
        <time>2021-07-23T14:21:28Z</time>
      </trkpt>
      <trkpt lat="45.06318" lon="2.80338">
        <ele>1280.48</ele>
        <time>2021-07-23T14:21:31Z</time>
      </trkpt>
      <trkpt lat="45.06306" lon="2.80343">
        <ele>1278.44</ele>
        <time>2021-07-23T14:21:34Z</time>
      </trkpt>
      <trkpt lat="45.06297" lon="2.80356">
        <ele>1276.8</ele>
        <time>2021-07-23T14:21:37Z</time>
      </trkpt>
      <trkpt lat="45.06297" lon="2.80372">
        <ele>1275.15</ele>
        <time>2021-07-23T14:21:41Z</time>
      </trkpt>
      <trkpt lat="45.06302" lon="2.8039">
        <ele>1274.05</ele>
        <time>2021-07-23T14:21:44Z</time>
      </trkpt>
      <trkpt lat="45.06304" lon="2.80403">
        <ele>1275.1</ele>
        <time>2021-07-23T14:21:46Z</time>
      </trkpt>
      <trkpt lat="45.06297" lon="2.80411">
        <ele>1274.58</ele>
        <time>2021-07-23T14:22:08Z</time>
      </trkpt>
      <trkpt lat="45.06287" lon="2.8041">
        <ele>1276.09</ele>
        <time>2021-07-23T14:22:14Z</time>
      </trkpt>
      <trkpt lat="45.06276" lon="2.80409">
        <ele>1276.39</ele>
        <time>2021-07-23T14:22:20Z</time>
      </trkpt>
      <trkpt lat="45.06266" lon="2.80411">
        <ele>1276.52</ele>
        <time>2021-07-23T14:22:26Z</time>
      </trkpt>
      <trkpt lat="45.06258" lon="2.80415">
        <ele>1278.53</ele>
        <time>2021-07-23T14:22:32Z</time>
      </trkpt>
      <trkpt lat="45.06254" lon="2.80428">
        <ele>1278.35</ele>
        <time>2021-07-23T14:22:37Z</time>
      </trkpt>
      <trkpt lat="45.06253" lon="2.80443">
        <ele>1275.91</ele>
        <time>2021-07-23T14:22:41Z</time>
      </trkpt>
      <trkpt lat="45.06251" lon="2.80458">
        <ele>1275.19</ele>
        <time>2021-07-23T14:22:45Z</time>
      </trkpt>
      <trkpt lat="45.06249" lon="2.80473">
        <ele>1274.84</ele>
        <time>2021-07-23T14:22:48Z</time>
      </trkpt>
      <trkpt lat="45.06248" lon="2.80486">
        <ele>1275.01</ele>
        <time>2021-07-23T14:22:51Z</time>
      </trkpt>
      <trkpt lat="45.06247" lon="2.80501">
        <ele>1274.93</ele>
        <time>2021-07-23T14:22:56Z</time>
      </trkpt>
      <trkpt lat="45.06247" lon="2.80515">
        <ele>1274.38</ele>
        <time>2021-07-23T14:23:00Z</time>
      </trkpt>
      <trkpt lat="45.06251" lon="2.8053">
        <ele>1274.26</ele>
        <time>2021-07-23T14:23:04Z</time>
      </trkpt>
      <trkpt lat="45.06253" lon="2.80546">
        <ele>1274.17</ele>
        <time>2021-07-23T14:23:08Z</time>
      </trkpt>
      <trkpt lat="45.06252" lon="2.80563">
        <ele>1273.64</ele>
        <time>2021-07-23T14:23:12Z</time>
      </trkpt>
      <trkpt lat="45.06252" lon="2.80576">
        <ele>1273.35</ele>
        <time>2021-07-23T14:23:15Z</time>
      </trkpt>
      <trkpt lat="45.06251" lon="2.80593">
        <ele>1272.59</ele>
        <time>2021-07-23T14:23:19Z</time>
      </trkpt>
      <trkpt lat="45.06251" lon="2.80608">
        <ele>1272.16</ele>
        <time>2021-07-23T14:23:22Z</time>
      </trkpt>
      <trkpt lat="45.06253" lon="2.80622">
        <ele>1271.84</ele>
        <time>2021-07-23T14:23:25Z</time>
      </trkpt>
      <trkpt lat="45.06253" lon="2.80635">
        <ele>1271.3</ele>
        <time>2021-07-23T14:23:28Z</time>
      </trkpt>
      <trkpt lat="45.06254" lon="2.8065">
        <ele>1270.53</ele>
        <time>2021-07-23T14:23:31Z</time>
      </trkpt>
      <trkpt lat="45.06255" lon="2.80663">
        <ele>1270.1</ele>
        <time>2021-07-23T14:23:34Z</time>
      </trkpt>
      <trkpt lat="45.06258" lon="2.80675">
        <ele>1269.27</ele>
        <time>2021-07-23T14:23:38Z</time>
      </trkpt>
      <trkpt lat="45.0626" lon="2.80689">
        <ele>1269.91</ele>
        <time>2021-07-23T14:23:43Z</time>
      </trkpt>
      <trkpt lat="45.06255" lon="2.80676">
        <ele>1271.05</ele>
        <time>2021-07-23T14:27:45Z</time>
      </trkpt>
      <trkpt lat="45.06255" lon="2.80662">
        <ele>1271.62</ele>
        <time>2021-07-23T14:28:00Z</time>
      </trkpt>
      <trkpt lat="45.0625" lon="2.8065">
        <ele>1272.69</ele>
        <time>2021-07-23T14:28:08Z</time>
      </trkpt>
      <trkpt lat="45.06245" lon="2.8064">
        <ele>1276.97</ele>
        <time>2021-07-23T14:28:21Z</time>
      </trkpt>
      <trkpt lat="45.06241" lon="2.80628">
        <ele>1274.03</ele>
        <time>2021-07-23T14:28:27Z</time>
      </trkpt>
      <trkpt lat="45.06237" lon="2.80616">
        <ele>1273.53</ele>
        <time>2021-07-23T14:28:35Z</time>
      </trkpt>
      <trkpt lat="45.06233" lon="2.80603">
        <ele>1275.79</ele>
        <time>2021-07-23T14:28:44Z</time>
      </trkpt>
      <trkpt lat="45.0623" lon="2.8059">
        <ele>1278.01</ele>
        <time>2021-07-23T14:28:52Z</time>
      </trkpt>
      <trkpt lat="45.06223" lon="2.80581">
        <ele>1279.09</ele>
        <time>2021-07-23T14:29:00Z</time>
      </trkpt>
      <trkpt lat="45.06215" lon="2.80572">
        <ele>1279.44</ele>
        <time>2021-07-23T14:29:07Z</time>
      </trkpt>
      <trkpt lat="45.06207" lon="2.80564">
        <ele>1282.1</ele>
        <time>2021-07-23T14:29:12Z</time>
      </trkpt>
      <trkpt lat="45.062" lon="2.80556">
        <ele>1282.79</ele>
        <time>2021-07-23T14:29:17Z</time>
      </trkpt>
      <trkpt lat="45.06192" lon="2.80549">
        <ele>1282.96</ele>
        <time>2021-07-23T14:29:24Z</time>
      </trkpt>
      <trkpt lat="45.06182" lon="2.80546">
        <ele>1283.91</ele>
        <time>2021-07-23T14:29:31Z</time>
      </trkpt>
      <trkpt lat="45.06174" lon="2.80539">
        <ele>1283.24</ele>
        <time>2021-07-23T14:29:37Z</time>
      </trkpt>
      <trkpt lat="45.06167" lon="2.8053">
        <ele>1282.95</ele>
        <time>2021-07-23T14:29:44Z</time>
      </trkpt>
      <trkpt lat="45.06163" lon="2.80518">
        <ele>1284.15</ele>
        <time>2021-07-23T14:29:51Z</time>
      </trkpt>
      <trkpt lat="45.06153" lon="2.80517">
        <ele>1281.92</ele>
        <time>2021-07-23T14:30:07Z</time>
      </trkpt>
      <trkpt lat="45.06144" lon="2.80513">
        <ele>1288.62</ele>
        <time>2021-07-23T14:30:36Z</time>
      </trkpt>
      <trkpt lat="45.06135" lon="2.80511">
        <ele>1288.65</ele>
        <time>2021-07-23T14:32:38Z</time>
      </trkpt>
      <trkpt lat="45.06126" lon="2.80513">
        <ele>1297.9</ele>
        <time>2021-07-23T14:32:56Z</time>
      </trkpt>
      <trkpt lat="45.06118" lon="2.80521">
        <ele>1302.06</ele>
        <time>2021-07-23T14:33:10Z</time>
      </trkpt>
      <trkpt lat="45.0611" lon="2.80528">
        <ele>1296.81</ele>
        <time>2021-07-23T14:33:23Z</time>
      </trkpt>
      <trkpt lat="45.06102" lon="2.80534">
        <ele>1300.75</ele>
        <time>2021-07-23T14:33:32Z</time>
      </trkpt>
      <trkpt lat="45.06099" lon="2.80546">
        <ele>1307.6</ele>
        <time>2021-07-23T14:33:54Z</time>
      </trkpt>
      <trkpt lat="45.06093" lon="2.80556">
        <ele>1311.67</ele>
        <time>2021-07-23T14:34:15Z</time>
      </trkpt>
      <trkpt lat="45.06086" lon="2.80565">
        <ele>1313.38</ele>
        <time>2021-07-23T14:34:29Z</time>
      </trkpt>
      <trkpt lat="45.06077" lon="2.80568">
        <ele>1314.61</ele>
        <time>2021-07-23T14:34:43Z</time>
      </trkpt>
      <trkpt lat="45.06068" lon="2.80562">
        <ele>1314.22</ele>
        <time>2021-07-23T14:34:57Z</time>
      </trkpt>
      <trkpt lat="45.06059" lon="2.80564">
        <ele>1313.92</ele>
        <time>2021-07-23T14:35:10Z</time>
      </trkpt>
      <trkpt lat="45.06051" lon="2.80571">
        <ele>1313.84</ele>
        <time>2021-07-23T14:35:29Z</time>
      </trkpt>
      <trkpt lat="45.06042" lon="2.80573">
        <ele>1316.15</ele>
        <time>2021-07-23T14:35:41Z</time>
      </trkpt>
      <trkpt lat="45.06034" lon="2.8058">
        <ele>1316.17</ele>
        <time>2021-07-23T14:35:56Z</time>
      </trkpt>
      <trkpt lat="45.06024" lon="2.80582">
        <ele>1316.6</ele>
        <time>2021-07-23T14:36:07Z</time>
      </trkpt>
      <trkpt lat="45.06015" lon="2.8058">
        <ele>1316.28</ele>
        <time>2021-07-23T14:36:20Z</time>
      </trkpt>
      <trkpt lat="45.06006" lon="2.80585">
        <ele>1318.02</ele>
        <time>2021-07-23T14:36:30Z</time>
      </trkpt>
      <trkpt lat="45.05997" lon="2.80585">
        <ele>1319.92</ele>
        <time>2021-07-23T14:36:40Z</time>
      </trkpt>
      <trkpt lat="45.05988" lon="2.80587">
        <ele>1322.68</ele>
        <time>2021-07-23T14:36:54Z</time>
      </trkpt>
      <trkpt lat="45.0598" lon="2.80593">
        <ele>1323.27</ele>
        <time>2021-07-23T14:37:26Z</time>
      </trkpt>
      <trkpt lat="45.05971" lon="2.80594">
        <ele>1320.75</ele>
        <time>2021-07-23T14:37:37Z</time>
      </trkpt>
      <trkpt lat="45.05961" lon="2.80596">
        <ele>1319.53</ele>
        <time>2021-07-23T14:37:43Z</time>
      </trkpt>
      <trkpt lat="45.05951" lon="2.80599">
        <ele>1319.92</ele>
        <time>2021-07-23T14:37:49Z</time>
      </trkpt>
      <trkpt lat="45.05942" lon="2.80603">
        <ele>1320.16</ele>
        <time>2021-07-23T14:37:57Z</time>
      </trkpt>
      <trkpt lat="45.05934" lon="2.80609">
        <ele>1319.09</ele>
        <time>2021-07-23T14:38:04Z</time>
      </trkpt>
      <trkpt lat="45.05925" lon="2.80614">
        <ele>1322.31</ele>
        <time>2021-07-23T14:38:10Z</time>
      </trkpt>
      <trkpt lat="45.05916" lon="2.80622">
        <ele>1326.31</ele>
        <time>2021-07-23T14:38:17Z</time>
      </trkpt>
      <trkpt lat="45.0591" lon="2.80635">
        <ele>1327.92</ele>
        <time>2021-07-23T14:38:23Z</time>
      </trkpt>
      <trkpt lat="45.05906" lon="2.80649">
        <ele>1329.88</ele>
        <time>2021-07-23T14:38:28Z</time>
      </trkpt>
      <trkpt lat="45.059" lon="2.80659">
        <ele>1326.78</ele>
        <time>2021-07-23T14:40:26Z</time>
      </trkpt>
      <trkpt lat="45.05894" lon="2.8067">
        <ele>1325.72</ele>
        <time>2021-07-23T14:40:30Z</time>
      </trkpt>
      <trkpt lat="45.05888" lon="2.8068">
        <ele>1326.91</ele>
        <time>2021-07-23T14:40:33Z</time>
      </trkpt>
      <trkpt lat="45.05882" lon="2.8069">
        <ele>1327.3</ele>
        <time>2021-07-23T14:40:36Z</time>
      </trkpt>
      <trkpt lat="45.05874" lon="2.80703">
        <ele>1326.89</ele>
        <time>2021-07-23T14:40:39Z</time>
      </trkpt>
      <trkpt lat="45.05866" lon="2.80709">
        <ele>1325.67</ele>
        <time>2021-07-23T14:40:42Z</time>
      </trkpt>
      <trkpt lat="45.05861" lon="2.80725">
        <ele>1322.59</ele>
        <time>2021-07-23T14:40:47Z</time>
      </trkpt>
      <trkpt lat="45.0586" lon="2.80741">
        <ele>1324.21</ele>
        <time>2021-07-23T14:40:51Z</time>
      </trkpt>
      <trkpt lat="45.05859" lon="2.80754">
        <ele>1324.72</ele>
        <time>2021-07-23T14:40:55Z</time>
      </trkpt>
      <trkpt lat="45.05862" lon="2.80768">
        <ele>1325.92</ele>
        <time>2021-07-23T14:41:00Z</time>
      </trkpt>
      <trkpt lat="45.05866" lon="2.80781">
        <ele>1326.02</ele>
        <time>2021-07-23T14:41:04Z</time>
      </trkpt>
      <trkpt lat="45.0587" lon="2.80795">
        <ele>1325.29</ele>
        <time>2021-07-23T14:41:08Z</time>
      </trkpt>
      <trkpt lat="45.05872" lon="2.80808">
        <ele>1324.33</ele>
        <time>2021-07-23T14:41:11Z</time>
      </trkpt>
      <trkpt lat="45.05876" lon="2.80824">
        <ele>1322.16</ele>
        <time>2021-07-23T14:41:14Z</time>
      </trkpt>
      <trkpt lat="45.05878" lon="2.80842">
        <ele>1322.66</ele>
        <time>2021-07-23T14:41:17Z</time>
      </trkpt>
      <trkpt lat="45.05882" lon="2.80858">
        <ele>1323.61</ele>
        <time>2021-07-23T14:41:20Z</time>
      </trkpt>
      <trkpt lat="45.05885" lon="2.8087">
        <ele>1324.83</ele>
        <time>2021-07-23T14:41:24Z</time>
      </trkpt>
      <trkpt lat="45.05887" lon="2.80886">
        <ele>1328.43</ele>
        <time>2021-07-23T14:41:48Z</time>
      </trkpt>
      <trkpt lat="45.05891" lon="2.809">
        <ele>1327.5</ele>
        <time>2021-07-23T14:41:52Z</time>
      </trkpt>
      <trkpt lat="45.05894" lon="2.80913">
        <ele>1328.56</ele>
        <time>2021-07-23T14:41:56Z</time>
      </trkpt>
      <trkpt lat="45.05897" lon="2.80927">
        <ele>1328.32</ele>
        <time>2021-07-23T14:42:00Z</time>
      </trkpt>
      <trkpt lat="45.05899" lon="2.80942">
        <ele>1329.81</ele>
        <time>2021-07-23T14:42:05Z</time>
      </trkpt>
      <trkpt lat="45.05902" lon="2.80956">
        <ele>1333.43</ele>
        <time>2021-07-23T14:42:10Z</time>
      </trkpt>
      <trkpt lat="45.05905" lon="2.80968">
        <ele>1333.17</ele>
        <time>2021-07-23T14:42:16Z</time>
      </trkpt>
      <trkpt lat="45.05908" lon="2.80982">
        <ele>1333.49</ele>
        <time>2021-07-23T14:42:22Z</time>
      </trkpt>
      <trkpt lat="45.05911" lon="2.80995">
        <ele>1334.76</ele>
        <time>2021-07-23T14:42:27Z</time>
      </trkpt>
      <trkpt lat="45.05914" lon="2.81008">
        <ele>1334.19</ele>
        <time>2021-07-23T14:42:31Z</time>
      </trkpt>
      <trkpt lat="45.05917" lon="2.8102">
        <ele>1335.52</ele>
        <time>2021-07-23T14:42:35Z</time>
      </trkpt>
      <trkpt lat="45.05922" lon="2.81032">
        <ele>1335.61</ele>
        <time>2021-07-23T14:42:39Z</time>
      </trkpt>
      <trkpt lat="45.05926" lon="2.81046">
        <ele>1336.17</ele>
        <time>2021-07-23T14:42:44Z</time>
      </trkpt>
      <trkpt lat="45.05928" lon="2.8106">
        <ele>1337.34</ele>
        <time>2021-07-23T14:42:48Z</time>
      </trkpt>
      <trkpt lat="45.05932" lon="2.81075">
        <ele>1336.84</ele>
        <time>2021-07-23T14:42:51Z</time>
      </trkpt>
      <trkpt lat="45.05934" lon="2.81089">
        <ele>1335.34</ele>
        <time>2021-07-23T14:42:54Z</time>
      </trkpt>
      <trkpt lat="45.05936" lon="2.81103">
        <ele>1333.79</ele>
        <time>2021-07-23T14:42:57Z</time>
      </trkpt>
      <trkpt lat="45.05938" lon="2.81118">
        <ele>1332.66</ele>
        <time>2021-07-23T14:43:00Z</time>
      </trkpt>
      <trkpt lat="45.05941" lon="2.81136">
        <ele>1333.09</ele>
        <time>2021-07-23T14:43:03Z</time>
      </trkpt>
      <trkpt lat="45.05945" lon="2.81154">
        <ele>1331.79</ele>
        <time>2021-07-23T14:43:06Z</time>
      </trkpt>
      <trkpt lat="45.05947" lon="2.8117">
        <ele>1329.89</ele>
        <time>2021-07-23T14:43:08Z</time>
      </trkpt>
      <trkpt lat="45.0595" lon="2.81186">
        <ele>1329.92</ele>
        <time>2021-07-23T14:43:10Z</time>
      </trkpt>
      <trkpt lat="45.05953" lon="2.81203">
        <ele>1331</ele>
        <time>2021-07-23T14:43:12Z</time>
      </trkpt>
      <trkpt lat="45.05956" lon="2.81218">
        <ele>1332.53</ele>
        <time>2021-07-23T14:43:14Z</time>
      </trkpt>
      <trkpt lat="45.05957" lon="2.81231">
        <ele>1333.04</ele>
        <time>2021-07-23T14:43:16Z</time>
      </trkpt>
      <trkpt lat="45.05956" lon="2.81246">
        <ele>1332.47</ele>
        <time>2021-07-23T14:43:18Z</time>
      </trkpt>
      <trkpt lat="45.05956" lon="2.81259">
        <ele>1333.01</ele>
        <time>2021-07-23T14:43:20Z</time>
      </trkpt>
      <trkpt lat="45.05952" lon="2.81277">
        <ele>1334.92</ele>
        <time>2021-07-23T14:43:23Z</time>
      </trkpt>
      <trkpt lat="45.0595" lon="2.81296">
        <ele>1333.54</ele>
        <time>2021-07-23T14:43:26Z</time>
      </trkpt>
      <trkpt lat="45.05949" lon="2.8131">
        <ele>1332.65</ele>
        <time>2021-07-23T14:43:28Z</time>
      </trkpt>
      <trkpt lat="45.05948" lon="2.81324">
        <ele>1332.1</ele>
        <time>2021-07-23T14:43:30Z</time>
      </trkpt>
      <trkpt lat="45.05947" lon="2.81341">
        <ele>1331.97</ele>
        <time>2021-07-23T14:43:32Z</time>
      </trkpt>
      <trkpt lat="45.05948" lon="2.81358">
        <ele>1331.51</ele>
        <time>2021-07-23T14:43:34Z</time>
      </trkpt>
      <trkpt lat="45.05947" lon="2.81371">
        <ele>1331.75</ele>
        <time>2021-07-23T14:43:36Z</time>
      </trkpt>
      <trkpt lat="45.05948" lon="2.81391">
        <ele>1330.54</ele>
        <time>2021-07-23T14:43:39Z</time>
      </trkpt>
      <trkpt lat="45.05947" lon="2.81408">
        <ele>1330.61</ele>
        <time>2021-07-23T14:43:42Z</time>
      </trkpt>
      <trkpt lat="45.05948" lon="2.81422">
        <ele>1330.37</ele>
        <time>2021-07-23T14:43:44Z</time>
      </trkpt>
      <trkpt lat="45.05947" lon="2.81437">
        <ele>1329.74</ele>
        <time>2021-07-23T14:43:47Z</time>
      </trkpt>
      <trkpt lat="45.05947" lon="2.81454">
        <ele>1328.78</ele>
        <time>2021-07-23T14:43:50Z</time>
      </trkpt>
      <trkpt lat="45.05945" lon="2.81472">
        <ele>1327.84</ele>
        <time>2021-07-23T14:43:53Z</time>
      </trkpt>
      <trkpt lat="45.05944" lon="2.81491">
        <ele>1325.81</ele>
        <time>2021-07-23T14:43:56Z</time>
      </trkpt>
      <trkpt lat="45.05945" lon="2.8151">
        <ele>1325.2</ele>
        <time>2021-07-23T14:43:59Z</time>
      </trkpt>
      <trkpt lat="45.05945" lon="2.81524">
        <ele>1324.64</ele>
        <time>2021-07-23T14:44:01Z</time>
      </trkpt>
      <trkpt lat="45.05944" lon="2.81539">
        <ele>1323.36</ele>
        <time>2021-07-23T14:44:03Z</time>
      </trkpt>
      <trkpt lat="45.05943" lon="2.81555">
        <ele>1322.07</ele>
        <time>2021-07-23T14:44:05Z</time>
      </trkpt>
      <trkpt lat="45.05943" lon="2.81571">
        <ele>1321.4</ele>
        <time>2021-07-23T14:44:07Z</time>
      </trkpt>
      <trkpt lat="45.05943" lon="2.81586">
        <ele>1319.73</ele>
        <time>2021-07-23T14:44:09Z</time>
      </trkpt>
      <trkpt lat="45.05942" lon="2.81601">
        <ele>1317.73</ele>
        <time>2021-07-23T14:44:11Z</time>
      </trkpt>
      <trkpt lat="45.05941" lon="2.8162">
        <ele>1314.57</ele>
        <time>2021-07-23T14:44:13Z</time>
      </trkpt>
      <trkpt lat="45.05939" lon="2.81638">
        <ele>1314</ele>
        <time>2021-07-23T14:44:15Z</time>
      </trkpt>
      <trkpt lat="45.05935" lon="2.81657">
        <ele>1313.86</ele>
        <time>2021-07-23T14:44:17Z</time>
      </trkpt>
      <trkpt lat="45.05935" lon="2.81674">
        <ele>1313.83</ele>
        <time>2021-07-23T14:44:19Z</time>
      </trkpt>
      <trkpt lat="45.05936" lon="2.81691">
        <ele>1313.52</ele>
        <time>2021-07-23T14:44:21Z</time>
      </trkpt>
      <trkpt lat="45.05937" lon="2.81707">
        <ele>1314.08</ele>
        <time>2021-07-23T14:44:23Z</time>
      </trkpt>
      <trkpt lat="45.0594" lon="2.81719">
        <ele>1314.47</ele>
        <time>2021-07-23T14:44:25Z</time>
      </trkpt>
      <trkpt lat="45.05943" lon="2.81732">
        <ele>1313.9</ele>
        <time>2021-07-23T14:44:27Z</time>
      </trkpt>
      <trkpt lat="45.05945" lon="2.81745">
        <ele>1314.12</ele>
        <time>2021-07-23T14:44:29Z</time>
      </trkpt>
      <trkpt lat="45.05947" lon="2.81762">
        <ele>1313.54</ele>
        <time>2021-07-23T14:44:32Z</time>
      </trkpt>
      <trkpt lat="45.05948" lon="2.81777">
        <ele>1314.2</ele>
        <time>2021-07-23T14:44:37Z</time>
      </trkpt>
      <trkpt lat="45.05949" lon="2.81792">
        <ele>1314.23</ele>
        <time>2021-07-23T14:44:41Z</time>
      </trkpt>
      <trkpt lat="45.05952" lon="2.81807">
        <ele>1316.23</ele>
        <time>2021-07-23T14:44:45Z</time>
      </trkpt>
      <trkpt lat="45.05952" lon="2.81822">
        <ele>1316.15</ele>
        <time>2021-07-23T14:45:53Z</time>
      </trkpt>
      <trkpt lat="45.05953" lon="2.81837">
        <ele>1314.63</ele>
        <time>2021-07-23T14:45:58Z</time>
      </trkpt>
      <trkpt lat="45.05958" lon="2.81852">
        <ele>1313.27</ele>
        <time>2021-07-23T14:46:01Z</time>
      </trkpt>
      <trkpt lat="45.05958" lon="2.81866">
        <ele>1311.47</ele>
        <time>2021-07-23T14:46:04Z</time>
      </trkpt>
      <trkpt lat="45.05961" lon="2.8188">
        <ele>1309.72</ele>
        <time>2021-07-23T14:46:07Z</time>
      </trkpt>
      <trkpt lat="45.05966" lon="2.81894">
        <ele>1308.78</ele>
        <time>2021-07-23T14:46:10Z</time>
      </trkpt>
      <trkpt lat="45.0597" lon="2.81908">
        <ele>1307.38</ele>
        <time>2021-07-23T14:46:14Z</time>
      </trkpt>
      <trkpt lat="45.05974" lon="2.8192">
        <ele>1305.56</ele>
        <time>2021-07-23T14:46:17Z</time>
      </trkpt>
      <trkpt lat="45.05978" lon="2.81933">
        <ele>1304.88</ele>
        <time>2021-07-23T14:46:20Z</time>
      </trkpt>
      <trkpt lat="45.05981" lon="2.81948">
        <ele>1302.25</ele>
        <time>2021-07-23T14:46:23Z</time>
      </trkpt>
      <trkpt lat="45.05984" lon="2.81963">
        <ele>1301.75</ele>
        <time>2021-07-23T14:46:26Z</time>
      </trkpt>
      <trkpt lat="45.05988" lon="2.81976">
        <ele>1300.13</ele>
        <time>2021-07-23T14:46:29Z</time>
      </trkpt>
      <trkpt lat="45.05993" lon="2.81992">
        <ele>1298.38</ele>
        <time>2021-07-23T14:46:31Z</time>
      </trkpt>
      <trkpt lat="45.06002" lon="2.82008">
        <ele>1297.92</ele>
        <time>2021-07-23T14:46:33Z</time>
      </trkpt>
      <trkpt lat="45.06012" lon="2.82027">
        <ele>1293.58</ele>
        <time>2021-07-23T14:46:35Z</time>
      </trkpt>
      <trkpt lat="45.06022" lon="2.82047">
        <ele>1291.4</ele>
        <time>2021-07-23T14:46:37Z</time>
      </trkpt>
      <trkpt lat="45.06033" lon="2.82065">
        <ele>1290.22</ele>
        <time>2021-07-23T14:46:39Z</time>
      </trkpt>
      <trkpt lat="45.06045" lon="2.82086">
        <ele>1288.79</ele>
        <time>2021-07-23T14:46:41Z</time>
      </trkpt>
      <trkpt lat="45.06051" lon="2.82097">
        <ele>1288.37</ele>
        <time>2021-07-23T14:46:42Z</time>
      </trkpt>
      <trkpt lat="45.06058" lon="2.82108">
        <ele>1285.65</ele>
        <time>2021-07-23T14:46:43Z</time>
      </trkpt>
      <trkpt lat="45.06065" lon="2.8212">
        <ele>1284.49</ele>
        <time>2021-07-23T14:46:44Z</time>
      </trkpt>
      <trkpt lat="45.06072" lon="2.82133">
        <ele>1283.65</ele>
        <time>2021-07-23T14:46:45Z</time>
      </trkpt>
      <trkpt lat="45.06078" lon="2.82146">
        <ele>1283</ele>
        <time>2021-07-23T14:46:46Z</time>
      </trkpt>
      <trkpt lat="45.06084" lon="2.82159">
        <ele>1282.59</ele>
        <time>2021-07-23T14:46:47Z</time>
      </trkpt>
      <trkpt lat="45.06088" lon="2.82172">
        <ele>1282.73</ele>
        <time>2021-07-23T14:46:48Z</time>
      </trkpt>
      <trkpt lat="45.06093" lon="2.82183">
        <ele>1283.31</ele>
        <time>2021-07-23T14:46:49Z</time>
      </trkpt>
      <trkpt lat="45.061" lon="2.82198">
        <ele>1282.63</ele>
        <time>2021-07-23T14:46:51Z</time>
      </trkpt>
      <trkpt lat="45.06107" lon="2.82212">
        <ele>1282.21</ele>
        <time>2021-07-23T14:46:53Z</time>
      </trkpt>
      <trkpt lat="45.06113" lon="2.82226">
        <ele>1281.72</ele>
        <time>2021-07-23T14:46:55Z</time>
      </trkpt>
      <trkpt lat="45.06122" lon="2.82241">
        <ele>1280.91</ele>
        <time>2021-07-23T14:46:57Z</time>
      </trkpt>
      <trkpt lat="45.06131" lon="2.82257">
        <ele>1279.97</ele>
        <time>2021-07-23T14:46:59Z</time>
      </trkpt>
      <trkpt lat="45.06139" lon="2.82272">
        <ele>1279.67</ele>
        <time>2021-07-23T14:47:01Z</time>
      </trkpt>
      <trkpt lat="45.06149" lon="2.82289">
        <ele>1279.4</ele>
        <time>2021-07-23T14:47:03Z</time>
      </trkpt>
      <trkpt lat="45.06158" lon="2.82307">
        <ele>1278.83</ele>
        <time>2021-07-23T14:47:05Z</time>
      </trkpt>
      <trkpt lat="45.06166" lon="2.82326">
        <ele>1275.36</ele>
        <time>2021-07-23T14:47:07Z</time>
      </trkpt>
      <trkpt lat="45.06172" lon="2.82337">
        <ele>1274.61</ele>
        <time>2021-07-23T14:47:08Z</time>
      </trkpt>
      <trkpt lat="45.06182" lon="2.82357">
        <ele>1274.12</ele>
        <time>2021-07-23T14:47:10Z</time>
      </trkpt>
      <trkpt lat="45.0619" lon="2.82368">
        <ele>1274.14</ele>
        <time>2021-07-23T14:47:11Z</time>
      </trkpt>
      <trkpt lat="45.062" lon="2.82387">
        <ele>1273.48</ele>
        <time>2021-07-23T14:47:13Z</time>
      </trkpt>
      <trkpt lat="45.06213" lon="2.82406">
        <ele>1274.34</ele>
        <time>2021-07-23T14:47:15Z</time>
      </trkpt>
      <trkpt lat="45.06222" lon="2.82426">
        <ele>1274.3</ele>
        <time>2021-07-23T14:47:17Z</time>
      </trkpt>
      <trkpt lat="45.06229" lon="2.82447">
        <ele>1273.75</ele>
        <time>2021-07-23T14:47:19Z</time>
      </trkpt>
      <trkpt lat="45.06233" lon="2.82459">
        <ele>1272.82</ele>
        <time>2021-07-23T14:47:20Z</time>
      </trkpt>
      <trkpt lat="45.06233" lon="2.82479">
        <ele>1273.2</ele>
        <time>2021-07-23T14:47:22Z</time>
      </trkpt>
      <trkpt lat="45.06227" lon="2.82496">
        <ele>1274.34</ele>
        <time>2021-07-23T14:47:24Z</time>
      </trkpt>
      <trkpt lat="45.06223" lon="2.82512">
        <ele>1274.36</ele>
        <time>2021-07-23T14:47:26Z</time>
      </trkpt>
      <trkpt lat="45.0622" lon="2.82527">
        <ele>1274.74</ele>
        <time>2021-07-23T14:47:28Z</time>
      </trkpt>
      <trkpt lat="45.06229" lon="2.82541">
        <ele>1276.24</ele>
        <time>2021-07-23T14:47:30Z</time>
      </trkpt>
      <trkpt lat="45.06239" lon="2.82549">
        <ele>1275.35</ele>
        <time>2021-07-23T14:47:32Z</time>
      </trkpt>
      <trkpt lat="45.0625" lon="2.82546">
        <ele>1276.63</ele>
        <time>2021-07-23T14:47:34Z</time>
      </trkpt>
      <trkpt lat="45.06259" lon="2.82549">
        <ele>1277.02</ele>
        <time>2021-07-23T14:47:36Z</time>
      </trkpt>
      <trkpt lat="45.06269" lon="2.82553">
        <ele>1277.97</ele>
        <time>2021-07-23T14:47:39Z</time>
      </trkpt>
      <trkpt lat="45.0627" lon="2.82566">
        <ele>1271.81</ele>
        <time>2021-07-23T14:49:21Z</time>
      </trkpt>
      <trkpt lat="45.06276" lon="2.82575">
        <ele>1272.34</ele>
        <time>2021-07-23T14:49:45Z</time>
      </trkpt>
      <trkpt lat="45.06281" lon="2.82586">
        <ele>1273.42</ele>
        <time>2021-07-23T14:49:52Z</time>
      </trkpt>
      <trkpt lat="45.06284" lon="2.82599">
        <ele>1271.43</ele>
        <time>2021-07-23T14:49:58Z</time>
      </trkpt>
      <trkpt lat="45.06286" lon="2.82613">
        <ele>1268.17</ele>
        <time>2021-07-23T14:50:03Z</time>
      </trkpt>
      <trkpt lat="45.06288" lon="2.82626">
        <ele>1267.09</ele>
        <time>2021-07-23T14:50:08Z</time>
      </trkpt>
      <trkpt lat="45.06293" lon="2.82637">
        <ele>1268.32</ele>
        <time>2021-07-23T14:50:12Z</time>
      </trkpt>
      <trkpt lat="45.06298" lon="2.8265">
        <ele>1270.33</ele>
        <time>2021-07-23T14:50:17Z</time>
      </trkpt>
      <trkpt lat="45.06296" lon="2.82664">
        <ele>1272.32</ele>
        <time>2021-07-23T14:50:23Z</time>
      </trkpt>
      <trkpt lat="45.06293" lon="2.82677">
        <ele>1271.57</ele>
        <time>2021-07-23T14:50:28Z</time>
      </trkpt>
      <trkpt lat="45.06292" lon="2.82691">
        <ele>1271.48</ele>
        <time>2021-07-23T14:50:33Z</time>
      </trkpt>
      <trkpt lat="45.06292" lon="2.82705">
        <ele>1270.95</ele>
        <time>2021-07-23T14:50:38Z</time>
      </trkpt>
      <trkpt lat="45.06299" lon="2.82719">
        <ele>1269.92</ele>
        <time>2021-07-23T14:50:44Z</time>
      </trkpt>
      <trkpt lat="45.06305" lon="2.82729">
        <ele>1269.7</ele>
        <time>2021-07-23T14:50:47Z</time>
      </trkpt>
      <trkpt lat="45.06312" lon="2.82741">
        <ele>1270.32</ele>
        <time>2021-07-23T14:50:50Z</time>
      </trkpt>
      <trkpt lat="45.06318" lon="2.82752">
        <ele>1270.81</ele>
        <time>2021-07-23T14:50:53Z</time>
      </trkpt>
      <trkpt lat="45.06325" lon="2.82761">
        <ele>1271.36</ele>
        <time>2021-07-23T14:50:56Z</time>
      </trkpt>
      <trkpt lat="45.06334" lon="2.82767">
        <ele>1272.46</ele>
        <time>2021-07-23T14:51:01Z</time>
      </trkpt>
      <trkpt lat="45.06342" lon="2.82773">
        <ele>1272.39</ele>
        <time>2021-07-23T14:51:05Z</time>
      </trkpt>
      <trkpt lat="45.06352" lon="2.82777">
        <ele>1271.42</ele>
        <time>2021-07-23T14:51:09Z</time>
      </trkpt>
      <trkpt lat="45.06363" lon="2.82783">
        <ele>1271.55</ele>
        <time>2021-07-23T14:51:12Z</time>
      </trkpt>
      <trkpt lat="45.06372" lon="2.82787">
        <ele>1269.48</ele>
        <time>2021-07-23T14:51:14Z</time>
      </trkpt>
      <trkpt lat="45.06385" lon="2.82791">
        <ele>1267.04</ele>
        <time>2021-07-23T14:51:16Z</time>
      </trkpt>
      <trkpt lat="45.06394" lon="2.82795">
        <ele>1266.81</ele>
        <time>2021-07-23T14:51:19Z</time>
      </trkpt>
      <trkpt lat="45.06404" lon="2.82801">
        <ele>1266.36</ele>
        <time>2021-07-23T14:51:25Z</time>
      </trkpt>
      <trkpt lat="45.06411" lon="2.82809">
        <ele>1266.77</ele>
        <time>2021-07-23T14:51:30Z</time>
      </trkpt>
      <trkpt lat="45.06418" lon="2.8282">
        <ele>1267.35</ele>
        <time>2021-07-23T14:51:33Z</time>
      </trkpt>
      <trkpt lat="45.06425" lon="2.82836">
        <ele>1265.46</ele>
        <time>2021-07-23T14:51:36Z</time>
      </trkpt>
      <trkpt lat="45.06433" lon="2.82845">
        <ele>1263.8</ele>
        <time>2021-07-23T14:51:38Z</time>
      </trkpt>
      <trkpt lat="45.06439" lon="2.82856">
        <ele>1264.22</ele>
        <time>2021-07-23T14:51:41Z</time>
      </trkpt>
      <trkpt lat="45.06443" lon="2.82869">
        <ele>1264.3</ele>
        <time>2021-07-23T14:51:45Z</time>
      </trkpt>
      <trkpt lat="45.06443" lon="2.82885">
        <ele>1261.38</ele>
        <time>2021-07-23T14:51:49Z</time>
      </trkpt>
      <trkpt lat="45.06443" lon="2.82901">
        <ele>1262.01</ele>
        <time>2021-07-23T14:51:53Z</time>
      </trkpt>
      <trkpt lat="45.06445" lon="2.82916">
        <ele>1263.2</ele>
        <time>2021-07-23T14:51:57Z</time>
      </trkpt>
      <trkpt lat="45.06449" lon="2.82927">
        <ele>1263.61</ele>
        <time>2021-07-23T14:52:40Z</time>
      </trkpt>
      <trkpt lat="45.06454" lon="2.82941">
        <ele>1266.26</ele>
        <time>2021-07-23T14:52:47Z</time>
      </trkpt>
      <trkpt lat="45.06458" lon="2.82952">
        <ele>1265.17</ele>
        <time>2021-07-23T14:52:52Z</time>
      </trkpt>
      <trkpt lat="45.06462" lon="2.82964">
        <ele>1265</ele>
        <time>2021-07-23T14:52:56Z</time>
      </trkpt>
      <trkpt lat="45.06469" lon="2.82974">
        <ele>1264.76</ele>
        <time>2021-07-23T14:53:00Z</time>
      </trkpt>
      <trkpt lat="45.06475" lon="2.82984">
        <ele>1267.32</ele>
        <time>2021-07-23T14:53:05Z</time>
      </trkpt>
      <trkpt lat="45.06476" lon="2.83">
        <ele>1269.36</ele>
        <time>2021-07-23T14:53:11Z</time>
      </trkpt>
      <trkpt lat="45.06477" lon="2.83014">
        <ele>1268.97</ele>
        <time>2021-07-23T14:53:17Z</time>
      </trkpt>
      <trkpt lat="45.06479" lon="2.83027">
        <ele>1268.09</ele>
        <time>2021-07-23T14:53:25Z</time>
      </trkpt>
      <trkpt lat="45.06486" lon="2.83036">
        <ele>1270.79</ele>
        <time>2021-07-23T14:53:32Z</time>
      </trkpt>
      <trkpt lat="45.06492" lon="2.83047">
        <ele>1272.51</ele>
        <time>2021-07-23T14:53:39Z</time>
      </trkpt>
      <trkpt lat="45.06498" lon="2.83057">
        <ele>1274.38</ele>
        <time>2021-07-23T14:53:45Z</time>
      </trkpt>
      <trkpt lat="45.06507" lon="2.83064">
        <ele>1276.81</ele>
        <time>2021-07-23T14:53:53Z</time>
      </trkpt>
      <trkpt lat="45.06516" lon="2.83069">
        <ele>1275.37</ele>
        <time>2021-07-23T14:53:57Z</time>
      </trkpt>
      <trkpt lat="45.06524" lon="2.83074">
        <ele>1275.93</ele>
        <time>2021-07-23T14:54:00Z</time>
      </trkpt>
      <trkpt lat="45.06533" lon="2.83086">
        <ele>1274.8</ele>
        <time>2021-07-23T14:54:03Z</time>
      </trkpt>
      <trkpt lat="45.06535" lon="2.83101">
        <ele>1274.25</ele>
        <time>2021-07-23T14:54:05Z</time>
      </trkpt>
      <trkpt lat="45.0654" lon="2.83112">
        <ele>1274.11</ele>
        <time>2021-07-23T14:54:07Z</time>
      </trkpt>
      <trkpt lat="45.06544" lon="2.83124">
        <ele>1274.46</ele>
        <time>2021-07-23T14:54:11Z</time>
      </trkpt>
      <trkpt lat="45.0655" lon="2.83138">
        <ele>1272.19</ele>
        <time>2021-07-23T14:54:16Z</time>
      </trkpt>
      <trkpt lat="45.06556" lon="2.8315">
        <ele>1271.1</ele>
        <time>2021-07-23T14:54:19Z</time>
      </trkpt>
      <trkpt lat="45.06561" lon="2.83161">
        <ele>1271.44</ele>
        <time>2021-07-23T14:54:21Z</time>
      </trkpt>
      <trkpt lat="45.06566" lon="2.83173">
        <ele>1270.91</ele>
        <time>2021-07-23T14:54:23Z</time>
      </trkpt>
      <trkpt lat="45.0657" lon="2.83185">
        <ele>1271.23</ele>
        <time>2021-07-23T14:54:25Z</time>
      </trkpt>
      <trkpt lat="45.06575" lon="2.83201">
        <ele>1271.93</ele>
        <time>2021-07-23T14:54:28Z</time>
      </trkpt>
      <trkpt lat="45.06578" lon="2.83214">
        <ele>1271.26</ele>
        <time>2021-07-23T14:54:30Z</time>
      </trkpt>
      <trkpt lat="45.06585" lon="2.83232">
        <ele>1270.85</ele>
        <time>2021-07-23T14:54:32Z</time>
      </trkpt>
      <trkpt lat="45.06592" lon="2.83243">
        <ele>1270.78</ele>
        <time>2021-07-23T14:54:34Z</time>
      </trkpt>
      <trkpt lat="45.06602" lon="2.83253">
        <ele>1268.97</ele>
        <time>2021-07-23T14:54:37Z</time>
      </trkpt>
      <trkpt lat="45.0661" lon="2.83262">
        <ele>1265.95</ele>
        <time>2021-07-23T14:54:40Z</time>
      </trkpt>
      <trkpt lat="45.06617" lon="2.83273">
        <ele>1262.07</ele>
        <time>2021-07-23T14:54:44Z</time>
      </trkpt>
      <trkpt lat="45.06624" lon="2.83288">
        <ele>1261.7</ele>
        <time>2021-07-23T14:54:45Z</time>
      </trkpt>
      <trkpt lat="45.0664" lon="2.83311">
        <ele>1263.36</ele>
        <time>2021-07-23T14:54:46Z</time>
      </trkpt>
      <trkpt lat="45.06651" lon="2.83326">
        <ele>1263.09</ele>
        <time>2021-07-23T14:54:48Z</time>
      </trkpt>
      <trkpt lat="45.06663" lon="2.8334">
        <ele>1262.53</ele>
        <time>2021-07-23T14:54:50Z</time>
      </trkpt>
      <trkpt lat="45.06673" lon="2.83353">
        <ele>1262.26</ele>
        <time>2021-07-23T14:54:52Z</time>
      </trkpt>
      <trkpt lat="45.06682" lon="2.83366">
        <ele>1262.76</ele>
        <time>2021-07-23T14:54:54Z</time>
      </trkpt>
      <trkpt lat="45.06688" lon="2.83376">
        <ele>1260.58</ele>
        <time>2021-07-23T14:54:57Z</time>
      </trkpt>
      <trkpt lat="45.06693" lon="2.83386">
        <ele>1260.13</ele>
        <time>2021-07-23T14:55:01Z</time>
      </trkpt>
      <trkpt lat="45.06701" lon="2.83399">
        <ele>1258.78</ele>
        <time>2021-07-23T14:55:06Z</time>
      </trkpt>
      <trkpt lat="45.06707" lon="2.83411">
        <ele>1257.26</ele>
        <time>2021-07-23T14:55:10Z</time>
      </trkpt>
      <trkpt lat="45.06713" lon="2.83424">
        <ele>1255.48</ele>
        <time>2021-07-23T14:55:14Z</time>
      </trkpt>
      <trkpt lat="45.06718" lon="2.83438">
        <ele>1254.66</ele>
        <time>2021-07-23T14:55:18Z</time>
      </trkpt>
      <trkpt lat="45.06718" lon="2.83451">
        <ele>1254.98</ele>
        <time>2021-07-23T14:55:21Z</time>
      </trkpt>
      <trkpt lat="45.06716" lon="2.83467">
        <ele>1255.19</ele>
        <time>2021-07-23T14:55:25Z</time>
      </trkpt>
      <trkpt lat="45.06713" lon="2.8348">
        <ele>1254.32</ele>
        <time>2021-07-23T14:55:31Z</time>
      </trkpt>
      <trkpt lat="45.0671" lon="2.83493">
        <ele>1253.85</ele>
        <time>2021-07-23T14:55:35Z</time>
      </trkpt>
      <trkpt lat="45.06706" lon="2.83506">
        <ele>1251.27</ele>
        <time>2021-07-23T14:55:38Z</time>
      </trkpt>
      <trkpt lat="45.06701" lon="2.83523">
        <ele>1250.89</ele>
        <time>2021-07-23T14:55:41Z</time>
      </trkpt>
      <trkpt lat="45.06698" lon="2.83537">
        <ele>1250.66</ele>
        <time>2021-07-23T14:55:43Z</time>
      </trkpt>
      <trkpt lat="45.06694" lon="2.83553">
        <ele>1249.88</ele>
        <time>2021-07-23T14:55:45Z</time>
      </trkpt>
      <trkpt lat="45.06689" lon="2.83568">
        <ele>1250.64</ele>
        <time>2021-07-23T14:55:48Z</time>
      </trkpt>
      <trkpt lat="45.06688" lon="2.83584">
        <ele>1254.21</ele>
        <time>2021-07-23T14:55:56Z</time>
      </trkpt>
      <trkpt lat="45.06688" lon="2.83601">
        <ele>1252.69</ele>
        <time>2021-07-23T14:56:00Z</time>
      </trkpt>
      <trkpt lat="45.06695" lon="2.83611">
        <ele>1251.85</ele>
        <time>2021-07-23T14:58:18Z</time>
      </trkpt>
      <trkpt lat="45.06701" lon="2.83623">
        <ele>1250.97</ele>
        <time>2021-07-23T14:58:22Z</time>
      </trkpt>
      <trkpt lat="45.0671" lon="2.83636">
        <ele>1252.58</ele>
        <time>2021-07-23T14:58:26Z</time>
      </trkpt>
      <trkpt lat="45.06719" lon="2.83648">
        <ele>1256.96</ele>
        <time>2021-07-23T14:58:30Z</time>
      </trkpt>
      <trkpt lat="45.06728" lon="2.83658">
        <ele>1256.93</ele>
        <time>2021-07-23T14:58:33Z</time>
      </trkpt>
      <trkpt lat="45.06738" lon="2.83668">
        <ele>1257.12</ele>
        <time>2021-07-23T14:58:36Z</time>
      </trkpt>
      <trkpt lat="45.06748" lon="2.83677">
        <ele>1256.82</ele>
        <time>2021-07-23T14:58:39Z</time>
      </trkpt>
      <trkpt lat="45.06758" lon="2.83687">
        <ele>1255.32</ele>
        <time>2021-07-23T14:58:42Z</time>
      </trkpt>
      <trkpt lat="45.06767" lon="2.83694">
        <ele>1254.01</ele>
        <time>2021-07-23T14:58:44Z</time>
      </trkpt>
      <trkpt lat="45.06776" lon="2.83699">
        <ele>1253.05</ele>
        <time>2021-07-23T14:58:46Z</time>
      </trkpt>
      <trkpt lat="45.06785" lon="2.83706">
        <ele>1252.19</ele>
        <time>2021-07-23T14:58:49Z</time>
      </trkpt>
      <trkpt lat="45.06794" lon="2.8371">
        <ele>1251.78</ele>
        <time>2021-07-23T14:58:53Z</time>
      </trkpt>
      <trkpt lat="45.06803" lon="2.83714">
        <ele>1249</ele>
        <time>2021-07-23T14:58:55Z</time>
      </trkpt>
      <trkpt lat="45.06812" lon="2.8372">
        <ele>1245.6</ele>
        <time>2021-07-23T14:58:57Z</time>
      </trkpt>
      <trkpt lat="45.06831" lon="2.83737">
        <ele>1244.88</ele>
        <time>2021-07-23T14:58:59Z</time>
      </trkpt>
      <trkpt lat="45.06853" lon="2.83756">
        <ele>1244.37</ele>
        <time>2021-07-23T14:59:00Z</time>
      </trkpt>
      <trkpt lat="45.06864" lon="2.83771">
        <ele>1244.41</ele>
        <time>2021-07-23T14:59:02Z</time>
      </trkpt>
      <trkpt lat="45.06874" lon="2.83791">
        <ele>1244.99</ele>
        <time>2021-07-23T14:59:04Z</time>
      </trkpt>
      <trkpt lat="45.06885" lon="2.83811">
        <ele>1243.83</ele>
        <time>2021-07-23T14:59:06Z</time>
      </trkpt>
      <trkpt lat="45.06898" lon="2.8383">
        <ele>1242.32</ele>
        <time>2021-07-23T14:59:08Z</time>
      </trkpt>
      <trkpt lat="45.06911" lon="2.83846">
        <ele>1241.68</ele>
        <time>2021-07-23T14:59:10Z</time>
      </trkpt>
      <trkpt lat="45.06924" lon="2.83858">
        <ele>1241</ele>
        <time>2021-07-23T14:59:12Z</time>
      </trkpt>
      <trkpt lat="45.06939" lon="2.83868">
        <ele>1240.69</ele>
        <time>2021-07-23T14:59:14Z</time>
      </trkpt>
      <trkpt lat="45.06952" lon="2.83879">
        <ele>1239.62</ele>
        <time>2021-07-23T14:59:16Z</time>
      </trkpt>
      <trkpt lat="45.06965" lon="2.83892">
        <ele>1239.52</ele>
        <time>2021-07-23T14:59:18Z</time>
      </trkpt>
      <trkpt lat="45.06972" lon="2.83905">
        <ele>1240.05</ele>
        <time>2021-07-23T14:59:20Z</time>
      </trkpt>
      <trkpt lat="45.06979" lon="2.83917">
        <ele>1241.55</ele>
        <time>2021-07-23T14:59:22Z</time>
      </trkpt>
      <trkpt lat="45.06984" lon="2.83929">
        <ele>1242.02</ele>
        <time>2021-07-23T14:59:24Z</time>
      </trkpt>
      <trkpt lat="45.06989" lon="2.83941">
        <ele>1242.05</ele>
        <time>2021-07-23T14:59:26Z</time>
      </trkpt>
      <trkpt lat="45.06995" lon="2.83953">
        <ele>1241.76</ele>
        <time>2021-07-23T14:59:28Z</time>
      </trkpt>
      <trkpt lat="45.07002" lon="2.83967">
        <ele>1242.03</ele>
        <time>2021-07-23T14:59:31Z</time>
      </trkpt>
      <trkpt lat="45.07007" lon="2.83978">
        <ele>1243.37</ele>
        <time>2021-07-23T14:59:35Z</time>
      </trkpt>
      <trkpt lat="45.07018" lon="2.83996">
        <ele>1240.36</ele>
        <time>2021-07-23T14:59:38Z</time>
      </trkpt>
      <trkpt lat="45.07025" lon="2.84005">
        <ele>1240.89</ele>
        <time>2021-07-23T14:59:41Z</time>
      </trkpt>
      <trkpt lat="45.0703" lon="2.84017">
        <ele>1239.6</ele>
        <time>2021-07-23T14:59:44Z</time>
      </trkpt>
      <trkpt lat="45.07036" lon="2.84034">
        <ele>1238.13</ele>
        <time>2021-07-23T14:59:49Z</time>
      </trkpt>
      <trkpt lat="45.07039" lon="2.84046">
        <ele>1238.47</ele>
        <time>2021-07-23T14:59:51Z</time>
      </trkpt>
      <trkpt lat="45.07042" lon="2.84058">
        <ele>1238.45</ele>
        <time>2021-07-23T14:59:55Z</time>
      </trkpt>
      <trkpt lat="45.07044" lon="2.84073">
        <ele>1238.69</ele>
        <time>2021-07-23T15:00:00Z</time>
      </trkpt>
      <trkpt lat="45.07044" lon="2.84088">
        <ele>1239.05</ele>
        <time>2021-07-23T15:00:05Z</time>
      </trkpt>
      <trkpt lat="45.07045" lon="2.84101">
        <ele>1238.9</ele>
        <time>2021-07-23T15:00:10Z</time>
      </trkpt>
      <trkpt lat="45.07046" lon="2.84114">
        <ele>1239.79</ele>
        <time>2021-07-23T15:00:15Z</time>
      </trkpt>
      <trkpt lat="45.07045" lon="2.84127">
        <ele>1239.39</ele>
        <time>2021-07-23T15:00:20Z</time>
      </trkpt>
      <trkpt lat="45.07045" lon="2.84142">
        <ele>1240.99</ele>
        <time>2021-07-23T15:00:26Z</time>
      </trkpt>
      <trkpt lat="45.07045" lon="2.84156">
        <ele>1242.06</ele>
        <time>2021-07-23T15:00:32Z</time>
      </trkpt>
      <trkpt lat="45.07046" lon="2.84169">
        <ele>1243.14</ele>
        <time>2021-07-23T15:00:38Z</time>
      </trkpt>
      <trkpt lat="45.07046" lon="2.84184">
        <ele>1246.8</ele>
        <time>2021-07-23T15:00:44Z</time>
      </trkpt>
      <trkpt lat="45.07047" lon="2.84199">
        <ele>1246.64</ele>
        <time>2021-07-23T15:00:49Z</time>
      </trkpt>
      <trkpt lat="45.07049" lon="2.84214">
        <ele>1245.48</ele>
        <time>2021-07-23T15:00:53Z</time>
      </trkpt>
      <trkpt lat="45.07052" lon="2.84229">
        <ele>1244.41</ele>
        <time>2021-07-23T15:00:56Z</time>
      </trkpt>
      <trkpt lat="45.07054" lon="2.84245">
        <ele>1240.68</ele>
        <time>2021-07-23T15:01:00Z</time>
      </trkpt>
      <trkpt lat="45.07057" lon="2.84261">
        <ele>1241.94</ele>
        <time>2021-07-23T15:01:03Z</time>
      </trkpt>
      <trkpt lat="45.07074" lon="2.84313">
        <ele>1241.78</ele>
        <time>2021-07-23T15:01:05Z</time>
      </trkpt>
      <trkpt lat="45.07076" lon="2.84327">
        <ele>1243.98</ele>
        <time>2021-07-23T15:01:07Z</time>
      </trkpt>
      <trkpt lat="45.07084" lon="2.84342">
        <ele>1244.54</ele>
        <time>2021-07-23T15:01:09Z</time>
      </trkpt>
      <trkpt lat="45.07092" lon="2.84356">
        <ele>1244.76</ele>
        <time>2021-07-23T15:01:11Z</time>
      </trkpt>
      <trkpt lat="45.071" lon="2.8437">
        <ele>1245.85</ele>
        <time>2021-07-23T15:01:13Z</time>
      </trkpt>
      <trkpt lat="45.07111" lon="2.8438">
        <ele>1247.3</ele>
        <time>2021-07-23T15:01:15Z</time>
      </trkpt>
      <trkpt lat="45.07124" lon="2.84392">
        <ele>1244.82</ele>
        <time>2021-07-23T15:01:17Z</time>
      </trkpt>
      <trkpt lat="45.07134" lon="2.84401">
        <ele>1244.72</ele>
        <time>2021-07-23T15:01:19Z</time>
      </trkpt>
      <trkpt lat="45.07147" lon="2.8441">
        <ele>1245.42</ele>
        <time>2021-07-23T15:01:21Z</time>
      </trkpt>
      <trkpt lat="45.07156" lon="2.84421">
        <ele>1247.44</ele>
        <time>2021-07-23T15:01:23Z</time>
      </trkpt>
      <trkpt lat="45.07165" lon="2.84433">
        <ele>1247.77</ele>
        <time>2021-07-23T15:01:25Z</time>
      </trkpt>
      <trkpt lat="45.07175" lon="2.84445">
        <ele>1248.26</ele>
        <time>2021-07-23T15:01:27Z</time>
      </trkpt>
      <trkpt lat="45.07187" lon="2.84461">
        <ele>1247.15</ele>
        <time>2021-07-23T15:01:29Z</time>
      </trkpt>
      <trkpt lat="45.07198" lon="2.84473">
        <ele>1246.24</ele>
        <time>2021-07-23T15:01:31Z</time>
      </trkpt>
      <trkpt lat="45.07209" lon="2.84485">
        <ele>1245.65</ele>
        <time>2021-07-23T15:01:33Z</time>
      </trkpt>
      <trkpt lat="45.0722" lon="2.84496">
        <ele>1246.4</ele>
        <time>2021-07-23T15:01:35Z</time>
      </trkpt>
      <trkpt lat="45.0723" lon="2.84509">
        <ele>1247.07</ele>
        <time>2021-07-23T15:01:37Z</time>
      </trkpt>
      <trkpt lat="45.07244" lon="2.84519">
        <ele>1247.11</ele>
        <time>2021-07-23T15:01:39Z</time>
      </trkpt>
      <trkpt lat="45.07251" lon="2.84529">
        <ele>1245.99</ele>
        <time>2021-07-23T15:01:41Z</time>
      </trkpt>
      <trkpt lat="45.07257" lon="2.8454">
        <ele>1244.8</ele>
        <time>2021-07-23T15:01:43Z</time>
      </trkpt>
      <trkpt lat="45.07262" lon="2.8455">
        <ele>1243.37</ele>
        <time>2021-07-23T15:01:45Z</time>
      </trkpt>
      <trkpt lat="45.07266" lon="2.84563">
        <ele>1239.92</ele>
        <time>2021-07-23T15:01:49Z</time>
      </trkpt>
      <trkpt lat="45.07273" lon="2.84579">
        <ele>1239.19</ele>
        <time>2021-07-23T15:01:51Z</time>
      </trkpt>
      <trkpt lat="45.07283" lon="2.84591">
        <ele>1239.26</ele>
        <time>2021-07-23T15:01:53Z</time>
      </trkpt>
      <trkpt lat="45.0729" lon="2.84602">
        <ele>1238.15</ele>
        <time>2021-07-23T15:01:56Z</time>
      </trkpt>
      <trkpt lat="45.07297" lon="2.84612">
        <ele>1237.19</ele>
        <time>2021-07-23T15:01:59Z</time>
      </trkpt>
      <trkpt lat="45.07304" lon="2.84624">
        <ele>1236.59</ele>
        <time>2021-07-23T15:02:02Z</time>
      </trkpt>
      <trkpt lat="45.07309" lon="2.84635">
        <ele>1236.28</ele>
        <time>2021-07-23T15:02:08Z</time>
      </trkpt>
      <trkpt lat="45.07314" lon="2.84646">
        <ele>1240.29</ele>
        <time>2021-07-23T15:02:12Z</time>
      </trkpt>
      <trkpt lat="45.07322" lon="2.84656">
        <ele>1239.77</ele>
        <time>2021-07-23T15:02:15Z</time>
      </trkpt>
      <trkpt lat="45.07331" lon="2.84665">
        <ele>1239.35</ele>
        <time>2021-07-23T15:02:18Z</time>
      </trkpt>
      <trkpt lat="45.07341" lon="2.84675">
        <ele>1239.35</ele>
        <time>2021-07-23T15:02:21Z</time>
      </trkpt>
      <trkpt lat="45.07351" lon="2.84685">
        <ele>1239.03</ele>
        <time>2021-07-23T15:02:24Z</time>
      </trkpt>
      <trkpt lat="45.07359" lon="2.84693">
        <ele>1238.92</ele>
        <time>2021-07-23T15:02:26Z</time>
      </trkpt>
      <trkpt lat="45.07368" lon="2.84703">
        <ele>1239.94</ele>
        <time>2021-07-23T15:02:29Z</time>
      </trkpt>
      <trkpt lat="45.07377" lon="2.84714">
        <ele>1239.04</ele>
        <time>2021-07-23T15:02:32Z</time>
      </trkpt>
      <trkpt lat="45.07386" lon="2.84723">
        <ele>1238.56</ele>
        <time>2021-07-23T15:02:35Z</time>
      </trkpt>
      <trkpt lat="45.07397" lon="2.84733">
        <ele>1238.69</ele>
        <time>2021-07-23T15:02:38Z</time>
      </trkpt>
      <trkpt lat="45.07406" lon="2.8474">
        <ele>1238.7</ele>
        <time>2021-07-23T15:02:41Z</time>
      </trkpt>
      <trkpt lat="45.07414" lon="2.84747">
        <ele>1238.05</ele>
        <time>2021-07-23T15:02:44Z</time>
      </trkpt>
      <trkpt lat="45.07425" lon="2.84755">
        <ele>1239.31</ele>
        <time>2021-07-23T15:02:47Z</time>
      </trkpt>
      <trkpt lat="45.07436" lon="2.84762">
        <ele>1239.6</ele>
        <time>2021-07-23T15:02:50Z</time>
      </trkpt>
      <trkpt lat="45.07446" lon="2.84771">
        <ele>1239.44</ele>
        <time>2021-07-23T15:02:53Z</time>
      </trkpt>
      <trkpt lat="45.07454" lon="2.84777">
        <ele>1238.51</ele>
        <time>2021-07-23T15:02:57Z</time>
      </trkpt>
      <trkpt lat="45.07464" lon="2.84785">
        <ele>1238.74</ele>
        <time>2021-07-23T15:03:02Z</time>
      </trkpt>
      <trkpt lat="45.07471" lon="2.84793">
        <ele>1237.74</ele>
        <time>2021-07-23T15:04:32Z</time>
      </trkpt>
      <trkpt lat="45.07476" lon="2.84804">
        <ele>1238.85</ele>
        <time>2021-07-23T15:04:37Z</time>
      </trkpt>
      <trkpt lat="45.07482" lon="2.84817">
        <ele>1241.4</ele>
        <time>2021-07-23T15:04:43Z</time>
      </trkpt>
      <trkpt lat="45.07486" lon="2.84829">
        <ele>1240.44</ele>
        <time>2021-07-23T15:04:47Z</time>
      </trkpt>
      <trkpt lat="45.0749" lon="2.84842">
        <ele>1240.84</ele>
        <time>2021-07-23T15:04:52Z</time>
      </trkpt>
      <trkpt lat="45.07497" lon="2.84853">
        <ele>1240.91</ele>
        <time>2021-07-23T15:04:59Z</time>
      </trkpt>
      <trkpt lat="45.07501" lon="2.84864">
        <ele>1239.23</ele>
        <time>2021-07-23T15:05:04Z</time>
      </trkpt>
      <trkpt lat="45.07507" lon="2.84877">
        <ele>1238.18</ele>
        <time>2021-07-23T15:05:09Z</time>
      </trkpt>
      <trkpt lat="45.07512" lon="2.8489">
        <ele>1238.7</ele>
        <time>2021-07-23T15:05:14Z</time>
      </trkpt>
      <trkpt lat="45.07516" lon="2.84903">
        <ele>1243.05</ele>
        <time>2021-07-23T15:05:19Z</time>
      </trkpt>
      <trkpt lat="45.07519" lon="2.84917">
        <ele>1244.61</ele>
        <time>2021-07-23T15:05:25Z</time>
      </trkpt>
      <trkpt lat="45.07521" lon="2.8493">
        <ele>1247.13</ele>
        <time>2021-07-23T15:05:30Z</time>
      </trkpt>
      <trkpt lat="45.07521" lon="2.84945">
        <ele>1248.52</ele>
        <time>2021-07-23T15:05:36Z</time>
      </trkpt>
      <trkpt lat="45.07522" lon="2.84959">
        <ele>1250.88</ele>
        <time>2021-07-23T15:05:42Z</time>
      </trkpt>
      <trkpt lat="45.07521" lon="2.84973">
        <ele>1250.75</ele>
        <time>2021-07-23T15:05:47Z</time>
      </trkpt>
      <trkpt lat="45.07522" lon="2.84988">
        <ele>1252.08</ele>
        <time>2021-07-23T15:05:53Z</time>
      </trkpt>
      <trkpt lat="45.07523" lon="2.85001">
        <ele>1251.9</ele>
        <time>2021-07-23T15:05:58Z</time>
      </trkpt>
      <trkpt lat="45.07526" lon="2.85013">
        <ele>1252.54</ele>
        <time>2021-07-23T15:06:03Z</time>
      </trkpt>
      <trkpt lat="45.07531" lon="2.85029">
        <ele>1252.95</ele>
        <time>2021-07-23T15:06:07Z</time>
      </trkpt>
      <trkpt lat="45.07535" lon="2.8504">
        <ele>1253.3</ele>
        <time>2021-07-23T15:06:10Z</time>
      </trkpt>
      <trkpt lat="45.07541" lon="2.85054">
        <ele>1253.09</ele>
        <time>2021-07-23T15:06:13Z</time>
      </trkpt>
      <trkpt lat="45.07545" lon="2.85068">
        <ele>1251.98</ele>
        <time>2021-07-23T15:06:16Z</time>
      </trkpt>
      <trkpt lat="45.07549" lon="2.85083">
        <ele>1251.67</ele>
        <time>2021-07-23T15:06:20Z</time>
      </trkpt>
      <trkpt lat="45.07552" lon="2.85099">
        <ele>1253.92</ele>
        <time>2021-07-23T15:06:24Z</time>
      </trkpt>
      <trkpt lat="45.07554" lon="2.85113">
        <ele>1254.84</ele>
        <time>2021-07-23T15:06:28Z</time>
      </trkpt>
      <trkpt lat="45.07556" lon="2.85129">
        <ele>1255.36</ele>
        <time>2021-07-23T15:06:32Z</time>
      </trkpt>
      <trkpt lat="45.07559" lon="2.85145">
        <ele>1254.63</ele>
        <time>2021-07-23T15:06:36Z</time>
      </trkpt>
      <trkpt lat="45.07561" lon="2.85158">
        <ele>1254.83</ele>
        <time>2021-07-23T15:06:39Z</time>
      </trkpt>
      <trkpt lat="45.07565" lon="2.8517">
        <ele>1254.35</ele>
        <time>2021-07-23T15:06:42Z</time>
      </trkpt>
      <trkpt lat="45.07567" lon="2.85183">
        <ele>1254.09</ele>
        <time>2021-07-23T15:06:45Z</time>
      </trkpt>
      <trkpt lat="45.07571" lon="2.85197">
        <ele>1254.04</ele>
        <time>2021-07-23T15:06:48Z</time>
      </trkpt>
      <trkpt lat="45.07573" lon="2.85211">
        <ele>1254.9</ele>
        <time>2021-07-23T15:06:51Z</time>
      </trkpt>
      <trkpt lat="45.07574" lon="2.85224">
        <ele>1258.15</ele>
        <time>2021-07-23T15:06:54Z</time>
      </trkpt>
      <trkpt lat="45.07575" lon="2.85237">
        <ele>1258.97</ele>
        <time>2021-07-23T15:06:57Z</time>
      </trkpt>
      <trkpt lat="45.07574" lon="2.85253">
        <ele>1258</ele>
        <time>2021-07-23T15:07:01Z</time>
      </trkpt>
      <trkpt lat="45.07571" lon="2.85269">
        <ele>1258.65</ele>
        <time>2021-07-23T15:07:06Z</time>
      </trkpt>
      <trkpt lat="45.07569" lon="2.85284">
        <ele>1259.95</ele>
        <time>2021-07-23T15:07:08Z</time>
      </trkpt>
      <trkpt lat="45.07568" lon="2.85298">
        <ele>1260.59</ele>
        <time>2021-07-23T15:07:11Z</time>
      </trkpt>
      <trkpt lat="45.07568" lon="2.85314">
        <ele>1259.73</ele>
        <time>2021-07-23T15:07:14Z</time>
      </trkpt>
      <trkpt lat="45.07569" lon="2.85327">
        <ele>1258</ele>
        <time>2021-07-23T15:07:17Z</time>
      </trkpt>
      <trkpt lat="45.07568" lon="2.8534">
        <ele>1259.12</ele>
        <time>2021-07-23T15:07:20Z</time>
      </trkpt>
      <trkpt lat="45.07566" lon="2.85353">
        <ele>1258.54</ele>
        <time>2021-07-23T15:07:23Z</time>
      </trkpt>
      <trkpt lat="45.07565" lon="2.85368">
        <ele>1258.68</ele>
        <time>2021-07-23T15:07:26Z</time>
      </trkpt>
      <trkpt lat="45.07563" lon="2.85383">
        <ele>1260.99</ele>
        <time>2021-07-23T15:07:29Z</time>
      </trkpt>
      <trkpt lat="45.07561" lon="2.85398">
        <ele>1261.23</ele>
        <time>2021-07-23T15:07:32Z</time>
      </trkpt>
      <trkpt lat="45.07558" lon="2.85415">
        <ele>1263.68</ele>
        <time>2021-07-23T15:07:35Z</time>
      </trkpt>
      <trkpt lat="45.07552" lon="2.85426">
        <ele>1263.12</ele>
        <time>2021-07-23T15:07:37Z</time>
      </trkpt>
      <trkpt lat="45.07547" lon="2.85438">
        <ele>1262.99</ele>
        <time>2021-07-23T15:07:39Z</time>
      </trkpt>
      <trkpt lat="45.07545" lon="2.85451">
        <ele>1261.72</ele>
        <time>2021-07-23T15:07:42Z</time>
      </trkpt>
      <trkpt lat="45.07542" lon="2.85467">
        <ele>1254.48</ele>
        <time>2021-07-23T15:07:46Z</time>
      </trkpt>
      <trkpt lat="45.07535" lon="2.85482">
        <ele>1252.41</ele>
        <time>2021-07-23T15:07:49Z</time>
      </trkpt>
      <trkpt lat="45.07517" lon="2.85513">
        <ele>1251.44</ele>
        <time>2021-07-23T15:07:51Z</time>
      </trkpt>
      <trkpt lat="45.07508" lon="2.8554">
        <ele>1252.2</ele>
        <time>2021-07-23T15:07:53Z</time>
      </trkpt>
      <trkpt lat="45.07498" lon="2.85555">
        <ele>1252.8</ele>
        <time>2021-07-23T15:07:55Z</time>
      </trkpt>
      <trkpt lat="45.07488" lon="2.85574">
        <ele>1253.27</ele>
        <time>2021-07-23T15:07:57Z</time>
      </trkpt>
      <trkpt lat="45.07476" lon="2.85591">
        <ele>1251.05</ele>
        <time>2021-07-23T15:07:59Z</time>
      </trkpt>
      <trkpt lat="45.07471" lon="2.85611">
        <ele>1248.26</ele>
        <time>2021-07-23T15:08:01Z</time>
      </trkpt>
      <trkpt lat="45.07462" lon="2.85628">
        <ele>1248.25</ele>
        <time>2021-07-23T15:08:03Z</time>
      </trkpt>
      <trkpt lat="45.07456" lon="2.85645">
        <ele>1250.17</ele>
        <time>2021-07-23T15:08:05Z</time>
      </trkpt>
      <trkpt lat="45.07452" lon="2.85659">
        <ele>1252.14</ele>
        <time>2021-07-23T15:08:07Z</time>
      </trkpt>
      <trkpt lat="45.07449" lon="2.85674">
        <ele>1254.24</ele>
        <time>2021-07-23T15:08:09Z</time>
      </trkpt>
      <trkpt lat="45.07448" lon="2.85689">
        <ele>1257.91</ele>
        <time>2021-07-23T15:08:12Z</time>
      </trkpt>
      <trkpt lat="45.0745" lon="2.85706">
        <ele>1261.32</ele>
        <time>2021-07-23T15:08:17Z</time>
      </trkpt>
      <trkpt lat="45.07449" lon="2.8572">
        <ele>1262.59</ele>
        <time>2021-07-23T15:08:19Z</time>
      </trkpt>
      <trkpt lat="45.07449" lon="2.85733">
        <ele>1261.77</ele>
        <time>2021-07-23T15:08:22Z</time>
      </trkpt>
      <trkpt lat="45.07446" lon="2.85747">
        <ele>1264.27</ele>
        <time>2021-07-23T15:08:27Z</time>
      </trkpt>
      <trkpt lat="45.07441" lon="2.85757">
        <ele>1264.64</ele>
        <time>2021-07-23T15:08:32Z</time>
      </trkpt>
      <trkpt lat="45.07437" lon="2.8577">
        <ele>1262.32</ele>
        <time>2021-07-23T15:08:38Z</time>
      </trkpt>
      <trkpt lat="45.07431" lon="2.85781">
        <ele>1263.65</ele>
        <time>2021-07-23T15:08:43Z</time>
      </trkpt>
      <trkpt lat="45.07423" lon="2.85791">
        <ele>1268.64</ele>
        <time>2021-07-23T15:08:48Z</time>
      </trkpt>
      <trkpt lat="45.07413" lon="2.85797">
        <ele>1270.46</ele>
        <time>2021-07-23T15:08:53Z</time>
      </trkpt>
      <trkpt lat="45.07405" lon="2.85805">
        <ele>1269</ele>
        <time>2021-07-23T15:08:57Z</time>
      </trkpt>
      <trkpt lat="45.07399" lon="2.85815">
        <ele>1267.3</ele>
        <time>2021-07-23T15:09:01Z</time>
      </trkpt>
      <trkpt lat="45.07392" lon="2.85828">
        <ele>1267.09</ele>
        <time>2021-07-23T15:09:05Z</time>
      </trkpt>
      <trkpt lat="45.07386" lon="2.85838">
        <ele>1268.12</ele>
        <time>2021-07-23T15:09:08Z</time>
      </trkpt>
      <trkpt lat="45.07381" lon="2.8585">
        <ele>1268.5</ele>
        <time>2021-07-23T15:09:11Z</time>
      </trkpt>
      <trkpt lat="45.07377" lon="2.85866">
        <ele>1263.99</ele>
        <time>2021-07-23T15:09:14Z</time>
      </trkpt>
      <trkpt lat="45.07375" lon="2.85882">
        <ele>1262.81</ele>
        <time>2021-07-23T15:09:17Z</time>
      </trkpt>
      <trkpt lat="45.07375" lon="2.85898">
        <ele>1264.18</ele>
        <time>2021-07-23T15:09:20Z</time>
      </trkpt>
      <trkpt lat="45.07377" lon="2.85913">
        <ele>1263.01</ele>
        <time>2021-07-23T15:09:23Z</time>
      </trkpt>
      <trkpt lat="45.07378" lon="2.85926">
        <ele>1261.56</ele>
        <time>2021-07-23T15:09:26Z</time>
      </trkpt>
      <trkpt lat="45.07374" lon="2.85941">
        <ele>1260.58</ele>
        <time>2021-07-23T15:09:30Z</time>
      </trkpt>
      <trkpt lat="45.07366" lon="2.85949">
        <ele>1261.09</ele>
        <time>2021-07-23T15:09:35Z</time>
      </trkpt>
      <trkpt lat="45.07357" lon="2.8595">
        <ele>1263.74</ele>
        <time>2021-07-23T15:17:55Z</time>
      </trkpt>
      <trkpt lat="45.07349" lon="2.85957">
        <ele>1261.68</ele>
        <time>2021-07-23T15:17:59Z</time>
      </trkpt>
      <trkpt lat="45.0734" lon="2.85967">
        <ele>1258.76</ele>
        <time>2021-07-23T15:18:03Z</time>
      </trkpt>
      <trkpt lat="45.07333" lon="2.85976">
        <ele>1259</ele>
        <time>2021-07-23T15:18:06Z</time>
      </trkpt>
      <trkpt lat="45.07326" lon="2.85986">
        <ele>1260.05</ele>
        <time>2021-07-23T15:18:09Z</time>
      </trkpt>
      <trkpt lat="45.07319" lon="2.85996">
        <ele>1261.37</ele>
        <time>2021-07-23T15:18:12Z</time>
      </trkpt>
      <trkpt lat="45.07313" lon="2.86006">
        <ele>1258.59</ele>
        <time>2021-07-23T15:18:15Z</time>
      </trkpt>
      <trkpt lat="45.07303" lon="2.86016">
        <ele>1262.16</ele>
        <time>2021-07-23T15:18:19Z</time>
      </trkpt>
      <trkpt lat="45.07294" lon="2.86026">
        <ele>1261.94</ele>
        <time>2021-07-23T15:18:23Z</time>
      </trkpt>
      <trkpt lat="45.07287" lon="2.86035">
        <ele>1262.09</ele>
        <time>2021-07-23T15:18:27Z</time>
      </trkpt>
      <trkpt lat="45.07281" lon="2.86045">
        <ele>1265.6</ele>
        <time>2021-07-23T15:18:31Z</time>
      </trkpt>
      <trkpt lat="45.07273" lon="2.86053">
        <ele>1270.61</ele>
        <time>2021-07-23T15:18:35Z</time>
      </trkpt>
      <trkpt lat="45.07265" lon="2.86061">
        <ele>1272.77</ele>
        <time>2021-07-23T15:18:39Z</time>
      </trkpt>
      <trkpt lat="45.07257" lon="2.8607">
        <ele>1275.2</ele>
        <time>2021-07-23T15:18:43Z</time>
      </trkpt>
      <trkpt lat="45.07249" lon="2.86078">
        <ele>1275.1</ele>
        <time>2021-07-23T15:18:47Z</time>
      </trkpt>
      <trkpt lat="45.07242" lon="2.86088">
        <ele>1277.13</ele>
        <time>2021-07-23T15:18:52Z</time>
      </trkpt>
      <trkpt lat="45.07234" lon="2.86098">
        <ele>1276.87</ele>
        <time>2021-07-23T15:18:57Z</time>
      </trkpt>
      <trkpt lat="45.07226" lon="2.86107">
        <ele>1274.57</ele>
        <time>2021-07-23T15:19:01Z</time>
      </trkpt>
      <trkpt lat="45.07218" lon="2.86115">
        <ele>1273.84</ele>
        <time>2021-07-23T15:19:05Z</time>
      </trkpt>
      <trkpt lat="45.07209" lon="2.86126">
        <ele>1273.84</ele>
        <time>2021-07-23T15:19:09Z</time>
      </trkpt>
      <trkpt lat="45.07199" lon="2.86133">
        <ele>1274.07</ele>
        <time>2021-07-23T15:19:13Z</time>
      </trkpt>
      <trkpt lat="45.07189" lon="2.86141">
        <ele>1270.44</ele>
        <time>2021-07-23T15:19:17Z</time>
      </trkpt>
      <trkpt lat="45.07181" lon="2.86149">
        <ele>1268.86</ele>
        <time>2021-07-23T15:19:20Z</time>
      </trkpt>
      <trkpt lat="45.07175" lon="2.86159">
        <ele>1266.32</ele>
        <time>2021-07-23T15:19:23Z</time>
      </trkpt>
      <trkpt lat="45.07166" lon="2.86168">
        <ele>1264.38</ele>
        <time>2021-07-23T15:19:27Z</time>
      </trkpt>
      <trkpt lat="45.07158" lon="2.86179">
        <ele>1263.78</ele>
        <time>2021-07-23T15:19:31Z</time>
      </trkpt>
      <trkpt lat="45.07152" lon="2.86188">
        <ele>1264.62</ele>
        <time>2021-07-23T15:19:34Z</time>
      </trkpt>
      <trkpt lat="45.07144" lon="2.86199">
        <ele>1264.37</ele>
        <time>2021-07-23T15:19:38Z</time>
      </trkpt>
      <trkpt lat="45.07137" lon="2.8621">
        <ele>1265.18</ele>
        <time>2021-07-23T15:19:42Z</time>
      </trkpt>
      <trkpt lat="45.0713" lon="2.86222">
        <ele>1267.56</ele>
        <time>2021-07-23T15:19:46Z</time>
      </trkpt>
      <trkpt lat="45.07123" lon="2.86234">
        <ele>1269.95</ele>
        <time>2021-07-23T15:19:50Z</time>
      </trkpt>
      <trkpt lat="45.07118" lon="2.86246">
        <ele>1275.08</ele>
        <time>2021-07-23T15:19:54Z</time>
      </trkpt>
      <trkpt lat="45.07114" lon="2.86262">
        <ele>1274.91</ele>
        <time>2021-07-23T15:19:58Z</time>
      </trkpt>
      <trkpt lat="45.07116" lon="2.86275">
        <ele>1272.05</ele>
        <time>2021-07-23T15:20:01Z</time>
      </trkpt>
      <trkpt lat="45.07123" lon="2.86286">
        <ele>1271.09</ele>
        <time>2021-07-23T15:20:04Z</time>
      </trkpt>
      <trkpt lat="45.07131" lon="2.86298">
        <ele>1271.53</ele>
        <time>2021-07-23T15:20:07Z</time>
      </trkpt>
      <trkpt lat="45.07138" lon="2.86311">
        <ele>1270.53</ele>
        <time>2021-07-23T15:20:10Z</time>
      </trkpt>
      <trkpt lat="45.07143" lon="2.86326">
        <ele>1268.92</ele>
        <time>2021-07-23T15:20:13Z</time>
      </trkpt>
      <trkpt lat="45.07146" lon="2.86341">
        <ele>1269.28</ele>
        <time>2021-07-23T15:20:16Z</time>
      </trkpt>
      <trkpt lat="45.07146" lon="2.86357">
        <ele>1269.32</ele>
        <time>2021-07-23T15:20:20Z</time>
      </trkpt>
      <trkpt lat="45.0714" lon="2.86367">
        <ele>1268.11</ele>
        <time>2021-07-23T15:20:25Z</time>
      </trkpt>
      <trkpt lat="45.07131" lon="2.86372">
        <ele>1268.5</ele>
        <time>2021-07-23T15:20:30Z</time>
      </trkpt>
      <trkpt lat="45.07121" lon="2.86378">
        <ele>1269.01</ele>
        <time>2021-07-23T15:20:35Z</time>
      </trkpt>
      <trkpt lat="45.07113" lon="2.86385">
        <ele>1268.43</ele>
        <time>2021-07-23T15:20:39Z</time>
      </trkpt>
      <trkpt lat="45.07105" lon="2.86392">
        <ele>1267.31</ele>
        <time>2021-07-23T15:20:43Z</time>
      </trkpt>
      <trkpt lat="45.07097" lon="2.86398">
        <ele>1267.13</ele>
        <time>2021-07-23T15:20:47Z</time>
      </trkpt>
      <trkpt lat="45.07089" lon="2.86404">
        <ele>1268.85</ele>
        <time>2021-07-23T15:20:51Z</time>
      </trkpt>
      <trkpt lat="45.07081" lon="2.86411">
        <ele>1269.27</ele>
        <time>2021-07-23T15:20:55Z</time>
      </trkpt>
      <trkpt lat="45.07072" lon="2.86419">
        <ele>1269.67</ele>
        <time>2021-07-23T15:20:59Z</time>
      </trkpt>
      <trkpt lat="45.07065" lon="2.86426">
        <ele>1270.05</ele>
        <time>2021-07-23T15:21:02Z</time>
      </trkpt>
      <trkpt lat="45.07057" lon="2.86433">
        <ele>1269.68</ele>
        <time>2021-07-23T15:21:05Z</time>
      </trkpt>
      <trkpt lat="45.07048" lon="2.86441">
        <ele>1269.8</ele>
        <time>2021-07-23T15:21:08Z</time>
      </trkpt>
      <trkpt lat="45.07039" lon="2.86448">
        <ele>1269.43</ele>
        <time>2021-07-23T15:21:11Z</time>
      </trkpt>
      <trkpt lat="45.07029" lon="2.86457">
        <ele>1269.23</ele>
        <time>2021-07-23T15:21:14Z</time>
      </trkpt>
      <trkpt lat="45.0702" lon="2.86467">
        <ele>1267.75</ele>
        <time>2021-07-23T15:21:17Z</time>
      </trkpt>
      <trkpt lat="45.0701" lon="2.86477">
        <ele>1266.62</ele>
        <time>2021-07-23T15:21:20Z</time>
      </trkpt>
      <trkpt lat="45.07001" lon="2.86483">
        <ele>1266.98</ele>
        <time>2021-07-23T15:21:22Z</time>
      </trkpt>
      <trkpt lat="45.06991" lon="2.86492">
        <ele>1265.9</ele>
        <time>2021-07-23T15:21:24Z</time>
      </trkpt>
      <trkpt lat="45.0698" lon="2.865">
        <ele>1266.67</ele>
        <time>2021-07-23T15:21:26Z</time>
      </trkpt>
      <trkpt lat="45.06971" lon="2.86509">
        <ele>1267.25</ele>
        <time>2021-07-23T15:21:28Z</time>
      </trkpt>
      <trkpt lat="45.06963" lon="2.86519">
        <ele>1265.65</ele>
        <time>2021-07-23T15:21:30Z</time>
      </trkpt>
      <trkpt lat="45.06954" lon="2.86526">
        <ele>1265.65</ele>
        <time>2021-07-23T15:21:32Z</time>
      </trkpt>
      <trkpt lat="45.06946" lon="2.86533">
        <ele>1264.92</ele>
        <time>2021-07-23T15:21:34Z</time>
      </trkpt>
      <trkpt lat="45.06936" lon="2.86544">
        <ele>1263.43</ele>
        <time>2021-07-23T15:21:37Z</time>
      </trkpt>
      <trkpt lat="45.06925" lon="2.86553">
        <ele>1263.03</ele>
        <time>2021-07-23T15:21:40Z</time>
      </trkpt>
      <trkpt lat="45.06914" lon="2.86563">
        <ele>1262.52</ele>
        <time>2021-07-23T15:21:43Z</time>
      </trkpt>
      <trkpt lat="45.06903" lon="2.86573">
        <ele>1261.71</ele>
        <time>2021-07-23T15:21:46Z</time>
      </trkpt>
      <trkpt lat="45.06895" lon="2.86579">
        <ele>1261.73</ele>
        <time>2021-07-23T15:21:48Z</time>
      </trkpt>
      <trkpt lat="45.06887" lon="2.86588">
        <ele>1261.14</ele>
        <time>2021-07-23T15:21:50Z</time>
      </trkpt>
      <trkpt lat="45.06878" lon="2.86596">
        <ele>1261.81</ele>
        <time>2021-07-23T15:21:52Z</time>
      </trkpt>
      <trkpt lat="45.06869" lon="2.86604">
        <ele>1261.92</ele>
        <time>2021-07-23T15:21:54Z</time>
      </trkpt>
      <trkpt lat="45.06859" lon="2.86611">
        <ele>1261.4</ele>
        <time>2021-07-23T15:21:56Z</time>
      </trkpt>
      <trkpt lat="45.06849" lon="2.86615">
        <ele>1261.17</ele>
        <time>2021-07-23T15:21:58Z</time>
      </trkpt>
      <trkpt lat="45.06837" lon="2.8661">
        <ele>1260.33</ele>
        <time>2021-07-23T15:22:00Z</time>
      </trkpt>
      <trkpt lat="45.06828" lon="2.86604">
        <ele>1258.12</ele>
        <time>2021-07-23T15:22:02Z</time>
      </trkpt>
      <trkpt lat="45.06818" lon="2.86594">
        <ele>1255.68</ele>
        <time>2021-07-23T15:22:04Z</time>
      </trkpt>
      <trkpt lat="45.06807" lon="2.86589">
        <ele>1254.54</ele>
        <time>2021-07-23T15:22:06Z</time>
      </trkpt>
      <trkpt lat="45.06795" lon="2.86594">
        <ele>1255.07</ele>
        <time>2021-07-23T15:22:08Z</time>
      </trkpt>
      <trkpt lat="45.06785" lon="2.86606">
        <ele>1255.98</ele>
        <time>2021-07-23T15:22:10Z</time>
      </trkpt>
      <trkpt lat="45.06779" lon="2.8662">
        <ele>1256.34</ele>
        <time>2021-07-23T15:22:12Z</time>
      </trkpt>
      <trkpt lat="45.06775" lon="2.86634">
        <ele>1257.88</ele>
        <time>2021-07-23T15:22:14Z</time>
      </trkpt>
      <trkpt lat="45.06773" lon="2.86649">
        <ele>1258.35</ele>
        <time>2021-07-23T15:22:16Z</time>
      </trkpt>
      <trkpt lat="45.06776" lon="2.86664">
        <ele>1257.07</ele>
        <time>2021-07-23T15:22:18Z</time>
      </trkpt>
      <trkpt lat="45.0678" lon="2.86678">
        <ele>1256.11</ele>
        <time>2021-07-23T15:22:20Z</time>
      </trkpt>
      <trkpt lat="45.06786" lon="2.86694">
        <ele>1254.79</ele>
        <time>2021-07-23T15:22:22Z</time>
      </trkpt>
      <trkpt lat="45.0679" lon="2.86711">
        <ele>1254.03</ele>
        <time>2021-07-23T15:22:24Z</time>
      </trkpt>
      <trkpt lat="45.06792" lon="2.86733">
        <ele>1251.74</ele>
        <time>2021-07-23T15:22:26Z</time>
      </trkpt>
      <trkpt lat="45.0679" lon="2.86755">
        <ele>1250.56</ele>
        <time>2021-07-23T15:22:28Z</time>
      </trkpt>
      <trkpt lat="45.06787" lon="2.86777">
        <ele>1249.41</ele>
        <time>2021-07-23T15:22:30Z</time>
      </trkpt>
      <trkpt lat="45.06783" lon="2.86796">
        <ele>1249.01</ele>
        <time>2021-07-23T15:22:32Z</time>
      </trkpt>
      <trkpt lat="45.06778" lon="2.86815">
        <ele>1248.17</ele>
        <time>2021-07-23T15:22:34Z</time>
      </trkpt>
      <trkpt lat="45.06772" lon="2.86831">
        <ele>1247.26</ele>
        <time>2021-07-23T15:22:36Z</time>
      </trkpt>
      <trkpt lat="45.06763" lon="2.86843">
        <ele>1246.36</ele>
        <time>2021-07-23T15:22:38Z</time>
      </trkpt>
      <trkpt lat="45.06755" lon="2.86855">
        <ele>1245.16</ele>
        <time>2021-07-23T15:22:40Z</time>
      </trkpt>
      <trkpt lat="45.06747" lon="2.86864">
        <ele>1244.26</ele>
        <time>2021-07-23T15:22:42Z</time>
      </trkpt>
      <trkpt lat="45.06739" lon="2.86872">
        <ele>1243.06</ele>
        <time>2021-07-23T15:22:44Z</time>
      </trkpt>
      <trkpt lat="45.06731" lon="2.86885">
        <ele>1241.88</ele>
        <time>2021-07-23T15:22:47Z</time>
      </trkpt>
      <trkpt lat="45.06722" lon="2.86892">
        <ele>1238.8</ele>
        <time>2021-07-23T15:22:51Z</time>
      </trkpt>
      <trkpt lat="45.0671" lon="2.86903">
        <ele>1238.15</ele>
        <time>2021-07-23T15:22:54Z</time>
      </trkpt>
      <trkpt lat="45.06702" lon="2.86914">
        <ele>1234.7</ele>
        <time>2021-07-23T15:22:58Z</time>
      </trkpt>
      <trkpt lat="45.06694" lon="2.86922">
        <ele>1234.26</ele>
        <time>2021-07-23T15:23:04Z</time>
      </trkpt>
      <trkpt lat="45.06699" lon="2.86912">
        <ele>1240.17</ele>
        <time>2021-07-23T15:23:52Z</time>
      </trkpt>
      <trkpt lat="45.06708" lon="2.86907">
        <ele>1241.5</ele>
        <time>2021-07-23T15:23:57Z</time>
      </trkpt>
      <trkpt lat="45.06716" lon="2.86898">
        <ele>1241.56</ele>
        <time>2021-07-23T15:24:03Z</time>
      </trkpt>
      <trkpt lat="45.0672" lon="2.86887">
        <ele>1241.41</ele>
        <time>2021-07-23T15:24:15Z</time>
      </trkpt>
      <trkpt lat="45.06716" lon="2.86899">
        <ele>1241.36</ele>
        <time>2021-07-23T15:26:06Z</time>
      </trkpt>
      <trkpt lat="45.06707" lon="2.86906">
        <ele>1240.26</ele>
        <time>2021-07-23T15:26:12Z</time>
      </trkpt>
      <trkpt lat="45.06694" lon="2.86909">
        <ele>1239.61</ele>
        <time>2021-07-23T15:26:14Z</time>
      </trkpt>
      <trkpt lat="45.06683" lon="2.86903">
        <ele>1239.24</ele>
        <time>2021-07-23T15:26:17Z</time>
      </trkpt>
      <trkpt lat="45.06676" lon="2.86892">
        <ele>1237.94</ele>
        <time>2021-07-23T15:26:20Z</time>
      </trkpt>
      <trkpt lat="45.06668" lon="2.86882">
        <ele>1237.81</ele>
        <time>2021-07-23T15:26:24Z</time>
      </trkpt>
      <trkpt lat="45.06661" lon="2.86872">
        <ele>1239.35</ele>
        <time>2021-07-23T15:26:29Z</time>
      </trkpt>
      <trkpt lat="45.06665" lon="2.86885">
        <ele>1238.38</ele>
        <time>2021-07-23T15:55:09Z</time>
      </trkpt>
      <trkpt lat="45.06672" lon="2.86896">
        <ele>1237.13</ele>
        <time>2021-07-23T15:55:13Z</time>
      </trkpt>
      <trkpt lat="45.0668" lon="2.86906">
        <ele>1236.2</ele>
        <time>2021-07-23T15:55:16Z</time>
      </trkpt>
      <trkpt lat="45.06686" lon="2.86916">
        <ele>1235.17</ele>
        <time>2021-07-23T15:55:19Z</time>
      </trkpt>
      <trkpt lat="45.06694" lon="2.86926">
        <ele>1231.31</ele>
        <time>2021-07-23T15:55:24Z</time>
      </trkpt>
      <trkpt lat="45.06702" lon="2.86934">
        <ele>1231.3</ele>
        <time>2021-07-23T15:55:29Z</time>
      </trkpt>
      <trkpt lat="45.06709" lon="2.86943">
        <ele>1231.66</ele>
        <time>2021-07-23T15:55:36Z</time>
      </trkpt>
      <trkpt lat="45.06705" lon="2.86956">
        <ele>1230.29</ele>
        <time>2021-07-23T15:55:40Z</time>
      </trkpt>
      <trkpt lat="45.067" lon="2.86969">
        <ele>1230.57</ele>
        <time>2021-07-23T15:55:43Z</time>
      </trkpt>
      <trkpt lat="45.06694" lon="2.86983">
        <ele>1230.35</ele>
        <time>2021-07-23T15:55:46Z</time>
      </trkpt>
      <trkpt lat="45.06685" lon="2.86992">
        <ele>1230.21</ele>
        <time>2021-07-23T15:55:50Z</time>
      </trkpt>
      <trkpt lat="45.06674" lon="2.86995">
        <ele>1230.67</ele>
        <time>2021-07-23T15:55:53Z</time>
      </trkpt>
      <trkpt lat="45.06669" lon="2.87008">
        <ele>1229.62</ele>
        <time>2021-07-23T15:55:56Z</time>
      </trkpt>
      <trkpt lat="45.06665" lon="2.8702">
        <ele>1229.46</ele>
        <time>2021-07-23T15:56:01Z</time>
      </trkpt>
      <trkpt lat="45.06666" lon="2.87007">
        <ele>1231.93</ele>
        <time>2021-07-23T15:56:14Z</time>
      </trkpt>
      <trkpt lat="45.06672" lon="2.86995">
        <ele>1232.09</ele>
        <time>2021-07-23T15:56:21Z</time>
      </trkpt>
      <trkpt lat="45.0668" lon="2.86989">
        <ele>1233.53</ele>
        <time>2021-07-23T15:56:26Z</time>
      </trkpt>
      <trkpt lat="45.0669" lon="2.86986">
        <ele>1233.77</ele>
        <time>2021-07-23T15:56:31Z</time>
      </trkpt>
      <trkpt lat="45.06698" lon="2.8698">
        <ele>1234.68</ele>
        <time>2021-07-23T15:56:36Z</time>
      </trkpt>
      <trkpt lat="45.06706" lon="2.86972">
        <ele>1235.35</ele>
        <time>2021-07-23T15:56:41Z</time>
      </trkpt>
      <trkpt lat="45.06714" lon="2.86966">
        <ele>1231.43</ele>
        <time>2021-07-23T15:56:46Z</time>
      </trkpt>
      <trkpt lat="45.06724" lon="2.86961">
        <ele>1231.43</ele>
        <time>2021-07-23T15:56:52Z</time>
      </trkpt>
      <trkpt lat="45.06734" lon="2.86961">
        <ele>1232.21</ele>
        <time>2021-07-23T15:56:57Z</time>
      </trkpt>
      <trkpt lat="45.06743" lon="2.86968">
        <ele>1231.54</ele>
        <time>2021-07-23T15:57:01Z</time>
      </trkpt>
      <trkpt lat="45.06752" lon="2.86978">
        <ele>1231.64</ele>
        <time>2021-07-23T15:57:05Z</time>
      </trkpt>
      <trkpt lat="45.06761" lon="2.86988">
        <ele>1230.97</ele>
        <time>2021-07-23T15:57:09Z</time>
      </trkpt>
      <trkpt lat="45.06768" lon="2.86996">
        <ele>1229.59</ele>
        <time>2021-07-23T15:57:12Z</time>
      </trkpt>
      <trkpt lat="45.06778" lon="2.87005">
        <ele>1230.24</ele>
        <time>2021-07-23T15:57:16Z</time>
      </trkpt>
      <trkpt lat="45.06786" lon="2.87012">
        <ele>1231.47</ele>
        <time>2021-07-23T15:57:19Z</time>
      </trkpt>
      <trkpt lat="45.06794" lon="2.87021">
        <ele>1234.38</ele>
        <time>2021-07-23T15:57:22Z</time>
      </trkpt>
      <trkpt lat="45.06802" lon="2.87029">
        <ele>1233.75</ele>
        <time>2021-07-23T15:57:25Z</time>
      </trkpt>
      <trkpt lat="45.0681" lon="2.87037">
        <ele>1233.99</ele>
        <time>2021-07-23T15:57:28Z</time>
      </trkpt>
      <trkpt lat="45.0682" lon="2.87046">
        <ele>1235.64</ele>
        <time>2021-07-23T15:57:32Z</time>
      </trkpt>
      <trkpt lat="45.06829" lon="2.87056">
        <ele>1238.56</ele>
        <time>2021-07-23T15:57:36Z</time>
      </trkpt>
      <trkpt lat="45.06836" lon="2.87065">
        <ele>1237.17</ele>
        <time>2021-07-23T15:57:48Z</time>
      </trkpt>
      <trkpt lat="45.06842" lon="2.87074">
        <ele>1236.36</ele>
        <time>2021-07-23T15:57:55Z</time>
      </trkpt>
      <trkpt lat="45.06848" lon="2.87087">
        <ele>1237.52</ele>
        <time>2021-07-23T15:58:00Z</time>
      </trkpt>
      <trkpt lat="45.06854" lon="2.87103">
        <ele>1238.34</ele>
        <time>2021-07-23T15:58:04Z</time>
      </trkpt>
      <trkpt lat="45.06857" lon="2.87119">
        <ele>1238.63</ele>
        <time>2021-07-23T15:58:07Z</time>
      </trkpt>
      <trkpt lat="45.06858" lon="2.87133">
        <ele>1238.58</ele>
        <time>2021-07-23T15:58:09Z</time>
      </trkpt>
      <trkpt lat="45.06861" lon="2.87152">
        <ele>1237.54</ele>
        <time>2021-07-23T15:58:12Z</time>
      </trkpt>
      <trkpt lat="45.06861" lon="2.87167">
        <ele>1236.79</ele>
        <time>2021-07-23T15:58:14Z</time>
      </trkpt>
      <trkpt lat="45.06863" lon="2.87183">
        <ele>1235.11</ele>
        <time>2021-07-23T15:58:16Z</time>
      </trkpt>
      <trkpt lat="45.06865" lon="2.87199">
        <ele>1234.2</ele>
        <time>2021-07-23T15:58:18Z</time>
      </trkpt>
      <trkpt lat="45.06867" lon="2.87217">
        <ele>1233.69</ele>
        <time>2021-07-23T15:58:20Z</time>
      </trkpt>
      <trkpt lat="45.06868" lon="2.87236">
        <ele>1233.97</ele>
        <time>2021-07-23T15:58:22Z</time>
      </trkpt>
      <trkpt lat="45.06865" lon="2.87254">
        <ele>1234.15</ele>
        <time>2021-07-23T15:58:24Z</time>
      </trkpt>
      <trkpt lat="45.06864" lon="2.87273">
        <ele>1234.14</ele>
        <time>2021-07-23T15:58:26Z</time>
      </trkpt>
      <trkpt lat="45.06862" lon="2.87291">
        <ele>1234.95</ele>
        <time>2021-07-23T15:58:28Z</time>
      </trkpt>
      <trkpt lat="45.06861" lon="2.87309">
        <ele>1235.04</ele>
        <time>2021-07-23T15:58:30Z</time>
      </trkpt>
      <trkpt lat="45.0686" lon="2.87326">
        <ele>1235.83</ele>
        <time>2021-07-23T15:58:32Z</time>
      </trkpt>
      <trkpt lat="45.06857" lon="2.87343">
        <ele>1235.6</ele>
        <time>2021-07-23T15:58:34Z</time>
      </trkpt>
      <trkpt lat="45.06856" lon="2.87361">
        <ele>1233.98</ele>
        <time>2021-07-23T15:58:36Z</time>
      </trkpt>
      <trkpt lat="45.06855" lon="2.8738">
        <ele>1233.41</ele>
        <time>2021-07-23T15:58:38Z</time>
      </trkpt>
      <trkpt lat="45.06856" lon="2.87396">
        <ele>1233.46</ele>
        <time>2021-07-23T15:58:40Z</time>
      </trkpt>
      <trkpt lat="45.06856" lon="2.87413">
        <ele>1233.24</ele>
        <time>2021-07-23T15:58:42Z</time>
      </trkpt>
      <trkpt lat="45.06855" lon="2.87429">
        <ele>1231.21</ele>
        <time>2021-07-23T15:58:44Z</time>
      </trkpt>
      <trkpt lat="45.06854" lon="2.87446">
        <ele>1229.39</ele>
        <time>2021-07-23T15:58:46Z</time>
      </trkpt>
      <trkpt lat="45.06855" lon="2.87462">
        <ele>1230.1</ele>
        <time>2021-07-23T15:58:48Z</time>
      </trkpt>
      <trkpt lat="45.06856" lon="2.87477">
        <ele>1230.61</ele>
        <time>2021-07-23T15:58:50Z</time>
      </trkpt>
      <trkpt lat="45.06857" lon="2.87496">
        <ele>1231.68</ele>
        <time>2021-07-23T15:58:53Z</time>
      </trkpt>
      <trkpt lat="45.06857" lon="2.87512">
        <ele>1232.92</ele>
        <time>2021-07-23T15:58:56Z</time>
      </trkpt>
      <trkpt lat="45.06857" lon="2.87531">
        <ele>1234.01</ele>
        <time>2021-07-23T15:59:01Z</time>
      </trkpt>
      <trkpt lat="45.06858" lon="2.87546">
        <ele>1234.05</ele>
        <time>2021-07-23T15:59:03Z</time>
      </trkpt>
      <trkpt lat="45.06858" lon="2.8756">
        <ele>1232.75</ele>
        <time>2021-07-23T15:59:06Z</time>
      </trkpt>
      <trkpt lat="45.06858" lon="2.87576">
        <ele>1233.85</ele>
        <time>2021-07-23T15:59:09Z</time>
      </trkpt>
      <trkpt lat="45.06857" lon="2.8759">
        <ele>1235.04</ele>
        <time>2021-07-23T15:59:12Z</time>
      </trkpt>
      <trkpt lat="45.06857" lon="2.87606">
        <ele>1233.56</ele>
        <time>2021-07-23T15:59:15Z</time>
      </trkpt>
      <trkpt lat="45.06857" lon="2.87621">
        <ele>1234.72</ele>
        <time>2021-07-23T15:59:18Z</time>
      </trkpt>
      <trkpt lat="45.06854" lon="2.87639">
        <ele>1233.28</ele>
        <time>2021-07-23T15:59:21Z</time>
      </trkpt>
      <trkpt lat="45.06851" lon="2.87652">
        <ele>1234.57</ele>
        <time>2021-07-23T15:59:23Z</time>
      </trkpt>
      <trkpt lat="45.06849" lon="2.87669">
        <ele>1237.14</ele>
        <time>2021-07-23T15:59:26Z</time>
      </trkpt>
      <trkpt lat="45.06846" lon="2.87687">
        <ele>1237.26</ele>
        <time>2021-07-23T15:59:29Z</time>
      </trkpt>
      <trkpt lat="45.06842" lon="2.87704">
        <ele>1236.74</ele>
        <time>2021-07-23T15:59:32Z</time>
      </trkpt>
      <trkpt lat="45.06837" lon="2.8772">
        <ele>1233.77</ele>
        <time>2021-07-23T15:59:35Z</time>
      </trkpt>
      <trkpt lat="45.06834" lon="2.87734">
        <ele>1232.95</ele>
        <time>2021-07-23T15:59:38Z</time>
      </trkpt>
      <trkpt lat="45.06831" lon="2.87749">
        <ele>1233.16</ele>
        <time>2021-07-23T15:59:41Z</time>
      </trkpt>
      <trkpt lat="45.06829" lon="2.87763">
        <ele>1232.67</ele>
        <time>2021-07-23T15:59:44Z</time>
      </trkpt>
      <trkpt lat="45.06826" lon="2.87778">
        <ele>1232.74</ele>
        <time>2021-07-23T15:59:47Z</time>
      </trkpt>
      <trkpt lat="45.06821" lon="2.87793">
        <ele>1232.77</ele>
        <time>2021-07-23T15:59:50Z</time>
      </trkpt>
      <trkpt lat="45.0682" lon="2.87806">
        <ele>1233.49</ele>
        <time>2021-07-23T15:59:52Z</time>
      </trkpt>
      <trkpt lat="45.06817" lon="2.87821">
        <ele>1232.61</ele>
        <time>2021-07-23T15:59:54Z</time>
      </trkpt>
      <trkpt lat="45.06812" lon="2.87837">
        <ele>1231.44</ele>
        <time>2021-07-23T15:59:57Z</time>
      </trkpt>
      <trkpt lat="45.06808" lon="2.8785">
        <ele>1229.17</ele>
        <time>2021-07-23T15:59:59Z</time>
      </trkpt>
      <trkpt lat="45.06805" lon="2.87864">
        <ele>1227.54</ele>
        <time>2021-07-23T16:00:01Z</time>
      </trkpt>
      <trkpt lat="45.06801" lon="2.87878">
        <ele>1226.49</ele>
        <time>2021-07-23T16:00:03Z</time>
      </trkpt>
      <trkpt lat="45.06798" lon="2.87891">
        <ele>1225.5</ele>
        <time>2021-07-23T16:00:05Z</time>
      </trkpt>
      <trkpt lat="45.06796" lon="2.87905">
        <ele>1224.12</ele>
        <time>2021-07-23T16:00:07Z</time>
      </trkpt>
      <trkpt lat="45.06794" lon="2.87919">
        <ele>1224.08</ele>
        <time>2021-07-23T16:00:09Z</time>
      </trkpt>
      <trkpt lat="45.06791" lon="2.87933">
        <ele>1223.29</ele>
        <time>2021-07-23T16:00:11Z</time>
      </trkpt>
      <trkpt lat="45.06788" lon="2.87948">
        <ele>1222.28</ele>
        <time>2021-07-23T16:00:13Z</time>
      </trkpt>
      <trkpt lat="45.06783" lon="2.87962">
        <ele>1221.48</ele>
        <time>2021-07-23T16:00:15Z</time>
      </trkpt>
      <trkpt lat="45.0678" lon="2.87977">
        <ele>1220.18</ele>
        <time>2021-07-23T16:00:17Z</time>
      </trkpt>
      <trkpt lat="45.06777" lon="2.87992">
        <ele>1218.68</ele>
        <time>2021-07-23T16:00:19Z</time>
      </trkpt>
      <trkpt lat="45.06773" lon="2.88007">
        <ele>1218.83</ele>
        <time>2021-07-23T16:00:21Z</time>
      </trkpt>
      <trkpt lat="45.06768" lon="2.88022">
        <ele>1218.92</ele>
        <time>2021-07-23T16:00:23Z</time>
      </trkpt>
      <trkpt lat="45.06764" lon="2.88038">
        <ele>1217.91</ele>
        <time>2021-07-23T16:00:25Z</time>
      </trkpt>
      <trkpt lat="45.06759" lon="2.88054">
        <ele>1217.32</ele>
        <time>2021-07-23T16:00:27Z</time>
      </trkpt>
      <trkpt lat="45.06755" lon="2.88066">
        <ele>1217.2</ele>
        <time>2021-07-23T16:00:29Z</time>
      </trkpt>
      <trkpt lat="45.06751" lon="2.88079">
        <ele>1216.56</ele>
        <time>2021-07-23T16:00:31Z</time>
      </trkpt>
      <trkpt lat="45.06747" lon="2.88093">
        <ele>1216.63</ele>
        <time>2021-07-23T16:00:33Z</time>
      </trkpt>
      <trkpt lat="45.06745" lon="2.88106">
        <ele>1216.15</ele>
        <time>2021-07-23T16:00:35Z</time>
      </trkpt>
      <trkpt lat="45.06744" lon="2.88121">
        <ele>1215.44</ele>
        <time>2021-07-23T16:00:37Z</time>
      </trkpt>
      <trkpt lat="45.06743" lon="2.88137">
        <ele>1214.7</ele>
        <time>2021-07-23T16:00:39Z</time>
      </trkpt>
      <trkpt lat="45.06744" lon="2.88152">
        <ele>1213.68</ele>
        <time>2021-07-23T16:00:41Z</time>
      </trkpt>
      <trkpt lat="45.06745" lon="2.88166">
        <ele>1213.28</ele>
        <time>2021-07-23T16:00:43Z</time>
      </trkpt>
      <trkpt lat="45.06745" lon="2.88181">
        <ele>1211.33</ele>
        <time>2021-07-23T16:00:45Z</time>
      </trkpt>
      <trkpt lat="45.06746" lon="2.88197">
        <ele>1210.54</ele>
        <time>2021-07-23T16:00:47Z</time>
      </trkpt>
      <trkpt lat="45.06748" lon="2.88213">
        <ele>1208.64</ele>
        <time>2021-07-23T16:00:49Z</time>
      </trkpt>
      <trkpt lat="45.06749" lon="2.88232">
        <ele>1206.35</ele>
        <time>2021-07-23T16:00:51Z</time>
      </trkpt>
      <trkpt lat="45.06752" lon="2.88254">
        <ele>1203.4</ele>
        <time>2021-07-23T16:00:53Z</time>
      </trkpt>
      <trkpt lat="45.06754" lon="2.88277">
        <ele>1199.71</ele>
        <time>2021-07-23T16:00:55Z</time>
      </trkpt>
      <trkpt lat="45.06757" lon="2.88302">
        <ele>1197.62</ele>
        <time>2021-07-23T16:00:57Z</time>
      </trkpt>
      <trkpt lat="45.06757" lon="2.88315">
        <ele>1196.94</ele>
        <time>2021-07-23T16:00:58Z</time>
      </trkpt>
      <trkpt lat="45.06758" lon="2.88329">
        <ele>1196.62</ele>
        <time>2021-07-23T16:00:59Z</time>
      </trkpt>
      <trkpt lat="45.06757" lon="2.88342">
        <ele>1195.39</ele>
        <time>2021-07-23T16:01:00Z</time>
      </trkpt>
      <trkpt lat="45.06754" lon="2.88356">
        <ele>1194</ele>
        <time>2021-07-23T16:01:01Z</time>
      </trkpt>
      <trkpt lat="45.0675" lon="2.88369">
        <ele>1193.08</ele>
        <time>2021-07-23T16:01:02Z</time>
      </trkpt>
      <trkpt lat="45.06746" lon="2.88382">
        <ele>1192.46</ele>
        <time>2021-07-23T16:01:03Z</time>
      </trkpt>
      <trkpt lat="45.06741" lon="2.88394">
        <ele>1192.03</ele>
        <time>2021-07-23T16:01:04Z</time>
      </trkpt>
      <trkpt lat="45.06735" lon="2.88417">
        <ele>1192.84</ele>
        <time>2021-07-23T16:01:06Z</time>
      </trkpt>
      <trkpt lat="45.06728" lon="2.88438">
        <ele>1191.8</ele>
        <time>2021-07-23T16:01:08Z</time>
      </trkpt>
      <trkpt lat="45.06719" lon="2.88459">
        <ele>1190.22</ele>
        <time>2021-07-23T16:01:10Z</time>
      </trkpt>
      <trkpt lat="45.06708" lon="2.88475">
        <ele>1189.37</ele>
        <time>2021-07-23T16:01:12Z</time>
      </trkpt>
      <trkpt lat="45.06691" lon="2.8849">
        <ele>1189.98</ele>
        <time>2021-07-23T16:01:14Z</time>
      </trkpt>
      <trkpt lat="45.06678" lon="2.88503">
        <ele>1190.34</ele>
        <time>2021-07-23T16:01:16Z</time>
      </trkpt>
      <trkpt lat="45.06667" lon="2.88522">
        <ele>1189.32</ele>
        <time>2021-07-23T16:01:18Z</time>
      </trkpt>
      <trkpt lat="45.06664" lon="2.88542">
        <ele>1188.06</ele>
        <time>2021-07-23T16:01:20Z</time>
      </trkpt>
      <trkpt lat="45.06666" lon="2.88562">
        <ele>1186.72</ele>
        <time>2021-07-23T16:01:22Z</time>
      </trkpt>
      <trkpt lat="45.06666" lon="2.88582">
        <ele>1185.88</ele>
        <time>2021-07-23T16:01:24Z</time>
      </trkpt>
      <trkpt lat="45.06666" lon="2.88604">
        <ele>1186.12</ele>
        <time>2021-07-23T16:01:26Z</time>
      </trkpt>
      <trkpt lat="45.06668" lon="2.88626">
        <ele>1184.63</ele>
        <time>2021-07-23T16:01:28Z</time>
      </trkpt>
      <trkpt lat="45.06673" lon="2.88648">
        <ele>1182.86</ele>
        <time>2021-07-23T16:01:30Z</time>
      </trkpt>
      <trkpt lat="45.06678" lon="2.88673">
        <ele>1181.72</ele>
        <time>2021-07-23T16:01:32Z</time>
      </trkpt>
      <trkpt lat="45.06681" lon="2.88686">
        <ele>1181.1</ele>
        <time>2021-07-23T16:01:33Z</time>
      </trkpt>
      <trkpt lat="45.06684" lon="2.88698">
        <ele>1179.74</ele>
        <time>2021-07-23T16:01:34Z</time>
      </trkpt>
      <trkpt lat="45.06687" lon="2.88711">
        <ele>1178.79</ele>
        <time>2021-07-23T16:01:35Z</time>
      </trkpt>
      <trkpt lat="45.06691" lon="2.88723">
        <ele>1178.36</ele>
        <time>2021-07-23T16:01:36Z</time>
      </trkpt>
      <trkpt lat="45.06694" lon="2.88736">
        <ele>1178.22</ele>
        <time>2021-07-23T16:01:37Z</time>
      </trkpt>
      <trkpt lat="45.06697" lon="2.88749">
        <ele>1177.78</ele>
        <time>2021-07-23T16:01:38Z</time>
      </trkpt>
      <trkpt lat="45.06703" lon="2.88775">
        <ele>1175.93</ele>
        <time>2021-07-23T16:01:40Z</time>
      </trkpt>
      <trkpt lat="45.06707" lon="2.88788">
        <ele>1176.06</ele>
        <time>2021-07-23T16:01:41Z</time>
      </trkpt>
      <trkpt lat="45.0671" lon="2.88802">
        <ele>1175.92</ele>
        <time>2021-07-23T16:01:42Z</time>
      </trkpt>
      <trkpt lat="45.06713" lon="2.88815">
        <ele>1175.64</ele>
        <time>2021-07-23T16:01:43Z</time>
      </trkpt>
      <trkpt lat="45.06717" lon="2.88828">
        <ele>1175.63</ele>
        <time>2021-07-23T16:01:44Z</time>
      </trkpt>
      <trkpt lat="45.06723" lon="2.88851">
        <ele>1175.8</ele>
        <time>2021-07-23T16:01:46Z</time>
      </trkpt>
      <trkpt lat="45.06729" lon="2.8887">
        <ele>1175.44</ele>
        <time>2021-07-23T16:01:48Z</time>
      </trkpt>
      <trkpt lat="45.06733" lon="2.88886">
        <ele>1174.66</ele>
        <time>2021-07-23T16:01:50Z</time>
      </trkpt>
      <trkpt lat="45.06735" lon="2.889">
        <ele>1174.25</ele>
        <time>2021-07-23T16:01:52Z</time>
      </trkpt>
      <trkpt lat="45.06736" lon="2.88913">
        <ele>1173.97</ele>
        <time>2021-07-23T16:01:54Z</time>
      </trkpt>
      <trkpt lat="45.0674" lon="2.88926">
        <ele>1174.31</ele>
        <time>2021-07-23T16:01:56Z</time>
      </trkpt>
      <trkpt lat="45.0675" lon="2.88937">
        <ele>1174.75</ele>
        <time>2021-07-23T16:01:59Z</time>
      </trkpt>
      <trkpt lat="45.06759" lon="2.88943">
        <ele>1174.44</ele>
        <time>2021-07-23T16:02:02Z</time>
      </trkpt>
      <trkpt lat="45.0677" lon="2.88948">
        <ele>1175.21</ele>
        <time>2021-07-23T16:02:06Z</time>
      </trkpt>
      <trkpt lat="45.0678" lon="2.88949">
        <ele>1176.13</ele>
        <time>2021-07-23T16:02:10Z</time>
      </trkpt>
      <trkpt lat="45.0679" lon="2.88951">
        <ele>1176.84</ele>
        <time>2021-07-23T16:02:14Z</time>
      </trkpt>
      <trkpt lat="45.068" lon="2.88946">
        <ele>1177.45</ele>
        <time>2021-07-23T16:02:20Z</time>
      </trkpt>
      <trkpt lat="45.06808" lon="2.88939">
        <ele>1179.73</ele>
        <time>2021-07-23T16:02:25Z</time>
      </trkpt>
      <trkpt lat="45.06816" lon="2.88931">
        <ele>1182.02</ele>
        <time>2021-07-23T16:02:29Z</time>
      </trkpt>
      <trkpt lat="45.06823" lon="2.88919">
        <ele>1182.74</ele>
        <time>2021-07-23T16:02:33Z</time>
      </trkpt>
      <trkpt lat="45.06831" lon="2.88906">
        <ele>1184.22</ele>
        <time>2021-07-23T16:02:37Z</time>
      </trkpt>
      <trkpt lat="45.06839" lon="2.88895">
        <ele>1184.44</ele>
        <time>2021-07-23T16:02:41Z</time>
      </trkpt>
      <trkpt lat="45.06846" lon="2.88884">
        <ele>1184.83</ele>
        <time>2021-07-23T16:02:45Z</time>
      </trkpt>
      <trkpt lat="45.06853" lon="2.88873">
        <ele>1185.89</ele>
        <time>2021-07-23T16:02:49Z</time>
      </trkpt>
      <trkpt lat="45.0686" lon="2.88863">
        <ele>1186.01</ele>
        <time>2021-07-23T16:02:53Z</time>
      </trkpt>
      <trkpt lat="45.06866" lon="2.88854">
        <ele>1186.25</ele>
        <time>2021-07-23T16:02:57Z</time>
      </trkpt>
      <trkpt lat="45.06874" lon="2.88843">
        <ele>1186.77</ele>
        <time>2021-07-23T16:03:01Z</time>
      </trkpt>
      <trkpt lat="45.06882" lon="2.88834">
        <ele>1185.48</ele>
        <time>2021-07-23T16:03:05Z</time>
      </trkpt>
      <trkpt lat="45.06893" lon="2.88829">
        <ele>1184.09</ele>
        <time>2021-07-23T16:03:09Z</time>
      </trkpt>
      <trkpt lat="45.06904" lon="2.88828">
        <ele>1183.2</ele>
        <time>2021-07-23T16:03:12Z</time>
      </trkpt>
      <trkpt lat="45.06916" lon="2.88826">
        <ele>1182.78</ele>
        <time>2021-07-23T16:03:15Z</time>
      </trkpt>
      <trkpt lat="45.06926" lon="2.88827">
        <ele>1182.33</ele>
        <time>2021-07-23T16:03:18Z</time>
      </trkpt>
      <trkpt lat="45.06936" lon="2.88829">
        <ele>1181.53</ele>
        <time>2021-07-23T16:03:24Z</time>
      </trkpt>
      <trkpt lat="45.06946" lon="2.88827">
        <ele>1179.01</ele>
        <time>2021-07-23T16:03:54Z</time>
      </trkpt>
      <trkpt lat="45.06957" lon="2.88827">
        <ele>1178.4</ele>
        <time>2021-07-23T16:03:57Z</time>
      </trkpt>
      <trkpt lat="45.06969" lon="2.88828">
        <ele>1178.59</ele>
        <time>2021-07-23T16:04:00Z</time>
      </trkpt>
      <trkpt lat="45.06984" lon="2.88829">
        <ele>1178.52</ele>
        <time>2021-07-23T16:04:03Z</time>
      </trkpt>
      <trkpt lat="45.06995" lon="2.8883">
        <ele>1178.02</ele>
        <time>2021-07-23T16:04:05Z</time>
      </trkpt>
      <trkpt lat="45.07005" lon="2.88831">
        <ele>1178.12</ele>
        <time>2021-07-23T16:04:07Z</time>
      </trkpt>
      <trkpt lat="45.07017" lon="2.88832">
        <ele>1177.3</ele>
        <time>2021-07-23T16:04:09Z</time>
      </trkpt>
      <trkpt lat="45.07029" lon="2.88831">
        <ele>1176.87</ele>
        <time>2021-07-23T16:04:11Z</time>
      </trkpt>
      <trkpt lat="45.0704" lon="2.88833">
        <ele>1176.33</ele>
        <time>2021-07-23T16:04:13Z</time>
      </trkpt>
      <trkpt lat="45.07052" lon="2.88834">
        <ele>1176.74</ele>
        <time>2021-07-23T16:04:15Z</time>
      </trkpt>
      <trkpt lat="45.07063" lon="2.88834">
        <ele>1175.71</ele>
        <time>2021-07-23T16:04:17Z</time>
      </trkpt>
      <trkpt lat="45.07075" lon="2.88836">
        <ele>1174.42</ele>
        <time>2021-07-23T16:04:19Z</time>
      </trkpt>
      <trkpt lat="45.07086" lon="2.88836">
        <ele>1174.26</ele>
        <time>2021-07-23T16:04:21Z</time>
      </trkpt>
      <trkpt lat="45.07097" lon="2.88838">
        <ele>1173.67</ele>
        <time>2021-07-23T16:04:23Z</time>
      </trkpt>
      <trkpt lat="45.07109" lon="2.8884">
        <ele>1172.54</ele>
        <time>2021-07-23T16:04:25Z</time>
      </trkpt>
      <trkpt lat="45.0712" lon="2.88842">
        <ele>1171.98</ele>
        <time>2021-07-23T16:04:27Z</time>
      </trkpt>
      <trkpt lat="45.07133" lon="2.88844">
        <ele>1171.23</ele>
        <time>2021-07-23T16:04:29Z</time>
      </trkpt>
      <trkpt lat="45.07144" lon="2.88846">
        <ele>1170.54</ele>
        <time>2021-07-23T16:04:31Z</time>
      </trkpt>
      <trkpt lat="45.07157" lon="2.88847">
        <ele>1170.34</ele>
        <time>2021-07-23T16:04:33Z</time>
      </trkpt>
      <trkpt lat="45.07171" lon="2.88848">
        <ele>1169.52</ele>
        <time>2021-07-23T16:04:35Z</time>
      </trkpt>
      <trkpt lat="45.07186" lon="2.8885">
        <ele>1168.69</ele>
        <time>2021-07-23T16:04:37Z</time>
      </trkpt>
      <trkpt lat="45.07202" lon="2.88852">
        <ele>1168.03</ele>
        <time>2021-07-23T16:04:39Z</time>
      </trkpt>
      <trkpt lat="45.07218" lon="2.88856">
        <ele>1166.85</ele>
        <time>2021-07-23T16:04:41Z</time>
      </trkpt>
      <trkpt lat="45.07236" lon="2.88858">
        <ele>1166.99</ele>
        <time>2021-07-23T16:04:43Z</time>
      </trkpt>
      <trkpt lat="45.07252" lon="2.88865">
        <ele>1167.07</ele>
        <time>2021-07-23T16:04:45Z</time>
      </trkpt>
      <trkpt lat="45.07265" lon="2.88872">
        <ele>1165.25</ele>
        <time>2021-07-23T16:04:47Z</time>
      </trkpt>
      <trkpt lat="45.07274" lon="2.88882">
        <ele>1165.19</ele>
        <time>2021-07-23T16:04:50Z</time>
      </trkpt>
      <trkpt lat="45.07284" lon="2.88884">
        <ele>1166.43</ele>
        <time>2021-07-23T16:05:02Z</time>
      </trkpt>
      <trkpt lat="45.07294" lon="2.88888">
        <ele>1164.82</ele>
        <time>2021-07-23T16:05:06Z</time>
      </trkpt>
      <trkpt lat="45.07305" lon="2.8889">
        <ele>1164.46</ele>
        <time>2021-07-23T16:05:10Z</time>
      </trkpt>
      <trkpt lat="45.07316" lon="2.8889">
        <ele>1163.6</ele>
        <time>2021-07-23T16:05:13Z</time>
      </trkpt>
      <trkpt lat="45.07328" lon="2.88889">
        <ele>1163.16</ele>
        <time>2021-07-23T16:05:16Z</time>
      </trkpt>
      <trkpt lat="45.07338" lon="2.88887">
        <ele>1162.53</ele>
        <time>2021-07-23T16:05:19Z</time>
      </trkpt>
      <trkpt lat="45.07351" lon="2.88886">
        <ele>1163.52</ele>
        <time>2021-07-23T16:05:22Z</time>
      </trkpt>
      <trkpt lat="45.07361" lon="2.88882">
        <ele>1164.26</ele>
        <time>2021-07-23T16:05:25Z</time>
      </trkpt>
      <trkpt lat="45.07371" lon="2.88879">
        <ele>1164.79</ele>
        <time>2021-07-23T16:05:29Z</time>
      </trkpt>
      <trkpt lat="45.07381" lon="2.88877">
        <ele>1164.57</ele>
        <time>2021-07-23T16:05:32Z</time>
      </trkpt>
      <trkpt lat="45.0739" lon="2.88873">
        <ele>1164.37</ele>
        <time>2021-07-23T16:05:35Z</time>
      </trkpt>
      <trkpt lat="45.07399" lon="2.88868">
        <ele>1164.25</ele>
        <time>2021-07-23T16:05:38Z</time>
      </trkpt>
      <trkpt lat="45.0741" lon="2.8887">
        <ele>1164.72</ele>
        <time>2021-07-23T16:05:42Z</time>
      </trkpt>
      <trkpt lat="45.07415" lon="2.88884">
        <ele>1162.52</ele>
        <time>2021-07-23T16:05:45Z</time>
      </trkpt>
      <trkpt lat="45.07416" lon="2.88902">
        <ele>1162.62</ele>
        <time>2021-07-23T16:05:48Z</time>
      </trkpt>
      <trkpt lat="45.07417" lon="2.88916">
        <ele>1161.66</ele>
        <time>2021-07-23T16:05:52Z</time>
      </trkpt>
      <trkpt lat="45.07416" lon="2.8893">
        <ele>1160.36</ele>
        <time>2021-07-23T16:05:56Z</time>
      </trkpt>
      <trkpt lat="45.07417" lon="2.88945">
        <ele>1161.52</ele>
        <time>2021-07-23T16:05:59Z</time>
      </trkpt>
      <trkpt lat="45.07419" lon="2.88962">
        <ele>1161.5</ele>
        <time>2021-07-23T16:06:02Z</time>
      </trkpt>
      <trkpt lat="45.07424" lon="2.88976">
        <ele>1162.58</ele>
        <time>2021-07-23T16:06:06Z</time>
      </trkpt>
      <trkpt lat="45.07431" lon="2.88988">
        <ele>1160.1</ele>
        <time>2021-07-23T16:06:11Z</time>
      </trkpt>
      <trkpt lat="45.07437" lon="2.89002">
        <ele>1159.22</ele>
        <time>2021-07-23T16:06:15Z</time>
      </trkpt>
      <trkpt lat="45.07443" lon="2.89016">
        <ele>1160.34</ele>
        <time>2021-07-23T16:06:18Z</time>
      </trkpt>
      <trkpt lat="45.07453" lon="2.89028">
        <ele>1161.63</ele>
        <time>2021-07-23T16:06:21Z</time>
      </trkpt>
      <trkpt lat="45.07466" lon="2.89032">
        <ele>1161.53</ele>
        <time>2021-07-23T16:06:24Z</time>
      </trkpt>
      <trkpt lat="45.07478" lon="2.89029">
        <ele>1161.58</ele>
        <time>2021-07-23T16:06:27Z</time>
      </trkpt>
      <trkpt lat="45.07489" lon="2.89025">
        <ele>1161.96</ele>
        <time>2021-07-23T16:06:29Z</time>
      </trkpt>
      <trkpt lat="45.07499" lon="2.89022">
        <ele>1162.46</ele>
        <time>2021-07-23T16:06:32Z</time>
      </trkpt>
      <trkpt lat="45.07511" lon="2.89021">
        <ele>1161.04</ele>
        <time>2021-07-23T16:06:35Z</time>
      </trkpt>
      <trkpt lat="45.07522" lon="2.89018">
        <ele>1161.87</ele>
        <time>2021-07-23T16:06:38Z</time>
      </trkpt>
      <trkpt lat="45.07532" lon="2.89016">
        <ele>1162.16</ele>
        <time>2021-07-23T16:06:41Z</time>
      </trkpt>
      <trkpt lat="45.07541" lon="2.89013">
        <ele>1162.17</ele>
        <time>2021-07-23T16:06:44Z</time>
      </trkpt>
      <trkpt lat="45.0755" lon="2.89011">
        <ele>1163.22</ele>
        <time>2021-07-23T16:06:49Z</time>
      </trkpt>
      <trkpt lat="45.07549" lon="2.89026">
        <ele>1163.3</ele>
        <time>2021-07-23T16:06:57Z</time>
      </trkpt>
      <trkpt lat="45.07549" lon="2.89039">
        <ele>1161.22</ele>
        <time>2021-07-23T16:08:45Z</time>
      </trkpt>
      <trkpt lat="45.0755" lon="2.89053">
        <ele>1160.51</ele>
        <time>2021-07-23T16:08:48Z</time>
      </trkpt>
      <trkpt lat="45.07553" lon="2.89071">
        <ele>1159.38</ele>
        <time>2021-07-23T16:08:51Z</time>
      </trkpt>
      <trkpt lat="45.07557" lon="2.89084">
        <ele>1157.89</ele>
        <time>2021-07-23T16:08:53Z</time>
      </trkpt>
      <trkpt lat="45.07563" lon="2.89101">
        <ele>1155.55</ele>
        <time>2021-07-23T16:08:56Z</time>
      </trkpt>
      <trkpt lat="45.07568" lon="2.89116">
        <ele>1154.35</ele>
        <time>2021-07-23T16:08:58Z</time>
      </trkpt>
      <trkpt lat="45.07574" lon="2.89131">
        <ele>1153.86</ele>
        <time>2021-07-23T16:09:00Z</time>
      </trkpt>
      <trkpt lat="45.07579" lon="2.89152">
        <ele>1151.89</ele>
        <time>2021-07-23T16:09:02Z</time>
      </trkpt>
      <trkpt lat="45.07583" lon="2.89175">
        <ele>1148.39</ele>
        <time>2021-07-23T16:09:04Z</time>
      </trkpt>
      <trkpt lat="45.07587" lon="2.89187">
        <ele>1146.76</ele>
        <time>2021-07-23T16:09:05Z</time>
      </trkpt>
      <trkpt lat="45.07593" lon="2.89211">
        <ele>1144.97</ele>
        <time>2021-07-23T16:09:07Z</time>
      </trkpt>
      <trkpt lat="45.07595" lon="2.89225">
        <ele>1144.66</ele>
        <time>2021-07-23T16:09:08Z</time>
      </trkpt>
      <trkpt lat="45.07597" lon="2.89239">
        <ele>1143.86</ele>
        <time>2021-07-23T16:09:09Z</time>
      </trkpt>
      <trkpt lat="45.07598" lon="2.89254">
        <ele>1143.63</ele>
        <time>2021-07-23T16:09:10Z</time>
      </trkpt>
      <trkpt lat="45.07599" lon="2.89268">
        <ele>1143.29</ele>
        <time>2021-07-23T16:09:11Z</time>
      </trkpt>
      <trkpt lat="45.076" lon="2.89282">
        <ele>1143.26</ele>
        <time>2021-07-23T16:09:12Z</time>
      </trkpt>
      <trkpt lat="45.076" lon="2.89295">
        <ele>1143.21</ele>
        <time>2021-07-23T16:09:13Z</time>
      </trkpt>
      <trkpt lat="45.076" lon="2.89321">
        <ele>1143.29</ele>
        <time>2021-07-23T16:09:15Z</time>
      </trkpt>
      <trkpt lat="45.076" lon="2.89334">
        <ele>1142.68</ele>
        <time>2021-07-23T16:09:16Z</time>
      </trkpt>
      <trkpt lat="45.07598" lon="2.89357">
        <ele>1140.17</ele>
        <time>2021-07-23T16:09:18Z</time>
      </trkpt>
      <trkpt lat="45.07597" lon="2.8937">
        <ele>1139.22</ele>
        <time>2021-07-23T16:09:19Z</time>
      </trkpt>
      <trkpt lat="45.07597" lon="2.89383">
        <ele>1138.4</ele>
        <time>2021-07-23T16:09:20Z</time>
      </trkpt>
      <trkpt lat="45.07596" lon="2.89397">
        <ele>1137.02</ele>
        <time>2021-07-23T16:09:21Z</time>
      </trkpt>
      <trkpt lat="45.07594" lon="2.89411">
        <ele>1134.16</ele>
        <time>2021-07-23T16:09:22Z</time>
      </trkpt>
      <trkpt lat="45.07594" lon="2.89436">
        <ele>1131.83</ele>
        <time>2021-07-23T16:09:24Z</time>
      </trkpt>
      <trkpt lat="45.07593" lon="2.8945">
        <ele>1130.56</ele>
        <time>2021-07-23T16:09:25Z</time>
      </trkpt>
      <trkpt lat="45.0759" lon="2.89463">
        <ele>1129.53</ele>
        <time>2021-07-23T16:09:26Z</time>
      </trkpt>
      <trkpt lat="45.07587" lon="2.89485">
        <ele>1130.52</ele>
        <time>2021-07-23T16:09:28Z</time>
      </trkpt>
      <trkpt lat="45.07584" lon="2.89502">
        <ele>1131.51</ele>
        <time>2021-07-23T16:09:30Z</time>
      </trkpt>
      <trkpt lat="45.07585" lon="2.89519">
        <ele>1129.57</ele>
        <time>2021-07-23T16:09:32Z</time>
      </trkpt>
      <trkpt lat="45.07587" lon="2.89536">
        <ele>1129.18</ele>
        <time>2021-07-23T16:09:34Z</time>
      </trkpt>
      <trkpt lat="45.07589" lon="2.89555">
        <ele>1128.07</ele>
        <time>2021-07-23T16:09:36Z</time>
      </trkpt>
      <trkpt lat="45.07591" lon="2.89573">
        <ele>1126.56</ele>
        <time>2021-07-23T16:09:38Z</time>
      </trkpt>
      <trkpt lat="45.07592" lon="2.89594">
        <ele>1126.01</ele>
        <time>2021-07-23T16:09:40Z</time>
      </trkpt>
      <trkpt lat="45.07591" lon="2.89615">
        <ele>1126.02</ele>
        <time>2021-07-23T16:09:42Z</time>
      </trkpt>
      <trkpt lat="45.07591" lon="2.89635">
        <ele>1126.21</ele>
        <time>2021-07-23T16:09:44Z</time>
      </trkpt>
      <trkpt lat="45.07594" lon="2.89656">
        <ele>1127.5</ele>
        <time>2021-07-23T16:09:46Z</time>
      </trkpt>
      <trkpt lat="45.076" lon="2.89678">
        <ele>1126.26</ele>
        <time>2021-07-23T16:09:48Z</time>
      </trkpt>
      <trkpt lat="45.0761" lon="2.897">
        <ele>1125.3</ele>
        <time>2021-07-23T16:09:50Z</time>
      </trkpt>
      <trkpt lat="45.07614" lon="2.89712">
        <ele>1124.5</ele>
        <time>2021-07-23T16:09:51Z</time>
      </trkpt>
      <trkpt lat="45.07623" lon="2.89733">
        <ele>1121.78</ele>
        <time>2021-07-23T16:09:53Z</time>
      </trkpt>
      <trkpt lat="45.07628" lon="2.89746">
        <ele>1120.27</ele>
        <time>2021-07-23T16:09:54Z</time>
      </trkpt>
      <trkpt lat="45.07634" lon="2.89756">
        <ele>1118.84</ele>
        <time>2021-07-23T16:09:55Z</time>
      </trkpt>
      <trkpt lat="45.07639" lon="2.89768">
        <ele>1117.5</ele>
        <time>2021-07-23T16:09:56Z</time>
      </trkpt>
      <trkpt lat="45.07644" lon="2.89779">
        <ele>1116.22</ele>
        <time>2021-07-23T16:09:57Z</time>
      </trkpt>
      <trkpt lat="45.07649" lon="2.8979">
        <ele>1115.58</ele>
        <time>2021-07-23T16:09:58Z</time>
      </trkpt>
      <trkpt lat="45.07653" lon="2.89802">
        <ele>1113.47</ele>
        <time>2021-07-23T16:09:59Z</time>
      </trkpt>
      <trkpt lat="45.07656" lon="2.89815">
        <ele>1111.06</ele>
        <time>2021-07-23T16:10:00Z</time>
      </trkpt>
      <trkpt lat="45.0766" lon="2.89829">
        <ele>1109.51</ele>
        <time>2021-07-23T16:10:01Z</time>
      </trkpt>
      <trkpt lat="45.07664" lon="2.89844">
        <ele>1108.18</ele>
        <time>2021-07-23T16:10:02Z</time>
      </trkpt>
      <trkpt lat="45.07667" lon="2.89856">
        <ele>1106.47</ele>
        <time>2021-07-23T16:10:03Z</time>
      </trkpt>
      <trkpt lat="45.07671" lon="2.89869">
        <ele>1106.23</ele>
        <time>2021-07-23T16:10:04Z</time>
      </trkpt>
      <trkpt lat="45.07676" lon="2.89881">
        <ele>1106.34</ele>
        <time>2021-07-23T16:10:05Z</time>
      </trkpt>
      <trkpt lat="45.07685" lon="2.89898">
        <ele>1105.09</ele>
        <time>2021-07-23T16:10:07Z</time>
      </trkpt>
      <trkpt lat="45.07691" lon="2.89909">
        <ele>1101.92</ele>
        <time>2021-07-23T16:10:09Z</time>
      </trkpt>
      <trkpt lat="45.07701" lon="2.89918">
        <ele>1101.09</ele>
        <time>2021-07-23T16:10:12Z</time>
      </trkpt>
      <trkpt lat="45.0771" lon="2.89926">
        <ele>1101.05</ele>
        <time>2021-07-23T16:10:14Z</time>
      </trkpt>
      <trkpt lat="45.07722" lon="2.89938">
        <ele>1098.89</ele>
        <time>2021-07-23T16:10:16Z</time>
      </trkpt>
      <trkpt lat="45.07732" lon="2.89955">
        <ele>1097.91</ele>
        <time>2021-07-23T16:10:18Z</time>
      </trkpt>
      <trkpt lat="45.07741" lon="2.89974">
        <ele>1097.73</ele>
        <time>2021-07-23T16:10:20Z</time>
      </trkpt>
      <trkpt lat="45.07746" lon="2.89985">
        <ele>1097.18</ele>
        <time>2021-07-23T16:10:21Z</time>
      </trkpt>
      <trkpt lat="45.07758" lon="2.90006">
        <ele>1095.42</ele>
        <time>2021-07-23T16:10:23Z</time>
      </trkpt>
      <trkpt lat="45.07762" lon="2.90018">
        <ele>1092.99</ele>
        <time>2021-07-23T16:10:24Z</time>
      </trkpt>
      <trkpt lat="45.07768" lon="2.90029">
        <ele>1092.03</ele>
        <time>2021-07-23T16:10:25Z</time>
      </trkpt>
      <trkpt lat="45.07774" lon="2.90039">
        <ele>1091.48</ele>
        <time>2021-07-23T16:10:26Z</time>
      </trkpt>
      <trkpt lat="45.0778" lon="2.90051">
        <ele>1091.27</ele>
        <time>2021-07-23T16:10:27Z</time>
      </trkpt>
      <trkpt lat="45.07786" lon="2.90063">
        <ele>1092.19</ele>
        <time>2021-07-23T16:10:28Z</time>
      </trkpt>
      <trkpt lat="45.07791" lon="2.90075">
        <ele>1091.79</ele>
        <time>2021-07-23T16:10:29Z</time>
      </trkpt>
      <trkpt lat="45.078" lon="2.90097">
        <ele>1090.64</ele>
        <time>2021-07-23T16:10:31Z</time>
      </trkpt>
      <trkpt lat="45.07808" lon="2.90119">
        <ele>1090.04</ele>
        <time>2021-07-23T16:10:33Z</time>
      </trkpt>
      <trkpt lat="45.07817" lon="2.90139">
        <ele>1090.39</ele>
        <time>2021-07-23T16:10:35Z</time>
      </trkpt>
      <trkpt lat="45.07822" lon="2.90158">
        <ele>1090.27</ele>
        <time>2021-07-23T16:10:37Z</time>
      </trkpt>
      <trkpt lat="45.07833" lon="2.90176">
        <ele>1088.28</ele>
        <time>2021-07-23T16:10:39Z</time>
      </trkpt>
      <trkpt lat="45.07836" lon="2.90195">
        <ele>1088.95</ele>
        <time>2021-07-23T16:10:41Z</time>
      </trkpt>
      <trkpt lat="45.07841" lon="2.90213">
        <ele>1089.52</ele>
        <time>2021-07-23T16:10:43Z</time>
      </trkpt>
      <trkpt lat="45.07847" lon="2.90231">
        <ele>1088.89</ele>
        <time>2021-07-23T16:10:45Z</time>
      </trkpt>
      <trkpt lat="45.07856" lon="2.90253">
        <ele>1088.83</ele>
        <time>2021-07-23T16:10:47Z</time>
      </trkpt>
      <trkpt lat="45.07861" lon="2.90264">
        <ele>1089.17</ele>
        <time>2021-07-23T16:10:48Z</time>
      </trkpt>
      <trkpt lat="45.07864" lon="2.90277">
        <ele>1089.32</ele>
        <time>2021-07-23T16:10:49Z</time>
      </trkpt>
      <trkpt lat="45.07867" lon="2.90289">
        <ele>1089.81</ele>
        <time>2021-07-23T16:10:50Z</time>
      </trkpt>
      <trkpt lat="45.07873" lon="2.90314">
        <ele>1089.89</ele>
        <time>2021-07-23T16:10:52Z</time>
      </trkpt>
      <trkpt lat="45.07879" lon="2.90325">
        <ele>1088.89</ele>
        <time>2021-07-23T16:10:53Z</time>
      </trkpt>
      <trkpt lat="45.07882" lon="2.90337">
        <ele>1088.55</ele>
        <time>2021-07-23T16:10:54Z</time>
      </trkpt>
      <trkpt lat="45.07888" lon="2.90359">
        <ele>1086.71</ele>
        <time>2021-07-23T16:10:56Z</time>
      </trkpt>
      <trkpt lat="45.07896" lon="2.90369">
        <ele>1083.39</ele>
        <time>2021-07-23T16:10:58Z</time>
      </trkpt>
      <trkpt lat="45.07907" lon="2.90379">
        <ele>1080.63</ele>
        <time>2021-07-23T16:11:00Z</time>
      </trkpt>
      <trkpt lat="45.07924" lon="2.90385">
        <ele>1079.37</ele>
        <time>2021-07-23T16:11:02Z</time>
      </trkpt>
      <trkpt lat="45.0794" lon="2.90392">
        <ele>1077.27</ele>
        <time>2021-07-23T16:11:04Z</time>
      </trkpt>
      <trkpt lat="45.0795" lon="2.90397">
        <ele>1077.5</ele>
        <time>2021-07-23T16:11:05Z</time>
      </trkpt>
      <trkpt lat="45.07958" lon="2.90404">
        <ele>1077.71</ele>
        <time>2021-07-23T16:11:06Z</time>
      </trkpt>
      <trkpt lat="45.07966" lon="2.90411">
        <ele>1077.91</ele>
        <time>2021-07-23T16:11:07Z</time>
      </trkpt>
      <trkpt lat="45.07974" lon="2.90419">
        <ele>1077.91</ele>
        <time>2021-07-23T16:11:08Z</time>
      </trkpt>
      <trkpt lat="45.07985" lon="2.90438">
        <ele>1077.34</ele>
        <time>2021-07-23T16:11:10Z</time>
      </trkpt>
      <trkpt lat="45.07994" lon="2.90452">
        <ele>1078.51</ele>
        <time>2021-07-23T16:11:12Z</time>
      </trkpt>
      <trkpt lat="45.08003" lon="2.90465">
        <ele>1079.02</ele>
        <time>2021-07-23T16:11:14Z</time>
      </trkpt>
      <trkpt lat="45.08013" lon="2.90479">
        <ele>1079</ele>
        <time>2021-07-23T16:11:17Z</time>
      </trkpt>
      <trkpt lat="45.08021" lon="2.90485">
        <ele>1080</ele>
        <time>2021-07-23T16:11:19Z</time>
      </trkpt>
      <trkpt lat="45.08033" lon="2.90489">
        <ele>1080.65</ele>
        <time>2021-07-23T16:11:21Z</time>
      </trkpt>
      <trkpt lat="45.08042" lon="2.90492">
        <ele>1080.81</ele>
        <time>2021-07-23T16:11:23Z</time>
      </trkpt>
      <trkpt lat="45.08054" lon="2.90501">
        <ele>1080.88</ele>
        <time>2021-07-23T16:11:26Z</time>
      </trkpt>
      <trkpt lat="45.08064" lon="2.90507">
        <ele>1080.92</ele>
        <time>2021-07-23T16:11:28Z</time>
      </trkpt>
      <trkpt lat="45.08072" lon="2.90516">
        <ele>1080.25</ele>
        <time>2021-07-23T16:11:30Z</time>
      </trkpt>
      <trkpt lat="45.08079" lon="2.90528">
        <ele>1078.96</ele>
        <time>2021-07-23T16:11:32Z</time>
      </trkpt>
      <trkpt lat="45.0809" lon="2.90542">
        <ele>1078.23</ele>
        <time>2021-07-23T16:11:34Z</time>
      </trkpt>
      <trkpt lat="45.08103" lon="2.90557">
        <ele>1075.65</ele>
        <time>2021-07-23T16:11:36Z</time>
      </trkpt>
      <trkpt lat="45.08116" lon="2.90575">
        <ele>1073.3</ele>
        <time>2021-07-23T16:11:38Z</time>
      </trkpt>
      <trkpt lat="45.08123" lon="2.90585">
        <ele>1072.11</ele>
        <time>2021-07-23T16:11:39Z</time>
      </trkpt>
      <trkpt lat="45.08131" lon="2.90596">
        <ele>1071.48</ele>
        <time>2021-07-23T16:11:40Z</time>
      </trkpt>
      <trkpt lat="45.08137" lon="2.90609">
        <ele>1071.27</ele>
        <time>2021-07-23T16:11:41Z</time>
      </trkpt>
      <trkpt lat="45.08143" lon="2.9062">
        <ele>1070.52</ele>
        <time>2021-07-23T16:11:42Z</time>
      </trkpt>
      <trkpt lat="45.0815" lon="2.90633">
        <ele>1070.1</ele>
        <time>2021-07-23T16:11:43Z</time>
      </trkpt>
      <trkpt lat="45.08156" lon="2.90644">
        <ele>1069.64</ele>
        <time>2021-07-23T16:11:44Z</time>
      </trkpt>
      <trkpt lat="45.0816" lon="2.90655">
        <ele>1068.36</ele>
        <time>2021-07-23T16:11:45Z</time>
      </trkpt>
      <trkpt lat="45.08164" lon="2.90667">
        <ele>1067.81</ele>
        <time>2021-07-23T16:11:46Z</time>
      </trkpt>
      <trkpt lat="45.08168" lon="2.90679">
        <ele>1065.8</ele>
        <time>2021-07-23T16:11:47Z</time>
      </trkpt>
      <trkpt lat="45.08173" lon="2.9069">
        <ele>1063.85</ele>
        <time>2021-07-23T16:11:48Z</time>
      </trkpt>
      <trkpt lat="45.08186" lon="2.90709">
        <ele>1062.08</ele>
        <time>2021-07-23T16:11:50Z</time>
      </trkpt>
      <trkpt lat="45.08192" lon="2.90718">
        <ele>1061.43</ele>
        <time>2021-07-23T16:11:51Z</time>
      </trkpt>
      <trkpt lat="45.082" lon="2.90727">
        <ele>1060.99</ele>
        <time>2021-07-23T16:11:52Z</time>
      </trkpt>
      <trkpt lat="45.08207" lon="2.90736">
        <ele>1060.14</ele>
        <time>2021-07-23T16:11:53Z</time>
      </trkpt>
      <trkpt lat="45.08221" lon="2.90753">
        <ele>1060.04</ele>
        <time>2021-07-23T16:11:55Z</time>
      </trkpt>
      <trkpt lat="45.08228" lon="2.90763">
        <ele>1060.81</ele>
        <time>2021-07-23T16:11:56Z</time>
      </trkpt>
      <trkpt lat="45.08234" lon="2.90773">
        <ele>1061.08</ele>
        <time>2021-07-23T16:11:57Z</time>
      </trkpt>
      <trkpt lat="45.08241" lon="2.90783">
        <ele>1061.09</ele>
        <time>2021-07-23T16:11:58Z</time>
      </trkpt>
      <trkpt lat="45.08253" lon="2.90802">
        <ele>1060.16</ele>
        <time>2021-07-23T16:12:00Z</time>
      </trkpt>
      <trkpt lat="45.08263" lon="2.90819">
        <ele>1059.09</ele>
        <time>2021-07-23T16:12:02Z</time>
      </trkpt>
      <trkpt lat="45.08275" lon="2.90833">
        <ele>1058.3</ele>
        <time>2021-07-23T16:12:04Z</time>
      </trkpt>
      <trkpt lat="45.08285" lon="2.90847">
        <ele>1058.46</ele>
        <time>2021-07-23T16:12:06Z</time>
      </trkpt>
      <trkpt lat="45.08292" lon="2.90858">
        <ele>1055.54</ele>
        <time>2021-07-23T16:12:08Z</time>
      </trkpt>
      <trkpt lat="45.08298" lon="2.90868">
        <ele>1056.37</ele>
        <time>2021-07-23T16:12:56Z</time>
      </trkpt>
      <trkpt lat="45.083" lon="2.90882">
        <ele>1057.7</ele>
        <time>2021-07-23T16:13:12Z</time>
      </trkpt>
      <trkpt lat="45.08302" lon="2.90896">
        <ele>1055.18</ele>
        <time>2021-07-23T16:14:45Z</time>
      </trkpt>
      <trkpt lat="45.08304" lon="2.90909">
        <ele>1055.79</ele>
        <time>2021-07-23T16:14:49Z</time>
      </trkpt>
      <trkpt lat="45.08305" lon="2.90926">
        <ele>1056.55</ele>
        <time>2021-07-23T16:14:53Z</time>
      </trkpt>
      <trkpt lat="45.08306" lon="2.90939">
        <ele>1057.8</ele>
        <time>2021-07-23T16:14:56Z</time>
      </trkpt>
      <trkpt lat="45.08305" lon="2.90955">
        <ele>1056.08</ele>
        <time>2021-07-23T16:15:00Z</time>
      </trkpt>
      <trkpt lat="45.08308" lon="2.9097">
        <ele>1057.48</ele>
        <time>2021-07-23T16:15:04Z</time>
      </trkpt>
      <trkpt lat="45.0831" lon="2.90986">
        <ele>1058.85</ele>
        <time>2021-07-23T16:15:08Z</time>
      </trkpt>
      <trkpt lat="45.08311" lon="2.90999">
        <ele>1059.99</ele>
        <time>2021-07-23T16:15:11Z</time>
      </trkpt>
      <trkpt lat="45.08311" lon="2.91012">
        <ele>1059.87</ele>
        <time>2021-07-23T16:15:14Z</time>
      </trkpt>
      <trkpt lat="45.08313" lon="2.91026">
        <ele>1060.42</ele>
        <time>2021-07-23T16:15:17Z</time>
      </trkpt>
      <trkpt lat="45.08315" lon="2.91043">
        <ele>1060.67</ele>
        <time>2021-07-23T16:15:21Z</time>
      </trkpt>
      <trkpt lat="45.08316" lon="2.91057">
        <ele>1059.29</ele>
        <time>2021-07-23T16:15:24Z</time>
      </trkpt>
      <trkpt lat="45.08318" lon="2.91072">
        <ele>1058.14</ele>
        <time>2021-07-23T16:15:27Z</time>
      </trkpt>
      <trkpt lat="45.08317" lon="2.91085">
        <ele>1057.89</ele>
        <time>2021-07-23T16:15:30Z</time>
      </trkpt>
      <trkpt lat="45.08311" lon="2.91097">
        <ele>1056.82</ele>
        <time>2021-07-23T16:15:34Z</time>
      </trkpt>
      <trkpt lat="45.08303" lon="2.91108">
        <ele>1053.71</ele>
        <time>2021-07-23T16:15:38Z</time>
      </trkpt>
      <trkpt lat="45.08295" lon="2.91118">
        <ele>1054.47</ele>
        <time>2021-07-23T16:15:42Z</time>
      </trkpt>
      <trkpt lat="45.08289" lon="2.9113">
        <ele>1056.14</ele>
        <time>2021-07-23T16:15:47Z</time>
      </trkpt>
      <trkpt lat="45.08297" lon="2.91121">
        <ele>1059.96</ele>
        <time>2021-07-23T16:16:06Z</time>
      </trkpt>
      <trkpt lat="45.08305" lon="2.91114">
        <ele>1057.57</ele>
        <time>2021-07-23T16:16:10Z</time>
      </trkpt>
      <trkpt lat="45.08315" lon="2.9111">
        <ele>1057.09</ele>
        <time>2021-07-23T16:16:13Z</time>
      </trkpt>
      <trkpt lat="45.08328" lon="2.91109">
        <ele>1057.96</ele>
        <time>2021-07-23T16:16:16Z</time>
      </trkpt>
      <trkpt lat="45.08338" lon="2.91107">
        <ele>1057.37</ele>
        <time>2021-07-23T16:16:18Z</time>
      </trkpt>
      <trkpt lat="45.08348" lon="2.91106">
        <ele>1056.94</ele>
        <time>2021-07-23T16:16:20Z</time>
      </trkpt>
      <trkpt lat="45.08359" lon="2.91109">
        <ele>1055.56</ele>
        <time>2021-07-23T16:16:22Z</time>
      </trkpt>
      <trkpt lat="45.08369" lon="2.91109">
        <ele>1054.77</ele>
        <time>2021-07-23T16:16:24Z</time>
      </trkpt>
      <trkpt lat="45.08379" lon="2.91111">
        <ele>1053.92</ele>
        <time>2021-07-23T16:16:26Z</time>
      </trkpt>
      <trkpt lat="45.08391" lon="2.91114">
        <ele>1053.79</ele>
        <time>2021-07-23T16:16:28Z</time>
      </trkpt>
      <trkpt lat="45.08403" lon="2.91115">
        <ele>1052.57</ele>
        <time>2021-07-23T16:16:30Z</time>
      </trkpt>
      <trkpt lat="45.08418" lon="2.91117">
        <ele>1050.45</ele>
        <time>2021-07-23T16:16:32Z</time>
      </trkpt>
      <trkpt lat="45.08432" lon="2.91114">
        <ele>1050.89</ele>
        <time>2021-07-23T16:16:34Z</time>
      </trkpt>
      <trkpt lat="45.08447" lon="2.9111">
        <ele>1051.94</ele>
        <time>2021-07-23T16:16:36Z</time>
      </trkpt>
      <trkpt lat="45.0846" lon="2.91108">
        <ele>1052.56</ele>
        <time>2021-07-23T16:16:38Z</time>
      </trkpt>
      <trkpt lat="45.08478" lon="2.91109">
        <ele>1052.06</ele>
        <time>2021-07-23T16:16:40Z</time>
      </trkpt>
      <trkpt lat="45.0849" lon="2.91111">
        <ele>1052.09</ele>
        <time>2021-07-23T16:16:42Z</time>
      </trkpt>
      <trkpt lat="45.08502" lon="2.91113">
        <ele>1053.51</ele>
        <time>2021-07-23T16:16:44Z</time>
      </trkpt>
      <trkpt lat="45.08512" lon="2.91114">
        <ele>1052.58</ele>
        <time>2021-07-23T16:16:46Z</time>
      </trkpt>
      <trkpt lat="45.08523" lon="2.91119">
        <ele>1053.14</ele>
        <time>2021-07-23T16:16:48Z</time>
      </trkpt>
      <trkpt lat="45.08533" lon="2.91126">
        <ele>1053.91</ele>
        <time>2021-07-23T16:16:50Z</time>
      </trkpt>
      <trkpt lat="45.08541" lon="2.91134">
        <ele>1053.65</ele>
        <time>2021-07-23T16:16:52Z</time>
      </trkpt>
      <trkpt lat="45.08547" lon="2.91143">
        <ele>1053.94</ele>
        <time>2021-07-23T16:16:54Z</time>
      </trkpt>
      <trkpt lat="45.08555" lon="2.91151">
        <ele>1053.9</ele>
        <time>2021-07-23T16:16:56Z</time>
      </trkpt>
      <trkpt lat="45.08563" lon="2.9116">
        <ele>1054.04</ele>
        <time>2021-07-23T16:16:58Z</time>
      </trkpt>
      <trkpt lat="45.08572" lon="2.91167">
        <ele>1053.71</ele>
        <time>2021-07-23T16:17:00Z</time>
      </trkpt>
      <trkpt lat="45.08579" lon="2.91176">
        <ele>1054.32</ele>
        <time>2021-07-23T16:17:02Z</time>
      </trkpt>
      <trkpt lat="45.08588" lon="2.91188">
        <ele>1055.15</ele>
        <time>2021-07-23T16:17:05Z</time>
      </trkpt>
      <trkpt lat="45.08598" lon="2.91196">
        <ele>1054.37</ele>
        <time>2021-07-23T16:17:08Z</time>
      </trkpt>
      <trkpt lat="45.08607" lon="2.91206">
        <ele>1055.83</ele>
        <time>2021-07-23T16:17:11Z</time>
      </trkpt>
      <trkpt lat="45.08614" lon="2.91217">
        <ele>1056.63</ele>
        <time>2021-07-23T16:17:14Z</time>
      </trkpt>
      <trkpt lat="45.0862" lon="2.9123">
        <ele>1057.35</ele>
        <time>2021-07-23T16:17:18Z</time>
      </trkpt>
      <trkpt lat="45.08626" lon="2.91244">
        <ele>1056.96</ele>
        <time>2021-07-23T16:17:22Z</time>
      </trkpt>
      <trkpt lat="45.0863" lon="2.91257">
        <ele>1055.48</ele>
        <time>2021-07-23T16:17:26Z</time>
      </trkpt>
      <trkpt lat="45.08635" lon="2.9127">
        <ele>1056.98</ele>
        <time>2021-07-23T16:17:30Z</time>
      </trkpt>
      <trkpt lat="45.08643" lon="2.91282">
        <ele>1059.19</ele>
        <time>2021-07-23T16:17:34Z</time>
      </trkpt>
      <trkpt lat="45.08648" lon="2.91294">
        <ele>1057.08</ele>
        <time>2021-07-23T16:17:38Z</time>
      </trkpt>
      <trkpt lat="45.08653" lon="2.91306">
        <ele>1055.25</ele>
        <time>2021-07-23T16:17:42Z</time>
      </trkpt>
      <trkpt lat="45.0866" lon="2.91317">
        <ele>1055.75</ele>
        <time>2021-07-23T16:17:46Z</time>
      </trkpt>
      <trkpt lat="45.08667" lon="2.91327">
        <ele>1056.33</ele>
        <time>2021-07-23T16:17:50Z</time>
      </trkpt>
      <trkpt lat="45.08676" lon="2.91336">
        <ele>1057.82</ele>
        <time>2021-07-23T16:17:54Z</time>
      </trkpt>
      <trkpt lat="45.08686" lon="2.91341">
        <ele>1056.89</ele>
        <time>2021-07-23T16:17:57Z</time>
      </trkpt>
      <trkpt lat="45.08694" lon="2.91346">
        <ele>1056.58</ele>
        <time>2021-07-23T16:18:00Z</time>
      </trkpt>
      <trkpt lat="45.08704" lon="2.9135">
        <ele>1058.66</ele>
        <time>2021-07-23T16:18:03Z</time>
      </trkpt>
      <trkpt lat="45.08714" lon="2.91356">
        <ele>1059.72</ele>
        <time>2021-07-23T16:18:06Z</time>
      </trkpt>
      <trkpt lat="45.08723" lon="2.91365">
        <ele>1061.1</ele>
        <time>2021-07-23T16:18:09Z</time>
      </trkpt>
      <trkpt lat="45.0873" lon="2.91378">
        <ele>1060.29</ele>
        <time>2021-07-23T16:18:12Z</time>
      </trkpt>
      <trkpt lat="45.08738" lon="2.91391">
        <ele>1061.67</ele>
        <time>2021-07-23T16:18:15Z</time>
      </trkpt>
      <trkpt lat="45.08745" lon="2.91405">
        <ele>1062.19</ele>
        <time>2021-07-23T16:18:18Z</time>
      </trkpt>
      <trkpt lat="45.08752" lon="2.91418">
        <ele>1062.45</ele>
        <time>2021-07-23T16:18:21Z</time>
      </trkpt>
      <trkpt lat="45.08761" lon="2.91433">
        <ele>1063.54</ele>
        <time>2021-07-23T16:18:24Z</time>
      </trkpt>
      <trkpt lat="45.08758" lon="2.9145">
        <ele>1063.96</ele>
        <time>2021-07-23T16:18:27Z</time>
      </trkpt>
      <trkpt lat="45.08752" lon="2.9146">
        <ele>1064.59</ele>
        <time>2021-07-23T16:18:29Z</time>
      </trkpt>
      <trkpt lat="45.08746" lon="2.91471">
        <ele>1065.88</ele>
        <time>2021-07-23T16:18:31Z</time>
      </trkpt>
      <trkpt lat="45.08742" lon="2.91486">
        <ele>1065.73</ele>
        <time>2021-07-23T16:18:33Z</time>
      </trkpt>
      <trkpt lat="45.08741" lon="2.91501">
        <ele>1065.15</ele>
        <time>2021-07-23T16:18:35Z</time>
      </trkpt>
      <trkpt lat="45.08737" lon="2.9152">
        <ele>1065.06</ele>
        <time>2021-07-23T16:18:38Z</time>
      </trkpt>
      <trkpt lat="45.08736" lon="2.91535">
        <ele>1065.35</ele>
        <time>2021-07-23T16:18:40Z</time>
      </trkpt>
      <trkpt lat="45.08736" lon="2.91549">
        <ele>1065.63</ele>
        <time>2021-07-23T16:18:42Z</time>
      </trkpt>
      <trkpt lat="45.08734" lon="2.91566">
        <ele>1066.16</ele>
        <time>2021-07-23T16:18:45Z</time>
      </trkpt>
      <trkpt lat="45.08731" lon="2.91582">
        <ele>1066.44</ele>
        <time>2021-07-23T16:18:48Z</time>
      </trkpt>
      <trkpt lat="45.08728" lon="2.91598">
        <ele>1064.96</ele>
        <time>2021-07-23T16:18:51Z</time>
      </trkpt>
      <trkpt lat="45.08727" lon="2.91614">
        <ele>1065.8</ele>
        <time>2021-07-23T16:18:54Z</time>
      </trkpt>
      <trkpt lat="45.08728" lon="2.91631">
        <ele>1065.61</ele>
        <time>2021-07-23T16:18:57Z</time>
      </trkpt>
      <trkpt lat="45.0873" lon="2.91647">
        <ele>1064.79</ele>
        <time>2021-07-23T16:19:00Z</time>
      </trkpt>
      <trkpt lat="45.08734" lon="2.91663">
        <ele>1064.96</ele>
        <time>2021-07-23T16:19:03Z</time>
      </trkpt>
      <trkpt lat="45.08738" lon="2.91678">
        <ele>1065.51</ele>
        <time>2021-07-23T16:19:06Z</time>
      </trkpt>
      <trkpt lat="45.08744" lon="2.91692">
        <ele>1066.29</ele>
        <time>2021-07-23T16:19:09Z</time>
      </trkpt>
      <trkpt lat="45.08751" lon="2.91707">
        <ele>1065.88</ele>
        <time>2021-07-23T16:19:12Z</time>
      </trkpt>
      <trkpt lat="45.08757" lon="2.91721">
        <ele>1063.73</ele>
        <time>2021-07-23T16:19:15Z</time>
      </trkpt>
      <trkpt lat="45.08762" lon="2.91733">
        <ele>1062.3</ele>
        <time>2021-07-23T16:19:18Z</time>
      </trkpt>
      <trkpt lat="45.08767" lon="2.91745">
        <ele>1062.57</ele>
        <time>2021-07-23T16:19:21Z</time>
      </trkpt>
      <trkpt lat="45.08772" lon="2.91757">
        <ele>1062.52</ele>
        <time>2021-07-23T16:19:24Z</time>
      </trkpt>
      <trkpt lat="45.08778" lon="2.9177">
        <ele>1062.77</ele>
        <time>2021-07-23T16:19:28Z</time>
      </trkpt>
      <trkpt lat="45.08785" lon="2.9178">
        <ele>1063.92</ele>
        <time>2021-07-23T16:19:32Z</time>
      </trkpt>
      <trkpt lat="45.08793" lon="2.91787">
        <ele>1064.84</ele>
        <time>2021-07-23T16:19:35Z</time>
      </trkpt>
      <trkpt lat="45.08804" lon="2.9179">
        <ele>1065.11</ele>
        <time>2021-07-23T16:19:38Z</time>
      </trkpt>
      <trkpt lat="45.08816" lon="2.91791">
        <ele>1066.94</ele>
        <time>2021-07-23T16:19:41Z</time>
      </trkpt>
      <trkpt lat="45.08828" lon="2.91791">
        <ele>1067.93</ele>
        <time>2021-07-23T16:19:44Z</time>
      </trkpt>
      <trkpt lat="45.08841" lon="2.91792">
        <ele>1068.5</ele>
        <time>2021-07-23T16:19:47Z</time>
      </trkpt>
      <trkpt lat="45.08853" lon="2.91793">
        <ele>1068.93</ele>
        <time>2021-07-23T16:19:50Z</time>
      </trkpt>
      <trkpt lat="45.08864" lon="2.91794">
        <ele>1069.63</ele>
        <time>2021-07-23T16:19:53Z</time>
      </trkpt>
      <trkpt lat="45.08875" lon="2.91797">
        <ele>1069.56</ele>
        <time>2021-07-23T16:19:56Z</time>
      </trkpt>
      <trkpt lat="45.08886" lon="2.91804">
        <ele>1069.01</ele>
        <time>2021-07-23T16:19:59Z</time>
      </trkpt>
      <trkpt lat="45.08894" lon="2.91815">
        <ele>1068.24</ele>
        <time>2021-07-23T16:20:02Z</time>
      </trkpt>
      <trkpt lat="45.08901" lon="2.91828">
        <ele>1067.78</ele>
        <time>2021-07-23T16:20:05Z</time>
      </trkpt>
      <trkpt lat="45.08908" lon="2.91841">
        <ele>1068.22</ele>
        <time>2021-07-23T16:20:08Z</time>
      </trkpt>
      <trkpt lat="45.08915" lon="2.91853">
        <ele>1068.67</ele>
        <time>2021-07-23T16:20:11Z</time>
      </trkpt>
      <trkpt lat="45.08924" lon="2.91863">
        <ele>1068.34</ele>
        <time>2021-07-23T16:20:14Z</time>
      </trkpt>
      <trkpt lat="45.08935" lon="2.91867">
        <ele>1069.34</ele>
        <time>2021-07-23T16:20:17Z</time>
      </trkpt>
      <trkpt lat="45.08946" lon="2.91869">
        <ele>1069.1</ele>
        <time>2021-07-23T16:20:20Z</time>
      </trkpt>
      <trkpt lat="45.08957" lon="2.9187">
        <ele>1070.34</ele>
        <time>2021-07-23T16:20:23Z</time>
      </trkpt>
      <trkpt lat="45.08968" lon="2.91872">
        <ele>1071.16</ele>
        <time>2021-07-23T16:20:26Z</time>
      </trkpt>
      <trkpt lat="45.08978" lon="2.91879">
        <ele>1071.24</ele>
        <time>2021-07-23T16:20:29Z</time>
      </trkpt>
      <trkpt lat="45.08986" lon="2.91888">
        <ele>1071.46</ele>
        <time>2021-07-23T16:20:32Z</time>
      </trkpt>
      <trkpt lat="45.08994" lon="2.91898">
        <ele>1070.72</ele>
        <time>2021-07-23T16:20:35Z</time>
      </trkpt>
      <trkpt lat="45.09002" lon="2.9191">
        <ele>1071.35</ele>
        <time>2021-07-23T16:20:38Z</time>
      </trkpt>
      <trkpt lat="45.09009" lon="2.91922">
        <ele>1070.21</ele>
        <time>2021-07-23T16:20:41Z</time>
      </trkpt>
      <trkpt lat="45.09016" lon="2.91933">
        <ele>1069.14</ele>
        <time>2021-07-23T16:20:44Z</time>
      </trkpt>
      <trkpt lat="45.09023" lon="2.91945">
        <ele>1069.29</ele>
        <time>2021-07-23T16:20:47Z</time>
      </trkpt>
      <trkpt lat="45.09031" lon="2.91955">
        <ele>1070.29</ele>
        <time>2021-07-23T16:20:50Z</time>
      </trkpt>
      <trkpt lat="45.09037" lon="2.91966">
        <ele>1070.83</ele>
        <time>2021-07-23T16:20:53Z</time>
      </trkpt>
      <trkpt lat="45.09044" lon="2.91977">
        <ele>1071.1</ele>
        <time>2021-07-23T16:20:56Z</time>
      </trkpt>
      <trkpt lat="45.09051" lon="2.91988">
        <ele>1070.56</ele>
        <time>2021-07-23T16:20:59Z</time>
      </trkpt>
      <trkpt lat="45.09058" lon="2.91998">
        <ele>1071.21</ele>
        <time>2021-07-23T16:21:02Z</time>
      </trkpt>
      <trkpt lat="45.09064" lon="2.92009">
        <ele>1070.48</ele>
        <time>2021-07-23T16:21:05Z</time>
      </trkpt>
      <trkpt lat="45.0907" lon="2.92019">
        <ele>1070.72</ele>
        <time>2021-07-23T16:21:08Z</time>
      </trkpt>
      <trkpt lat="45.09077" lon="2.9203">
        <ele>1071.4</ele>
        <time>2021-07-23T16:21:11Z</time>
      </trkpt>
      <trkpt lat="45.09083" lon="2.9204">
        <ele>1070.92</ele>
        <time>2021-07-23T16:21:14Z</time>
      </trkpt>
      <trkpt lat="45.0909" lon="2.92048">
        <ele>1070.31</ele>
        <time>2021-07-23T16:21:17Z</time>
      </trkpt>
      <trkpt lat="45.091" lon="2.92052">
        <ele>1071.72</ele>
        <time>2021-07-23T16:21:20Z</time>
      </trkpt>
      <trkpt lat="45.09111" lon="2.92051">
        <ele>1073.5</ele>
        <time>2021-07-23T16:21:23Z</time>
      </trkpt>
      <trkpt lat="45.09121" lon="2.92043">
        <ele>1073.36</ele>
        <time>2021-07-23T16:21:26Z</time>
      </trkpt>
      <trkpt lat="45.0913" lon="2.92037">
        <ele>1074.07</ele>
        <time>2021-07-23T16:21:29Z</time>
      </trkpt>
      <trkpt lat="45.09139" lon="2.92032">
        <ele>1073.99</ele>
        <time>2021-07-23T16:21:32Z</time>
      </trkpt>
      <trkpt lat="45.09147" lon="2.92026">
        <ele>1075.21</ele>
        <time>2021-07-23T16:21:35Z</time>
      </trkpt>
      <trkpt lat="45.09156" lon="2.92022">
        <ele>1075.86</ele>
        <time>2021-07-23T16:21:38Z</time>
      </trkpt>
      <trkpt lat="45.09164" lon="2.92017">
        <ele>1077.04</ele>
        <time>2021-07-23T16:21:41Z</time>
      </trkpt>
      <trkpt lat="45.09175" lon="2.9201">
        <ele>1078.46</ele>
        <time>2021-07-23T16:21:45Z</time>
      </trkpt>
      <trkpt lat="45.09185" lon="2.92002">
        <ele>1078.9</ele>
        <time>2021-07-23T16:21:49Z</time>
      </trkpt>
      <trkpt lat="45.09196" lon="2.91995">
        <ele>1078.54</ele>
        <time>2021-07-23T16:21:53Z</time>
      </trkpt>
      <trkpt lat="45.09206" lon="2.91993">
        <ele>1078.92</ele>
        <time>2021-07-23T16:21:57Z</time>
      </trkpt>
      <trkpt lat="45.09213" lon="2.92006">
        <ele>1080.33</ele>
        <time>2021-07-23T16:22:01Z</time>
      </trkpt>
      <trkpt lat="45.09216" lon="2.92021">
        <ele>1078.06</ele>
        <time>2021-07-23T16:22:05Z</time>
      </trkpt>
      <trkpt lat="45.09219" lon="2.92035">
        <ele>1077.36</ele>
        <time>2021-07-23T16:22:09Z</time>
      </trkpt>
      <trkpt lat="45.09223" lon="2.92049">
        <ele>1079.41</ele>
        <time>2021-07-23T16:22:13Z</time>
      </trkpt>
      <trkpt lat="45.09227" lon="2.92063">
        <ele>1079.23</ele>
        <time>2021-07-23T16:22:17Z</time>
      </trkpt>
      <trkpt lat="45.09231" lon="2.92077">
        <ele>1079.84</ele>
        <time>2021-07-23T16:22:21Z</time>
      </trkpt>
      <trkpt lat="45.09236" lon="2.92093">
        <ele>1080.29</ele>
        <time>2021-07-23T16:22:25Z</time>
      </trkpt>
      <trkpt lat="45.09239" lon="2.92109">
        <ele>1079.9</ele>
        <time>2021-07-23T16:22:29Z</time>
      </trkpt>
      <trkpt lat="45.09241" lon="2.92123">
        <ele>1079.75</ele>
        <time>2021-07-23T16:22:32Z</time>
      </trkpt>
      <trkpt lat="45.09244" lon="2.92138">
        <ele>1081.8</ele>
        <time>2021-07-23T16:22:35Z</time>
      </trkpt>
      <trkpt lat="45.09247" lon="2.92152">
        <ele>1080.91</ele>
        <time>2021-07-23T16:22:38Z</time>
      </trkpt>
      <trkpt lat="45.09249" lon="2.92166">
        <ele>1080.44</ele>
        <time>2021-07-23T16:22:41Z</time>
      </trkpt>
      <trkpt lat="45.09253" lon="2.92179">
        <ele>1080.66</ele>
        <time>2021-07-23T16:22:44Z</time>
      </trkpt>
      <trkpt lat="45.09255" lon="2.92193">
        <ele>1080.96</ele>
        <time>2021-07-23T16:22:47Z</time>
      </trkpt>
      <trkpt lat="45.0926" lon="2.92207">
        <ele>1081.92</ele>
        <time>2021-07-23T16:22:50Z</time>
      </trkpt>
      <trkpt lat="45.09268" lon="2.92221">
        <ele>1081.3</ele>
        <time>2021-07-23T16:22:53Z</time>
      </trkpt>
      <trkpt lat="45.09278" lon="2.92232">
        <ele>1081.02</ele>
        <time>2021-07-23T16:22:56Z</time>
      </trkpt>
      <trkpt lat="45.09286" lon="2.92238">
        <ele>1080.63</ele>
        <time>2021-07-23T16:22:58Z</time>
      </trkpt>
      <trkpt lat="45.09298" lon="2.92247">
        <ele>1080.54</ele>
        <time>2021-07-23T16:23:01Z</time>
      </trkpt>
      <trkpt lat="45.09309" lon="2.92255">
        <ele>1080.65</ele>
        <time>2021-07-23T16:23:04Z</time>
      </trkpt>
      <trkpt lat="45.0932" lon="2.92264">
        <ele>1080.55</ele>
        <time>2021-07-23T16:23:07Z</time>
      </trkpt>
      <trkpt lat="45.09327" lon="2.92272">
        <ele>1079.31</ele>
        <time>2021-07-23T16:23:09Z</time>
      </trkpt>
      <trkpt lat="45.09338" lon="2.92284">
        <ele>1079.84</ele>
        <time>2021-07-23T16:23:12Z</time>
      </trkpt>
      <trkpt lat="45.09345" lon="2.92292">
        <ele>1080.01</ele>
        <time>2021-07-23T16:23:14Z</time>
      </trkpt>
      <trkpt lat="45.09352" lon="2.92301">
        <ele>1079.78</ele>
        <time>2021-07-23T16:23:16Z</time>
      </trkpt>
      <trkpt lat="45.0936" lon="2.92314">
        <ele>1079.77</ele>
        <time>2021-07-23T16:23:19Z</time>
      </trkpt>
      <trkpt lat="45.09367" lon="2.92327">
        <ele>1080.12</ele>
        <time>2021-07-23T16:23:22Z</time>
      </trkpt>
      <trkpt lat="45.09373" lon="2.92341">
        <ele>1079.39</ele>
        <time>2021-07-23T16:23:25Z</time>
      </trkpt>
      <trkpt lat="45.0938" lon="2.92355">
        <ele>1079.72</ele>
        <time>2021-07-23T16:23:28Z</time>
      </trkpt>
      <trkpt lat="45.09388" lon="2.92363">
        <ele>1078.72</ele>
        <time>2021-07-23T16:23:30Z</time>
      </trkpt>
      <trkpt lat="45.09396" lon="2.92373">
        <ele>1077.83</ele>
        <time>2021-07-23T16:23:32Z</time>
      </trkpt>
      <trkpt lat="45.09407" lon="2.92383">
        <ele>1076.67</ele>
        <time>2021-07-23T16:23:34Z</time>
      </trkpt>
      <trkpt lat="45.09418" lon="2.92398">
        <ele>1075.49</ele>
        <time>2021-07-23T16:23:36Z</time>
      </trkpt>
      <trkpt lat="45.09421" lon="2.92422">
        <ele>1073.6</ele>
        <time>2021-07-23T16:23:38Z</time>
      </trkpt>
      <trkpt lat="45.09421" lon="2.92446">
        <ele>1072.6</ele>
        <time>2021-07-23T16:23:40Z</time>
      </trkpt>
      <trkpt lat="45.09425" lon="2.9247">
        <ele>1071.85</ele>
        <time>2021-07-23T16:23:42Z</time>
      </trkpt>
      <trkpt lat="45.09435" lon="2.9249">
        <ele>1071.76</ele>
        <time>2021-07-23T16:23:44Z</time>
      </trkpt>
      <trkpt lat="45.09441" lon="2.92499">
        <ele>1070.38</ele>
        <time>2021-07-23T16:23:45Z</time>
      </trkpt>
      <trkpt lat="45.09453" lon="2.92519">
        <ele>1069.91</ele>
        <time>2021-07-23T16:23:47Z</time>
      </trkpt>
      <trkpt lat="45.09461" lon="2.92536">
        <ele>1069.08</ele>
        <time>2021-07-23T16:23:49Z</time>
      </trkpt>
      <trkpt lat="45.09473" lon="2.92547">
        <ele>1068.95</ele>
        <time>2021-07-23T16:23:51Z</time>
      </trkpt>
      <trkpt lat="45.09486" lon="2.92551">
        <ele>1068.54</ele>
        <time>2021-07-23T16:23:53Z</time>
      </trkpt>
      <trkpt lat="45.09499" lon="2.92551">
        <ele>1068.03</ele>
        <time>2021-07-23T16:23:55Z</time>
      </trkpt>
      <trkpt lat="45.09514" lon="2.92552">
        <ele>1067.08</ele>
        <time>2021-07-23T16:23:57Z</time>
      </trkpt>
      <trkpt lat="45.0953" lon="2.92554">
        <ele>1066.63</ele>
        <time>2021-07-23T16:23:59Z</time>
      </trkpt>
      <trkpt lat="45.09547" lon="2.92555">
        <ele>1065.52</ele>
        <time>2021-07-23T16:24:01Z</time>
      </trkpt>
      <trkpt lat="45.09557" lon="2.92554">
        <ele>1065.08</ele>
        <time>2021-07-23T16:24:02Z</time>
      </trkpt>
      <trkpt lat="45.09566" lon="2.92552">
        <ele>1064.47</ele>
        <time>2021-07-23T16:24:03Z</time>
      </trkpt>
      <trkpt lat="45.09576" lon="2.92549">
        <ele>1063.82</ele>
        <time>2021-07-23T16:24:04Z</time>
      </trkpt>
      <trkpt lat="45.09586" lon="2.92546">
        <ele>1063.88</ele>
        <time>2021-07-23T16:24:05Z</time>
      </trkpt>
      <trkpt lat="45.09595" lon="2.92543">
        <ele>1063.73</ele>
        <time>2021-07-23T16:24:06Z</time>
      </trkpt>
      <trkpt lat="45.09605" lon="2.92539">
        <ele>1063.59</ele>
        <time>2021-07-23T16:24:07Z</time>
      </trkpt>
      <trkpt lat="45.09614" lon="2.92535">
        <ele>1063.4</ele>
        <time>2021-07-23T16:24:08Z</time>
      </trkpt>
      <trkpt lat="45.09624" lon="2.92531">
        <ele>1062.79</ele>
        <time>2021-07-23T16:24:09Z</time>
      </trkpt>
      <trkpt lat="45.09634" lon="2.92527">
        <ele>1062.25</ele>
        <time>2021-07-23T16:24:10Z</time>
      </trkpt>
      <trkpt lat="45.09646" lon="2.92525">
        <ele>1061.75</ele>
        <time>2021-07-23T16:24:11Z</time>
      </trkpt>
      <trkpt lat="45.09656" lon="2.92524">
        <ele>1062.03</ele>
        <time>2021-07-23T16:24:12Z</time>
      </trkpt>
      <trkpt lat="45.09666" lon="2.92524">
        <ele>1062.3</ele>
        <time>2021-07-23T16:24:13Z</time>
      </trkpt>
      <trkpt lat="45.09684" lon="2.92526">
        <ele>1061.79</ele>
        <time>2021-07-23T16:24:15Z</time>
      </trkpt>
      <trkpt lat="45.09694" lon="2.92522">
        <ele>1061.37</ele>
        <time>2021-07-23T16:24:16Z</time>
      </trkpt>
      <trkpt lat="45.09703" lon="2.92518">
        <ele>1061.26</ele>
        <time>2021-07-23T16:24:17Z</time>
      </trkpt>
      <trkpt lat="45.09712" lon="2.92517">
        <ele>1060.95</ele>
        <time>2021-07-23T16:24:18Z</time>
      </trkpt>
      <trkpt lat="45.09722" lon="2.92515">
        <ele>1060.76</ele>
        <time>2021-07-23T16:24:19Z</time>
      </trkpt>
      <trkpt lat="45.09739" lon="2.92515">
        <ele>1060.77</ele>
        <time>2021-07-23T16:24:21Z</time>
      </trkpt>
      <trkpt lat="45.0975" lon="2.92516">
        <ele>1059.76</ele>
        <time>2021-07-23T16:24:22Z</time>
      </trkpt>
      <trkpt lat="45.09764" lon="2.9252">
        <ele>1058.93</ele>
        <time>2021-07-23T16:24:24Z</time>
      </trkpt>
      <trkpt lat="45.09775" lon="2.92524">
        <ele>1058.85</ele>
        <time>2021-07-23T16:24:26Z</time>
      </trkpt>
      <trkpt lat="45.09788" lon="2.92526">
        <ele>1058.53</ele>
        <time>2021-07-23T16:24:28Z</time>
      </trkpt>
      <trkpt lat="45.09797" lon="2.92529">
        <ele>1058.03</ele>
        <time>2021-07-23T16:24:30Z</time>
      </trkpt>
      <trkpt lat="45.09808" lon="2.92533">
        <ele>1057.12</ele>
        <time>2021-07-23T16:24:33Z</time>
      </trkpt>
      <trkpt lat="45.09818" lon="2.92535">
        <ele>1056.53</ele>
        <time>2021-07-23T16:24:36Z</time>
      </trkpt>
      <trkpt lat="45.09826" lon="2.92527">
        <ele>1056.33</ele>
        <time>2021-07-23T16:26:49Z</time>
      </trkpt>
      <trkpt lat="45.09835" lon="2.92521">
        <ele>1056.94</ele>
        <time>2021-07-23T16:26:56Z</time>
      </trkpt>
      <trkpt lat="45.09845" lon="2.92517">
        <ele>1056.54</ele>
        <time>2021-07-23T16:27:02Z</time>
      </trkpt>
      <trkpt lat="45.09855" lon="2.92513">
        <ele>1056.68</ele>
        <time>2021-07-23T16:27:07Z</time>
      </trkpt>
      <trkpt lat="45.09865" lon="2.9251">
        <ele>1059.04</ele>
        <time>2021-07-23T16:27:12Z</time>
      </trkpt>
      <trkpt lat="45.09876" lon="2.92506">
        <ele>1056.53</ele>
        <time>2021-07-23T16:27:18Z</time>
      </trkpt>
      <trkpt lat="45.09885" lon="2.92505">
        <ele>1056.66</ele>
        <time>2021-07-23T16:27:23Z</time>
      </trkpt>
      <trkpt lat="45.09892" lon="2.92519">
        <ele>1054.81</ele>
        <time>2021-07-23T16:27:28Z</time>
      </trkpt>
      <trkpt lat="45.09895" lon="2.92536">
        <ele>1054.09</ele>
        <time>2021-07-23T16:27:31Z</time>
      </trkpt>
      <trkpt lat="45.09907" lon="2.92545">
        <ele>1050.29</ele>
        <time>2021-07-23T16:27:34Z</time>
      </trkpt>
      <trkpt lat="45.09919" lon="2.92545">
        <ele>1049.22</ele>
        <time>2021-07-23T16:27:36Z</time>
      </trkpt>
      <trkpt lat="45.09928" lon="2.92546">
        <ele>1049.85</ele>
        <time>2021-07-23T16:27:38Z</time>
      </trkpt>
      <trkpt lat="45.09938" lon="2.92551">
        <ele>1048.08</ele>
        <time>2021-07-23T16:27:42Z</time>
      </trkpt>
      <trkpt lat="45.09946" lon="2.9256">
        <ele>1047.37</ele>
        <time>2021-07-23T16:27:47Z</time>
      </trkpt>
      <trkpt lat="45.09953" lon="2.92569">
        <ele>1046.89</ele>
        <time>2021-07-23T16:27:51Z</time>
      </trkpt>
      <trkpt lat="45.09963" lon="2.92577">
        <ele>1045.51</ele>
        <time>2021-07-23T16:27:55Z</time>
      </trkpt>
      <trkpt lat="45.09977" lon="2.92585">
        <ele>1044.77</ele>
        <time>2021-07-23T16:27:58Z</time>
      </trkpt>
      <trkpt lat="45.09988" lon="2.92591">
        <ele>1044.33</ele>
        <time>2021-07-23T16:28:00Z</time>
      </trkpt>
      <trkpt lat="45.10001" lon="2.92598">
        <ele>1044.14</ele>
        <time>2021-07-23T16:28:02Z</time>
      </trkpt>
      <trkpt lat="45.10012" lon="2.92612">
        <ele>1042.33</ele>
        <time>2021-07-23T16:28:04Z</time>
      </trkpt>
      <trkpt lat="45.10026" lon="2.92624">
        <ele>1041.41</ele>
        <time>2021-07-23T16:28:06Z</time>
      </trkpt>
      <trkpt lat="45.10036" lon="2.9264">
        <ele>1041.35</ele>
        <time>2021-07-23T16:28:08Z</time>
      </trkpt>
      <trkpt lat="45.10046" lon="2.92656">
        <ele>1041.63</ele>
        <time>2021-07-23T16:28:10Z</time>
      </trkpt>
      <trkpt lat="45.10057" lon="2.92671">
        <ele>1042.38</ele>
        <time>2021-07-23T16:28:12Z</time>
      </trkpt>
      <trkpt lat="45.10068" lon="2.92687">
        <ele>1041.85</ele>
        <time>2021-07-23T16:28:14Z</time>
      </trkpt>
      <trkpt lat="45.10079" lon="2.92704">
        <ele>1040.61</ele>
        <time>2021-07-23T16:28:16Z</time>
      </trkpt>
      <trkpt lat="45.1009" lon="2.92722">
        <ele>1039.52</ele>
        <time>2021-07-23T16:28:18Z</time>
      </trkpt>
      <trkpt lat="45.10098" lon="2.92742">
        <ele>1039.54</ele>
        <time>2021-07-23T16:28:20Z</time>
      </trkpt>
      <trkpt lat="45.10106" lon="2.92762">
        <ele>1039.63</ele>
        <time>2021-07-23T16:28:22Z</time>
      </trkpt>
      <trkpt lat="45.10114" lon="2.92782">
        <ele>1040.49</ele>
        <time>2021-07-23T16:28:24Z</time>
      </trkpt>
      <trkpt lat="45.10121" lon="2.92802">
        <ele>1040.01</ele>
        <time>2021-07-23T16:28:26Z</time>
      </trkpt>
      <trkpt lat="45.10129" lon="2.92821">
        <ele>1040.1</ele>
        <time>2021-07-23T16:28:28Z</time>
      </trkpt>
      <trkpt lat="45.10135" lon="2.92842">
        <ele>1039.39</ele>
        <time>2021-07-23T16:28:30Z</time>
      </trkpt>
      <trkpt lat="45.1014" lon="2.92861">
        <ele>1038.23</ele>
        <time>2021-07-23T16:28:32Z</time>
      </trkpt>
      <trkpt lat="45.10146" lon="2.92882">
        <ele>1037.82</ele>
        <time>2021-07-23T16:28:34Z</time>
      </trkpt>
      <trkpt lat="45.10153" lon="2.929">
        <ele>1037.95</ele>
        <time>2021-07-23T16:28:36Z</time>
      </trkpt>
      <trkpt lat="45.10162" lon="2.92918">
        <ele>1036.75</ele>
        <time>2021-07-23T16:28:38Z</time>
      </trkpt>
      <trkpt lat="45.10173" lon="2.92934">
        <ele>1035.92</ele>
        <time>2021-07-23T16:28:40Z</time>
      </trkpt>
      <trkpt lat="45.10186" lon="2.92947">
        <ele>1034.22</ele>
        <time>2021-07-23T16:28:42Z</time>
      </trkpt>
      <trkpt lat="45.10199" lon="2.92959">
        <ele>1034.1</ele>
        <time>2021-07-23T16:28:44Z</time>
      </trkpt>
      <trkpt lat="45.10214" lon="2.92968">
        <ele>1033.54</ele>
        <time>2021-07-23T16:28:46Z</time>
      </trkpt>
      <trkpt lat="45.10229" lon="2.92977">
        <ele>1032.17</ele>
        <time>2021-07-23T16:28:48Z</time>
      </trkpt>
      <trkpt lat="45.10241" lon="2.92979">
        <ele>1032.86</ele>
        <time>2021-07-23T16:28:50Z</time>
      </trkpt>
      <trkpt lat="45.10252" lon="2.92976">
        <ele>1033.06</ele>
        <time>2021-07-23T16:28:52Z</time>
      </trkpt>
      <trkpt lat="45.10261" lon="2.92966">
        <ele>1034.31</ele>
        <time>2021-07-23T16:28:54Z</time>
      </trkpt>
      <trkpt lat="45.10269" lon="2.92956">
        <ele>1035.55</ele>
        <time>2021-07-23T16:28:56Z</time>
      </trkpt>
      <trkpt lat="45.10275" lon="2.92946">
        <ele>1034.76</ele>
        <time>2021-07-23T16:28:58Z</time>
      </trkpt>
      <trkpt lat="45.10279" lon="2.92933">
        <ele>1035.42</ele>
        <time>2021-07-23T16:29:00Z</time>
      </trkpt>
      <trkpt lat="45.10286" lon="2.92919">
        <ele>1036.77</ele>
        <time>2021-07-23T16:29:02Z</time>
      </trkpt>
      <trkpt lat="45.10293" lon="2.92907">
        <ele>1035.06</ele>
        <time>2021-07-23T16:29:05Z</time>
      </trkpt>
      <trkpt lat="45.10299" lon="2.92893">
        <ele>1036.19</ele>
        <time>2021-07-23T16:29:08Z</time>
      </trkpt>
      <trkpt lat="45.10309" lon="2.92881">
        <ele>1037.06</ele>
        <time>2021-07-23T16:29:11Z</time>
      </trkpt>
      <trkpt lat="45.10321" lon="2.92875">
        <ele>1037.86</ele>
        <time>2021-07-23T16:29:14Z</time>
      </trkpt>
      <trkpt lat="45.10333" lon="2.92871">
        <ele>1037.58</ele>
        <time>2021-07-23T16:29:17Z</time>
      </trkpt>
      <trkpt lat="45.10345" lon="2.9287">
        <ele>1037.48</ele>
        <time>2021-07-23T16:29:20Z</time>
      </trkpt>
      <trkpt lat="45.10358" lon="2.92868">
        <ele>1037</ele>
        <time>2021-07-23T16:29:23Z</time>
      </trkpt>
      <trkpt lat="45.10371" lon="2.92867">
        <ele>1036.81</ele>
        <time>2021-07-23T16:29:26Z</time>
      </trkpt>
      <trkpt lat="45.10384" lon="2.92866">
        <ele>1037.81</ele>
        <time>2021-07-23T16:29:29Z</time>
      </trkpt>
      <trkpt lat="45.10396" lon="2.92865">
        <ele>1038.28</ele>
        <time>2021-07-23T16:29:32Z</time>
      </trkpt>
      <trkpt lat="45.10409" lon="2.92867">
        <ele>1038.28</ele>
        <time>2021-07-23T16:29:35Z</time>
      </trkpt>
      <trkpt lat="45.10421" lon="2.92875">
        <ele>1038.04</ele>
        <time>2021-07-23T16:29:38Z</time>
      </trkpt>
      <trkpt lat="45.10433" lon="2.92884">
        <ele>1037.17</ele>
        <time>2021-07-23T16:29:41Z</time>
      </trkpt>
      <trkpt lat="45.10442" lon="2.92895">
        <ele>1035.52</ele>
        <time>2021-07-23T16:29:44Z</time>
      </trkpt>
      <trkpt lat="45.10451" lon="2.92904">
        <ele>1035.84</ele>
        <time>2021-07-23T16:29:47Z</time>
      </trkpt>
      <trkpt lat="45.1046" lon="2.92912">
        <ele>1034.45</ele>
        <time>2021-07-23T16:29:50Z</time>
      </trkpt>
      <trkpt lat="45.10468" lon="2.92919">
        <ele>1034.07</ele>
        <time>2021-07-23T16:29:53Z</time>
      </trkpt>
      <trkpt lat="45.10477" lon="2.92923">
        <ele>1033.64</ele>
        <time>2021-07-23T16:29:56Z</time>
      </trkpt>
      <trkpt lat="45.10489" lon="2.92924">
        <ele>1031.1</ele>
        <time>2021-07-23T16:29:59Z</time>
      </trkpt>
      <trkpt lat="45.10499" lon="2.92919">
        <ele>1031.03</ele>
        <time>2021-07-23T16:30:02Z</time>
      </trkpt>
      <trkpt lat="45.10508" lon="2.92909">
        <ele>1029.78</ele>
        <time>2021-07-23T16:30:05Z</time>
      </trkpt>
      <trkpt lat="45.10514" lon="2.92899">
        <ele>1029.81</ele>
        <time>2021-07-23T16:30:08Z</time>
      </trkpt>
      <trkpt lat="45.10521" lon="2.92887">
        <ele>1028.91</ele>
        <time>2021-07-23T16:30:11Z</time>
      </trkpt>
      <trkpt lat="45.10529" lon="2.92872">
        <ele>1028.87</ele>
        <time>2021-07-23T16:30:14Z</time>
      </trkpt>
      <trkpt lat="45.10535" lon="2.92861">
        <ele>1029.3</ele>
        <time>2021-07-23T16:30:16Z</time>
      </trkpt>
      <trkpt lat="45.1054" lon="2.92846">
        <ele>1029.83</ele>
        <time>2021-07-23T16:30:18Z</time>
      </trkpt>
      <trkpt lat="45.10543" lon="2.92831">
        <ele>1029.32</ele>
        <time>2021-07-23T16:30:20Z</time>
      </trkpt>
      <trkpt lat="45.10545" lon="2.92812">
        <ele>1029.68</ele>
        <time>2021-07-23T16:30:22Z</time>
      </trkpt>
      <trkpt lat="45.10549" lon="2.92793">
        <ele>1026.41</ele>
        <time>2021-07-23T16:30:24Z</time>
      </trkpt>
      <trkpt lat="45.10556" lon="2.92777">
        <ele>1025.75</ele>
        <time>2021-07-23T16:30:26Z</time>
      </trkpt>
      <trkpt lat="45.10564" lon="2.92763">
        <ele>1025.05</ele>
        <time>2021-07-23T16:30:28Z</time>
      </trkpt>
      <trkpt lat="45.10572" lon="2.92752">
        <ele>1024.42</ele>
        <time>2021-07-23T16:30:30Z</time>
      </trkpt>
      <trkpt lat="45.10579" lon="2.92738">
        <ele>1024.04</ele>
        <time>2021-07-23T16:30:32Z</time>
      </trkpt>
      <trkpt lat="45.10588" lon="2.92724">
        <ele>1024.78</ele>
        <time>2021-07-23T16:30:34Z</time>
      </trkpt>
      <trkpt lat="45.10597" lon="2.92713">
        <ele>1024.37</ele>
        <time>2021-07-23T16:30:36Z</time>
      </trkpt>
      <trkpt lat="45.10604" lon="2.92702">
        <ele>1023.6</ele>
        <time>2021-07-23T16:30:38Z</time>
      </trkpt>
      <trkpt lat="45.10613" lon="2.92691">
        <ele>1023.33</ele>
        <time>2021-07-23T16:30:40Z</time>
      </trkpt>
      <trkpt lat="45.10622" lon="2.9268">
        <ele>1021.94</ele>
        <time>2021-07-23T16:30:42Z</time>
      </trkpt>
      <trkpt lat="45.1063" lon="2.92669">
        <ele>1021.88</ele>
        <time>2021-07-23T16:30:44Z</time>
      </trkpt>
      <trkpt lat="45.10638" lon="2.92656">
        <ele>1022.87</ele>
        <time>2021-07-23T16:30:46Z</time>
      </trkpt>
      <trkpt lat="45.10644" lon="2.92646">
        <ele>1022.94</ele>
        <time>2021-07-23T16:30:48Z</time>
      </trkpt>
      <trkpt lat="45.10652" lon="2.92636">
        <ele>1023.45</ele>
        <time>2021-07-23T16:30:50Z</time>
      </trkpt>
      <trkpt lat="45.1066" lon="2.92627">
        <ele>1024.98</ele>
        <time>2021-07-23T16:30:52Z</time>
      </trkpt>
      <trkpt lat="45.10668" lon="2.9262">
        <ele>1024.91</ele>
        <time>2021-07-23T16:30:54Z</time>
      </trkpt>
      <trkpt lat="45.10678" lon="2.92615">
        <ele>1024.98</ele>
        <time>2021-07-23T16:30:56Z</time>
      </trkpt>
      <trkpt lat="45.10691" lon="2.92611">
        <ele>1024.48</ele>
        <time>2021-07-23T16:30:59Z</time>
      </trkpt>
      <trkpt lat="45.10703" lon="2.92605">
        <ele>1024.11</ele>
        <time>2021-07-23T16:31:01Z</time>
      </trkpt>
      <trkpt lat="45.10713" lon="2.92599">
        <ele>1024.15</ele>
        <time>2021-07-23T16:31:03Z</time>
      </trkpt>
      <trkpt lat="45.10724" lon="2.92593">
        <ele>1024.31</ele>
        <time>2021-07-23T16:31:05Z</time>
      </trkpt>
      <trkpt lat="45.10735" lon="2.92588">
        <ele>1025.46</ele>
        <time>2021-07-23T16:31:07Z</time>
      </trkpt>
      <trkpt lat="45.10746" lon="2.92579">
        <ele>1024.51</ele>
        <time>2021-07-23T16:31:09Z</time>
      </trkpt>
      <trkpt lat="45.10757" lon="2.9257">
        <ele>1024.86</ele>
        <time>2021-07-23T16:31:11Z</time>
      </trkpt>
      <trkpt lat="45.10768" lon="2.92559">
        <ele>1024.98</ele>
        <time>2021-07-23T16:31:13Z</time>
      </trkpt>
      <trkpt lat="45.10776" lon="2.9255">
        <ele>1024.81</ele>
        <time>2021-07-23T16:31:15Z</time>
      </trkpt>
      <trkpt lat="45.10787" lon="2.92548">
        <ele>1027.08</ele>
        <time>2021-07-23T16:31:18Z</time>
      </trkpt>
      <trkpt lat="45.10793" lon="2.9256">
        <ele>1024.7</ele>
        <time>2021-07-23T16:31:23Z</time>
      </trkpt>
      <trkpt lat="45.10798" lon="2.9257">
        <ele>1023</ele>
        <time>2021-07-23T16:31:27Z</time>
      </trkpt>
      <trkpt lat="45.10804" lon="2.92581">
        <ele>1019.06</ele>
        <time>2021-07-23T16:31:31Z</time>
      </trkpt>
      <trkpt lat="45.1081" lon="2.92592">
        <ele>1015.28</ele>
        <time>2021-07-23T16:31:35Z</time>
      </trkpt>
      <trkpt lat="45.10817" lon="2.92605">
        <ele>1016.5</ele>
        <time>2021-07-23T16:31:39Z</time>
      </trkpt>
      <trkpt lat="45.10825" lon="2.92616">
        <ele>1016.89</ele>
        <time>2021-07-23T16:31:43Z</time>
      </trkpt>
      <trkpt lat="45.10833" lon="2.92624">
        <ele>1015.67</ele>
        <time>2021-07-23T16:31:46Z</time>
      </trkpt>
      <trkpt lat="45.10842" lon="2.92632">
        <ele>1017.11</ele>
        <time>2021-07-23T16:31:50Z</time>
      </trkpt>
      <trkpt lat="45.10854" lon="2.92648">
        <ele>1018.25</ele>
        <time>2021-07-23T16:31:55Z</time>
      </trkpt>
      <trkpt lat="45.10859" lon="2.92661">
        <ele>1019.3</ele>
        <time>2021-07-23T16:31:58Z</time>
      </trkpt>
      <trkpt lat="45.1086" lon="2.92675">
        <ele>1018.83</ele>
        <time>2021-07-23T16:32:01Z</time>
      </trkpt>
      <trkpt lat="45.10864" lon="2.92689">
        <ele>1019.16</ele>
        <time>2021-07-23T16:32:04Z</time>
      </trkpt>
      <trkpt lat="45.1087" lon="2.92703">
        <ele>1018.98</ele>
        <time>2021-07-23T16:32:07Z</time>
      </trkpt>
      <trkpt lat="45.10878" lon="2.92716">
        <ele>1019.25</ele>
        <time>2021-07-23T16:32:10Z</time>
      </trkpt>
      <trkpt lat="45.10886" lon="2.92723">
        <ele>1017.54</ele>
        <time>2021-07-23T16:32:12Z</time>
      </trkpt>
      <trkpt lat="45.10895" lon="2.92732">
        <ele>1016.58</ele>
        <time>2021-07-23T16:32:14Z</time>
      </trkpt>
      <trkpt lat="45.10903" lon="2.92742">
        <ele>1016.6</ele>
        <time>2021-07-23T16:32:16Z</time>
      </trkpt>
      <trkpt lat="45.10913" lon="2.92753">
        <ele>1015.88</ele>
        <time>2021-07-23T16:32:18Z</time>
      </trkpt>
      <trkpt lat="45.10921" lon="2.92767">
        <ele>1015.28</ele>
        <time>2021-07-23T16:32:20Z</time>
      </trkpt>
      <trkpt lat="45.1093" lon="2.9278">
        <ele>1015.27</ele>
        <time>2021-07-23T16:32:22Z</time>
      </trkpt>
      <trkpt lat="45.10938" lon="2.92794">
        <ele>1015.07</ele>
        <time>2021-07-23T16:32:24Z</time>
      </trkpt>
      <trkpt lat="45.10944" lon="2.92809">
        <ele>1014.97</ele>
        <time>2021-07-23T16:32:26Z</time>
      </trkpt>
      <trkpt lat="45.1095" lon="2.92822">
        <ele>1013.4</ele>
        <time>2021-07-23T16:32:28Z</time>
      </trkpt>
      <trkpt lat="45.10956" lon="2.92835">
        <ele>1012.83</ele>
        <time>2021-07-23T16:32:30Z</time>
      </trkpt>
      <trkpt lat="45.10962" lon="2.92846">
        <ele>1012.48</ele>
        <time>2021-07-23T16:32:32Z</time>
      </trkpt>
      <trkpt lat="45.10969" lon="2.92859">
        <ele>1013.78</ele>
        <time>2021-07-23T16:32:34Z</time>
      </trkpt>
      <trkpt lat="45.10975" lon="2.92872">
        <ele>1013.86</ele>
        <time>2021-07-23T16:32:36Z</time>
      </trkpt>
      <trkpt lat="45.10982" lon="2.92885">
        <ele>1013.67</ele>
        <time>2021-07-23T16:32:38Z</time>
      </trkpt>
      <trkpt lat="45.10989" lon="2.92898">
        <ele>1013.09</ele>
        <time>2021-07-23T16:32:40Z</time>
      </trkpt>
      <trkpt lat="45.10996" lon="2.9291">
        <ele>1012.39</ele>
        <time>2021-07-23T16:32:42Z</time>
      </trkpt>
      <trkpt lat="45.11002" lon="2.92921">
        <ele>1012.11</ele>
        <time>2021-07-23T16:32:44Z</time>
      </trkpt>
      <trkpt lat="45.11009" lon="2.92932">
        <ele>1012.4</ele>
        <time>2021-07-23T16:32:46Z</time>
      </trkpt>
      <trkpt lat="45.11014" lon="2.92943">
        <ele>1012.58</ele>
        <time>2021-07-23T16:32:48Z</time>
      </trkpt>
      <trkpt lat="45.11019" lon="2.92955">
        <ele>1012.24</ele>
        <time>2021-07-23T16:32:50Z</time>
      </trkpt>
      <trkpt lat="45.11026" lon="2.92971">
        <ele>1012.56</ele>
        <time>2021-07-23T16:32:53Z</time>
      </trkpt>
      <trkpt lat="45.11032" lon="2.92981">
        <ele>1013.21</ele>
        <time>2021-07-23T16:32:55Z</time>
      </trkpt>
      <trkpt lat="45.11038" lon="2.92992">
        <ele>1013.33</ele>
        <time>2021-07-23T16:32:57Z</time>
      </trkpt>
      <trkpt lat="45.11045" lon="2.93001">
        <ele>1011.28</ele>
        <time>2021-07-23T16:32:59Z</time>
      </trkpt>
      <trkpt lat="45.11051" lon="2.93012">
        <ele>1011.41</ele>
        <time>2021-07-23T16:33:01Z</time>
      </trkpt>
      <trkpt lat="45.11059" lon="2.9303">
        <ele>1011.34</ele>
        <time>2021-07-23T16:33:04Z</time>
      </trkpt>
      <trkpt lat="45.11066" lon="2.93042">
        <ele>1011.69</ele>
        <time>2021-07-23T16:33:06Z</time>
      </trkpt>
      <trkpt lat="45.11073" lon="2.93054">
        <ele>1011.8</ele>
        <time>2021-07-23T16:33:08Z</time>
      </trkpt>
      <trkpt lat="45.11079" lon="2.93067">
        <ele>1012.2</ele>
        <time>2021-07-23T16:33:10Z</time>
      </trkpt>
      <trkpt lat="45.11085" lon="2.9308">
        <ele>1012.95</ele>
        <time>2021-07-23T16:33:12Z</time>
      </trkpt>
      <trkpt lat="45.11094" lon="2.93095">
        <ele>1013.25</ele>
        <time>2021-07-23T16:33:15Z</time>
      </trkpt>
      <trkpt lat="45.11101" lon="2.93104">
        <ele>1014.28</ele>
        <time>2021-07-23T16:33:17Z</time>
      </trkpt>
      <trkpt lat="45.11108" lon="2.93114">
        <ele>1014.67</ele>
        <time>2021-07-23T16:33:19Z</time>
      </trkpt>
      <trkpt lat="45.11116" lon="2.93124">
        <ele>1014.25</ele>
        <time>2021-07-23T16:33:21Z</time>
      </trkpt>
      <trkpt lat="45.11124" lon="2.93132">
        <ele>1013.72</ele>
        <time>2021-07-23T16:33:23Z</time>
      </trkpt>
      <trkpt lat="45.1113" lon="2.93142">
        <ele>1013.02</ele>
        <time>2021-07-23T16:33:25Z</time>
      </trkpt>
      <trkpt lat="45.11139" lon="2.93153">
        <ele>1011.83</ele>
        <time>2021-07-23T16:33:28Z</time>
      </trkpt>
      <trkpt lat="45.11147" lon="2.93162">
        <ele>1011.87</ele>
        <time>2021-07-23T16:33:31Z</time>
      </trkpt>
      <trkpt lat="45.11155" lon="2.93173">
        <ele>1010.33</ele>
        <time>2021-07-23T16:33:35Z</time>
      </trkpt>
      <trkpt lat="45.11165" lon="2.93189">
        <ele>1009.26</ele>
        <time>2021-07-23T16:33:37Z</time>
      </trkpt>
      <trkpt lat="45.11172" lon="2.93201">
        <ele>1010.33</ele>
        <time>2021-07-23T16:33:40Z</time>
      </trkpt>
      <trkpt lat="45.11177" lon="2.93214">
        <ele>1011.36</ele>
        <time>2021-07-23T16:33:42Z</time>
      </trkpt>
      <trkpt lat="45.11183" lon="2.93227">
        <ele>1010.78</ele>
        <time>2021-07-23T16:33:44Z</time>
      </trkpt>
      <trkpt lat="45.1119" lon="2.9324">
        <ele>1010.14</ele>
        <time>2021-07-23T16:33:46Z</time>
      </trkpt>
      <trkpt lat="45.11199" lon="2.93252">
        <ele>1010.02</ele>
        <time>2021-07-23T16:33:48Z</time>
      </trkpt>
      <trkpt lat="45.1121" lon="2.93263">
        <ele>1009.01</ele>
        <time>2021-07-23T16:33:50Z</time>
      </trkpt>
      <trkpt lat="45.11221" lon="2.93271">
        <ele>1008.54</ele>
        <time>2021-07-23T16:33:52Z</time>
      </trkpt>
      <trkpt lat="45.11233" lon="2.93276">
        <ele>1008.71</ele>
        <time>2021-07-23T16:33:54Z</time>
      </trkpt>
      <trkpt lat="45.11244" lon="2.93281">
        <ele>1010.48</ele>
        <time>2021-07-23T16:33:56Z</time>
      </trkpt>
      <trkpt lat="45.11254" lon="2.93284">
        <ele>1011.26</ele>
        <time>2021-07-23T16:33:58Z</time>
      </trkpt>
      <trkpt lat="45.11265" lon="2.93287">
        <ele>1012.07</ele>
        <time>2021-07-23T16:34:00Z</time>
      </trkpt>
      <trkpt lat="45.11275" lon="2.93291">
        <ele>1013.07</ele>
        <time>2021-07-23T16:34:02Z</time>
      </trkpt>
      <trkpt lat="45.11286" lon="2.93295">
        <ele>1012.81</ele>
        <time>2021-07-23T16:34:04Z</time>
      </trkpt>
      <trkpt lat="45.11295" lon="2.93298">
        <ele>1012.68</ele>
        <time>2021-07-23T16:34:06Z</time>
      </trkpt>
      <trkpt lat="45.11304" lon="2.93302">
        <ele>1012.31</ele>
        <time>2021-07-23T16:34:08Z</time>
      </trkpt>
      <trkpt lat="45.11314" lon="2.93307">
        <ele>1013.19</ele>
        <time>2021-07-23T16:34:11Z</time>
      </trkpt>
      <trkpt lat="45.11324" lon="2.93311">
        <ele>1010.7</ele>
        <time>2021-07-23T16:34:14Z</time>
      </trkpt>
      <trkpt lat="45.11326" lon="2.93325">
        <ele>1009.56</ele>
        <time>2021-07-23T16:34:18Z</time>
      </trkpt>
      <trkpt lat="45.11318" lon="2.93336">
        <ele>1007.88</ele>
        <time>2021-07-23T16:34:22Z</time>
      </trkpt>
      <trkpt lat="45.1131" lon="2.93348">
        <ele>1008.15</ele>
        <time>2021-07-23T16:34:26Z</time>
      </trkpt>
      <trkpt lat="45.11302" lon="2.93357">
        <ele>1010.42</ele>
        <time>2021-07-23T16:34:30Z</time>
      </trkpt>
      <trkpt lat="45.11294" lon="2.93369">
        <ele>1011.11</ele>
        <time>2021-07-23T16:34:34Z</time>
      </trkpt>
      <trkpt lat="45.11286" lon="2.9338">
        <ele>1009.25</ele>
        <time>2021-07-23T16:34:39Z</time>
      </trkpt>
      <trkpt lat="45.1128" lon="2.93389">
        <ele>1009.55</ele>
        <time>2021-07-23T16:34:42Z</time>
      </trkpt>
      <trkpt lat="45.11273" lon="2.93398">
        <ele>1009.4</ele>
        <time>2021-07-23T16:34:45Z</time>
      </trkpt>
      <trkpt lat="45.11265" lon="2.93406">
        <ele>1009.84</ele>
        <time>2021-07-23T16:34:49Z</time>
      </trkpt>
      <trkpt lat="45.11258" lon="2.93415">
        <ele>1010.38</ele>
        <time>2021-07-23T16:34:52Z</time>
      </trkpt>
      <trkpt lat="45.11251" lon="2.93424">
        <ele>1009.71</ele>
        <time>2021-07-23T16:34:55Z</time>
      </trkpt>
      <trkpt lat="45.11242" lon="2.93435">
        <ele>1009.31</ele>
        <time>2021-07-23T16:34:59Z</time>
      </trkpt>
      <trkpt lat="45.11235" lon="2.93444">
        <ele>1008.09</ele>
        <time>2021-07-23T16:35:02Z</time>
      </trkpt>
      <trkpt lat="45.11228" lon="2.93453">
        <ele>1007.95</ele>
        <time>2021-07-23T16:35:05Z</time>
      </trkpt>
      <trkpt lat="45.11219" lon="2.93463">
        <ele>1008.33</ele>
        <time>2021-07-23T16:35:09Z</time>
      </trkpt>
      <trkpt lat="45.11212" lon="2.93472">
        <ele>1009.18</ele>
        <time>2021-07-23T16:35:12Z</time>
      </trkpt>
      <trkpt lat="45.11206" lon="2.93482">
        <ele>1009.92</ele>
        <time>2021-07-23T16:35:15Z</time>
      </trkpt>
      <trkpt lat="45.11199" lon="2.93493">
        <ele>1010.81</ele>
        <time>2021-07-23T16:35:18Z</time>
      </trkpt>
      <trkpt lat="45.11195" lon="2.93506">
        <ele>1013.61</ele>
        <time>2021-07-23T16:35:21Z</time>
      </trkpt>
      <trkpt lat="45.11191" lon="2.93519">
        <ele>1014.33</ele>
        <time>2021-07-23T16:35:24Z</time>
      </trkpt>
      <trkpt lat="45.11186" lon="2.93532">
        <ele>1014.17</ele>
        <time>2021-07-23T16:35:27Z</time>
      </trkpt>
      <trkpt lat="45.11182" lon="2.93543">
        <ele>1014.68</ele>
        <time>2021-07-23T16:35:30Z</time>
      </trkpt>
      <trkpt lat="45.11177" lon="2.93554">
        <ele>1015.59</ele>
        <time>2021-07-23T16:35:33Z</time>
      </trkpt>
      <trkpt lat="45.11173" lon="2.93566">
        <ele>1016.47</ele>
        <time>2021-07-23T16:35:36Z</time>
      </trkpt>
      <trkpt lat="45.11169" lon="2.93578">
        <ele>1016.83</ele>
        <time>2021-07-23T16:35:39Z</time>
      </trkpt>
      <trkpt lat="45.11164" lon="2.93589">
        <ele>1017.85</ele>
        <time>2021-07-23T16:35:42Z</time>
      </trkpt>
      <trkpt lat="45.1116" lon="2.936">
        <ele>1021.02</ele>
        <time>2021-07-23T16:35:45Z</time>
      </trkpt>
      <trkpt lat="45.11155" lon="2.93612">
        <ele>1021.33</ele>
        <time>2021-07-23T16:35:48Z</time>
      </trkpt>
      <trkpt lat="45.11149" lon="2.93624">
        <ele>1019.63</ele>
        <time>2021-07-23T16:35:51Z</time>
      </trkpt>
      <trkpt lat="45.11144" lon="2.93637">
        <ele>1018.01</ele>
        <time>2021-07-23T16:35:54Z</time>
      </trkpt>
      <trkpt lat="45.1114" lon="2.93649">
        <ele>1017.47</ele>
        <time>2021-07-23T16:35:57Z</time>
      </trkpt>
      <trkpt lat="45.11134" lon="2.93661">
        <ele>1014.76</ele>
        <time>2021-07-23T16:36:00Z</time>
      </trkpt>
      <trkpt lat="45.11129" lon="2.93672">
        <ele>1014.35</ele>
        <time>2021-07-23T16:36:03Z</time>
      </trkpt>
      <trkpt lat="45.11123" lon="2.93685">
        <ele>1015.13</ele>
        <time>2021-07-23T16:36:07Z</time>
      </trkpt>
      <trkpt lat="45.11117" lon="2.93699">
        <ele>1014.03</ele>
        <time>2021-07-23T16:36:11Z</time>
      </trkpt>
      <trkpt lat="45.11113" lon="2.9371">
        <ele>1014.49</ele>
        <time>2021-07-23T16:36:14Z</time>
      </trkpt>
      <trkpt lat="45.11108" lon="2.93723">
        <ele>1014.71</ele>
        <time>2021-07-23T16:36:18Z</time>
      </trkpt>
      <trkpt lat="45.11104" lon="2.93739">
        <ele>1015.17</ele>
        <time>2021-07-23T16:36:22Z</time>
      </trkpt>
      <trkpt lat="45.11105" lon="2.93753">
        <ele>1016.23</ele>
        <time>2021-07-23T16:36:25Z</time>
      </trkpt>
      <trkpt lat="45.11109" lon="2.93768">
        <ele>1016.76</ele>
        <time>2021-07-23T16:36:28Z</time>
      </trkpt>
      <trkpt lat="45.11116" lon="2.93783">
        <ele>1016.89</ele>
        <time>2021-07-23T16:36:31Z</time>
      </trkpt>
      <trkpt lat="45.11124" lon="2.93798">
        <ele>1016.7</ele>
        <time>2021-07-23T16:36:34Z</time>
      </trkpt>
      <trkpt lat="45.1113" lon="2.93808">
        <ele>1017.38</ele>
        <time>2021-07-23T16:36:36Z</time>
      </trkpt>
      <trkpt lat="45.11136" lon="2.9382">
        <ele>1016.02</ele>
        <time>2021-07-23T16:36:38Z</time>
      </trkpt>
      <trkpt lat="45.11141" lon="2.93832">
        <ele>1016.44</ele>
        <time>2021-07-23T16:36:40Z</time>
      </trkpt>
      <trkpt lat="45.11147" lon="2.93844">
        <ele>1016.1</ele>
        <time>2021-07-23T16:36:42Z</time>
      </trkpt>
      <trkpt lat="45.11154" lon="2.93857">
        <ele>1015.68</ele>
        <time>2021-07-23T16:36:44Z</time>
      </trkpt>
      <trkpt lat="45.1116" lon="2.93869">
        <ele>1015.44</ele>
        <time>2021-07-23T16:36:46Z</time>
      </trkpt>
      <trkpt lat="45.11165" lon="2.93882">
        <ele>1014.57</ele>
        <time>2021-07-23T16:36:48Z</time>
      </trkpt>
      <trkpt lat="45.11171" lon="2.93894">
        <ele>1014.5</ele>
        <time>2021-07-23T16:36:50Z</time>
      </trkpt>
      <trkpt lat="45.11177" lon="2.93906">
        <ele>1015.08</ele>
        <time>2021-07-23T16:36:52Z</time>
      </trkpt>
      <trkpt lat="45.11183" lon="2.93918">
        <ele>1014.42</ele>
        <time>2021-07-23T16:36:54Z</time>
      </trkpt>
      <trkpt lat="45.11189" lon="2.9393">
        <ele>1013.93</ele>
        <time>2021-07-23T16:36:56Z</time>
      </trkpt>
      <trkpt lat="45.11195" lon="2.93942">
        <ele>1014.61</ele>
        <time>2021-07-23T16:36:58Z</time>
      </trkpt>
      <trkpt lat="45.11201" lon="2.93953">
        <ele>1014.9</ele>
        <time>2021-07-23T16:37:00Z</time>
      </trkpt>
      <trkpt lat="45.11205" lon="2.93965">
        <ele>1014.87</ele>
        <time>2021-07-23T16:37:02Z</time>
      </trkpt>
      <trkpt lat="45.11211" lon="2.93977">
        <ele>1015.03</ele>
        <time>2021-07-23T16:37:04Z</time>
      </trkpt>
      <trkpt lat="45.11217" lon="2.9399">
        <ele>1015.64</ele>
        <time>2021-07-23T16:37:06Z</time>
      </trkpt>
      <trkpt lat="45.11222" lon="2.94001">
        <ele>1015.73</ele>
        <time>2021-07-23T16:37:08Z</time>
      </trkpt>
      <trkpt lat="45.11228" lon="2.94014">
        <ele>1016.64</ele>
        <time>2021-07-23T16:37:10Z</time>
      </trkpt>
      <trkpt lat="45.11235" lon="2.94028">
        <ele>1016.6</ele>
        <time>2021-07-23T16:37:12Z</time>
      </trkpt>
      <trkpt lat="45.11242" lon="2.94044">
        <ele>1016.32</ele>
        <time>2021-07-23T16:37:14Z</time>
      </trkpt>
      <trkpt lat="45.11248" lon="2.9406">
        <ele>1014.5</ele>
        <time>2021-07-23T16:37:16Z</time>
      </trkpt>
      <trkpt lat="45.11255" lon="2.94079">
        <ele>1013.25</ele>
        <time>2021-07-23T16:37:18Z</time>
      </trkpt>
      <trkpt lat="45.11263" lon="2.94099">
        <ele>1012.96</ele>
        <time>2021-07-23T16:37:20Z</time>
      </trkpt>
      <trkpt lat="45.11272" lon="2.9412">
        <ele>1013.42</ele>
        <time>2021-07-23T16:37:22Z</time>
      </trkpt>
      <trkpt lat="45.11281" lon="2.9413">
        <ele>1012.13</ele>
        <time>2021-07-23T16:37:23Z</time>
      </trkpt>
      <trkpt lat="45.11289" lon="2.94143">
        <ele>1010.28</ele>
        <time>2021-07-23T16:37:24Z</time>
      </trkpt>
      <trkpt lat="45.113" lon="2.94163">
        <ele>1009.78</ele>
        <time>2021-07-23T16:37:26Z</time>
      </trkpt>
      <trkpt lat="45.11308" lon="2.94184">
        <ele>1009.25</ele>
        <time>2021-07-23T16:37:28Z</time>
      </trkpt>
      <trkpt lat="45.11316" lon="2.94204">
        <ele>1008.41</ele>
        <time>2021-07-23T16:37:30Z</time>
      </trkpt>
      <trkpt lat="45.11324" lon="2.94225">
        <ele>1006.34</ele>
        <time>2021-07-23T16:37:32Z</time>
      </trkpt>
      <trkpt lat="45.1133" lon="2.94245">
        <ele>1005.12</ele>
        <time>2021-07-23T16:37:34Z</time>
      </trkpt>
      <trkpt lat="45.11334" lon="2.94262">
        <ele>1006.03</ele>
        <time>2021-07-23T16:37:36Z</time>
      </trkpt>
      <trkpt lat="45.11337" lon="2.94279">
        <ele>1006.44</ele>
        <time>2021-07-23T16:37:38Z</time>
      </trkpt>
      <trkpt lat="45.11341" lon="2.94293">
        <ele>1006.56</ele>
        <time>2021-07-23T16:37:40Z</time>
      </trkpt>
      <trkpt lat="45.11344" lon="2.94307">
        <ele>1007.02</ele>
        <time>2021-07-23T16:37:42Z</time>
      </trkpt>
      <trkpt lat="45.11346" lon="2.94321">
        <ele>1006.3</ele>
        <time>2021-07-23T16:37:44Z</time>
      </trkpt>
      <trkpt lat="45.1135" lon="2.94335">
        <ele>1005.89</ele>
        <time>2021-07-23T16:37:46Z</time>
      </trkpt>
      <trkpt lat="45.11353" lon="2.94348">
        <ele>1005.8</ele>
        <time>2021-07-23T16:37:48Z</time>
      </trkpt>
      <trkpt lat="45.11359" lon="2.94365">
        <ele>1006.56</ele>
        <time>2021-07-23T16:37:51Z</time>
      </trkpt>
      <trkpt lat="45.11364" lon="2.94379">
        <ele>1007.67</ele>
        <time>2021-07-23T16:37:54Z</time>
      </trkpt>
      <trkpt lat="45.11366" lon="2.94393">
        <ele>1006.48</ele>
        <time>2021-07-23T16:37:57Z</time>
      </trkpt>
      <trkpt lat="45.11372" lon="2.94407">
        <ele>1005.88</ele>
        <time>2021-07-23T16:38:00Z</time>
      </trkpt>
      <trkpt lat="45.11376" lon="2.94421">
        <ele>1006.44</ele>
        <time>2021-07-23T16:38:03Z</time>
      </trkpt>
      <trkpt lat="45.1138" lon="2.94438">
        <ele>1006.42</ele>
        <time>2021-07-23T16:38:06Z</time>
      </trkpt>
      <trkpt lat="45.11381" lon="2.94456">
        <ele>1007.03</ele>
        <time>2021-07-23T16:38:09Z</time>
      </trkpt>
      <trkpt lat="45.11381" lon="2.94474">
        <ele>1007.25</ele>
        <time>2021-07-23T16:38:12Z</time>
      </trkpt>
      <trkpt lat="45.11381" lon="2.94491">
        <ele>1007.03</ele>
        <time>2021-07-23T16:38:15Z</time>
      </trkpt>
      <trkpt lat="45.11382" lon="2.94509">
        <ele>1007.18</ele>
        <time>2021-07-23T16:38:18Z</time>
      </trkpt>
      <trkpt lat="45.11382" lon="2.94528">
        <ele>1005.83</ele>
        <time>2021-07-23T16:38:21Z</time>
      </trkpt>
      <trkpt lat="45.11382" lon="2.94546">
        <ele>1007.64</ele>
        <time>2021-07-23T16:38:24Z</time>
      </trkpt>
      <trkpt lat="45.11384" lon="2.94564">
        <ele>1008.19</ele>
        <time>2021-07-23T16:38:27Z</time>
      </trkpt>
      <trkpt lat="45.11386" lon="2.9458">
        <ele>1009.13</ele>
        <time>2021-07-23T16:38:30Z</time>
      </trkpt>
      <trkpt lat="45.11389" lon="2.94595">
        <ele>1007.8</ele>
        <time>2021-07-23T16:38:33Z</time>
      </trkpt>
      <trkpt lat="45.11395" lon="2.94609">
        <ele>1008.2</ele>
        <time>2021-07-23T16:38:36Z</time>
      </trkpt>
      <trkpt lat="45.114" lon="2.94623">
        <ele>1007.1</ele>
        <time>2021-07-23T16:38:39Z</time>
      </trkpt>
      <trkpt lat="45.11407" lon="2.94637">
        <ele>1008.14</ele>
        <time>2021-07-23T16:38:42Z</time>
      </trkpt>
      <trkpt lat="45.11414" lon="2.94651">
        <ele>1009.03</ele>
        <time>2021-07-23T16:38:45Z</time>
      </trkpt>
      <trkpt lat="45.11421" lon="2.94667">
        <ele>1009.11</ele>
        <time>2021-07-23T16:38:48Z</time>
      </trkpt>
      <trkpt lat="45.11426" lon="2.94685">
        <ele>1009.65</ele>
        <time>2021-07-23T16:38:51Z</time>
      </trkpt>
      <trkpt lat="45.11431" lon="2.94697">
        <ele>1009.26</ele>
        <time>2021-07-23T16:38:53Z</time>
      </trkpt>
      <trkpt lat="45.11434" lon="2.94708">
        <ele>1010.82</ele>
        <time>2021-07-23T16:38:55Z</time>
      </trkpt>
      <trkpt lat="45.11439" lon="2.94727">
        <ele>1011.86</ele>
        <time>2021-07-23T16:38:58Z</time>
      </trkpt>
      <trkpt lat="45.11441" lon="2.9474">
        <ele>1012.12</ele>
        <time>2021-07-23T16:39:00Z</time>
      </trkpt>
      <trkpt lat="45.11442" lon="2.94753">
        <ele>1011.97</ele>
        <time>2021-07-23T16:39:02Z</time>
      </trkpt>
      <trkpt lat="45.11442" lon="2.94766">
        <ele>1011.82</ele>
        <time>2021-07-23T16:39:04Z</time>
      </trkpt>
      <trkpt lat="45.11442" lon="2.94781">
        <ele>1011.29</ele>
        <time>2021-07-23T16:39:06Z</time>
      </trkpt>
      <trkpt lat="45.11444" lon="2.94794">
        <ele>1010.5</ele>
        <time>2021-07-23T16:39:08Z</time>
      </trkpt>
      <trkpt lat="45.11444" lon="2.94808">
        <ele>1008.92</ele>
        <time>2021-07-23T16:39:10Z</time>
      </trkpt>
      <trkpt lat="45.11449" lon="2.94827">
        <ele>1008.53</ele>
        <time>2021-07-23T16:39:13Z</time>
      </trkpt>
      <trkpt lat="45.11455" lon="2.94841">
        <ele>1007.83</ele>
        <time>2021-07-23T16:39:15Z</time>
      </trkpt>
      <trkpt lat="45.11461" lon="2.94853">
        <ele>1006.84</ele>
        <time>2021-07-23T16:39:17Z</time>
      </trkpt>
      <trkpt lat="45.11467" lon="2.94865">
        <ele>1007.02</ele>
        <time>2021-07-23T16:39:19Z</time>
      </trkpt>
      <trkpt lat="45.11474" lon="2.94878">
        <ele>1006.73</ele>
        <time>2021-07-23T16:39:21Z</time>
      </trkpt>
      <trkpt lat="45.11481" lon="2.94892">
        <ele>1005.88</ele>
        <time>2021-07-23T16:39:23Z</time>
      </trkpt>
      <trkpt lat="45.11489" lon="2.94905">
        <ele>1005.55</ele>
        <time>2021-07-23T16:39:25Z</time>
      </trkpt>
      <trkpt lat="45.11498" lon="2.94919">
        <ele>1005.94</ele>
        <time>2021-07-23T16:39:27Z</time>
      </trkpt>
      <trkpt lat="45.11507" lon="2.94934">
        <ele>1003.75</ele>
        <time>2021-07-23T16:39:29Z</time>
      </trkpt>
      <trkpt lat="45.11516" lon="2.94948">
        <ele>1002.52</ele>
        <time>2021-07-23T16:39:31Z</time>
      </trkpt>
      <trkpt lat="45.11522" lon="2.94969">
        <ele>998.99</ele>
        <time>2021-07-23T16:39:33Z</time>
      </trkpt>
      <trkpt lat="45.11524" lon="2.94992">
        <ele>996.15</ele>
        <time>2021-07-23T16:39:35Z</time>
      </trkpt>
      <trkpt lat="45.11525" lon="2.95013">
        <ele>996.32</ele>
        <time>2021-07-23T16:39:37Z</time>
      </trkpt>
      <trkpt lat="45.11526" lon="2.95034">
        <ele>996.63</ele>
        <time>2021-07-23T16:39:39Z</time>
      </trkpt>
      <trkpt lat="45.11529" lon="2.9505">
        <ele>998.13</ele>
        <time>2021-07-23T16:39:41Z</time>
      </trkpt>
      <trkpt lat="45.11533" lon="2.95066">
        <ele>997.42</ele>
        <time>2021-07-23T16:39:43Z</time>
      </trkpt>
      <trkpt lat="45.11536" lon="2.95083">
        <ele>996.88</ele>
        <time>2021-07-23T16:39:46Z</time>
      </trkpt>
      <trkpt lat="45.1154" lon="2.95096">
        <ele>996.74</ele>
        <time>2021-07-23T16:39:49Z</time>
      </trkpt>
      <trkpt lat="45.11539" lon="2.9511">
        <ele>996.55</ele>
        <time>2021-07-23T16:39:52Z</time>
      </trkpt>
      <trkpt lat="45.11543" lon="2.95125">
        <ele>999.07</ele>
        <time>2021-07-23T16:39:56Z</time>
      </trkpt>
      <trkpt lat="45.11544" lon="2.9514">
        <ele>1000.34</ele>
        <time>2021-07-23T16:40:00Z</time>
      </trkpt>
      <trkpt lat="45.11544" lon="2.95155">
        <ele>998.65</ele>
        <time>2021-07-23T16:40:04Z</time>
      </trkpt>
      <trkpt lat="45.11547" lon="2.95172">
        <ele>997.87</ele>
        <time>2021-07-23T16:40:08Z</time>
      </trkpt>
      <trkpt lat="45.11553" lon="2.95185">
        <ele>997.49</ele>
        <time>2021-07-23T16:40:11Z</time>
      </trkpt>
      <trkpt lat="45.11559" lon="2.95197">
        <ele>996.43</ele>
        <time>2021-07-23T16:40:14Z</time>
      </trkpt>
      <trkpt lat="45.11565" lon="2.95211">
        <ele>995.15</ele>
        <time>2021-07-23T16:40:17Z</time>
      </trkpt>
      <trkpt lat="45.11571" lon="2.95226">
        <ele>994.94</ele>
        <time>2021-07-23T16:40:20Z</time>
      </trkpt>
      <trkpt lat="45.11571" lon="2.95242">
        <ele>994.98</ele>
        <time>2021-07-23T16:40:22Z</time>
      </trkpt>
      <trkpt lat="45.11569" lon="2.95256">
        <ele>993.82</ele>
        <time>2021-07-23T16:40:24Z</time>
      </trkpt>
      <trkpt lat="45.11567" lon="2.9527">
        <ele>995.05</ele>
        <time>2021-07-23T16:40:26Z</time>
      </trkpt>
      <trkpt lat="45.11571" lon="2.95288">
        <ele>995.03</ele>
        <time>2021-07-23T16:40:29Z</time>
      </trkpt>
      <trkpt lat="45.11575" lon="2.95299">
        <ele>994.55</ele>
        <time>2021-07-23T16:40:32Z</time>
      </trkpt>
      <trkpt lat="45.11583" lon="2.95304">
        <ele>993.58</ele>
        <time>2021-07-23T16:40:35Z</time>
      </trkpt>
      <trkpt lat="45.11596" lon="2.95304">
        <ele>991.78</ele>
        <time>2021-07-23T16:40:38Z</time>
      </trkpt>
      <trkpt lat="45.11607" lon="2.95303">
        <ele>991.18</ele>
        <time>2021-07-23T16:40:41Z</time>
      </trkpt>
      <trkpt lat="45.11617" lon="2.95298">
        <ele>992.42</ele>
        <time>2021-07-23T16:40:44Z</time>
      </trkpt>
      <trkpt lat="45.11625" lon="2.9529">
        <ele>990.29</ele>
        <time>2021-07-23T16:40:47Z</time>
      </trkpt>
      <trkpt lat="45.11633" lon="2.95281">
        <ele>989.01</ele>
        <time>2021-07-23T16:40:50Z</time>
      </trkpt>
      <trkpt lat="45.11642" lon="2.95272">
        <ele>989.42</ele>
        <time>2021-07-23T16:40:53Z</time>
      </trkpt>
      <trkpt lat="45.11651" lon="2.95264">
        <ele>988.78</ele>
        <time>2021-07-23T16:40:56Z</time>
      </trkpt>
      <trkpt lat="45.11661" lon="2.95254">
        <ele>988.63</ele>
        <time>2021-07-23T16:40:59Z</time>
      </trkpt>
      <trkpt lat="45.11671" lon="2.95245">
        <ele>988.31</ele>
        <time>2021-07-23T16:41:02Z</time>
      </trkpt>
      <trkpt lat="45.11682" lon="2.95236">
        <ele>987.1</ele>
        <time>2021-07-23T16:41:05Z</time>
      </trkpt>
      <trkpt lat="45.11691" lon="2.95232">
        <ele>986.39</ele>
        <time>2021-07-23T16:41:07Z</time>
      </trkpt>
      <trkpt lat="45.11703" lon="2.95226">
        <ele>985.24</ele>
        <time>2021-07-23T16:41:09Z</time>
      </trkpt>
      <trkpt lat="45.11713" lon="2.95221">
        <ele>984.08</ele>
        <time>2021-07-23T16:41:11Z</time>
      </trkpt>
      <trkpt lat="45.11725" lon="2.95213">
        <ele>983.23</ele>
        <time>2021-07-23T16:41:13Z</time>
      </trkpt>
      <trkpt lat="45.11738" lon="2.95205">
        <ele>981.61</ele>
        <time>2021-07-23T16:41:15Z</time>
      </trkpt>
      <trkpt lat="45.11746" lon="2.95198">
        <ele>980.62</ele>
        <time>2021-07-23T16:41:16Z</time>
      </trkpt>
      <trkpt lat="45.11757" lon="2.95178">
        <ele>980.08</ele>
        <time>2021-07-23T16:41:18Z</time>
      </trkpt>
      <trkpt lat="45.11762" lon="2.95166">
        <ele>979.93</ele>
        <time>2021-07-23T16:41:19Z</time>
      </trkpt>
      <trkpt lat="45.11766" lon="2.95155">
        <ele>979.75</ele>
        <time>2021-07-23T16:41:20Z</time>
      </trkpt>
      <trkpt lat="45.11771" lon="2.95143">
        <ele>980.05</ele>
        <time>2021-07-23T16:41:21Z</time>
      </trkpt>
      <trkpt lat="45.11776" lon="2.95131">
        <ele>980.06</ele>
        <time>2021-07-23T16:41:22Z</time>
      </trkpt>
      <trkpt lat="45.1178" lon="2.95119">
        <ele>979.87</ele>
        <time>2021-07-23T16:41:23Z</time>
      </trkpt>
      <trkpt lat="45.11783" lon="2.95107">
        <ele>978.39</ele>
        <time>2021-07-23T16:41:24Z</time>
      </trkpt>
      <trkpt lat="45.11787" lon="2.95094">
        <ele>976.8</ele>
        <time>2021-07-23T16:41:25Z</time>
      </trkpt>
      <trkpt lat="45.11793" lon="2.95082">
        <ele>976.43</ele>
        <time>2021-07-23T16:41:26Z</time>
      </trkpt>
      <trkpt lat="45.11797" lon="2.9507">
        <ele>976.24</ele>
        <time>2021-07-23T16:41:27Z</time>
      </trkpt>
      <trkpt lat="45.11802" lon="2.95059">
        <ele>975.83</ele>
        <time>2021-07-23T16:41:28Z</time>
      </trkpt>
      <trkpt lat="45.1181" lon="2.95037">
        <ele>975.94</ele>
        <time>2021-07-23T16:41:30Z</time>
      </trkpt>
      <trkpt lat="45.11809" lon="2.95013">
        <ele>973.49</ele>
        <time>2021-07-23T16:41:32Z</time>
      </trkpt>
      <trkpt lat="45.11808" lon="2.94999">
        <ele>972.58</ele>
        <time>2021-07-23T16:41:33Z</time>
      </trkpt>
      <trkpt lat="45.11807" lon="2.94985">
        <ele>970.16</ele>
        <time>2021-07-23T16:41:34Z</time>
      </trkpt>
      <trkpt lat="45.11806" lon="2.94971">
        <ele>969.23</ele>
        <time>2021-07-23T16:41:35Z</time>
      </trkpt>
      <trkpt lat="45.11806" lon="2.94957">
        <ele>967.52</ele>
        <time>2021-07-23T16:41:36Z</time>
      </trkpt>
      <trkpt lat="45.11807" lon="2.94942">
        <ele>966.52</ele>
        <time>2021-07-23T16:41:37Z</time>
      </trkpt>
      <trkpt lat="45.11808" lon="2.94927">
        <ele>965.44</ele>
        <time>2021-07-23T16:41:38Z</time>
      </trkpt>
      <trkpt lat="45.11812" lon="2.94913">
        <ele>965.05</ele>
        <time>2021-07-23T16:41:39Z</time>
      </trkpt>
      <trkpt lat="45.11814" lon="2.94898">
        <ele>964.88</ele>
        <time>2021-07-23T16:41:40Z</time>
      </trkpt>
      <trkpt lat="45.11815" lon="2.94885">
        <ele>964.88</ele>
        <time>2021-07-23T16:41:41Z</time>
      </trkpt>
      <trkpt lat="45.11816" lon="2.94869">
        <ele>965.02</ele>
        <time>2021-07-23T16:41:42Z</time>
      </trkpt>
      <trkpt lat="45.11818" lon="2.94853">
        <ele>964.87</ele>
        <time>2021-07-23T16:41:43Z</time>
      </trkpt>
      <trkpt lat="45.11819" lon="2.94837">
        <ele>965.19</ele>
        <time>2021-07-23T16:41:44Z</time>
      </trkpt>
      <trkpt lat="45.1182" lon="2.94819">
        <ele>965.89</ele>
        <time>2021-07-23T16:41:45Z</time>
      </trkpt>
      <trkpt lat="45.1182" lon="2.94804">
        <ele>966.12</ele>
        <time>2021-07-23T16:41:46Z</time>
      </trkpt>
      <trkpt lat="45.11821" lon="2.94786">
        <ele>966.69</ele>
        <time>2021-07-23T16:41:47Z</time>
      </trkpt>
      <trkpt lat="45.11818" lon="2.94771">
        <ele>967.01</ele>
        <time>2021-07-23T16:41:48Z</time>
      </trkpt>
      <trkpt lat="45.11822" lon="2.94752">
        <ele>966.88</ele>
        <time>2021-07-23T16:41:49Z</time>
      </trkpt>
      <trkpt lat="45.11822" lon="2.94736">
        <ele>965.72</ele>
        <time>2021-07-23T16:41:50Z</time>
      </trkpt>
      <trkpt lat="45.11823" lon="2.9472">
        <ele>965.29</ele>
        <time>2021-07-23T16:41:51Z</time>
      </trkpt>
      <trkpt lat="45.11822" lon="2.94698">
        <ele>964.79</ele>
        <time>2021-07-23T16:41:53Z</time>
      </trkpt>
      <trkpt lat="45.11826" lon="2.94687">
        <ele>963.55</ele>
        <time>2021-07-23T16:41:55Z</time>
      </trkpt>
      <trkpt lat="45.11834" lon="2.94694">
        <ele>961.5</ele>
        <time>2021-07-23T16:41:57Z</time>
      </trkpt>
      <trkpt lat="45.11834" lon="2.94709">
        <ele>961.2</ele>
        <time>2021-07-23T16:41:59Z</time>
      </trkpt>
      <trkpt lat="45.11833" lon="2.94729">
        <ele>959.18</ele>
        <time>2021-07-23T16:42:01Z</time>
      </trkpt>
      <trkpt lat="45.11835" lon="2.94749">
        <ele>957.58</ele>
        <time>2021-07-23T16:42:03Z</time>
      </trkpt>
      <trkpt lat="45.11838" lon="2.94772">
        <ele>955.11</ele>
        <time>2021-07-23T16:42:05Z</time>
      </trkpt>
      <trkpt lat="45.11843" lon="2.94796">
        <ele>954.12</ele>
        <time>2021-07-23T16:42:07Z</time>
      </trkpt>
      <trkpt lat="45.11846" lon="2.94809">
        <ele>953.66</ele>
        <time>2021-07-23T16:42:08Z</time>
      </trkpt>
      <trkpt lat="45.11848" lon="2.94822">
        <ele>953.08</ele>
        <time>2021-07-23T16:42:09Z</time>
      </trkpt>
      <trkpt lat="45.11851" lon="2.94835">
        <ele>952.79</ele>
        <time>2021-07-23T16:42:10Z</time>
      </trkpt>
      <trkpt lat="45.11853" lon="2.94847">
        <ele>953.55</ele>
        <time>2021-07-23T16:42:11Z</time>
      </trkpt>
      <trkpt lat="45.11855" lon="2.94862">
        <ele>954.81</ele>
        <time>2021-07-23T16:42:12Z</time>
      </trkpt>
      <trkpt lat="45.11861" lon="2.94874">
        <ele>954.46</ele>
        <time>2021-07-23T16:42:13Z</time>
      </trkpt>
      <trkpt lat="45.11865" lon="2.94888">
        <ele>954.05</ele>
        <time>2021-07-23T16:42:14Z</time>
      </trkpt>
      <trkpt lat="45.11869" lon="2.94903">
        <ele>954.23</ele>
        <time>2021-07-23T16:42:15Z</time>
      </trkpt>
      <trkpt lat="45.11872" lon="2.94917">
        <ele>954.11</ele>
        <time>2021-07-23T16:42:16Z</time>
      </trkpt>
      <trkpt lat="45.11881" lon="2.94929">
        <ele>952.75</ele>
        <time>2021-07-23T16:42:17Z</time>
      </trkpt>
      <trkpt lat="45.11882" lon="2.94946">
        <ele>951.48</ele>
        <time>2021-07-23T16:42:18Z</time>
      </trkpt>
      <trkpt lat="45.11883" lon="2.94963">
        <ele>950.39</ele>
        <time>2021-07-23T16:42:19Z</time>
      </trkpt>
      <trkpt lat="45.11885" lon="2.94979">
        <ele>949.63</ele>
        <time>2021-07-23T16:42:20Z</time>
      </trkpt>
      <trkpt lat="45.11884" lon="2.94997">
        <ele>949.09</ele>
        <time>2021-07-23T16:42:21Z</time>
      </trkpt>
      <trkpt lat="45.11884" lon="2.95012">
        <ele>948.73</ele>
        <time>2021-07-23T16:42:22Z</time>
      </trkpt>
      <trkpt lat="45.11883" lon="2.95029">
        <ele>948.28</ele>
        <time>2021-07-23T16:42:23Z</time>
      </trkpt>
      <trkpt lat="45.11879" lon="2.95045">
        <ele>948.14</ele>
        <time>2021-07-23T16:42:24Z</time>
      </trkpt>
      <trkpt lat="45.11879" lon="2.95061">
        <ele>947.62</ele>
        <time>2021-07-23T16:42:25Z</time>
      </trkpt>
      <trkpt lat="45.11878" lon="2.95078">
        <ele>946.99</ele>
        <time>2021-07-23T16:42:26Z</time>
      </trkpt>
      <trkpt lat="45.1188" lon="2.95097">
        <ele>946.63</ele>
        <time>2021-07-23T16:42:27Z</time>
      </trkpt>
      <trkpt lat="45.11882" lon="2.95116">
        <ele>946.38</ele>
        <time>2021-07-23T16:42:28Z</time>
      </trkpt>
      <trkpt lat="45.11885" lon="2.95134">
        <ele>946.32</ele>
        <time>2021-07-23T16:42:29Z</time>
      </trkpt>
      <trkpt lat="45.11886" lon="2.95154">
        <ele>946.17</ele>
        <time>2021-07-23T16:42:30Z</time>
      </trkpt>
      <trkpt lat="45.11887" lon="2.95171">
        <ele>944.86</ele>
        <time>2021-07-23T16:42:31Z</time>
      </trkpt>
      <trkpt lat="45.11887" lon="2.95188">
        <ele>944.13</ele>
        <time>2021-07-23T16:42:32Z</time>
      </trkpt>
      <trkpt lat="45.11888" lon="2.95204">
        <ele>943.3</ele>
        <time>2021-07-23T16:42:33Z</time>
      </trkpt>
      <trkpt lat="45.11891" lon="2.95219">
        <ele>942.56</ele>
        <time>2021-07-23T16:42:34Z</time>
      </trkpt>
      <trkpt lat="45.11896" lon="2.95233">
        <ele>941.36</ele>
        <time>2021-07-23T16:42:35Z</time>
      </trkpt>
      <trkpt lat="45.119" lon="2.95248">
        <ele>939.22</ele>
        <time>2021-07-23T16:42:36Z</time>
      </trkpt>
      <trkpt lat="45.11906" lon="2.95262">
        <ele>937.11</ele>
        <time>2021-07-23T16:42:37Z</time>
      </trkpt>
      <trkpt lat="45.11915" lon="2.95277">
        <ele>935.41</ele>
        <time>2021-07-23T16:42:38Z</time>
      </trkpt>
      <trkpt lat="45.11922" lon="2.95292">
        <ele>933.41</ele>
        <time>2021-07-23T16:42:39Z</time>
      </trkpt>
      <trkpt lat="45.11929" lon="2.95308">
        <ele>932.88</ele>
        <time>2021-07-23T16:42:40Z</time>
      </trkpt>
      <trkpt lat="45.11934" lon="2.95325">
        <ele>930</ele>
        <time>2021-07-23T16:42:41Z</time>
      </trkpt>
      <trkpt lat="45.11941" lon="2.95341">
        <ele>929.62</ele>
        <time>2021-07-23T16:42:42Z</time>
      </trkpt>
      <trkpt lat="45.11948" lon="2.95355">
        <ele>928.31</ele>
        <time>2021-07-23T16:42:43Z</time>
      </trkpt>
      <trkpt lat="45.11956" lon="2.95369">
        <ele>925.31</ele>
        <time>2021-07-23T16:42:44Z</time>
      </trkpt>
      <trkpt lat="45.11963" lon="2.95384">
        <ele>922.79</ele>
        <time>2021-07-23T16:42:45Z</time>
      </trkpt>
      <trkpt lat="45.11968" lon="2.95402">
        <ele>921.44</ele>
        <time>2021-07-23T16:42:46Z</time>
      </trkpt>
      <trkpt lat="45.1197" lon="2.95421">
        <ele>919.72</ele>
        <time>2021-07-23T16:42:47Z</time>
      </trkpt>
      <trkpt lat="45.11972" lon="2.95439">
        <ele>918.66</ele>
        <time>2021-07-23T16:42:48Z</time>
      </trkpt>
      <trkpt lat="45.11974" lon="2.95457">
        <ele>918.48</ele>
        <time>2021-07-23T16:42:49Z</time>
      </trkpt>
      <trkpt lat="45.11974" lon="2.95477">
        <ele>917.94</ele>
        <time>2021-07-23T16:42:50Z</time>
      </trkpt>
      <trkpt lat="45.11974" lon="2.95496">
        <ele>916.43</ele>
        <time>2021-07-23T16:42:51Z</time>
      </trkpt>
      <trkpt lat="45.11972" lon="2.95516">
        <ele>915.52</ele>
        <time>2021-07-23T16:42:52Z</time>
      </trkpt>
      <trkpt lat="45.11967" lon="2.95534">
        <ele>914.8</ele>
        <time>2021-07-23T16:42:53Z</time>
      </trkpt>
      <trkpt lat="45.11967" lon="2.95554">
        <ele>914.03</ele>
        <time>2021-07-23T16:42:54Z</time>
      </trkpt>
      <trkpt lat="45.11967" lon="2.95572">
        <ele>914.13</ele>
        <time>2021-07-23T16:42:55Z</time>
      </trkpt>
      <trkpt lat="45.11965" lon="2.95592">
        <ele>911.67</ele>
        <time>2021-07-23T16:42:56Z</time>
      </trkpt>
      <trkpt lat="45.11963" lon="2.95613">
        <ele>910.04</ele>
        <time>2021-07-23T16:42:57Z</time>
      </trkpt>
      <trkpt lat="45.11962" lon="2.95632">
        <ele>909.29</ele>
        <time>2021-07-23T16:42:58Z</time>
      </trkpt>
      <trkpt lat="45.11961" lon="2.95651">
        <ele>908.73</ele>
        <time>2021-07-23T16:42:59Z</time>
      </trkpt>
      <trkpt lat="45.11962" lon="2.95669">
        <ele>906.66</ele>
        <time>2021-07-23T16:43:00Z</time>
      </trkpt>
      <trkpt lat="45.11962" lon="2.95688">
        <ele>904.41</ele>
        <time>2021-07-23T16:43:01Z</time>
      </trkpt>
      <trkpt lat="45.11965" lon="2.95705">
        <ele>902.16</ele>
        <time>2021-07-23T16:43:02Z</time>
      </trkpt>
      <trkpt lat="45.11967" lon="2.95724">
        <ele>900.92</ele>
        <time>2021-07-23T16:43:03Z</time>
      </trkpt>
      <trkpt lat="45.11968" lon="2.95742">
        <ele>900.52</ele>
        <time>2021-07-23T16:43:04Z</time>
      </trkpt>
      <trkpt lat="45.1197" lon="2.95762">
        <ele>900.21</ele>
        <time>2021-07-23T16:43:05Z</time>
      </trkpt>
      <trkpt lat="45.1197" lon="2.95781">
        <ele>899.23</ele>
        <time>2021-07-23T16:43:06Z</time>
      </trkpt>
      <trkpt lat="45.11972" lon="2.958">
        <ele>898.62</ele>
        <time>2021-07-23T16:43:07Z</time>
      </trkpt>
      <trkpt lat="45.11975" lon="2.95816">
        <ele>897.65</ele>
        <time>2021-07-23T16:43:08Z</time>
      </trkpt>
      <trkpt lat="45.11975" lon="2.95832">
        <ele>897.47</ele>
        <time>2021-07-23T16:43:09Z</time>
      </trkpt>
      <trkpt lat="45.11976" lon="2.95846">
        <ele>897.79</ele>
        <time>2021-07-23T16:43:10Z</time>
      </trkpt>
      <trkpt lat="45.11975" lon="2.95861">
        <ele>896.48</ele>
        <time>2021-07-23T16:43:11Z</time>
      </trkpt>
      <trkpt lat="45.11975" lon="2.95874">
        <ele>895.4</ele>
        <time>2021-07-23T16:43:12Z</time>
      </trkpt>
      <trkpt lat="45.11979" lon="2.95896">
        <ele>895.72</ele>
        <time>2021-07-23T16:43:14Z</time>
      </trkpt>
      <trkpt lat="45.1198" lon="2.95916">
        <ele>894.07</ele>
        <time>2021-07-23T16:43:16Z</time>
      </trkpt>
      <trkpt lat="45.11983" lon="2.95938">
        <ele>893.24</ele>
        <time>2021-07-23T16:43:18Z</time>
      </trkpt>
      <trkpt lat="45.11985" lon="2.95959">
        <ele>892.15</ele>
        <time>2021-07-23T16:43:20Z</time>
      </trkpt>
      <trkpt lat="45.11987" lon="2.9598">
        <ele>890.69</ele>
        <time>2021-07-23T16:43:22Z</time>
      </trkpt>
      <trkpt lat="45.11989" lon="2.96001">
        <ele>889.18</ele>
        <time>2021-07-23T16:43:24Z</time>
      </trkpt>
      <trkpt lat="45.11991" lon="2.96025">
        <ele>888.87</ele>
        <time>2021-07-23T16:43:26Z</time>
      </trkpt>
      <trkpt lat="45.11994" lon="2.96048">
        <ele>887.48</ele>
        <time>2021-07-23T16:43:28Z</time>
      </trkpt>
      <trkpt lat="45.12003" lon="2.96066">
        <ele>885.09</ele>
        <time>2021-07-23T16:43:30Z</time>
      </trkpt>
      <trkpt lat="45.12012" lon="2.96086">
        <ele>882.02</ele>
        <time>2021-07-23T16:43:32Z</time>
      </trkpt>
      <trkpt lat="45.12019" lon="2.96095">
        <ele>881.59</ele>
        <time>2021-07-23T16:43:33Z</time>
      </trkpt>
      <trkpt lat="45.12031" lon="2.96113">
        <ele>881.72</ele>
        <time>2021-07-23T16:43:35Z</time>
      </trkpt>
      <trkpt lat="45.12039" lon="2.96121">
        <ele>882.33</ele>
        <time>2021-07-23T16:43:36Z</time>
      </trkpt>
      <trkpt lat="45.12046" lon="2.9613">
        <ele>882.06</ele>
        <time>2021-07-23T16:43:37Z</time>
      </trkpt>
      <trkpt lat="45.12055" lon="2.96137">
        <ele>881.9</ele>
        <time>2021-07-23T16:43:38Z</time>
      </trkpt>
      <trkpt lat="45.12064" lon="2.96144">
        <ele>881.62</ele>
        <time>2021-07-23T16:43:39Z</time>
      </trkpt>
      <trkpt lat="45.12073" lon="2.96152">
        <ele>880.24</ele>
        <time>2021-07-23T16:43:40Z</time>
      </trkpt>
      <trkpt lat="45.12081" lon="2.96161">
        <ele>879.07</ele>
        <time>2021-07-23T16:43:41Z</time>
      </trkpt>
      <trkpt lat="45.12089" lon="2.96169">
        <ele>877.79</ele>
        <time>2021-07-23T16:43:42Z</time>
      </trkpt>
      <trkpt lat="45.12096" lon="2.9618">
        <ele>875.73</ele>
        <time>2021-07-23T16:43:43Z</time>
      </trkpt>
      <trkpt lat="45.12102" lon="2.96192">
        <ele>874.42</ele>
        <time>2021-07-23T16:43:44Z</time>
      </trkpt>
      <trkpt lat="45.1211" lon="2.96216">
        <ele>872.37</ele>
        <time>2021-07-23T16:43:46Z</time>
      </trkpt>
      <trkpt lat="45.12113" lon="2.9623">
        <ele>871.83</ele>
        <time>2021-07-23T16:43:47Z</time>
      </trkpt>
      <trkpt lat="45.12117" lon="2.96255">
        <ele>870.91</ele>
        <time>2021-07-23T16:43:49Z</time>
      </trkpt>
      <trkpt lat="45.12121" lon="2.96269">
        <ele>870.3</ele>
        <time>2021-07-23T16:43:50Z</time>
      </trkpt>
      <trkpt lat="45.12131" lon="2.9629">
        <ele>871.03</ele>
        <time>2021-07-23T16:43:52Z</time>
      </trkpt>
      <trkpt lat="45.12138" lon="2.96299">
        <ele>872.05</ele>
        <time>2021-07-23T16:43:53Z</time>
      </trkpt>
      <trkpt lat="45.12145" lon="2.96308">
        <ele>872</ele>
        <time>2021-07-23T16:43:54Z</time>
      </trkpt>
      <trkpt lat="45.12153" lon="2.96316">
        <ele>871.86</ele>
        <time>2021-07-23T16:43:55Z</time>
      </trkpt>
      <trkpt lat="45.12162" lon="2.9632">
        <ele>870.45</ele>
        <time>2021-07-23T16:43:56Z</time>
      </trkpt>
      <trkpt lat="45.12178" lon="2.96328">
        <ele>869.04</ele>
        <time>2021-07-23T16:43:58Z</time>
      </trkpt>
      <trkpt lat="45.12195" lon="2.96333">
        <ele>867.21</ele>
        <time>2021-07-23T16:44:00Z</time>
      </trkpt>
      <trkpt lat="45.1221" lon="2.96338">
        <ele>865.1</ele>
        <time>2021-07-23T16:44:02Z</time>
      </trkpt>
      <trkpt lat="45.12226" lon="2.96342">
        <ele>864.25</ele>
        <time>2021-07-23T16:44:04Z</time>
      </trkpt>
      <trkpt lat="45.12241" lon="2.96355">
        <ele>862.84</ele>
        <time>2021-07-23T16:44:06Z</time>
      </trkpt>
      <trkpt lat="45.12254" lon="2.96373">
        <ele>863.18</ele>
        <time>2021-07-23T16:44:08Z</time>
      </trkpt>
      <trkpt lat="45.12266" lon="2.96393">
        <ele>861.15</ele>
        <time>2021-07-23T16:44:10Z</time>
      </trkpt>
      <trkpt lat="45.12272" lon="2.96404">
        <ele>860.41</ele>
        <time>2021-07-23T16:44:11Z</time>
      </trkpt>
      <trkpt lat="45.12278" lon="2.96414">
        <ele>859.96</ele>
        <time>2021-07-23T16:44:12Z</time>
      </trkpt>
      <trkpt lat="45.12285" lon="2.96427">
        <ele>859.82</ele>
        <time>2021-07-23T16:44:13Z</time>
      </trkpt>
      <trkpt lat="45.12291" lon="2.96438">
        <ele>858.86</ele>
        <time>2021-07-23T16:44:14Z</time>
      </trkpt>
      <trkpt lat="45.12297" lon="2.96454">
        <ele>857.51</ele>
        <time>2021-07-23T16:44:15Z</time>
      </trkpt>
      <trkpt lat="45.12302" lon="2.96467">
        <ele>856.67</ele>
        <time>2021-07-23T16:44:16Z</time>
      </trkpt>
      <trkpt lat="45.12305" lon="2.96481">
        <ele>855.92</ele>
        <time>2021-07-23T16:44:17Z</time>
      </trkpt>
      <trkpt lat="45.1231" lon="2.96494">
        <ele>856.03</ele>
        <time>2021-07-23T16:44:18Z</time>
      </trkpt>
      <trkpt lat="45.12314" lon="2.96508">
        <ele>855.64</ele>
        <time>2021-07-23T16:44:19Z</time>
      </trkpt>
      <trkpt lat="45.12317" lon="2.96522">
        <ele>855.54</ele>
        <time>2021-07-23T16:44:20Z</time>
      </trkpt>
      <trkpt lat="45.12321" lon="2.96537">
        <ele>854.83</ele>
        <time>2021-07-23T16:44:21Z</time>
      </trkpt>
      <trkpt lat="45.12325" lon="2.96551">
        <ele>854.75</ele>
        <time>2021-07-23T16:44:22Z</time>
      </trkpt>
      <trkpt lat="45.12328" lon="2.96565">
        <ele>854.04</ele>
        <time>2021-07-23T16:44:23Z</time>
      </trkpt>
      <trkpt lat="45.12331" lon="2.9658">
        <ele>852.92</ele>
        <time>2021-07-23T16:44:24Z</time>
      </trkpt>
      <trkpt lat="45.12334" lon="2.96594">
        <ele>852.46</ele>
        <time>2021-07-23T16:44:25Z</time>
      </trkpt>
      <trkpt lat="45.12337" lon="2.96608">
        <ele>851.91</ele>
        <time>2021-07-23T16:44:26Z</time>
      </trkpt>
      <trkpt lat="45.1234" lon="2.96622">
        <ele>851.34</ele>
        <time>2021-07-23T16:44:27Z</time>
      </trkpt>
      <trkpt lat="45.12343" lon="2.96637">
        <ele>850.96</ele>
        <time>2021-07-23T16:44:28Z</time>
      </trkpt>
      <trkpt lat="45.12349" lon="2.9665">
        <ele>851.28</ele>
        <time>2021-07-23T16:44:29Z</time>
      </trkpt>
      <trkpt lat="45.12356" lon="2.96664">
        <ele>848.83</ele>
        <time>2021-07-23T16:44:30Z</time>
      </trkpt>
      <trkpt lat="45.12361" lon="2.96678">
        <ele>847.69</ele>
        <time>2021-07-23T16:44:31Z</time>
      </trkpt>
      <trkpt lat="45.12369" lon="2.96692">
        <ele>844.04</ele>
        <time>2021-07-23T16:44:32Z</time>
      </trkpt>
      <trkpt lat="45.12376" lon="2.96705">
        <ele>842.68</ele>
        <time>2021-07-23T16:44:33Z</time>
      </trkpt>
      <trkpt lat="45.12379" lon="2.96719">
        <ele>840.88</ele>
        <time>2021-07-23T16:44:34Z</time>
      </trkpt>
      <trkpt lat="45.12385" lon="2.96732">
        <ele>840.17</ele>
        <time>2021-07-23T16:44:35Z</time>
      </trkpt>
      <trkpt lat="45.12392" lon="2.96745">
        <ele>839.6</ele>
        <time>2021-07-23T16:44:36Z</time>
      </trkpt>
      <trkpt lat="45.12399" lon="2.96758">
        <ele>838.83</ele>
        <time>2021-07-23T16:44:37Z</time>
      </trkpt>
      <trkpt lat="45.12406" lon="2.9677">
        <ele>838.52</ele>
        <time>2021-07-23T16:44:38Z</time>
      </trkpt>
      <trkpt lat="45.12414" lon="2.96779">
        <ele>838.74</ele>
        <time>2021-07-23T16:44:39Z</time>
      </trkpt>
      <trkpt lat="45.12422" lon="2.9679">
        <ele>838.38</ele>
        <time>2021-07-23T16:44:40Z</time>
      </trkpt>
      <trkpt lat="45.12431" lon="2.96799">
        <ele>838.15</ele>
        <time>2021-07-23T16:44:41Z</time>
      </trkpt>
      <trkpt lat="45.12439" lon="2.96809">
        <ele>838.41</ele>
        <time>2021-07-23T16:44:42Z</time>
      </trkpt>
      <trkpt lat="45.12446" lon="2.96818">
        <ele>837.44</ele>
        <time>2021-07-23T16:44:43Z</time>
      </trkpt>
      <trkpt lat="45.12458" lon="2.9684">
        <ele>832.44</ele>
        <time>2021-07-23T16:44:45Z</time>
      </trkpt>
      <trkpt lat="45.12464" lon="2.96852">
        <ele>831.45</ele>
        <time>2021-07-23T16:44:46Z</time>
      </trkpt>
      <trkpt lat="45.12468" lon="2.96864">
        <ele>830.72</ele>
        <time>2021-07-23T16:44:47Z</time>
      </trkpt>
      <trkpt lat="45.12474" lon="2.96875">
        <ele>829.79</ele>
        <time>2021-07-23T16:44:48Z</time>
      </trkpt>
      <trkpt lat="45.12481" lon="2.96899">
        <ele>829.09</ele>
        <time>2021-07-23T16:44:50Z</time>
      </trkpt>
      <trkpt lat="45.12484" lon="2.96911">
        <ele>828.95</ele>
        <time>2021-07-23T16:44:51Z</time>
      </trkpt>
      <trkpt lat="45.12485" lon="2.96924">
        <ele>828.81</ele>
        <time>2021-07-23T16:44:52Z</time>
      </trkpt>
      <trkpt lat="45.12484" lon="2.96939">
        <ele>828.56</ele>
        <time>2021-07-23T16:44:53Z</time>
      </trkpt>
      <trkpt lat="45.12483" lon="2.96952">
        <ele>828.88</ele>
        <time>2021-07-23T16:44:54Z</time>
      </trkpt>
      <trkpt lat="45.12482" lon="2.96966">
        <ele>828.97</ele>
        <time>2021-07-23T16:44:55Z</time>
      </trkpt>
      <trkpt lat="45.12481" lon="2.96979">
        <ele>829.25</ele>
        <time>2021-07-23T16:44:56Z</time>
      </trkpt>
      <trkpt lat="45.1248" lon="2.96994">
        <ele>829.25</ele>
        <time>2021-07-23T16:44:57Z</time>
      </trkpt>
      <trkpt lat="45.12479" lon="2.97009">
        <ele>828.86</ele>
        <time>2021-07-23T16:44:58Z</time>
      </trkpt>
      <trkpt lat="45.12479" lon="2.97024">
        <ele>828.56</ele>
        <time>2021-07-23T16:44:59Z</time>
      </trkpt>
      <trkpt lat="45.12478" lon="2.97038">
        <ele>828.37</ele>
        <time>2021-07-23T16:45:00Z</time>
      </trkpt>
      <trkpt lat="45.12476" lon="2.97052">
        <ele>828.31</ele>
        <time>2021-07-23T16:45:01Z</time>
      </trkpt>
      <trkpt lat="45.12474" lon="2.97067">
        <ele>827.62</ele>
        <time>2021-07-23T16:45:02Z</time>
      </trkpt>
      <trkpt lat="45.12473" lon="2.97082">
        <ele>827.37</ele>
        <time>2021-07-23T16:45:03Z</time>
      </trkpt>
      <trkpt lat="45.12472" lon="2.97098">
        <ele>827.47</ele>
        <time>2021-07-23T16:45:04Z</time>
      </trkpt>
      <trkpt lat="45.12472" lon="2.97114">
        <ele>827.62</ele>
        <time>2021-07-23T16:45:05Z</time>
      </trkpt>
      <trkpt lat="45.12471" lon="2.97129">
        <ele>827.57</ele>
        <time>2021-07-23T16:45:06Z</time>
      </trkpt>
      <trkpt lat="45.12469" lon="2.97144">
        <ele>828.71</ele>
        <time>2021-07-23T16:45:07Z</time>
      </trkpt>
      <trkpt lat="45.12471" lon="2.97159">
        <ele>829.1</ele>
        <time>2021-07-23T16:45:08Z</time>
      </trkpt>
      <trkpt lat="45.12472" lon="2.97174">
        <ele>829.8</ele>
        <time>2021-07-23T16:45:09Z</time>
      </trkpt>
      <trkpt lat="45.12474" lon="2.97189">
        <ele>829.46</ele>
        <time>2021-07-23T16:45:10Z</time>
      </trkpt>
      <trkpt lat="45.12476" lon="2.97203">
        <ele>828.02</ele>
        <time>2021-07-23T16:45:11Z</time>
      </trkpt>
      <trkpt lat="45.12479" lon="2.97217">
        <ele>827.67</ele>
        <time>2021-07-23T16:45:12Z</time>
      </trkpt>
      <trkpt lat="45.12482" lon="2.97231">
        <ele>827.63</ele>
        <time>2021-07-23T16:45:13Z</time>
      </trkpt>
      <trkpt lat="45.12483" lon="2.97245">
        <ele>827.04</ele>
        <time>2021-07-23T16:45:14Z</time>
      </trkpt>
      <trkpt lat="45.12486" lon="2.9726">
        <ele>826.49</ele>
        <time>2021-07-23T16:45:15Z</time>
      </trkpt>
      <trkpt lat="45.12487" lon="2.97275">
        <ele>826.1</ele>
        <time>2021-07-23T16:45:16Z</time>
      </trkpt>
      <trkpt lat="45.12489" lon="2.973">
        <ele>826.16</ele>
        <time>2021-07-23T16:45:18Z</time>
      </trkpt>
      <trkpt lat="45.1249" lon="2.97313">
        <ele>825.21</ele>
        <time>2021-07-23T16:45:19Z</time>
      </trkpt>
      <trkpt lat="45.1249" lon="2.97336">
        <ele>822.44</ele>
        <time>2021-07-23T16:45:21Z</time>
      </trkpt>
      <trkpt lat="45.12494" lon="2.97357">
        <ele>821.67</ele>
        <time>2021-07-23T16:45:23Z</time>
      </trkpt>
      <trkpt lat="45.12494" lon="2.97374">
        <ele>821.93</ele>
        <time>2021-07-23T16:45:25Z</time>
      </trkpt>
      <trkpt lat="45.12494" lon="2.97387">
        <ele>821.46</ele>
        <time>2021-07-23T16:45:27Z</time>
      </trkpt>
      <trkpt lat="45.12494" lon="2.97403">
        <ele>823.95</ele>
        <time>2021-07-23T16:45:30Z</time>
      </trkpt>
      <trkpt lat="45.12492" lon="2.97417">
        <ele>824.66</ele>
        <time>2021-07-23T16:45:35Z</time>
      </trkpt>
      <trkpt lat="45.12485" lon="2.97425">
        <ele>823.48</ele>
        <time>2021-07-23T16:46:05Z</time>
      </trkpt>
      <trkpt lat="45.12482" lon="2.97441">
        <ele>818.06</ele>
        <time>2021-07-23T16:47:19Z</time>
      </trkpt>
      <trkpt lat="45.1248" lon="2.97459">
        <ele>819.83</ele>
        <time>2021-07-23T16:47:22Z</time>
      </trkpt>
      <trkpt lat="45.1248" lon="2.97474">
        <ele>819.92</ele>
        <time>2021-07-23T16:47:24Z</time>
      </trkpt>
      <trkpt lat="45.12477" lon="2.9749">
        <ele>819.27</ele>
        <time>2021-07-23T16:47:26Z</time>
      </trkpt>
      <trkpt lat="45.12474" lon="2.97509">
        <ele>818.4</ele>
        <time>2021-07-23T16:47:28Z</time>
      </trkpt>
      <trkpt lat="45.12476" lon="2.97523">
        <ele>818.84</ele>
        <time>2021-07-23T16:47:30Z</time>
      </trkpt>
      <trkpt lat="45.12476" lon="2.9754">
        <ele>817.32</ele>
        <time>2021-07-23T16:47:32Z</time>
      </trkpt>
      <trkpt lat="45.12477" lon="2.97554">
        <ele>816.5</ele>
        <time>2021-07-23T16:47:34Z</time>
      </trkpt>
      <trkpt lat="45.12478" lon="2.9757">
        <ele>814.96</ele>
        <time>2021-07-23T16:47:37Z</time>
      </trkpt>
      <trkpt lat="45.1248" lon="2.97585">
        <ele>813.78</ele>
        <time>2021-07-23T16:47:40Z</time>
      </trkpt>
      <trkpt lat="45.12481" lon="2.97598">
        <ele>812.81</ele>
        <time>2021-07-23T16:47:43Z</time>
      </trkpt>
      <trkpt lat="45.12483" lon="2.97611">
        <ele>812.31</ele>
        <time>2021-07-23T16:47:47Z</time>
      </trkpt>
      <trkpt lat="45.12482" lon="2.97628">
        <ele>812.95</ele>
        <time>2021-07-23T16:47:51Z</time>
      </trkpt>
      <trkpt lat="45.12482" lon="2.97641">
        <ele>811.78</ele>
        <time>2021-07-23T16:47:55Z</time>
      </trkpt>
      <trkpt lat="45.12491" lon="2.9764">
        <ele>810.26</ele>
        <time>2021-07-23T16:48:32Z</time>
      </trkpt>
      <trkpt lat="45.12492" lon="2.97626">
        <ele>809.41</ele>
        <time>2021-07-23T16:48:36Z</time>
      </trkpt>
      <trkpt lat="45.12492" lon="2.97613">
        <ele>807.67</ele>
        <time>2021-07-23T16:48:39Z</time>
      </trkpt>
      <trkpt lat="45.12491" lon="2.97598">
        <ele>806.97</ele>
        <time>2021-07-23T16:48:42Z</time>
      </trkpt>
      <trkpt lat="45.12489" lon="2.97583">
        <ele>805.78</ele>
        <time>2021-07-23T16:48:45Z</time>
      </trkpt>
      <trkpt lat="45.12489" lon="2.97568">
        <ele>804.35</ele>
        <time>2021-07-23T16:48:47Z</time>
      </trkpt>
      <trkpt lat="45.12488" lon="2.97551">
        <ele>803.06</ele>
        <time>2021-07-23T16:48:49Z</time>
      </trkpt>
      <trkpt lat="45.12491" lon="2.97535">
        <ele>801.45</ele>
        <time>2021-07-23T16:48:51Z</time>
      </trkpt>
      <trkpt lat="45.12499" lon="2.97521">
        <ele>800.8</ele>
        <time>2021-07-23T16:48:53Z</time>
      </trkpt>
      <trkpt lat="45.12509" lon="2.97515">
        <ele>800.4</ele>
        <time>2021-07-23T16:48:55Z</time>
      </trkpt>
      <trkpt lat="45.12521" lon="2.97511">
        <ele>799.43</ele>
        <time>2021-07-23T16:48:58Z</time>
      </trkpt>
      <trkpt lat="45.1253" lon="2.97505">
        <ele>800.23</ele>
        <time>2021-07-23T16:49:00Z</time>
      </trkpt>
      <trkpt lat="45.12539" lon="2.97502">
        <ele>800.48</ele>
        <time>2021-07-23T16:49:02Z</time>
      </trkpt>
      <trkpt lat="45.12548" lon="2.97498">
        <ele>801.86</ele>
        <time>2021-07-23T16:49:05Z</time>
      </trkpt>
      <trkpt lat="45.12556" lon="2.97491">
        <ele>803.67</ele>
        <time>2021-07-23T16:49:09Z</time>
      </trkpt>
    </trkseg>
  </trk>
</gpx>